<?xml version="1.0" encoding="UTF-8" standalone="no" ?>
<gpx xmlns="http://www.topografix.com/GPX/1/1" xmlns:xsi="http://www.w3.org/2001/XMLSchema-instance" xsi:schemaLocation="http://www.topografix.com/GPX/1/1 http://www.topografix.com/GPX/1/1/gpx.xsd" version="1.1" creator="VisuGPX - https://www.visugpx.com">
  <metadata>
    <name>Dimanche 5 avril 2026</name>
  </metadata>
  <trk>
    <name><![CDATA[Dimache 5 avril 2026]]></name>
    <extensions>
      <line xmlns="http://www.topografix.com/GPX/gpx_style/0/2">
        <width>7</width>
      </line>
    </extensions>
    <trkseg>
      <trkpt lat="43.38671" lon="-1.66331">
        <ele>4</ele>
        <time>2026-03-09T16:31:44.000Z</time>
      </trkpt>
      <trkpt lat="43.38671" lon="-1.6633">
        <ele>4</ele>
        <time>2026-03-09T16:31:44.000Z</time>
      </trkpt>
      <trkpt lat="43.38669" lon="-1.66328">
        <ele>4</ele>
        <time>2026-03-09T16:31:45.000Z</time>
      </trkpt>
      <trkpt lat="43.38669" lon="-1.66327">
        <ele>4</ele>
        <time>2026-03-09T16:31:45.000Z</time>
      </trkpt>
      <trkpt lat="43.38669" lon="-1.66326">
        <ele>4</ele>
        <time>2026-03-09T16:31:45.000Z</time>
      </trkpt>
      <trkpt lat="43.38668" lon="-1.66325">
        <ele>4</ele>
        <time>2026-03-09T16:31:45.000Z</time>
      </trkpt>
      <trkpt lat="43.38668" lon="-1.66324">
        <ele>1</ele>
        <time>2026-03-09T16:31:45.000Z</time>
      </trkpt>
      <trkpt lat="43.38668" lon="-1.66323">
        <ele>1</ele>
        <time>2026-03-09T16:31:45.000Z</time>
      </trkpt>
      <trkpt lat="43.38668" lon="-1.66322">
        <ele>1</ele>
        <time>2026-03-09T16:31:45.000Z</time>
      </trkpt>
      <trkpt lat="43.38668" lon="-1.66321">
        <ele>1</ele>
        <time>2026-03-09T16:31:46.000Z</time>
      </trkpt>
      <trkpt lat="43.38668" lon="-1.6632">
        <ele>1</ele>
        <time>2026-03-09T16:31:46.000Z</time>
      </trkpt>
      <trkpt lat="43.38668" lon="-1.66319">
        <ele>1</ele>
        <time>2026-03-09T16:31:46.000Z</time>
      </trkpt>
      <trkpt lat="43.38668" lon="-1.66318">
        <ele>1</ele>
        <time>2026-03-09T16:31:46.000Z</time>
      </trkpt>
      <trkpt lat="43.38668" lon="-1.66317">
        <ele>1</ele>
        <time>2026-03-09T16:31:46.000Z</time>
      </trkpt>
      <trkpt lat="43.38668" lon="-1.66316">
        <ele>1</ele>
        <time>2026-03-09T16:31:46.000Z</time>
      </trkpt>
      <trkpt lat="43.38668" lon="-1.66315">
        <ele>1</ele>
        <time>2026-03-09T16:31:46.000Z</time>
      </trkpt>
      <trkpt lat="43.38668" lon="-1.66314">
        <ele>1</ele>
        <time>2026-03-09T16:31:46.000Z</time>
      </trkpt>
      <trkpt lat="43.38669" lon="-1.66313">
        <ele>1</ele>
        <time>2026-03-09T16:31:47.000Z</time>
      </trkpt>
      <trkpt lat="43.38669" lon="-1.66312">
        <ele>1</ele>
        <time>2026-03-09T16:31:47.000Z</time>
      </trkpt>
      <trkpt lat="43.38669" lon="-1.66312">
        <ele>1</ele>
        <time>2026-03-09T16:31:47.000Z</time>
      </trkpt>
      <trkpt lat="43.38664" lon="-1.66311">
        <ele>1</ele>
        <time>2026-03-09T16:31:48.000Z</time>
      </trkpt>
      <trkpt lat="43.38657" lon="-1.66307">
        <ele>1</ele>
        <time>2026-03-09T16:31:49.000Z</time>
      </trkpt>
      <trkpt lat="43.38656" lon="-1.66307">
        <ele>1</ele>
        <time>2026-03-09T16:31:49.000Z</time>
      </trkpt>
      <trkpt lat="43.38656" lon="-1.66306">
        <ele>1</ele>
        <time>2026-03-09T16:31:49.000Z</time>
      </trkpt>
      <trkpt lat="43.38652" lon="-1.66295">
        <ele>2</ele>
        <time>2026-03-09T16:31:51.000Z</time>
      </trkpt>
      <trkpt lat="43.38641" lon="-1.66264">
        <ele>3</ele>
        <time>2026-03-09T16:31:55.000Z</time>
      </trkpt>
      <trkpt lat="43.38636" lon="-1.66239">
        <ele>4</ele>
        <time>2026-03-09T16:31:59.000Z</time>
      </trkpt>
      <trkpt lat="43.38636" lon="-1.66239">
        <ele>4</ele>
        <time>2026-03-09T16:31:59.000Z</time>
      </trkpt>
      <trkpt lat="43.38624" lon="-1.66231">
        <ele>4</ele>
        <time>2026-03-09T16:32:01.000Z</time>
      </trkpt>
      <trkpt lat="43.38621" lon="-1.66229">
        <ele>4</ele>
        <time>2026-03-09T16:32:02.000Z</time>
      </trkpt>
      <trkpt lat="43.38618" lon="-1.66227">
        <ele>4</ele>
        <time>2026-03-09T16:32:02.000Z</time>
      </trkpt>
      <trkpt lat="43.38615" lon="-1.66226">
        <ele>4</ele>
        <time>2026-03-09T16:32:03.000Z</time>
      </trkpt>
      <trkpt lat="43.38612" lon="-1.66225">
        <ele>4</ele>
        <time>2026-03-09T16:32:03.000Z</time>
      </trkpt>
      <trkpt lat="43.38608" lon="-1.66224">
        <ele>4</ele>
        <time>2026-03-09T16:32:04.000Z</time>
      </trkpt>
      <trkpt lat="43.38604" lon="-1.66224">
        <ele>4</ele>
        <time>2026-03-09T16:32:05.000Z</time>
      </trkpt>
      <trkpt lat="43.386" lon="-1.66224">
        <ele>4</ele>
        <time>2026-03-09T16:32:06.000Z</time>
      </trkpt>
      <trkpt lat="43.38597" lon="-1.66224">
        <ele>4</ele>
        <time>2026-03-09T16:32:06.000Z</time>
      </trkpt>
      <trkpt lat="43.38594" lon="-1.66224">
        <ele>4</ele>
        <time>2026-03-09T16:32:07.000Z</time>
      </trkpt>
      <trkpt lat="43.38589" lon="-1.66225">
        <ele>3</ele>
        <time>2026-03-09T16:32:08.000Z</time>
      </trkpt>
      <trkpt lat="43.38578" lon="-1.66226">
        <ele>3</ele>
        <time>2026-03-09T16:32:10.000Z</time>
      </trkpt>
      <trkpt lat="43.38578" lon="-1.66226">
        <ele>3</ele>
        <time>2026-03-09T16:32:10.000Z</time>
      </trkpt>
      <trkpt lat="43.38574" lon="-1.66231">
        <ele>3</ele>
        <time>2026-03-09T16:32:11.000Z</time>
      </trkpt>
      <trkpt lat="43.38572" lon="-1.66234">
        <ele>3</ele>
        <time>2026-03-09T16:32:11.000Z</time>
      </trkpt>
      <trkpt lat="43.3857" lon="-1.66237">
        <ele>3</ele>
        <time>2026-03-09T16:32:12.000Z</time>
      </trkpt>
      <trkpt lat="43.38568" lon="-1.6624">
        <ele>3</ele>
        <time>2026-03-09T16:32:12.000Z</time>
      </trkpt>
      <trkpt lat="43.38564" lon="-1.66246">
        <ele>3</ele>
        <time>2026-03-09T16:32:13.000Z</time>
      </trkpt>
      <trkpt lat="43.3856" lon="-1.66253">
        <ele>3</ele>
        <time>2026-03-09T16:32:14.000Z</time>
      </trkpt>
      <trkpt lat="43.38556" lon="-1.66259">
        <ele>3</ele>
        <time>2026-03-09T16:32:15.000Z</time>
      </trkpt>
      <trkpt lat="43.38554" lon="-1.66263">
        <ele>3</ele>
        <time>2026-03-09T16:32:16.000Z</time>
      </trkpt>
      <trkpt lat="43.38553" lon="-1.66264">
        <ele>3</ele>
        <time>2026-03-09T16:32:16.000Z</time>
      </trkpt>
      <trkpt lat="43.38551" lon="-1.66269">
        <ele>3</ele>
        <time>2026-03-09T16:32:17.000Z</time>
      </trkpt>
      <trkpt lat="43.38549" lon="-1.66275">
        <ele>3</ele>
        <time>2026-03-09T16:32:18.000Z</time>
      </trkpt>
      <trkpt lat="43.38524" lon="-1.66336">
        <ele>2</ele>
        <time>2026-03-09T16:32:27.000Z</time>
      </trkpt>
      <trkpt lat="43.38522" lon="-1.6634">
        <ele>2</ele>
        <time>2026-03-09T16:32:27.000Z</time>
      </trkpt>
      <trkpt lat="43.38515" lon="-1.66356">
        <ele>3</ele>
        <time>2026-03-09T16:32:30.000Z</time>
      </trkpt>
      <trkpt lat="43.3851" lon="-1.6637">
        <ele>3</ele>
        <time>2026-03-09T16:32:32.000Z</time>
      </trkpt>
      <trkpt lat="43.38507" lon="-1.66376">
        <ele>4</ele>
        <time>2026-03-09T16:32:33.000Z</time>
      </trkpt>
      <trkpt lat="43.38504" lon="-1.66385">
        <ele>4</ele>
        <time>2026-03-09T16:32:34.000Z</time>
      </trkpt>
      <trkpt lat="43.38504" lon="-1.66385">
        <ele>4</ele>
        <time>2026-03-09T16:32:34.000Z</time>
      </trkpt>
      <trkpt lat="43.38499" lon="-1.66408">
        <ele>5</ele>
        <time>2026-03-09T16:32:37.000Z</time>
      </trkpt>
      <trkpt lat="43.38498" lon="-1.66412">
        <ele>5</ele>
        <time>2026-03-09T16:32:38.000Z</time>
      </trkpt>
      <trkpt lat="43.38497" lon="-1.66415">
        <ele>5</ele>
        <time>2026-03-09T16:32:38.000Z</time>
      </trkpt>
      <trkpt lat="43.38489" lon="-1.66433">
        <ele>5</ele>
        <time>2026-03-09T16:32:41.000Z</time>
      </trkpt>
      <trkpt lat="43.38486" lon="-1.6644">
        <ele>5</ele>
        <time>2026-03-09T16:32:42.000Z</time>
      </trkpt>
      <trkpt lat="43.38474" lon="-1.66468">
        <ele>6</ele>
        <time>2026-03-09T16:32:46.000Z</time>
      </trkpt>
      <trkpt lat="43.38456" lon="-1.6651">
        <ele>5</ele>
        <time>2026-03-09T16:32:52.000Z</time>
      </trkpt>
      <trkpt lat="43.38447" lon="-1.6653">
        <ele>5</ele>
        <time>2026-03-09T16:32:56.000Z</time>
      </trkpt>
      <trkpt lat="43.38439" lon="-1.66547">
        <ele>5</ele>
        <time>2026-03-09T16:32:58.000Z</time>
      </trkpt>
      <trkpt lat="43.38438" lon="-1.6655">
        <ele>5</ele>
        <time>2026-03-09T16:32:59.000Z</time>
      </trkpt>
      <trkpt lat="43.38438" lon="-1.66553">
        <ele>4</ele>
        <time>2026-03-09T16:32:59.000Z</time>
      </trkpt>
      <trkpt lat="43.38437" lon="-1.66556">
        <ele>4</ele>
        <time>2026-03-09T16:32:59.000Z</time>
      </trkpt>
      <trkpt lat="43.38437" lon="-1.66559">
        <ele>4</ele>
        <time>2026-03-09T16:33:00.000Z</time>
      </trkpt>
      <trkpt lat="43.38437" lon="-1.66562">
        <ele>4</ele>
        <time>2026-03-09T16:33:00.000Z</time>
      </trkpt>
      <trkpt lat="43.38437" lon="-1.66565">
        <ele>4</ele>
        <time>2026-03-09T16:33:01.000Z</time>
      </trkpt>
      <trkpt lat="43.38437" lon="-1.66569">
        <ele>4</ele>
        <time>2026-03-09T16:33:01.000Z</time>
      </trkpt>
      <trkpt lat="43.38438" lon="-1.66573">
        <ele>4</ele>
        <time>2026-03-09T16:33:02.000Z</time>
      </trkpt>
      <trkpt lat="43.38438" lon="-1.66577">
        <ele>4</ele>
        <time>2026-03-09T16:33:02.000Z</time>
      </trkpt>
      <trkpt lat="43.38439" lon="-1.66581">
        <ele>4</ele>
        <time>2026-03-09T16:33:03.000Z</time>
      </trkpt>
      <trkpt lat="43.3844" lon="-1.66585">
        <ele>4</ele>
        <time>2026-03-09T16:33:03.000Z</time>
      </trkpt>
      <trkpt lat="43.38442" lon="-1.66589">
        <ele>4</ele>
        <time>2026-03-09T16:33:04.000Z</time>
      </trkpt>
      <trkpt lat="43.38443" lon="-1.66592">
        <ele>4</ele>
        <time>2026-03-09T16:33:04.000Z</time>
      </trkpt>
      <trkpt lat="43.38445" lon="-1.66597">
        <ele>4</ele>
        <time>2026-03-09T16:33:05.000Z</time>
      </trkpt>
      <trkpt lat="43.38448" lon="-1.66603">
        <ele>4</ele>
        <time>2026-03-09T16:33:06.000Z</time>
      </trkpt>
      <trkpt lat="43.38451" lon="-1.66609">
        <ele>4</ele>
        <time>2026-03-09T16:33:07.000Z</time>
      </trkpt>
      <trkpt lat="43.38456" lon="-1.66619">
        <ele>4</ele>
        <time>2026-03-09T16:33:08.000Z</time>
      </trkpt>
      <trkpt lat="43.38456" lon="-1.66619">
        <ele>4</ele>
        <time>2026-03-09T16:33:08.000Z</time>
      </trkpt>
      <trkpt lat="43.38457" lon="-1.66619">
        <ele>4</ele>
        <time>2026-03-09T16:33:09.000Z</time>
      </trkpt>
      <trkpt lat="43.38458" lon="-1.66619">
        <ele>4</ele>
        <time>2026-03-09T16:33:09.000Z</time>
      </trkpt>
      <trkpt lat="43.38459" lon="-1.66619">
        <ele>4</ele>
        <time>2026-03-09T16:33:09.000Z</time>
      </trkpt>
      <trkpt lat="43.3846" lon="-1.66619">
        <ele>4</ele>
        <time>2026-03-09T16:33:09.000Z</time>
      </trkpt>
      <trkpt lat="43.38461" lon="-1.6662">
        <ele>4</ele>
        <time>2026-03-09T16:33:09.000Z</time>
      </trkpt>
      <trkpt lat="43.38462" lon="-1.6662">
        <ele>4</ele>
        <time>2026-03-09T16:33:10.000Z</time>
      </trkpt>
      <trkpt lat="43.38462" lon="-1.66621">
        <ele>4</ele>
        <time>2026-03-09T16:33:10.000Z</time>
      </trkpt>
      <trkpt lat="43.38463" lon="-1.66621">
        <ele>4</ele>
        <time>2026-03-09T16:33:10.000Z</time>
      </trkpt>
      <trkpt lat="43.38463" lon="-1.66622">
        <ele>4</ele>
        <time>2026-03-09T16:33:10.000Z</time>
      </trkpt>
      <trkpt lat="43.38464" lon="-1.66622">
        <ele>4</ele>
        <time>2026-03-09T16:33:10.000Z</time>
      </trkpt>
      <trkpt lat="43.38464" lon="-1.66623">
        <ele>4</ele>
        <time>2026-03-09T16:33:10.000Z</time>
      </trkpt>
      <trkpt lat="43.38465" lon="-1.66624">
        <ele>4</ele>
        <time>2026-03-09T16:33:11.000Z</time>
      </trkpt>
      <trkpt lat="43.38465" lon="-1.66625">
        <ele>4</ele>
        <time>2026-03-09T16:33:11.000Z</time>
      </trkpt>
      <trkpt lat="43.38465" lon="-1.66627">
        <ele>4</ele>
        <time>2026-03-09T16:33:11.000Z</time>
      </trkpt>
      <trkpt lat="43.38466" lon="-1.66629">
        <ele>4</ele>
        <time>2026-03-09T16:33:11.000Z</time>
      </trkpt>
      <trkpt lat="43.38466" lon="-1.66631">
        <ele>4</ele>
        <time>2026-03-09T16:33:11.000Z</time>
      </trkpt>
      <trkpt lat="43.38465" lon="-1.66634">
        <ele>4</ele>
        <time>2026-03-09T16:33:12.000Z</time>
      </trkpt>
      <trkpt lat="43.38465" lon="-1.66637">
        <ele>4</ele>
        <time>2026-03-09T16:33:12.000Z</time>
      </trkpt>
      <trkpt lat="43.38465" lon="-1.66638">
        <ele>4</ele>
        <time>2026-03-09T16:33:12.000Z</time>
      </trkpt>
      <trkpt lat="43.38464" lon="-1.6664">
        <ele>4</ele>
        <time>2026-03-09T16:33:13.000Z</time>
      </trkpt>
      <trkpt lat="43.38464" lon="-1.66641">
        <ele>4</ele>
        <time>2026-03-09T16:33:13.000Z</time>
      </trkpt>
      <trkpt lat="43.38463" lon="-1.66643">
        <ele>4</ele>
        <time>2026-03-09T16:33:13.000Z</time>
      </trkpt>
      <trkpt lat="43.38469" lon="-1.66661">
        <ele>4</ele>
        <time>2026-03-09T16:33:16.000Z</time>
      </trkpt>
      <trkpt lat="43.38472" lon="-1.66669">
        <ele>4</ele>
        <time>2026-03-09T16:33:17.000Z</time>
      </trkpt>
      <trkpt lat="43.38474" lon="-1.66674">
        <ele>4</ele>
        <time>2026-03-09T16:33:18.000Z</time>
      </trkpt>
      <trkpt lat="43.38477" lon="-1.66681">
        <ele>5</ele>
        <time>2026-03-09T16:33:19.000Z</time>
      </trkpt>
      <trkpt lat="43.38482" lon="-1.6669">
        <ele>5</ele>
        <time>2026-03-09T16:33:20.000Z</time>
      </trkpt>
      <trkpt lat="43.38487" lon="-1.66696">
        <ele>5</ele>
        <time>2026-03-09T16:33:21.000Z</time>
      </trkpt>
      <trkpt lat="43.38493" lon="-1.66703">
        <ele>5</ele>
        <time>2026-03-09T16:33:23.000Z</time>
      </trkpt>
      <trkpt lat="43.38509" lon="-1.66716">
        <ele>5</ele>
        <time>2026-03-09T16:33:26.000Z</time>
      </trkpt>
      <trkpt lat="43.38528" lon="-1.66727">
        <ele>5</ele>
        <time>2026-03-09T16:33:30.000Z</time>
      </trkpt>
      <trkpt lat="43.38536" lon="-1.66733">
        <ele>5</ele>
        <time>2026-03-09T16:33:31.000Z</time>
      </trkpt>
      <trkpt lat="43.38543" lon="-1.66739">
        <ele>5</ele>
        <time>2026-03-09T16:33:33.000Z</time>
      </trkpt>
      <trkpt lat="43.38549" lon="-1.66743">
        <ele>5</ele>
        <time>2026-03-09T16:33:34.000Z</time>
      </trkpt>
      <trkpt lat="43.38562" lon="-1.66753">
        <ele>5</ele>
        <time>2026-03-09T16:33:37.000Z</time>
      </trkpt>
      <trkpt lat="43.38574" lon="-1.66764">
        <ele>6</ele>
        <time>2026-03-09T16:33:39.000Z</time>
      </trkpt>
      <trkpt lat="43.38585" lon="-1.66775">
        <ele>6</ele>
        <time>2026-03-09T16:33:42.000Z</time>
      </trkpt>
      <trkpt lat="43.38587" lon="-1.66776">
        <ele>6</ele>
        <time>2026-03-09T16:33:42.000Z</time>
      </trkpt>
      <trkpt lat="43.38588" lon="-1.66777">
        <ele>6</ele>
        <time>2026-03-09T16:33:42.000Z</time>
      </trkpt>
      <trkpt lat="43.38591" lon="-1.66781">
        <ele>6</ele>
        <time>2026-03-09T16:33:43.000Z</time>
      </trkpt>
      <trkpt lat="43.38598" lon="-1.66789">
        <ele>6</ele>
        <time>2026-03-09T16:33:45.000Z</time>
      </trkpt>
      <trkpt lat="43.38615" lon="-1.6681">
        <ele>7</ele>
        <time>2026-03-09T16:33:49.000Z</time>
      </trkpt>
      <trkpt lat="43.38618" lon="-1.66814">
        <ele>7</ele>
        <time>2026-03-09T16:33:49.000Z</time>
      </trkpt>
      <trkpt lat="43.38637" lon="-1.66839">
        <ele>7</ele>
        <time>2026-03-09T16:33:54.000Z</time>
      </trkpt>
      <trkpt lat="43.38657" lon="-1.66864">
        <ele>7</ele>
        <time>2026-03-09T16:33:59.000Z</time>
      </trkpt>
      <trkpt lat="43.38668" lon="-1.66878">
        <ele>7</ele>
        <time>2026-03-09T16:34:02.000Z</time>
      </trkpt>
      <trkpt lat="43.38684" lon="-1.66898">
        <ele>7</ele>
        <time>2026-03-09T16:34:05.000Z</time>
      </trkpt>
      <trkpt lat="43.38696" lon="-1.66912">
        <ele>6</ele>
        <time>2026-03-09T16:34:08.000Z</time>
      </trkpt>
      <trkpt lat="43.38706" lon="-1.66923">
        <ele>6</ele>
        <time>2026-03-09T16:34:10.000Z</time>
      </trkpt>
      <trkpt lat="43.38725" lon="-1.66946">
        <ele>6</ele>
        <time>2026-03-09T16:34:15.000Z</time>
      </trkpt>
      <trkpt lat="43.38736" lon="-1.66963">
        <ele>6</ele>
        <time>2026-03-09T16:34:18.000Z</time>
      </trkpt>
      <trkpt lat="43.38744" lon="-1.6698">
        <ele>6</ele>
        <time>2026-03-09T16:34:21.000Z</time>
      </trkpt>
      <trkpt lat="43.3876" lon="-1.67015">
        <ele>6</ele>
        <time>2026-03-09T16:34:26.000Z</time>
      </trkpt>
      <trkpt lat="43.38762" lon="-1.6702">
        <ele>7</ele>
        <time>2026-03-09T16:34:27.000Z</time>
      </trkpt>
      <trkpt lat="43.38765" lon="-1.6703">
        <ele>7</ele>
        <time>2026-03-09T16:34:28.000Z</time>
      </trkpt>
      <trkpt lat="43.38769" lon="-1.67041">
        <ele>8</ele>
        <time>2026-03-09T16:34:30.000Z</time>
      </trkpt>
      <trkpt lat="43.3877" lon="-1.67044">
        <ele>8</ele>
        <time>2026-03-09T16:34:30.000Z</time>
      </trkpt>
      <trkpt lat="43.38776" lon="-1.67058">
        <ele>8</ele>
        <time>2026-03-09T16:34:32.000Z</time>
      </trkpt>
      <trkpt lat="43.38797" lon="-1.67087">
        <ele>8</ele>
        <time>2026-03-09T16:34:37.000Z</time>
      </trkpt>
      <trkpt lat="43.38798" lon="-1.67089">
        <ele>8</ele>
        <time>2026-03-09T16:34:38.000Z</time>
      </trkpt>
      <trkpt lat="43.3881" lon="-1.67108">
        <ele>8</ele>
        <time>2026-03-09T16:34:41.000Z</time>
      </trkpt>
      <trkpt lat="43.38815" lon="-1.67117">
        <ele>8</ele>
        <time>2026-03-09T16:34:42.000Z</time>
      </trkpt>
      <trkpt lat="43.38825" lon="-1.67144">
        <ele>9</ele>
        <time>2026-03-09T16:34:46.000Z</time>
      </trkpt>
      <trkpt lat="43.38829" lon="-1.67156">
        <ele>9</ele>
        <time>2026-03-09T16:34:48.000Z</time>
      </trkpt>
      <trkpt lat="43.38831" lon="-1.6716">
        <ele>9</ele>
        <time>2026-03-09T16:34:49.000Z</time>
      </trkpt>
      <trkpt lat="43.38831" lon="-1.67161">
        <ele>9</ele>
        <time>2026-03-09T16:34:49.000Z</time>
      </trkpt>
      <trkpt lat="43.38832" lon="-1.67164">
        <ele>9</ele>
        <time>2026-03-09T16:34:49.000Z</time>
      </trkpt>
      <trkpt lat="43.38834" lon="-1.67169">
        <ele>9</ele>
        <time>2026-03-09T16:34:50.000Z</time>
      </trkpt>
      <trkpt lat="43.38838" lon="-1.67181">
        <ele>9</ele>
        <time>2026-03-09T16:34:52.000Z</time>
      </trkpt>
      <trkpt lat="43.38844" lon="-1.67201">
        <ele>10</ele>
        <time>2026-03-09T16:34:55.000Z</time>
      </trkpt>
      <trkpt lat="43.38848" lon="-1.6722">
        <ele>10</ele>
        <time>2026-03-09T16:34:57.000Z</time>
      </trkpt>
      <trkpt lat="43.38849" lon="-1.67226">
        <ele>10</ele>
        <time>2026-03-09T16:34:58.000Z</time>
      </trkpt>
      <trkpt lat="43.3885" lon="-1.67234">
        <ele>10</ele>
        <time>2026-03-09T16:34:59.000Z</time>
      </trkpt>
      <trkpt lat="43.38849" lon="-1.67238">
        <ele>11</ele>
        <time>2026-03-09T16:34:59.000Z</time>
      </trkpt>
      <trkpt lat="43.38849" lon="-1.67247">
        <ele>11</ele>
        <time>2026-03-09T16:35:01.000Z</time>
      </trkpt>
      <trkpt lat="43.38848" lon="-1.67252">
        <ele>11</ele>
        <time>2026-03-09T16:35:01.000Z</time>
      </trkpt>
      <trkpt lat="43.38847" lon="-1.67255">
        <ele>12</ele>
        <time>2026-03-09T16:35:02.000Z</time>
      </trkpt>
      <trkpt lat="43.38847" lon="-1.67263">
        <ele>11</ele>
        <time>2026-03-09T16:35:03.000Z</time>
      </trkpt>
      <trkpt lat="43.38845" lon="-1.67268">
        <ele>12</ele>
        <time>2026-03-09T16:35:04.000Z</time>
      </trkpt>
      <trkpt lat="43.38845" lon="-1.67269">
        <ele>12</ele>
        <time>2026-03-09T16:35:04.000Z</time>
      </trkpt>
      <trkpt lat="43.38843" lon="-1.67273">
        <ele>12</ele>
        <time>2026-03-09T16:35:04.000Z</time>
      </trkpt>
      <trkpt lat="43.38842" lon="-1.67275">
        <ele>12</ele>
        <time>2026-03-09T16:35:05.000Z</time>
      </trkpt>
      <trkpt lat="43.3884" lon="-1.6728">
        <ele>12</ele>
        <time>2026-03-09T16:35:05.000Z</time>
      </trkpt>
      <trkpt lat="43.38825" lon="-1.6731">
        <ele>15</ele>
        <time>2026-03-09T16:35:10.000Z</time>
      </trkpt>
      <trkpt lat="43.38823" lon="-1.67315">
        <ele>15</ele>
        <time>2026-03-09T16:35:11.000Z</time>
      </trkpt>
      <trkpt lat="43.38818" lon="-1.67327">
        <ele>17</ele>
        <time>2026-03-09T16:35:13.000Z</time>
      </trkpt>
      <trkpt lat="43.38815" lon="-1.67335">
        <ele>18</ele>
        <time>2026-03-09T16:35:14.000Z</time>
      </trkpt>
      <trkpt lat="43.38813" lon="-1.67346">
        <ele>18</ele>
        <time>2026-03-09T16:35:15.000Z</time>
      </trkpt>
      <trkpt lat="43.38813" lon="-1.67357">
        <ele>18</ele>
        <time>2026-03-09T16:35:17.000Z</time>
      </trkpt>
      <trkpt lat="43.38813" lon="-1.67373">
        <ele>18</ele>
        <time>2026-03-09T16:35:19.000Z</time>
      </trkpt>
      <trkpt lat="43.38812" lon="-1.67423">
        <ele>18</ele>
        <time>2026-03-09T16:35:25.000Z</time>
      </trkpt>
      <trkpt lat="43.38812" lon="-1.67429">
        <ele>18</ele>
        <time>2026-03-09T16:35:26.000Z</time>
      </trkpt>
      <trkpt lat="43.38812" lon="-1.67505">
        <ele>16</ele>
        <time>2026-03-09T16:35:36.000Z</time>
      </trkpt>
      <trkpt lat="43.38815" lon="-1.67515">
        <ele>14</ele>
        <time>2026-03-09T16:35:37.000Z</time>
      </trkpt>
      <trkpt lat="43.38814" lon="-1.6756">
        <ele>14</ele>
        <time>2026-03-09T16:35:43.000Z</time>
      </trkpt>
      <trkpt lat="43.38814" lon="-1.67565">
        <ele>14</ele>
        <time>2026-03-09T16:35:44.000Z</time>
      </trkpt>
      <trkpt lat="43.38814" lon="-1.67586">
        <ele>14</ele>
        <time>2026-03-09T16:35:46.000Z</time>
      </trkpt>
      <trkpt lat="43.38813" lon="-1.67641">
        <ele>13</ele>
        <time>2026-03-09T16:35:53.000Z</time>
      </trkpt>
      <trkpt lat="43.38813" lon="-1.67643">
        <ele>13</ele>
        <time>2026-03-09T16:35:54.000Z</time>
      </trkpt>
      <trkpt lat="43.38813" lon="-1.67661">
        <ele>12</ele>
        <time>2026-03-09T16:35:56.000Z</time>
      </trkpt>
      <trkpt lat="43.38813" lon="-1.67664">
        <ele>12</ele>
        <time>2026-03-09T16:35:56.000Z</time>
      </trkpt>
      <trkpt lat="43.38812" lon="-1.67681">
        <ele>13</ele>
        <time>2026-03-09T16:35:59.000Z</time>
      </trkpt>
      <trkpt lat="43.3881" lon="-1.67734">
        <ele>15</ele>
        <time>2026-03-09T16:36:05.000Z</time>
      </trkpt>
      <trkpt lat="43.38812" lon="-1.67758">
        <ele>15</ele>
        <time>2026-03-09T16:36:09.000Z</time>
      </trkpt>
      <trkpt lat="43.38813" lon="-1.67778">
        <ele>16</ele>
        <time>2026-03-09T16:36:11.000Z</time>
      </trkpt>
      <trkpt lat="43.38817" lon="-1.67799">
        <ele>15</ele>
        <time>2026-03-09T16:36:14.000Z</time>
      </trkpt>
      <trkpt lat="43.38824" lon="-1.6783">
        <ele>14</ele>
        <time>2026-03-09T16:36:18.000Z</time>
      </trkpt>
      <trkpt lat="43.3883" lon="-1.67847">
        <ele>12</ele>
        <time>2026-03-09T16:36:21.000Z</time>
      </trkpt>
      <trkpt lat="43.38834" lon="-1.67859">
        <ele>11</ele>
        <time>2026-03-09T16:36:22.000Z</time>
      </trkpt>
      <trkpt lat="43.38841" lon="-1.6788">
        <ele>10</ele>
        <time>2026-03-09T16:36:25.000Z</time>
      </trkpt>
      <trkpt lat="43.38843" lon="-1.67888">
        <ele>9</ele>
        <time>2026-03-09T16:36:26.000Z</time>
      </trkpt>
      <trkpt lat="43.38848" lon="-1.6791">
        <ele>8</ele>
        <time>2026-03-09T16:36:29.000Z</time>
      </trkpt>
      <trkpt lat="43.3885" lon="-1.67929">
        <ele>8</ele>
        <time>2026-03-09T16:36:32.000Z</time>
      </trkpt>
      <trkpt lat="43.3885" lon="-1.67936">
        <ele>9</ele>
        <time>2026-03-09T16:36:33.000Z</time>
      </trkpt>
      <trkpt lat="43.38855" lon="-1.67953">
        <ele>8</ele>
        <time>2026-03-09T16:36:35.000Z</time>
      </trkpt>
      <trkpt lat="43.38858" lon="-1.67963">
        <ele>8</ele>
        <time>2026-03-09T16:36:37.000Z</time>
      </trkpt>
      <trkpt lat="43.38873" lon="-1.67988">
        <ele>7</ele>
        <time>2026-03-09T16:36:41.000Z</time>
      </trkpt>
      <trkpt lat="43.38881" lon="-1.68002">
        <ele>6</ele>
        <time>2026-03-09T16:36:43.000Z</time>
      </trkpt>
      <trkpt lat="43.38887" lon="-1.68014">
        <ele>5</ele>
        <time>2026-03-09T16:36:45.000Z</time>
      </trkpt>
      <trkpt lat="43.38892" lon="-1.6803">
        <ele>6</ele>
        <time>2026-03-09T16:36:47.000Z</time>
      </trkpt>
      <trkpt lat="43.38901" lon="-1.68061">
        <ele>6</ele>
        <time>2026-03-09T16:36:52.000Z</time>
      </trkpt>
      <trkpt lat="43.38917" lon="-1.6812">
        <ele>5</ele>
        <time>2026-03-09T16:37:00.000Z</time>
      </trkpt>
      <trkpt lat="43.38921" lon="-1.68135">
        <ele>6</ele>
        <time>2026-03-09T16:37:02.000Z</time>
      </trkpt>
      <trkpt lat="43.38936" lon="-1.68198">
        <ele>6</ele>
        <time>2026-03-09T16:37:10.000Z</time>
      </trkpt>
      <trkpt lat="43.38951" lon="-1.68256">
        <ele>6</ele>
        <time>2026-03-09T16:37:18.000Z</time>
      </trkpt>
      <trkpt lat="43.38958" lon="-1.6828">
        <ele>6</ele>
        <time>2026-03-09T16:37:22.000Z</time>
      </trkpt>
      <trkpt lat="43.38967" lon="-1.68315">
        <ele>7</ele>
        <time>2026-03-09T16:37:26.000Z</time>
      </trkpt>
      <trkpt lat="43.38978" lon="-1.68361">
        <ele>6</ele>
        <time>2026-03-09T16:37:33.000Z</time>
      </trkpt>
      <trkpt lat="43.38979" lon="-1.68368">
        <ele>6</ele>
        <time>2026-03-09T16:37:34.000Z</time>
      </trkpt>
      <trkpt lat="43.38984" lon="-1.68389">
        <ele>6</ele>
        <time>2026-03-09T16:37:36.000Z</time>
      </trkpt>
      <trkpt lat="43.38987" lon="-1.68412">
        <ele>6</ele>
        <time>2026-03-09T16:37:39.000Z</time>
      </trkpt>
      <trkpt lat="43.38987" lon="-1.68417">
        <ele>6</ele>
        <time>2026-03-09T16:37:40.000Z</time>
      </trkpt>
      <trkpt lat="43.3899" lon="-1.6845">
        <ele>5</ele>
        <time>2026-03-09T16:37:44.000Z</time>
      </trkpt>
      <trkpt lat="43.3899" lon="-1.68455">
        <ele>5</ele>
        <time>2026-03-09T16:37:45.000Z</time>
      </trkpt>
      <trkpt lat="43.38992" lon="-1.68471">
        <ele>5</ele>
        <time>2026-03-09T16:37:47.000Z</time>
      </trkpt>
      <trkpt lat="43.38994" lon="-1.68496">
        <ele>5</ele>
        <time>2026-03-09T16:37:50.000Z</time>
      </trkpt>
      <trkpt lat="43.38996" lon="-1.68509">
        <ele>5</ele>
        <time>2026-03-09T16:37:52.000Z</time>
      </trkpt>
      <trkpt lat="43.38997" lon="-1.68514">
        <ele>5</ele>
        <time>2026-03-09T16:37:53.000Z</time>
      </trkpt>
      <trkpt lat="43.38997" lon="-1.68518">
        <ele>5</ele>
        <time>2026-03-09T16:37:53.000Z</time>
      </trkpt>
      <trkpt lat="43.38999" lon="-1.68525">
        <ele>4</ele>
        <time>2026-03-09T16:37:54.000Z</time>
      </trkpt>
      <trkpt lat="43.39" lon="-1.6853">
        <ele>4</ele>
        <time>2026-03-09T16:37:55.000Z</time>
      </trkpt>
      <trkpt lat="43.39001" lon="-1.68536">
        <ele>4</ele>
        <time>2026-03-09T16:37:56.000Z</time>
      </trkpt>
      <trkpt lat="43.39003" lon="-1.6854">
        <ele>4</ele>
        <time>2026-03-09T16:37:56.000Z</time>
      </trkpt>
      <trkpt lat="43.39006" lon="-1.68545">
        <ele>4</ele>
        <time>2026-03-09T16:37:57.000Z</time>
      </trkpt>
      <trkpt lat="43.39008" lon="-1.68551">
        <ele>4</ele>
        <time>2026-03-09T16:37:58.000Z</time>
      </trkpt>
      <trkpt lat="43.39009" lon="-1.68551">
        <ele>4</ele>
        <time>2026-03-09T16:37:58.000Z</time>
      </trkpt>
      <trkpt lat="43.3901" lon="-1.68553">
        <ele>4</ele>
        <time>2026-03-09T16:37:59.000Z</time>
      </trkpt>
      <trkpt lat="43.39014" lon="-1.68558">
        <ele>4</ele>
        <time>2026-03-09T16:38:00.000Z</time>
      </trkpt>
      <trkpt lat="43.39022" lon="-1.68566">
        <ele>4</ele>
        <time>2026-03-09T16:38:01.000Z</time>
      </trkpt>
      <trkpt lat="43.39032" lon="-1.68574">
        <ele>4</ele>
        <time>2026-03-09T16:38:03.000Z</time>
      </trkpt>
      <trkpt lat="43.39047" lon="-1.68583">
        <ele>5</ele>
        <time>2026-03-09T16:38:06.000Z</time>
      </trkpt>
      <trkpt lat="43.39056" lon="-1.68587">
        <ele>5</ele>
        <time>2026-03-09T16:38:08.000Z</time>
      </trkpt>
      <trkpt lat="43.39065" lon="-1.6859">
        <ele>5</ele>
        <time>2026-03-09T16:38:10.000Z</time>
      </trkpt>
      <trkpt lat="43.39071" lon="-1.68593">
        <ele>5</ele>
        <time>2026-03-09T16:38:11.000Z</time>
      </trkpt>
      <trkpt lat="43.39075" lon="-1.68598">
        <ele>5</ele>
        <time>2026-03-09T16:38:12.000Z</time>
      </trkpt>
      <trkpt lat="43.391" lon="-1.68602">
        <ele>6</ele>
        <time>2026-03-09T16:38:16.000Z</time>
      </trkpt>
      <trkpt lat="43.39129" lon="-1.68606">
        <ele>6</ele>
        <time>2026-03-09T16:38:21.000Z</time>
      </trkpt>
      <trkpt lat="43.39133" lon="-1.68606">
        <ele>6</ele>
        <time>2026-03-09T16:38:22.000Z</time>
      </trkpt>
      <trkpt lat="43.39148" lon="-1.68608">
        <ele>7</ele>
        <time>2026-03-09T16:38:25.000Z</time>
      </trkpt>
      <trkpt lat="43.39159" lon="-1.68609">
        <ele>7</ele>
        <time>2026-03-09T16:38:27.000Z</time>
      </trkpt>
      <trkpt lat="43.39164" lon="-1.6861">
        <ele>7</ele>
        <time>2026-03-09T16:38:28.000Z</time>
      </trkpt>
      <trkpt lat="43.39177" lon="-1.68611">
        <ele>8</ele>
        <time>2026-03-09T16:38:30.000Z</time>
      </trkpt>
      <trkpt lat="43.39178" lon="-1.68612">
        <ele>8</ele>
        <time>2026-03-09T16:38:30.000Z</time>
      </trkpt>
      <trkpt lat="43.39189" lon="-1.68614">
        <ele>8</ele>
        <time>2026-03-09T16:38:32.000Z</time>
      </trkpt>
      <trkpt lat="43.39198" lon="-1.68617">
        <ele>9</ele>
        <time>2026-03-09T16:38:34.000Z</time>
      </trkpt>
      <trkpt lat="43.39207" lon="-1.68622">
        <ele>9</ele>
        <time>2026-03-09T16:38:35.000Z</time>
      </trkpt>
      <trkpt lat="43.39216" lon="-1.68628">
        <ele>10</ele>
        <time>2026-03-09T16:38:37.000Z</time>
      </trkpt>
      <trkpt lat="43.39224" lon="-1.68635">
        <ele>10</ele>
        <time>2026-03-09T16:38:39.000Z</time>
      </trkpt>
      <trkpt lat="43.39232" lon="-1.68643">
        <ele>10</ele>
        <time>2026-03-09T16:38:41.000Z</time>
      </trkpt>
      <trkpt lat="43.3924" lon="-1.68654">
        <ele>11</ele>
        <time>2026-03-09T16:38:43.000Z</time>
      </trkpt>
      <trkpt lat="43.39255" lon="-1.68677">
        <ele>12</ele>
        <time>2026-03-09T16:38:47.000Z</time>
      </trkpt>
      <trkpt lat="43.39264" lon="-1.68688">
        <ele>13</ele>
        <time>2026-03-09T16:38:49.000Z</time>
      </trkpt>
      <trkpt lat="43.39271" lon="-1.68695">
        <ele>13</ele>
        <time>2026-03-09T16:38:50.000Z</time>
      </trkpt>
      <trkpt lat="43.3928" lon="-1.68703">
        <ele>14</ele>
        <time>2026-03-09T16:38:52.000Z</time>
      </trkpt>
      <trkpt lat="43.39302" lon="-1.68717">
        <ele>14</ele>
        <time>2026-03-09T16:38:57.000Z</time>
      </trkpt>
      <trkpt lat="43.39329" lon="-1.68732">
        <ele>15</ele>
        <time>2026-03-09T16:39:02.000Z</time>
      </trkpt>
      <trkpt lat="43.3935" lon="-1.68744">
        <ele>15</ele>
        <time>2026-03-09T16:39:06.000Z</time>
      </trkpt>
      <trkpt lat="43.39364" lon="-1.68752">
        <ele>16</ele>
        <time>2026-03-09T16:39:09.000Z</time>
      </trkpt>
      <trkpt lat="43.39365" lon="-1.68753">
        <ele>16</ele>
        <time>2026-03-09T16:39:09.000Z</time>
      </trkpt>
      <trkpt lat="43.39374" lon="-1.68761">
        <ele>16</ele>
        <time>2026-03-09T16:39:11.000Z</time>
      </trkpt>
      <trkpt lat="43.39384" lon="-1.6877">
        <ele>16</ele>
        <time>2026-03-09T16:39:13.000Z</time>
      </trkpt>
      <trkpt lat="43.39393" lon="-1.6878">
        <ele>16</ele>
        <time>2026-03-09T16:39:15.000Z</time>
      </trkpt>
      <trkpt lat="43.394" lon="-1.6879">
        <ele>16</ele>
        <time>2026-03-09T16:39:17.000Z</time>
      </trkpt>
      <trkpt lat="43.39406" lon="-1.688">
        <ele>16</ele>
        <time>2026-03-09T16:39:18.000Z</time>
      </trkpt>
      <trkpt lat="43.39413" lon="-1.68812">
        <ele>15</ele>
        <time>2026-03-09T16:39:20.000Z</time>
      </trkpt>
      <trkpt lat="43.39419" lon="-1.68826">
        <ele>14</ele>
        <time>2026-03-09T16:39:22.000Z</time>
      </trkpt>
      <trkpt lat="43.39424" lon="-1.6884">
        <ele>13</ele>
        <time>2026-03-09T16:39:24.000Z</time>
      </trkpt>
      <trkpt lat="43.39425" lon="-1.68841">
        <ele>13</ele>
        <time>2026-03-09T16:39:25.000Z</time>
      </trkpt>
      <trkpt lat="43.39428" lon="-1.68852">
        <ele>12</ele>
        <time>2026-03-09T16:39:26.000Z</time>
      </trkpt>
      <trkpt lat="43.3943" lon="-1.68861">
        <ele>12</ele>
        <time>2026-03-09T16:39:27.000Z</time>
      </trkpt>
      <trkpt lat="43.39431" lon="-1.68866">
        <ele>11</ele>
        <time>2026-03-09T16:39:28.000Z</time>
      </trkpt>
      <trkpt lat="43.39433" lon="-1.68876">
        <ele>11</ele>
        <time>2026-03-09T16:39:29.000Z</time>
      </trkpt>
      <trkpt lat="43.39434" lon="-1.68884">
        <ele>11</ele>
        <time>2026-03-09T16:39:30.000Z</time>
      </trkpt>
      <trkpt lat="43.39434" lon="-1.6889">
        <ele>11</ele>
        <time>2026-03-09T16:39:31.000Z</time>
      </trkpt>
      <trkpt lat="43.39435" lon="-1.68898">
        <ele>10</ele>
        <time>2026-03-09T16:39:32.000Z</time>
      </trkpt>
      <trkpt lat="43.39435" lon="-1.6891">
        <ele>10</ele>
        <time>2026-03-09T16:39:34.000Z</time>
      </trkpt>
      <trkpt lat="43.39435" lon="-1.68919">
        <ele>10</ele>
        <time>2026-03-09T16:39:35.000Z</time>
      </trkpt>
      <trkpt lat="43.39435" lon="-1.68932">
        <ele>10</ele>
        <time>2026-03-09T16:39:37.000Z</time>
      </trkpt>
      <trkpt lat="43.39434" lon="-1.68944">
        <ele>11</ele>
        <time>2026-03-09T16:39:38.000Z</time>
      </trkpt>
      <trkpt lat="43.39431" lon="-1.68962">
        <ele>12</ele>
        <time>2026-03-09T16:39:41.000Z</time>
      </trkpt>
      <trkpt lat="43.39425" lon="-1.68994">
        <ele>13</ele>
        <time>2026-03-09T16:39:45.000Z</time>
      </trkpt>
      <trkpt lat="43.39421" lon="-1.69014">
        <ele>14</ele>
        <time>2026-03-09T16:39:48.000Z</time>
      </trkpt>
      <trkpt lat="43.39417" lon="-1.69033">
        <ele>15</ele>
        <time>2026-03-09T16:39:50.000Z</time>
      </trkpt>
      <trkpt lat="43.39413" lon="-1.69052">
        <ele>15</ele>
        <time>2026-03-09T16:39:53.000Z</time>
      </trkpt>
      <trkpt lat="43.39408" lon="-1.69077">
        <ele>14</ele>
        <time>2026-03-09T16:39:56.000Z</time>
      </trkpt>
      <trkpt lat="43.39404" lon="-1.69095">
        <ele>14</ele>
        <time>2026-03-09T16:39:58.000Z</time>
      </trkpt>
      <trkpt lat="43.39397" lon="-1.69133">
        <ele>14</ele>
        <time>2026-03-09T16:40:04.000Z</time>
      </trkpt>
      <trkpt lat="43.39391" lon="-1.69168">
        <ele>14</ele>
        <time>2026-03-09T16:40:08.000Z</time>
      </trkpt>
      <trkpt lat="43.39386" lon="-1.69208">
        <ele>14</ele>
        <time>2026-03-09T16:40:13.000Z</time>
      </trkpt>
      <trkpt lat="43.39379" lon="-1.6926">
        <ele>15</ele>
        <time>2026-03-09T16:40:20.000Z</time>
      </trkpt>
      <trkpt lat="43.39374" lon="-1.69295">
        <ele>17</ele>
        <time>2026-03-09T16:40:25.000Z</time>
      </trkpt>
      <trkpt lat="43.39371" lon="-1.69311">
        <ele>18</ele>
        <time>2026-03-09T16:40:27.000Z</time>
      </trkpt>
      <trkpt lat="43.39367" lon="-1.69324">
        <ele>19</ele>
        <time>2026-03-09T16:40:29.000Z</time>
      </trkpt>
      <trkpt lat="43.39363" lon="-1.69336">
        <ele>20</ele>
        <time>2026-03-09T16:40:31.000Z</time>
      </trkpt>
      <trkpt lat="43.39362" lon="-1.69339">
        <ele>20</ele>
        <time>2026-03-09T16:40:31.000Z</time>
      </trkpt>
      <trkpt lat="43.39357" lon="-1.6935">
        <ele>20</ele>
        <time>2026-03-09T16:40:33.000Z</time>
      </trkpt>
      <trkpt lat="43.39347" lon="-1.69368">
        <ele>22</ele>
        <time>2026-03-09T16:40:36.000Z</time>
      </trkpt>
      <trkpt lat="43.39333" lon="-1.69392">
        <ele>23</ele>
        <time>2026-03-09T16:40:40.000Z</time>
      </trkpt>
      <trkpt lat="43.39304" lon="-1.69445">
        <ele>20</ele>
        <time>2026-03-09T16:40:48.000Z</time>
      </trkpt>
      <trkpt lat="43.39268" lon="-1.6951">
        <ele>21</ele>
        <time>2026-03-09T16:40:59.000Z</time>
      </trkpt>
      <trkpt lat="43.39243" lon="-1.69556">
        <ele>22</ele>
        <time>2026-03-09T16:41:06.000Z</time>
      </trkpt>
      <trkpt lat="43.39236" lon="-1.6957">
        <ele>21</ele>
        <time>2026-03-09T16:41:08.000Z</time>
      </trkpt>
      <trkpt lat="43.39229" lon="-1.69585">
        <ele>21</ele>
        <time>2026-03-09T16:41:11.000Z</time>
      </trkpt>
      <trkpt lat="43.39214" lon="-1.69624">
        <ele>21</ele>
        <time>2026-03-09T16:41:16.000Z</time>
      </trkpt>
      <trkpt lat="43.39199" lon="-1.69667">
        <ele>24</ele>
        <time>2026-03-09T16:41:23.000Z</time>
      </trkpt>
      <trkpt lat="43.39188" lon="-1.69696">
        <ele>27</ele>
        <time>2026-03-09T16:41:27.000Z</time>
      </trkpt>
      <trkpt lat="43.39166" lon="-1.69755">
        <ele>36</ele>
        <time>2026-03-09T16:41:35.000Z</time>
      </trkpt>
      <trkpt lat="43.39158" lon="-1.69776">
        <ele>37</ele>
        <time>2026-03-09T16:41:38.000Z</time>
      </trkpt>
      <trkpt lat="43.39151" lon="-1.69798">
        <ele>38</ele>
        <time>2026-03-09T16:41:41.000Z</time>
      </trkpt>
      <trkpt lat="43.39148" lon="-1.69824">
        <ele>38</ele>
        <time>2026-03-09T16:41:45.000Z</time>
      </trkpt>
      <trkpt lat="43.39147" lon="-1.69835">
        <ele>39</ele>
        <time>2026-03-09T16:41:46.000Z</time>
      </trkpt>
      <trkpt lat="43.39146" lon="-1.69847">
        <ele>38</ele>
        <time>2026-03-09T16:41:48.000Z</time>
      </trkpt>
      <trkpt lat="43.39146" lon="-1.6986">
        <ele>38</ele>
        <time>2026-03-09T16:41:50.000Z</time>
      </trkpt>
      <trkpt lat="43.39146" lon="-1.69871">
        <ele>38</ele>
        <time>2026-03-09T16:41:51.000Z</time>
      </trkpt>
      <trkpt lat="43.39146" lon="-1.69884">
        <ele>38</ele>
        <time>2026-03-09T16:41:53.000Z</time>
      </trkpt>
      <trkpt lat="43.39147" lon="-1.69904">
        <ele>37</ele>
        <time>2026-03-09T16:41:55.000Z</time>
      </trkpt>
      <trkpt lat="43.39149" lon="-1.69926">
        <ele>36</ele>
        <time>2026-03-09T16:41:58.000Z</time>
      </trkpt>
      <trkpt lat="43.39149" lon="-1.69954">
        <ele>35</ele>
        <time>2026-03-09T16:42:02.000Z</time>
      </trkpt>
      <trkpt lat="43.39151" lon="-1.6999">
        <ele>33</ele>
        <time>2026-03-09T16:42:06.000Z</time>
      </trkpt>
      <trkpt lat="43.3915" lon="-1.70027">
        <ele>31</ele>
        <time>2026-03-09T16:42:11.000Z</time>
      </trkpt>
      <trkpt lat="43.3915" lon="-1.70034">
        <ele>30</ele>
        <time>2026-03-09T16:42:12.000Z</time>
      </trkpt>
      <trkpt lat="43.3915" lon="-1.7004">
        <ele>30</ele>
        <time>2026-03-09T16:42:13.000Z</time>
      </trkpt>
      <trkpt lat="43.39148" lon="-1.70048">
        <ele>29</ele>
        <time>2026-03-09T16:42:14.000Z</time>
      </trkpt>
      <trkpt lat="43.39145" lon="-1.70057">
        <ele>29</ele>
        <time>2026-03-09T16:42:15.000Z</time>
      </trkpt>
      <trkpt lat="43.3914" lon="-1.70066">
        <ele>30</ele>
        <time>2026-03-09T16:42:17.000Z</time>
      </trkpt>
      <trkpt lat="43.39137" lon="-1.70072">
        <ele>30</ele>
        <time>2026-03-09T16:42:18.000Z</time>
      </trkpt>
      <trkpt lat="43.39132" lon="-1.7008">
        <ele>31</ele>
        <time>2026-03-09T16:42:19.000Z</time>
      </trkpt>
      <trkpt lat="43.39127" lon="-1.70089">
        <ele>32</ele>
        <time>2026-03-09T16:42:21.000Z</time>
      </trkpt>
      <trkpt lat="43.3912" lon="-1.70098">
        <ele>32</ele>
        <time>2026-03-09T16:42:22.000Z</time>
      </trkpt>
      <trkpt lat="43.39113" lon="-1.70114">
        <ele>32</ele>
        <time>2026-03-09T16:42:25.000Z</time>
      </trkpt>
      <trkpt lat="43.39103" lon="-1.7014">
        <ele>31</ele>
        <time>2026-03-09T16:42:28.000Z</time>
      </trkpt>
      <trkpt lat="43.39098" lon="-1.70151">
        <ele>31</ele>
        <time>2026-03-09T16:42:30.000Z</time>
      </trkpt>
      <trkpt lat="43.39093" lon="-1.70162">
        <ele>32</ele>
        <time>2026-03-09T16:42:32.000Z</time>
      </trkpt>
      <trkpt lat="43.39091" lon="-1.70169">
        <ele>31</ele>
        <time>2026-03-09T16:42:33.000Z</time>
      </trkpt>
      <trkpt lat="43.39089" lon="-1.70174">
        <ele>31</ele>
        <time>2026-03-09T16:42:33.000Z</time>
      </trkpt>
      <trkpt lat="43.39085" lon="-1.70186">
        <ele>31</ele>
        <time>2026-03-09T16:42:35.000Z</time>
      </trkpt>
      <trkpt lat="43.39081" lon="-1.70197">
        <ele>30</ele>
        <time>2026-03-09T16:42:37.000Z</time>
      </trkpt>
      <trkpt lat="43.39068" lon="-1.70241">
        <ele>26</ele>
        <time>2026-03-09T16:42:43.000Z</time>
      </trkpt>
      <trkpt lat="43.39061" lon="-1.70262">
        <ele>26</ele>
        <time>2026-03-09T16:42:46.000Z</time>
      </trkpt>
      <trkpt lat="43.39043" lon="-1.70319">
        <ele>26</ele>
        <time>2026-03-09T16:42:54.000Z</time>
      </trkpt>
      <trkpt lat="43.39016" lon="-1.70389">
        <ele>30</ele>
        <time>2026-03-09T16:43:04.000Z</time>
      </trkpt>
      <trkpt lat="43.3899" lon="-1.70468">
        <ele>34</ele>
        <time>2026-03-09T16:43:15.000Z</time>
      </trkpt>
      <trkpt lat="43.38976" lon="-1.70513">
        <ele>35</ele>
        <time>2026-03-09T16:43:22.000Z</time>
      </trkpt>
      <trkpt lat="43.38966" lon="-1.70546">
        <ele>37</ele>
        <time>2026-03-09T16:43:26.000Z</time>
      </trkpt>
      <trkpt lat="43.38958" lon="-1.70573">
        <ele>39</ele>
        <time>2026-03-09T16:43:30.000Z</time>
      </trkpt>
      <trkpt lat="43.3895" lon="-1.70592">
        <ele>40</ele>
        <time>2026-03-09T16:43:33.000Z</time>
      </trkpt>
      <trkpt lat="43.38938" lon="-1.70613">
        <ele>41</ele>
        <time>2026-03-09T16:43:36.000Z</time>
      </trkpt>
      <trkpt lat="43.38929" lon="-1.70627">
        <ele>43</ele>
        <time>2026-03-09T16:43:39.000Z</time>
      </trkpt>
      <trkpt lat="43.38923" lon="-1.70639">
        <ele>43</ele>
        <time>2026-03-09T16:43:41.000Z</time>
      </trkpt>
      <trkpt lat="43.38914" lon="-1.70657">
        <ele>44</ele>
        <time>2026-03-09T16:43:44.000Z</time>
      </trkpt>
      <trkpt lat="43.3891" lon="-1.70668">
        <ele>43</ele>
        <time>2026-03-09T16:43:45.000Z</time>
      </trkpt>
      <trkpt lat="43.38906" lon="-1.70681">
        <ele>43</ele>
        <time>2026-03-09T16:43:47.000Z</time>
      </trkpt>
      <trkpt lat="43.38901" lon="-1.70698">
        <ele>41</ele>
        <time>2026-03-09T16:43:49.000Z</time>
      </trkpt>
      <trkpt lat="43.38896" lon="-1.70719">
        <ele>40</ele>
        <time>2026-03-09T16:43:52.000Z</time>
      </trkpt>
      <trkpt lat="43.38894" lon="-1.70733">
        <ele>39</ele>
        <time>2026-03-09T16:43:54.000Z</time>
      </trkpt>
      <trkpt lat="43.3889" lon="-1.70754">
        <ele>38</ele>
        <time>2026-03-09T16:43:57.000Z</time>
      </trkpt>
      <trkpt lat="43.38889" lon="-1.7077">
        <ele>37</ele>
        <time>2026-03-09T16:43:59.000Z</time>
      </trkpt>
      <trkpt lat="43.38886" lon="-1.70796">
        <ele>36</ele>
        <time>2026-03-09T16:44:02.000Z</time>
      </trkpt>
      <trkpt lat="43.38885" lon="-1.7081">
        <ele>35</ele>
        <time>2026-03-09T16:44:04.000Z</time>
      </trkpt>
      <trkpt lat="43.38883" lon="-1.70824">
        <ele>34</ele>
        <time>2026-03-09T16:44:06.000Z</time>
      </trkpt>
      <trkpt lat="43.38883" lon="-1.70826">
        <ele>34</ele>
        <time>2026-03-09T16:44:06.000Z</time>
      </trkpt>
      <trkpt lat="43.38877" lon="-1.70841">
        <ele>33</ele>
        <time>2026-03-09T16:44:08.000Z</time>
      </trkpt>
      <trkpt lat="43.38875" lon="-1.70847">
        <ele>32</ele>
        <time>2026-03-09T16:44:09.000Z</time>
      </trkpt>
      <trkpt lat="43.38871" lon="-1.70855">
        <ele>31</ele>
        <time>2026-03-09T16:44:11.000Z</time>
      </trkpt>
      <trkpt lat="43.38866" lon="-1.70863">
        <ele>31</ele>
        <time>2026-03-09T16:44:12.000Z</time>
      </trkpt>
      <trkpt lat="43.38862" lon="-1.70869">
        <ele>31</ele>
        <time>2026-03-09T16:44:13.000Z</time>
      </trkpt>
      <trkpt lat="43.38855" lon="-1.70876">
        <ele>31</ele>
        <time>2026-03-09T16:44:15.000Z</time>
      </trkpt>
      <trkpt lat="43.38846" lon="-1.70884">
        <ele>32</ele>
        <time>2026-03-09T16:44:16.000Z</time>
      </trkpt>
      <trkpt lat="43.38752" lon="-1.7092">
        <ele>33</ele>
        <time>2026-03-09T16:44:34.000Z</time>
      </trkpt>
      <trkpt lat="43.38726" lon="-1.70929">
        <ele>32</ele>
        <time>2026-03-09T16:44:39.000Z</time>
      </trkpt>
      <trkpt lat="43.38704" lon="-1.70937">
        <ele>31</ele>
        <time>2026-03-09T16:44:43.000Z</time>
      </trkpt>
      <trkpt lat="43.38692" lon="-1.70942">
        <ele>30</ele>
        <time>2026-03-09T16:44:45.000Z</time>
      </trkpt>
      <trkpt lat="43.38682" lon="-1.70949">
        <ele>30</ele>
        <time>2026-03-09T16:44:47.000Z</time>
      </trkpt>
      <trkpt lat="43.38674" lon="-1.70954">
        <ele>29</ele>
        <time>2026-03-09T16:44:48.000Z</time>
      </trkpt>
      <trkpt lat="43.38667" lon="-1.7096">
        <ele>29</ele>
        <time>2026-03-09T16:44:50.000Z</time>
      </trkpt>
      <trkpt lat="43.38659" lon="-1.70971">
        <ele>28</ele>
        <time>2026-03-09T16:44:52.000Z</time>
      </trkpt>
      <trkpt lat="43.38653" lon="-1.7098">
        <ele>28</ele>
        <time>2026-03-09T16:44:53.000Z</time>
      </trkpt>
      <trkpt lat="43.38648" lon="-1.7099">
        <ele>28</ele>
        <time>2026-03-09T16:44:55.000Z</time>
      </trkpt>
      <trkpt lat="43.38644" lon="-1.71">
        <ele>27</ele>
        <time>2026-03-09T16:44:57.000Z</time>
      </trkpt>
      <trkpt lat="43.38639" lon="-1.71011">
        <ele>27</ele>
        <time>2026-03-09T16:44:58.000Z</time>
      </trkpt>
      <trkpt lat="43.38637" lon="-1.7102">
        <ele>26</ele>
        <time>2026-03-09T16:44:59.000Z</time>
      </trkpt>
      <trkpt lat="43.38634" lon="-1.71033">
        <ele>26</ele>
        <time>2026-03-09T16:45:01.000Z</time>
      </trkpt>
      <trkpt lat="43.38633" lon="-1.71044">
        <ele>25</ele>
        <time>2026-03-09T16:45:03.000Z</time>
      </trkpt>
      <trkpt lat="43.38632" lon="-1.71055">
        <ele>24</ele>
        <time>2026-03-09T16:45:04.000Z</time>
      </trkpt>
      <trkpt lat="43.38632" lon="-1.71066">
        <ele>24</ele>
        <time>2026-03-09T16:45:05.000Z</time>
      </trkpt>
      <trkpt lat="43.38633" lon="-1.71081">
        <ele>23</ele>
        <time>2026-03-09T16:45:07.000Z</time>
      </trkpt>
      <trkpt lat="43.38635" lon="-1.71096">
        <ele>22</ele>
        <time>2026-03-09T16:45:09.000Z</time>
      </trkpt>
      <trkpt lat="43.38638" lon="-1.7111">
        <ele>21</ele>
        <time>2026-03-09T16:45:11.000Z</time>
      </trkpt>
      <trkpt lat="43.38644" lon="-1.71135">
        <ele>20</ele>
        <time>2026-03-09T16:45:15.000Z</time>
      </trkpt>
      <trkpt lat="43.38649" lon="-1.71156">
        <ele>19</ele>
        <time>2026-03-09T16:45:18.000Z</time>
      </trkpt>
      <trkpt lat="43.38655" lon="-1.7118">
        <ele>17</ele>
        <time>2026-03-09T16:45:21.000Z</time>
      </trkpt>
      <trkpt lat="43.38661" lon="-1.71205">
        <ele>16</ele>
        <time>2026-03-09T16:45:24.000Z</time>
      </trkpt>
      <trkpt lat="43.3867" lon="-1.7124">
        <ele>14</ele>
        <time>2026-03-09T16:45:29.000Z</time>
      </trkpt>
      <trkpt lat="43.38679" lon="-1.71277">
        <ele>13</ele>
        <time>2026-03-09T16:45:34.000Z</time>
      </trkpt>
      <trkpt lat="43.3868" lon="-1.71283">
        <ele>13</ele>
        <time>2026-03-09T16:45:35.000Z</time>
      </trkpt>
      <trkpt lat="43.38683" lon="-1.71299">
        <ele>13</ele>
        <time>2026-03-09T16:45:37.000Z</time>
      </trkpt>
      <trkpt lat="43.38685" lon="-1.71309">
        <ele>13</ele>
        <time>2026-03-09T16:45:38.000Z</time>
      </trkpt>
      <trkpt lat="43.38685" lon="-1.71319">
        <ele>13</ele>
        <time>2026-03-09T16:45:40.000Z</time>
      </trkpt>
      <trkpt lat="43.38685" lon="-1.71321">
        <ele>13</ele>
        <time>2026-03-09T16:45:40.000Z</time>
      </trkpt>
      <trkpt lat="43.38685" lon="-1.71327">
        <ele>13</ele>
        <time>2026-03-09T16:45:41.000Z</time>
      </trkpt>
      <trkpt lat="43.38685" lon="-1.71332">
        <ele>14</ele>
        <time>2026-03-09T16:45:41.000Z</time>
      </trkpt>
      <trkpt lat="43.38683" lon="-1.71346">
        <ele>14</ele>
        <time>2026-03-09T16:45:43.000Z</time>
      </trkpt>
      <trkpt lat="43.38682" lon="-1.71354">
        <ele>15</ele>
        <time>2026-03-09T16:45:44.000Z</time>
      </trkpt>
      <trkpt lat="43.38681" lon="-1.7136">
        <ele>15</ele>
        <time>2026-03-09T16:45:45.000Z</time>
      </trkpt>
      <trkpt lat="43.38676" lon="-1.7138">
        <ele>17</ele>
        <time>2026-03-09T16:45:48.000Z</time>
      </trkpt>
      <trkpt lat="43.38668" lon="-1.71408">
        <ele>19</ele>
        <time>2026-03-09T16:45:52.000Z</time>
      </trkpt>
      <trkpt lat="43.38653" lon="-1.71459">
        <ele>18</ele>
        <time>2026-03-09T16:45:59.000Z</time>
      </trkpt>
      <trkpt lat="43.38649" lon="-1.71475">
        <ele>18</ele>
        <time>2026-03-09T16:46:01.000Z</time>
      </trkpt>
      <trkpt lat="43.38643" lon="-1.71493">
        <ele>17</ele>
        <time>2026-03-09T16:46:03.000Z</time>
      </trkpt>
      <trkpt lat="43.38637" lon="-1.71516">
        <ele>17</ele>
        <time>2026-03-09T16:46:07.000Z</time>
      </trkpt>
      <trkpt lat="43.38627" lon="-1.71552">
        <ele>17</ele>
        <time>2026-03-09T16:46:12.000Z</time>
      </trkpt>
      <trkpt lat="43.38614" lon="-1.71598">
        <ele>18</ele>
        <time>2026-03-09T16:46:18.000Z</time>
      </trkpt>
      <trkpt lat="43.38602" lon="-1.71637">
        <ele>21</ele>
        <time>2026-03-09T16:46:23.000Z</time>
      </trkpt>
      <trkpt lat="43.38593" lon="-1.71671">
        <ele>23</ele>
        <time>2026-03-09T16:46:28.000Z</time>
      </trkpt>
      <trkpt lat="43.38584" lon="-1.71699">
        <ele>25</ele>
        <time>2026-03-09T16:46:32.000Z</time>
      </trkpt>
      <trkpt lat="43.38576" lon="-1.71723">
        <ele>26</ele>
        <time>2026-03-09T16:46:36.000Z</time>
      </trkpt>
      <trkpt lat="43.38568" lon="-1.71746">
        <ele>27</ele>
        <time>2026-03-09T16:46:39.000Z</time>
      </trkpt>
      <trkpt lat="43.3856" lon="-1.71768">
        <ele>26</ele>
        <time>2026-03-09T16:46:42.000Z</time>
      </trkpt>
      <trkpt lat="43.38543" lon="-1.71814">
        <ele>26</ele>
        <time>2026-03-09T16:46:49.000Z</time>
      </trkpt>
      <trkpt lat="43.38524" lon="-1.71861">
        <ele>27</ele>
        <time>2026-03-09T16:46:56.000Z</time>
      </trkpt>
      <trkpt lat="43.38505" lon="-1.71914">
        <ele>31</ele>
        <time>2026-03-09T16:47:03.000Z</time>
      </trkpt>
      <trkpt lat="43.38486" lon="-1.71968">
        <ele>31</ele>
        <time>2026-03-09T16:47:11.000Z</time>
      </trkpt>
      <trkpt lat="43.38465" lon="-1.72023">
        <ele>33</ele>
        <time>2026-03-09T16:47:19.000Z</time>
      </trkpt>
      <trkpt lat="43.38459" lon="-1.72042">
        <ele>33</ele>
        <time>2026-03-09T16:47:22.000Z</time>
      </trkpt>
      <trkpt lat="43.38447" lon="-1.72075">
        <ele>35</ele>
        <time>2026-03-09T16:47:27.000Z</time>
      </trkpt>
      <trkpt lat="43.38442" lon="-1.72087">
        <ele>36</ele>
        <time>2026-03-09T16:47:28.000Z</time>
      </trkpt>
      <trkpt lat="43.38437" lon="-1.721">
        <ele>37</ele>
        <time>2026-03-09T16:47:30.000Z</time>
      </trkpt>
      <trkpt lat="43.38426" lon="-1.72127">
        <ele>39</ele>
        <time>2026-03-09T16:47:34.000Z</time>
      </trkpt>
      <trkpt lat="43.38422" lon="-1.72137">
        <ele>40</ele>
        <time>2026-03-09T16:47:36.000Z</time>
      </trkpt>
      <trkpt lat="43.38418" lon="-1.72147">
        <ele>41</ele>
        <time>2026-03-09T16:47:37.000Z</time>
      </trkpt>
      <trkpt lat="43.38413" lon="-1.72163">
        <ele>41</ele>
        <time>2026-03-09T16:47:39.000Z</time>
      </trkpt>
      <trkpt lat="43.3841" lon="-1.72175">
        <ele>42</ele>
        <time>2026-03-09T16:47:41.000Z</time>
      </trkpt>
      <trkpt lat="43.38407" lon="-1.7219">
        <ele>42</ele>
        <time>2026-03-09T16:47:43.000Z</time>
      </trkpt>
      <trkpt lat="43.38406" lon="-1.72199">
        <ele>42</ele>
        <time>2026-03-09T16:47:44.000Z</time>
      </trkpt>
      <trkpt lat="43.38406" lon="-1.72209">
        <ele>42</ele>
        <time>2026-03-09T16:47:46.000Z</time>
      </trkpt>
      <trkpt lat="43.38406" lon="-1.72219">
        <ele>43</ele>
        <time>2026-03-09T16:47:47.000Z</time>
      </trkpt>
      <trkpt lat="43.38406" lon="-1.72229">
        <ele>43</ele>
        <time>2026-03-09T16:47:48.000Z</time>
      </trkpt>
      <trkpt lat="43.38407" lon="-1.72239">
        <ele>43</ele>
        <time>2026-03-09T16:47:49.000Z</time>
      </trkpt>
      <trkpt lat="43.38408" lon="-1.72247">
        <ele>43</ele>
        <time>2026-03-09T16:47:51.000Z</time>
      </trkpt>
      <trkpt lat="43.38411" lon="-1.72262">
        <ele>43</ele>
        <time>2026-03-09T16:47:53.000Z</time>
      </trkpt>
      <trkpt lat="43.38415" lon="-1.7228">
        <ele>42</ele>
        <time>2026-03-09T16:47:55.000Z</time>
      </trkpt>
      <trkpt lat="43.3842" lon="-1.723">
        <ele>40</ele>
        <time>2026-03-09T16:47:58.000Z</time>
      </trkpt>
      <trkpt lat="43.38422" lon="-1.7231">
        <ele>39</ele>
        <time>2026-03-09T16:47:59.000Z</time>
      </trkpt>
      <trkpt lat="43.38424" lon="-1.72317">
        <ele>38</ele>
        <time>2026-03-09T16:48:00.000Z</time>
      </trkpt>
      <trkpt lat="43.38431" lon="-1.72346">
        <ele>34</ele>
        <time>2026-03-09T16:48:04.000Z</time>
      </trkpt>
      <trkpt lat="43.38433" lon="-1.72354">
        <ele>33</ele>
        <time>2026-03-09T16:48:05.000Z</time>
      </trkpt>
      <trkpt lat="43.38434" lon="-1.72363">
        <ele>32</ele>
        <time>2026-03-09T16:48:06.000Z</time>
      </trkpt>
      <trkpt lat="43.38436" lon="-1.72374">
        <ele>31</ele>
        <time>2026-03-09T16:48:08.000Z</time>
      </trkpt>
      <trkpt lat="43.38437" lon="-1.72381">
        <ele>30</ele>
        <time>2026-03-09T16:48:09.000Z</time>
      </trkpt>
      <trkpt lat="43.38438" lon="-1.72389">
        <ele>29</ele>
        <time>2026-03-09T16:48:10.000Z</time>
      </trkpt>
      <trkpt lat="43.38439" lon="-1.724">
        <ele>28</ele>
        <time>2026-03-09T16:48:11.000Z</time>
      </trkpt>
      <trkpt lat="43.3844" lon="-1.72411">
        <ele>27</ele>
        <time>2026-03-09T16:48:13.000Z</time>
      </trkpt>
      <trkpt lat="43.3844" lon="-1.72428">
        <ele>26</ele>
        <time>2026-03-09T16:48:15.000Z</time>
      </trkpt>
      <trkpt lat="43.38439" lon="-1.7244">
        <ele>25</ele>
        <time>2026-03-09T16:48:16.000Z</time>
      </trkpt>
      <trkpt lat="43.38438" lon="-1.72452">
        <ele>24</ele>
        <time>2026-03-09T16:48:18.000Z</time>
      </trkpt>
      <trkpt lat="43.38436" lon="-1.72459">
        <ele>24</ele>
        <time>2026-03-09T16:48:19.000Z</time>
      </trkpt>
      <trkpt lat="43.38434" lon="-1.72469">
        <ele>24</ele>
        <time>2026-03-09T16:48:20.000Z</time>
      </trkpt>
      <trkpt lat="43.38431" lon="-1.72481">
        <ele>23</ele>
        <time>2026-03-09T16:48:22.000Z</time>
      </trkpt>
      <trkpt lat="43.38428" lon="-1.7249">
        <ele>23</ele>
        <time>2026-03-09T16:48:23.000Z</time>
      </trkpt>
      <trkpt lat="43.38426" lon="-1.72498">
        <ele>23</ele>
        <time>2026-03-09T16:48:24.000Z</time>
      </trkpt>
      <trkpt lat="43.38423" lon="-1.72506">
        <ele>22</ele>
        <time>2026-03-09T16:48:25.000Z</time>
      </trkpt>
      <trkpt lat="43.38415" lon="-1.72523">
        <ele>21</ele>
        <time>2026-03-09T16:48:28.000Z</time>
      </trkpt>
      <trkpt lat="43.38403" lon="-1.72543">
        <ele>19</ele>
        <time>2026-03-09T16:48:31.000Z</time>
      </trkpt>
      <trkpt lat="43.3839" lon="-1.72558">
        <ele>18</ele>
        <time>2026-03-09T16:48:34.000Z</time>
      </trkpt>
      <trkpt lat="43.38381" lon="-1.72568">
        <ele>18</ele>
        <time>2026-03-09T16:48:36.000Z</time>
      </trkpt>
      <trkpt lat="43.38365" lon="-1.72583">
        <ele>19</ele>
        <time>2026-03-09T16:48:40.000Z</time>
      </trkpt>
      <trkpt lat="43.38349" lon="-1.72596">
        <ele>20</ele>
        <time>2026-03-09T16:48:43.000Z</time>
      </trkpt>
      <trkpt lat="43.38327" lon="-1.72617">
        <ele>21</ele>
        <time>2026-03-09T16:48:48.000Z</time>
      </trkpt>
      <trkpt lat="43.38303" lon="-1.72639">
        <ele>20</ele>
        <time>2026-03-09T16:48:53.000Z</time>
      </trkpt>
      <trkpt lat="43.38293" lon="-1.72648">
        <ele>20</ele>
        <time>2026-03-09T16:48:55.000Z</time>
      </trkpt>
      <trkpt lat="43.38264" lon="-1.72674">
        <ele>20</ele>
        <time>2026-03-09T16:49:01.000Z</time>
      </trkpt>
      <trkpt lat="43.38243" lon="-1.72693">
        <ele>20</ele>
        <time>2026-03-09T16:49:06.000Z</time>
      </trkpt>
      <trkpt lat="43.38239" lon="-1.72697">
        <ele>20</ele>
        <time>2026-03-09T16:49:07.000Z</time>
      </trkpt>
      <trkpt lat="43.38228" lon="-1.7271">
        <ele>19</ele>
        <time>2026-03-09T16:49:09.000Z</time>
      </trkpt>
      <trkpt lat="43.38222" lon="-1.72718">
        <ele>18</ele>
        <time>2026-03-09T16:49:11.000Z</time>
      </trkpt>
      <trkpt lat="43.38217" lon="-1.72727">
        <ele>18</ele>
        <time>2026-03-09T16:49:12.000Z</time>
      </trkpt>
      <trkpt lat="43.38213" lon="-1.72735">
        <ele>17</ele>
        <time>2026-03-09T16:49:13.000Z</time>
      </trkpt>
      <trkpt lat="43.38209" lon="-1.72745">
        <ele>16</ele>
        <time>2026-03-09T16:49:15.000Z</time>
      </trkpt>
      <trkpt lat="43.38207" lon="-1.72753">
        <ele>16</ele>
        <time>2026-03-09T16:49:16.000Z</time>
      </trkpt>
      <trkpt lat="43.38206" lon="-1.72755">
        <ele>16</ele>
        <time>2026-03-09T16:49:16.000Z</time>
      </trkpt>
      <trkpt lat="43.38202" lon="-1.72771">
        <ele>15</ele>
        <time>2026-03-09T16:49:19.000Z</time>
      </trkpt>
      <trkpt lat="43.38196" lon="-1.72792">
        <ele>15</ele>
        <time>2026-03-09T16:49:21.000Z</time>
      </trkpt>
      <trkpt lat="43.38196" lon="-1.72794">
        <ele>15</ele>
        <time>2026-03-09T16:49:22.000Z</time>
      </trkpt>
      <trkpt lat="43.3819" lon="-1.72816">
        <ele>15</ele>
        <time>2026-03-09T16:49:25.000Z</time>
      </trkpt>
      <trkpt lat="43.38188" lon="-1.72824">
        <ele>14</ele>
        <time>2026-03-09T16:49:26.000Z</time>
      </trkpt>
      <trkpt lat="43.38183" lon="-1.72843">
        <ele>15</ele>
        <time>2026-03-09T16:49:28.000Z</time>
      </trkpt>
      <trkpt lat="43.38176" lon="-1.72873">
        <ele>15</ele>
        <time>2026-03-09T16:49:33.000Z</time>
      </trkpt>
      <trkpt lat="43.38174" lon="-1.72885">
        <ele>15</ele>
        <time>2026-03-09T16:49:34.000Z</time>
      </trkpt>
      <trkpt lat="43.38172" lon="-1.72894">
        <ele>15</ele>
        <time>2026-03-09T16:49:35.000Z</time>
      </trkpt>
      <trkpt lat="43.3817" lon="-1.72901">
        <ele>15</ele>
        <time>2026-03-09T16:49:36.000Z</time>
      </trkpt>
      <trkpt lat="43.38169" lon="-1.72909">
        <ele>15</ele>
        <time>2026-03-09T16:49:37.000Z</time>
      </trkpt>
      <trkpt lat="43.38168" lon="-1.7292">
        <ele>15</ele>
        <time>2026-03-09T16:49:39.000Z</time>
      </trkpt>
      <trkpt lat="43.38167" lon="-1.72934">
        <ele>15</ele>
        <time>2026-03-09T16:49:41.000Z</time>
      </trkpt>
      <trkpt lat="43.38167" lon="-1.72945">
        <ele>15</ele>
        <time>2026-03-09T16:49:42.000Z</time>
      </trkpt>
      <trkpt lat="43.38168" lon="-1.72956">
        <ele>15</ele>
        <time>2026-03-09T16:49:43.000Z</time>
      </trkpt>
      <trkpt lat="43.38169" lon="-1.7297">
        <ele>15</ele>
        <time>2026-03-09T16:49:45.000Z</time>
      </trkpt>
      <trkpt lat="43.38171" lon="-1.72993">
        <ele>14</ele>
        <time>2026-03-09T16:49:48.000Z</time>
      </trkpt>
      <trkpt lat="43.38174" lon="-1.73011">
        <ele>14</ele>
        <time>2026-03-09T16:49:51.000Z</time>
      </trkpt>
      <trkpt lat="43.38178" lon="-1.73037">
        <ele>14</ele>
        <time>2026-03-09T16:49:54.000Z</time>
      </trkpt>
      <trkpt lat="43.3818" lon="-1.73058">
        <ele>15</ele>
        <time>2026-03-09T16:49:57.000Z</time>
      </trkpt>
      <trkpt lat="43.38184" lon="-1.73087">
        <ele>15</ele>
        <time>2026-03-09T16:50:01.000Z</time>
      </trkpt>
      <trkpt lat="43.38186" lon="-1.73105">
        <ele>14</ele>
        <time>2026-03-09T16:50:03.000Z</time>
      </trkpt>
      <trkpt lat="43.38186" lon="-1.73115">
        <ele>14</ele>
        <time>2026-03-09T16:50:04.000Z</time>
      </trkpt>
      <trkpt lat="43.38186" lon="-1.73126">
        <ele>14</ele>
        <time>2026-03-09T16:50:06.000Z</time>
      </trkpt>
      <trkpt lat="43.38185" lon="-1.73136">
        <ele>14</ele>
        <time>2026-03-09T16:50:07.000Z</time>
      </trkpt>
      <trkpt lat="43.38182" lon="-1.73148">
        <ele>15</ele>
        <time>2026-03-09T16:50:09.000Z</time>
      </trkpt>
      <trkpt lat="43.3818" lon="-1.73158">
        <ele>15</ele>
        <time>2026-03-09T16:50:10.000Z</time>
      </trkpt>
      <trkpt lat="43.38177" lon="-1.73166">
        <ele>16</ele>
        <time>2026-03-09T16:50:11.000Z</time>
      </trkpt>
      <trkpt lat="43.38175" lon="-1.73172">
        <ele>16</ele>
        <time>2026-03-09T16:50:12.000Z</time>
      </trkpt>
      <trkpt lat="43.38172" lon="-1.73179">
        <ele>15</ele>
        <time>2026-03-09T16:50:13.000Z</time>
      </trkpt>
      <trkpt lat="43.38163" lon="-1.73192">
        <ele>15</ele>
        <time>2026-03-09T16:50:15.000Z</time>
      </trkpt>
      <trkpt lat="43.38158" lon="-1.732">
        <ele>14</ele>
        <time>2026-03-09T16:50:17.000Z</time>
      </trkpt>
      <trkpt lat="43.38155" lon="-1.73204">
        <ele>14</ele>
        <time>2026-03-09T16:50:18.000Z</time>
      </trkpt>
      <trkpt lat="43.38152" lon="-1.73207">
        <ele>13</ele>
        <time>2026-03-09T16:50:18.000Z</time>
      </trkpt>
      <trkpt lat="43.38144" lon="-1.73215">
        <ele>13</ele>
        <time>2026-03-09T16:50:20.000Z</time>
      </trkpt>
      <trkpt lat="43.38136" lon="-1.7322">
        <ele>12</ele>
        <time>2026-03-09T16:50:22.000Z</time>
      </trkpt>
      <trkpt lat="43.38124" lon="-1.73227">
        <ele>11</ele>
        <time>2026-03-09T16:50:24.000Z</time>
      </trkpt>
      <trkpt lat="43.38121" lon="-1.73228">
        <ele>11</ele>
        <time>2026-03-09T16:50:24.000Z</time>
      </trkpt>
      <trkpt lat="43.38114" lon="-1.7323">
        <ele>11</ele>
        <time>2026-03-09T16:50:26.000Z</time>
      </trkpt>
      <trkpt lat="43.38107" lon="-1.73231">
        <ele>11</ele>
        <time>2026-03-09T16:50:27.000Z</time>
      </trkpt>
      <trkpt lat="43.38098" lon="-1.73231">
        <ele>12</ele>
        <time>2026-03-09T16:50:28.000Z</time>
      </trkpt>
      <trkpt lat="43.38089" lon="-1.73231">
        <ele>12</ele>
        <time>2026-03-09T16:50:30.000Z</time>
      </trkpt>
      <trkpt lat="43.38083" lon="-1.7323">
        <ele>12</ele>
        <time>2026-03-09T16:50:31.000Z</time>
      </trkpt>
      <trkpt lat="43.38059" lon="-1.7323">
        <ele>13</ele>
        <time>2026-03-09T16:50:35.000Z</time>
      </trkpt>
      <trkpt lat="43.3805" lon="-1.7323">
        <ele>13</ele>
        <time>2026-03-09T16:50:37.000Z</time>
      </trkpt>
      <trkpt lat="43.38043" lon="-1.73231">
        <ele>12</ele>
        <time>2026-03-09T16:50:38.000Z</time>
      </trkpt>
      <trkpt lat="43.38039" lon="-1.73231">
        <ele>12</ele>
        <time>2026-03-09T16:50:39.000Z</time>
      </trkpt>
      <trkpt lat="43.38031" lon="-1.73237">
        <ele>12</ele>
        <time>2026-03-09T16:50:41.000Z</time>
      </trkpt>
      <trkpt lat="43.38021" lon="-1.73241">
        <ele>11</ele>
        <time>2026-03-09T16:50:42.000Z</time>
      </trkpt>
      <trkpt lat="43.38012" lon="-1.73248">
        <ele>10</ele>
        <time>2026-03-09T16:50:44.000Z</time>
      </trkpt>
      <trkpt lat="43.38001" lon="-1.73254">
        <ele>10</ele>
        <time>2026-03-09T16:50:46.000Z</time>
      </trkpt>
      <trkpt lat="43.37997" lon="-1.73257">
        <ele>10</ele>
        <time>2026-03-09T16:50:47.000Z</time>
      </trkpt>
      <trkpt lat="43.37987" lon="-1.73263">
        <ele>10</ele>
        <time>2026-03-09T16:50:49.000Z</time>
      </trkpt>
      <trkpt lat="43.37981" lon="-1.73266">
        <ele>11</ele>
        <time>2026-03-09T16:50:50.000Z</time>
      </trkpt>
      <trkpt lat="43.37979" lon="-1.73268">
        <ele>11</ele>
        <time>2026-03-09T16:50:51.000Z</time>
      </trkpt>
      <trkpt lat="43.3795" lon="-1.73288">
        <ele>12</ele>
        <time>2026-03-09T16:50:57.000Z</time>
      </trkpt>
      <trkpt lat="43.37932" lon="-1.73302">
        <ele>12</ele>
        <time>2026-03-09T16:51:00.000Z</time>
      </trkpt>
      <trkpt lat="43.37915" lon="-1.73318">
        <ele>12</ele>
        <time>2026-03-09T16:51:04.000Z</time>
      </trkpt>
      <trkpt lat="43.37904" lon="-1.7333">
        <ele>12</ele>
        <time>2026-03-09T16:51:06.000Z</time>
      </trkpt>
      <trkpt lat="43.37896" lon="-1.7334">
        <ele>12</ele>
        <time>2026-03-09T16:51:08.000Z</time>
      </trkpt>
      <trkpt lat="43.37889" lon="-1.73345">
        <ele>12</ele>
        <time>2026-03-09T16:51:10.000Z</time>
      </trkpt>
      <trkpt lat="43.3788" lon="-1.73358">
        <ele>13</ele>
        <time>2026-03-09T16:51:12.000Z</time>
      </trkpt>
      <trkpt lat="43.37873" lon="-1.73368">
        <ele>13</ele>
        <time>2026-03-09T16:51:14.000Z</time>
      </trkpt>
      <trkpt lat="43.37872" lon="-1.7337">
        <ele>13</ele>
        <time>2026-03-09T16:51:14.000Z</time>
      </trkpt>
      <trkpt lat="43.37855" lon="-1.73397">
        <ele>13</ele>
        <time>2026-03-09T16:51:19.000Z</time>
      </trkpt>
      <trkpt lat="43.37841" lon="-1.7342">
        <ele>14</ele>
        <time>2026-03-09T16:51:23.000Z</time>
      </trkpt>
      <trkpt lat="43.37837" lon="-1.73426">
        <ele>14</ele>
        <time>2026-03-09T16:51:24.000Z</time>
      </trkpt>
      <trkpt lat="43.37827" lon="-1.73442">
        <ele>15</ele>
        <time>2026-03-09T16:51:26.000Z</time>
      </trkpt>
      <trkpt lat="43.37824" lon="-1.73446">
        <ele>15</ele>
        <time>2026-03-09T16:51:27.000Z</time>
      </trkpt>
      <trkpt lat="43.37823" lon="-1.73448">
        <ele>15</ele>
        <time>2026-03-09T16:51:27.000Z</time>
      </trkpt>
      <trkpt lat="43.37803" lon="-1.7348">
        <ele>17</ele>
        <time>2026-03-09T16:51:33.000Z</time>
      </trkpt>
      <trkpt lat="43.37773" lon="-1.73527">
        <ele>20</ele>
        <time>2026-03-09T16:51:41.000Z</time>
      </trkpt>
      <trkpt lat="43.37768" lon="-1.73536">
        <ele>20</ele>
        <time>2026-03-09T16:51:42.000Z</time>
      </trkpt>
      <trkpt lat="43.37762" lon="-1.73544">
        <ele>21</ele>
        <time>2026-03-09T16:51:44.000Z</time>
      </trkpt>
      <trkpt lat="43.37756" lon="-1.73554">
        <ele>22</ele>
        <time>2026-03-09T16:51:46.000Z</time>
      </trkpt>
      <trkpt lat="43.37751" lon="-1.73562">
        <ele>23</ele>
        <time>2026-03-09T16:51:47.000Z</time>
      </trkpt>
      <trkpt lat="43.37746" lon="-1.73575">
        <ele>24</ele>
        <time>2026-03-09T16:51:49.000Z</time>
      </trkpt>
      <trkpt lat="43.37743" lon="-1.7358">
        <ele>25</ele>
        <time>2026-03-09T16:51:50.000Z</time>
      </trkpt>
      <trkpt lat="43.3774" lon="-1.73589">
        <ele>25</ele>
        <time>2026-03-09T16:51:51.000Z</time>
      </trkpt>
      <trkpt lat="43.37737" lon="-1.73599">
        <ele>25</ele>
        <time>2026-03-09T16:51:52.000Z</time>
      </trkpt>
      <trkpt lat="43.37736" lon="-1.73603">
        <ele>25</ele>
        <time>2026-03-09T16:51:53.000Z</time>
      </trkpt>
      <trkpt lat="43.37734" lon="-1.73614">
        <ele>25</ele>
        <time>2026-03-09T16:51:54.000Z</time>
      </trkpt>
      <trkpt lat="43.37734" lon="-1.73619">
        <ele>24</ele>
        <time>2026-03-09T16:51:55.000Z</time>
      </trkpt>
      <trkpt lat="43.37733" lon="-1.73625">
        <ele>24</ele>
        <time>2026-03-09T16:51:56.000Z</time>
      </trkpt>
      <trkpt lat="43.37733" lon="-1.73628">
        <ele>24</ele>
        <time>2026-03-09T16:51:56.000Z</time>
      </trkpt>
      <trkpt lat="43.37732" lon="-1.73639">
        <ele>24</ele>
        <time>2026-03-09T16:51:58.000Z</time>
      </trkpt>
      <trkpt lat="43.37732" lon="-1.7364">
        <ele>24</ele>
        <time>2026-03-09T16:51:58.000Z</time>
      </trkpt>
      <trkpt lat="43.37732" lon="-1.73654">
        <ele>24</ele>
        <time>2026-03-09T16:52:00.000Z</time>
      </trkpt>
      <trkpt lat="43.37733" lon="-1.73665">
        <ele>24</ele>
        <time>2026-03-09T16:52:01.000Z</time>
      </trkpt>
      <trkpt lat="43.37734" lon="-1.73672">
        <ele>24</ele>
        <time>2026-03-09T16:52:02.000Z</time>
      </trkpt>
      <trkpt lat="43.37737" lon="-1.73685">
        <ele>24</ele>
        <time>2026-03-09T16:52:04.000Z</time>
      </trkpt>
      <trkpt lat="43.37743" lon="-1.73712">
        <ele>25</ele>
        <time>2026-03-09T16:52:07.000Z</time>
      </trkpt>
      <trkpt lat="43.37745" lon="-1.73717">
        <ele>25</ele>
        <time>2026-03-09T16:52:08.000Z</time>
      </trkpt>
      <trkpt lat="43.37748" lon="-1.73732">
        <ele>26</ele>
        <time>2026-03-09T16:52:10.000Z</time>
      </trkpt>
      <trkpt lat="43.3775" lon="-1.73739">
        <ele>26</ele>
        <time>2026-03-09T16:52:11.000Z</time>
      </trkpt>
      <trkpt lat="43.37751" lon="-1.73744">
        <ele>26</ele>
        <time>2026-03-09T16:52:12.000Z</time>
      </trkpt>
      <trkpt lat="43.37756" lon="-1.73763">
        <ele>26</ele>
        <time>2026-03-09T16:52:14.000Z</time>
      </trkpt>
      <trkpt lat="43.37758" lon="-1.73777">
        <ele>27</ele>
        <time>2026-03-09T16:52:16.000Z</time>
      </trkpt>
      <trkpt lat="43.37759" lon="-1.73791">
        <ele>27</ele>
        <time>2026-03-09T16:52:18.000Z</time>
      </trkpt>
      <trkpt lat="43.3776" lon="-1.73801">
        <ele>28</ele>
        <time>2026-03-09T16:52:19.000Z</time>
      </trkpt>
      <trkpt lat="43.37759" lon="-1.73803">
        <ele>28</ele>
        <time>2026-03-09T16:52:20.000Z</time>
      </trkpt>
      <trkpt lat="43.37758" lon="-1.73813">
        <ele>29</ele>
        <time>2026-03-09T16:52:21.000Z</time>
      </trkpt>
      <trkpt lat="43.37758" lon="-1.73818">
        <ele>29</ele>
        <time>2026-03-09T16:52:22.000Z</time>
      </trkpt>
      <trkpt lat="43.37756" lon="-1.73827">
        <ele>29</ele>
        <time>2026-03-09T16:52:23.000Z</time>
      </trkpt>
      <trkpt lat="43.37752" lon="-1.73841">
        <ele>30</ele>
        <time>2026-03-09T16:52:25.000Z</time>
      </trkpt>
      <trkpt lat="43.37747" lon="-1.73854">
        <ele>31</ele>
        <time>2026-03-09T16:52:27.000Z</time>
      </trkpt>
      <trkpt lat="43.37742" lon="-1.73863">
        <ele>32</ele>
        <time>2026-03-09T16:52:28.000Z</time>
      </trkpt>
      <trkpt lat="43.37735" lon="-1.73874">
        <ele>33</ele>
        <time>2026-03-09T16:52:30.000Z</time>
      </trkpt>
      <trkpt lat="43.3773" lon="-1.73879">
        <ele>33</ele>
        <time>2026-03-09T16:52:31.000Z</time>
      </trkpt>
      <trkpt lat="43.37715" lon="-1.73896">
        <ele>34</ele>
        <time>2026-03-09T16:52:35.000Z</time>
      </trkpt>
      <trkpt lat="43.37704" lon="-1.73906">
        <ele>35</ele>
        <time>2026-03-09T16:52:37.000Z</time>
      </trkpt>
      <trkpt lat="43.37702" lon="-1.73908">
        <ele>35</ele>
        <time>2026-03-09T16:52:37.000Z</time>
      </trkpt>
      <trkpt lat="43.37696" lon="-1.73915">
        <ele>36</ele>
        <time>2026-03-09T16:52:39.000Z</time>
      </trkpt>
      <trkpt lat="43.37677" lon="-1.73934">
        <ele>37</ele>
        <time>2026-03-09T16:52:43.000Z</time>
      </trkpt>
      <trkpt lat="43.3767" lon="-1.73943">
        <ele>37</ele>
        <time>2026-03-09T16:52:45.000Z</time>
      </trkpt>
      <trkpt lat="43.37665" lon="-1.73951">
        <ele>38</ele>
        <time>2026-03-09T16:52:46.000Z</time>
      </trkpt>
      <trkpt lat="43.37657" lon="-1.73965">
        <ele>38</ele>
        <time>2026-03-09T16:52:48.000Z</time>
      </trkpt>
      <trkpt lat="43.37651" lon="-1.73982">
        <ele>39</ele>
        <time>2026-03-09T16:52:51.000Z</time>
      </trkpt>
      <trkpt lat="43.37648" lon="-1.73994">
        <ele>40</ele>
        <time>2026-03-09T16:52:52.000Z</time>
      </trkpt>
      <trkpt lat="43.37645" lon="-1.74005">
        <ele>40</ele>
        <time>2026-03-09T16:52:54.000Z</time>
      </trkpt>
      <trkpt lat="43.37644" lon="-1.74018">
        <ele>41</ele>
        <time>2026-03-09T16:52:56.000Z</time>
      </trkpt>
      <trkpt lat="43.37643" lon="-1.7403">
        <ele>42</ele>
        <time>2026-03-09T16:52:57.000Z</time>
      </trkpt>
      <trkpt lat="43.37643" lon="-1.74038">
        <ele>42</ele>
        <time>2026-03-09T16:52:58.000Z</time>
      </trkpt>
      <trkpt lat="43.37644" lon="-1.74047">
        <ele>42</ele>
        <time>2026-03-09T16:52:59.000Z</time>
      </trkpt>
      <trkpt lat="43.37645" lon="-1.74057">
        <ele>43</ele>
        <time>2026-03-09T16:53:01.000Z</time>
      </trkpt>
      <trkpt lat="43.37646" lon="-1.74067">
        <ele>43</ele>
        <time>2026-03-09T16:53:02.000Z</time>
      </trkpt>
      <trkpt lat="43.37647" lon="-1.74074">
        <ele>43</ele>
        <time>2026-03-09T16:53:03.000Z</time>
      </trkpt>
      <trkpt lat="43.37649" lon="-1.74081">
        <ele>44</ele>
        <time>2026-03-09T16:53:04.000Z</time>
      </trkpt>
      <trkpt lat="43.37656" lon="-1.74104">
        <ele>44</ele>
        <time>2026-03-09T16:53:07.000Z</time>
      </trkpt>
      <trkpt lat="43.37661" lon="-1.74119">
        <ele>44</ele>
        <time>2026-03-09T16:53:09.000Z</time>
      </trkpt>
      <trkpt lat="43.37669" lon="-1.7414">
        <ele>45</ele>
        <time>2026-03-09T16:53:12.000Z</time>
      </trkpt>
      <trkpt lat="43.37686" lon="-1.74187">
        <ele>44</ele>
        <time>2026-03-09T16:53:19.000Z</time>
      </trkpt>
      <trkpt lat="43.37699" lon="-1.74223">
        <ele>44</ele>
        <time>2026-03-09T16:53:24.000Z</time>
      </trkpt>
      <trkpt lat="43.37711" lon="-1.74259">
        <ele>45</ele>
        <time>2026-03-09T16:53:29.000Z</time>
      </trkpt>
      <trkpt lat="43.37719" lon="-1.74279">
        <ele>45</ele>
        <time>2026-03-09T16:53:32.000Z</time>
      </trkpt>
      <trkpt lat="43.37725" lon="-1.74296">
        <ele>46</ele>
        <time>2026-03-09T16:53:35.000Z</time>
      </trkpt>
      <trkpt lat="43.37727" lon="-1.74305">
        <ele>46</ele>
        <time>2026-03-09T16:53:36.000Z</time>
      </trkpt>
      <trkpt lat="43.37729" lon="-1.74315">
        <ele>46</ele>
        <time>2026-03-09T16:53:37.000Z</time>
      </trkpt>
      <trkpt lat="43.37732" lon="-1.74331">
        <ele>47</ele>
        <time>2026-03-09T16:53:40.000Z</time>
      </trkpt>
      <trkpt lat="43.37734" lon="-1.74339">
        <ele>47</ele>
        <time>2026-03-09T16:53:41.000Z</time>
      </trkpt>
      <trkpt lat="43.37734" lon="-1.74345">
        <ele>47</ele>
        <time>2026-03-09T16:53:41.000Z</time>
      </trkpt>
      <trkpt lat="43.37735" lon="-1.74356">
        <ele>48</ele>
        <time>2026-03-09T16:53:43.000Z</time>
      </trkpt>
      <trkpt lat="43.37736" lon="-1.7438">
        <ele>49</ele>
        <time>2026-03-09T16:53:46.000Z</time>
      </trkpt>
      <trkpt lat="43.37738" lon="-1.7443">
        <ele>50</ele>
        <time>2026-03-09T16:53:52.000Z</time>
      </trkpt>
      <trkpt lat="43.37738" lon="-1.74447">
        <ele>51</ele>
        <time>2026-03-09T16:53:55.000Z</time>
      </trkpt>
      <trkpt lat="43.37739" lon="-1.7448">
        <ele>52</ele>
        <time>2026-03-09T16:53:59.000Z</time>
      </trkpt>
      <trkpt lat="43.3774" lon="-1.74502">
        <ele>53</ele>
        <time>2026-03-09T16:54:02.000Z</time>
      </trkpt>
      <trkpt lat="43.37741" lon="-1.74508">
        <ele>53</ele>
        <time>2026-03-09T16:54:03.000Z</time>
      </trkpt>
      <trkpt lat="43.37741" lon="-1.74533">
        <ele>54</ele>
        <time>2026-03-09T16:54:06.000Z</time>
      </trkpt>
      <trkpt lat="43.37741" lon="-1.74539">
        <ele>55</ele>
        <time>2026-03-09T16:54:07.000Z</time>
      </trkpt>
      <trkpt lat="43.3774" lon="-1.7455">
        <ele>55</ele>
        <time>2026-03-09T16:54:08.000Z</time>
      </trkpt>
      <trkpt lat="43.37739" lon="-1.74564">
        <ele>56</ele>
        <time>2026-03-09T16:54:10.000Z</time>
      </trkpt>
      <trkpt lat="43.37737" lon="-1.74584">
        <ele>57</ele>
        <time>2026-03-09T16:54:12.000Z</time>
      </trkpt>
      <trkpt lat="43.37733" lon="-1.74608">
        <ele>57</ele>
        <time>2026-03-09T16:54:16.000Z</time>
      </trkpt>
      <trkpt lat="43.37732" lon="-1.74613">
        <ele>58</ele>
        <time>2026-03-09T16:54:16.000Z</time>
      </trkpt>
      <trkpt lat="43.37726" lon="-1.74639">
        <ele>58</ele>
        <time>2026-03-09T16:54:20.000Z</time>
      </trkpt>
      <trkpt lat="43.37719" lon="-1.74662">
        <ele>58</ele>
        <time>2026-03-09T16:54:23.000Z</time>
      </trkpt>
      <trkpt lat="43.3771" lon="-1.74689">
        <ele>58</ele>
        <time>2026-03-09T16:54:27.000Z</time>
      </trkpt>
      <trkpt lat="43.37697" lon="-1.74722">
        <ele>58</ele>
        <time>2026-03-09T16:54:32.000Z</time>
      </trkpt>
      <trkpt lat="43.37689" lon="-1.74739">
        <ele>58</ele>
        <time>2026-03-09T16:54:34.000Z</time>
      </trkpt>
      <trkpt lat="43.37687" lon="-1.74743">
        <ele>58</ele>
        <time>2026-03-09T16:54:35.000Z</time>
      </trkpt>
      <trkpt lat="43.37679" lon="-1.74759">
        <ele>58</ele>
        <time>2026-03-09T16:54:38.000Z</time>
      </trkpt>
      <trkpt lat="43.37668" lon="-1.74776">
        <ele>58</ele>
        <time>2026-03-09T16:54:40.000Z</time>
      </trkpt>
      <trkpt lat="43.3766" lon="-1.74786">
        <ele>58</ele>
        <time>2026-03-09T16:54:42.000Z</time>
      </trkpt>
      <trkpt lat="43.37652" lon="-1.74797">
        <ele>57</ele>
        <time>2026-03-09T16:54:44.000Z</time>
      </trkpt>
      <trkpt lat="43.37644" lon="-1.74808">
        <ele>57</ele>
        <time>2026-03-09T16:54:46.000Z</time>
      </trkpt>
      <trkpt lat="43.37638" lon="-1.74818">
        <ele>57</ele>
        <time>2026-03-09T16:54:48.000Z</time>
      </trkpt>
      <trkpt lat="43.37632" lon="-1.7483">
        <ele>57</ele>
        <time>2026-03-09T16:54:50.000Z</time>
      </trkpt>
      <trkpt lat="43.37629" lon="-1.74838">
        <ele>57</ele>
        <time>2026-03-09T16:54:51.000Z</time>
      </trkpt>
      <trkpt lat="43.37628" lon="-1.74843">
        <ele>58</ele>
        <time>2026-03-09T16:54:52.000Z</time>
      </trkpt>
      <trkpt lat="43.37625" lon="-1.7485">
        <ele>58</ele>
        <time>2026-03-09T16:54:53.000Z</time>
      </trkpt>
      <trkpt lat="43.37623" lon="-1.74858">
        <ele>59</ele>
        <time>2026-03-09T16:54:54.000Z</time>
      </trkpt>
      <trkpt lat="43.37621" lon="-1.7487">
        <ele>60</ele>
        <time>2026-03-09T16:54:56.000Z</time>
      </trkpt>
      <trkpt lat="43.37619" lon="-1.74881">
        <ele>61</ele>
        <time>2026-03-09T16:54:57.000Z</time>
      </trkpt>
      <trkpt lat="43.37619" lon="-1.74889">
        <ele>62</ele>
        <time>2026-03-09T16:54:58.000Z</time>
      </trkpt>
      <trkpt lat="43.37618" lon="-1.74905">
        <ele>63</ele>
        <time>2026-03-09T16:55:00.000Z</time>
      </trkpt>
      <trkpt lat="43.37617" lon="-1.74912">
        <ele>64</ele>
        <time>2026-03-09T16:55:01.000Z</time>
      </trkpt>
      <trkpt lat="43.37615" lon="-1.74943">
        <ele>65</ele>
        <time>2026-03-09T16:55:05.000Z</time>
      </trkpt>
      <trkpt lat="43.37613" lon="-1.74979">
        <ele>67</ele>
        <time>2026-03-09T16:55:10.000Z</time>
      </trkpt>
      <trkpt lat="43.3761" lon="-1.75">
        <ele>67</ele>
        <time>2026-03-09T16:55:13.000Z</time>
      </trkpt>
      <trkpt lat="43.37606" lon="-1.75025">
        <ele>67</ele>
        <time>2026-03-09T16:55:16.000Z</time>
      </trkpt>
      <trkpt lat="43.376" lon="-1.75059">
        <ele>66</ele>
        <time>2026-03-09T16:55:20.000Z</time>
      </trkpt>
      <trkpt lat="43.37595" lon="-1.75083">
        <ele>66</ele>
        <time>2026-03-09T16:55:24.000Z</time>
      </trkpt>
      <trkpt lat="43.37592" lon="-1.75096">
        <ele>66</ele>
        <time>2026-03-09T16:55:25.000Z</time>
      </trkpt>
      <trkpt lat="43.37591" lon="-1.751">
        <ele>66</ele>
        <time>2026-03-09T16:55:26.000Z</time>
      </trkpt>
      <trkpt lat="43.37589" lon="-1.75106">
        <ele>66</ele>
        <time>2026-03-09T16:55:27.000Z</time>
      </trkpt>
      <trkpt lat="43.37586" lon="-1.75114">
        <ele>66</ele>
        <time>2026-03-09T16:55:28.000Z</time>
      </trkpt>
      <trkpt lat="43.37582" lon="-1.75123">
        <ele>66</ele>
        <time>2026-03-09T16:55:29.000Z</time>
      </trkpt>
      <trkpt lat="43.37577" lon="-1.7513">
        <ele>66</ele>
        <time>2026-03-09T16:55:31.000Z</time>
      </trkpt>
      <trkpt lat="43.37571" lon="-1.75141">
        <ele>66</ele>
        <time>2026-03-09T16:55:32.000Z</time>
      </trkpt>
      <trkpt lat="43.37565" lon="-1.75147">
        <ele>65</ele>
        <time>2026-03-09T16:55:34.000Z</time>
      </trkpt>
      <trkpt lat="43.37559" lon="-1.75153">
        <ele>65</ele>
        <time>2026-03-09T16:55:35.000Z</time>
      </trkpt>
      <trkpt lat="43.37552" lon="-1.75158">
        <ele>64</ele>
        <time>2026-03-09T16:55:36.000Z</time>
      </trkpt>
      <trkpt lat="43.37547" lon="-1.75161">
        <ele>64</ele>
        <time>2026-03-09T16:55:37.000Z</time>
      </trkpt>
      <trkpt lat="43.37543" lon="-1.75164">
        <ele>64</ele>
        <time>2026-03-09T16:55:38.000Z</time>
      </trkpt>
      <trkpt lat="43.37532" lon="-1.75169">
        <ele>63</ele>
        <time>2026-03-09T16:55:40.000Z</time>
      </trkpt>
      <trkpt lat="43.37528" lon="-1.75171">
        <ele>63</ele>
        <time>2026-03-09T16:55:41.000Z</time>
      </trkpt>
      <trkpt lat="43.37511" lon="-1.75183">
        <ele>62</ele>
        <time>2026-03-09T16:55:44.000Z</time>
      </trkpt>
      <trkpt lat="43.37511" lon="-1.75184">
        <ele>62</ele>
        <time>2026-03-09T16:55:44.000Z</time>
      </trkpt>
      <trkpt lat="43.37511" lon="-1.75185">
        <ele>62</ele>
        <time>2026-03-09T16:55:45.000Z</time>
      </trkpt>
      <trkpt lat="43.37511" lon="-1.75187">
        <ele>62</ele>
        <time>2026-03-09T16:55:45.000Z</time>
      </trkpt>
      <trkpt lat="43.3751" lon="-1.75188">
        <ele>62</ele>
        <time>2026-03-09T16:55:45.000Z</time>
      </trkpt>
      <trkpt lat="43.3751" lon="-1.75189">
        <ele>62</ele>
        <time>2026-03-09T16:55:45.000Z</time>
      </trkpt>
      <trkpt lat="43.37509" lon="-1.75191">
        <ele>62</ele>
        <time>2026-03-09T16:55:46.000Z</time>
      </trkpt>
      <trkpt lat="43.37509" lon="-1.75192">
        <ele>61</ele>
        <time>2026-03-09T16:55:46.000Z</time>
      </trkpt>
      <trkpt lat="43.37508" lon="-1.75193">
        <ele>61</ele>
        <time>2026-03-09T16:55:46.000Z</time>
      </trkpt>
      <trkpt lat="43.37507" lon="-1.75194">
        <ele>61</ele>
        <time>2026-03-09T16:55:46.000Z</time>
      </trkpt>
      <trkpt lat="43.37507" lon="-1.75195">
        <ele>61</ele>
        <time>2026-03-09T16:55:46.000Z</time>
      </trkpt>
      <trkpt lat="43.37506" lon="-1.75196">
        <ele>61</ele>
        <time>2026-03-09T16:55:46.000Z</time>
      </trkpt>
      <trkpt lat="43.37505" lon="-1.75197">
        <ele>61</ele>
        <time>2026-03-09T16:55:47.000Z</time>
      </trkpt>
      <trkpt lat="43.37504" lon="-1.75198">
        <ele>61</ele>
        <time>2026-03-09T16:55:47.000Z</time>
      </trkpt>
      <trkpt lat="43.37503" lon="-1.75199">
        <ele>61</ele>
        <time>2026-03-09T16:55:47.000Z</time>
      </trkpt>
      <trkpt lat="43.37501" lon="-1.752">
        <ele>61</ele>
        <time>2026-03-09T16:55:47.000Z</time>
      </trkpt>
      <trkpt lat="43.375" lon="-1.752">
        <ele>61</ele>
        <time>2026-03-09T16:55:48.000Z</time>
      </trkpt>
      <trkpt lat="43.37499" lon="-1.752">
        <ele>61</ele>
        <time>2026-03-09T16:55:48.000Z</time>
      </trkpt>
      <trkpt lat="43.37498" lon="-1.75201">
        <ele>61</ele>
        <time>2026-03-09T16:55:48.000Z</time>
      </trkpt>
      <trkpt lat="43.37497" lon="-1.75201">
        <ele>61</ele>
        <time>2026-03-09T16:55:48.000Z</time>
      </trkpt>
      <trkpt lat="43.37496" lon="-1.75201">
        <ele>61</ele>
        <time>2026-03-09T16:55:48.000Z</time>
      </trkpt>
      <trkpt lat="43.37495" lon="-1.75201">
        <ele>60</ele>
        <time>2026-03-09T16:55:49.000Z</time>
      </trkpt>
      <trkpt lat="43.37494" lon="-1.75201">
        <ele>60</ele>
        <time>2026-03-09T16:55:49.000Z</time>
      </trkpt>
      <trkpt lat="43.37493" lon="-1.75201">
        <ele>60</ele>
        <time>2026-03-09T16:55:49.000Z</time>
      </trkpt>
      <trkpt lat="43.37492" lon="-1.75201">
        <ele>60</ele>
        <time>2026-03-09T16:55:49.000Z</time>
      </trkpt>
      <trkpt lat="43.37491" lon="-1.752">
        <ele>60</ele>
        <time>2026-03-09T16:55:49.000Z</time>
      </trkpt>
      <trkpt lat="43.3749" lon="-1.752">
        <ele>60</ele>
        <time>2026-03-09T16:55:50.000Z</time>
      </trkpt>
      <trkpt lat="43.37489" lon="-1.75199">
        <ele>60</ele>
        <time>2026-03-09T16:55:50.000Z</time>
      </trkpt>
      <trkpt lat="43.37488" lon="-1.75199">
        <ele>60</ele>
        <time>2026-03-09T16:55:50.000Z</time>
      </trkpt>
      <trkpt lat="43.37487" lon="-1.75198">
        <ele>60</ele>
        <time>2026-03-09T16:55:50.000Z</time>
      </trkpt>
      <trkpt lat="43.37486" lon="-1.75197">
        <ele>60</ele>
        <time>2026-03-09T16:55:50.000Z</time>
      </trkpt>
      <trkpt lat="43.37485" lon="-1.75196">
        <ele>60</ele>
        <time>2026-03-09T16:55:51.000Z</time>
      </trkpt>
      <trkpt lat="43.37485" lon="-1.75195">
        <ele>60</ele>
        <time>2026-03-09T16:55:51.000Z</time>
      </trkpt>
      <trkpt lat="43.37484" lon="-1.75194">
        <ele>60</ele>
        <time>2026-03-09T16:55:51.000Z</time>
      </trkpt>
      <trkpt lat="43.37483" lon="-1.75192">
        <ele>60</ele>
        <time>2026-03-09T16:55:51.000Z</time>
      </trkpt>
      <trkpt lat="43.3747" lon="-1.75187">
        <ele>59</ele>
        <time>2026-03-09T16:55:54.000Z</time>
      </trkpt>
      <trkpt lat="43.37466" lon="-1.75187">
        <ele>59</ele>
        <time>2026-03-09T16:55:54.000Z</time>
      </trkpt>
      <trkpt lat="43.37462" lon="-1.75189">
        <ele>58</ele>
        <time>2026-03-09T16:55:55.000Z</time>
      </trkpt>
      <trkpt lat="43.37458" lon="-1.75191">
        <ele>58</ele>
        <time>2026-03-09T16:55:56.000Z</time>
      </trkpt>
      <trkpt lat="43.37448" lon="-1.75196">
        <ele>57</ele>
        <time>2026-03-09T16:55:58.000Z</time>
      </trkpt>
      <trkpt lat="43.37436" lon="-1.75204">
        <ele>57</ele>
        <time>2026-03-09T16:56:00.000Z</time>
      </trkpt>
      <trkpt lat="43.37427" lon="-1.75213">
        <ele>56</ele>
        <time>2026-03-09T16:56:02.000Z</time>
      </trkpt>
      <trkpt lat="43.37415" lon="-1.75227">
        <ele>56</ele>
        <time>2026-03-09T16:56:05.000Z</time>
      </trkpt>
      <trkpt lat="43.37408" lon="-1.75236">
        <ele>55</ele>
        <time>2026-03-09T16:56:07.000Z</time>
      </trkpt>
      <trkpt lat="43.37402" lon="-1.75246">
        <ele>55</ele>
        <time>2026-03-09T16:56:08.000Z</time>
      </trkpt>
      <trkpt lat="43.37394" lon="-1.75261">
        <ele>54</ele>
        <time>2026-03-09T16:56:11.000Z</time>
      </trkpt>
      <trkpt lat="43.37387" lon="-1.75276">
        <ele>53</ele>
        <time>2026-03-09T16:56:13.000Z</time>
      </trkpt>
      <trkpt lat="43.37383" lon="-1.75291">
        <ele>53</ele>
        <time>2026-03-09T16:56:15.000Z</time>
      </trkpt>
      <trkpt lat="43.37379" lon="-1.75307">
        <ele>52</ele>
        <time>2026-03-09T16:56:17.000Z</time>
      </trkpt>
      <trkpt lat="43.37378" lon="-1.75308">
        <ele>52</ele>
        <time>2026-03-09T16:56:17.000Z</time>
      </trkpt>
      <trkpt lat="43.37371" lon="-1.75342">
        <ele>50</ele>
        <time>2026-03-09T16:56:22.000Z</time>
      </trkpt>
      <trkpt lat="43.37363" lon="-1.75387">
        <ele>49</ele>
        <time>2026-03-09T16:56:28.000Z</time>
      </trkpt>
      <trkpt lat="43.37349" lon="-1.75483">
        <ele>46</ele>
        <time>2026-03-09T16:56:41.000Z</time>
      </trkpt>
      <trkpt lat="43.37348" lon="-1.75493">
        <ele>46</ele>
        <time>2026-03-09T16:56:42.000Z</time>
      </trkpt>
      <trkpt lat="43.37347" lon="-1.755">
        <ele>45</ele>
        <time>2026-03-09T16:56:43.000Z</time>
      </trkpt>
      <trkpt lat="43.37347" lon="-1.75503">
        <ele>45</ele>
        <time>2026-03-09T16:56:43.000Z</time>
      </trkpt>
      <trkpt lat="43.37347" lon="-1.7551">
        <ele>45</ele>
        <time>2026-03-09T16:56:44.000Z</time>
      </trkpt>
      <trkpt lat="43.37347" lon="-1.75513">
        <ele>45</ele>
        <time>2026-03-09T16:56:45.000Z</time>
      </trkpt>
      <trkpt lat="43.37348" lon="-1.7552">
        <ele>45</ele>
        <time>2026-03-09T16:56:46.000Z</time>
      </trkpt>
      <trkpt lat="43.37349" lon="-1.75527">
        <ele>45</ele>
        <time>2026-03-09T16:56:46.000Z</time>
      </trkpt>
      <trkpt lat="43.3735" lon="-1.75533">
        <ele>44</ele>
        <time>2026-03-09T16:56:47.000Z</time>
      </trkpt>
      <trkpt lat="43.37352" lon="-1.7554">
        <ele>44</ele>
        <time>2026-03-09T16:56:48.000Z</time>
      </trkpt>
      <trkpt lat="43.37353" lon="-1.75546">
        <ele>44</ele>
        <time>2026-03-09T16:56:49.000Z</time>
      </trkpt>
      <trkpt lat="43.37358" lon="-1.7556">
        <ele>43</ele>
        <time>2026-03-09T16:56:51.000Z</time>
      </trkpt>
      <trkpt lat="43.37361" lon="-1.75568">
        <ele>43</ele>
        <time>2026-03-09T16:56:52.000Z</time>
      </trkpt>
      <trkpt lat="43.37361" lon="-1.75569">
        <ele>43</ele>
        <time>2026-03-09T16:56:52.000Z</time>
      </trkpt>
      <trkpt lat="43.37365" lon="-1.75577">
        <ele>43</ele>
        <time>2026-03-09T16:56:54.000Z</time>
      </trkpt>
      <trkpt lat="43.37368" lon="-1.75583">
        <ele>42</ele>
        <time>2026-03-09T16:56:55.000Z</time>
      </trkpt>
      <trkpt lat="43.37375" lon="-1.75591">
        <ele>42</ele>
        <time>2026-03-09T16:56:56.000Z</time>
      </trkpt>
      <trkpt lat="43.37382" lon="-1.756">
        <ele>42</ele>
        <time>2026-03-09T16:56:58.000Z</time>
      </trkpt>
      <trkpt lat="43.3739" lon="-1.75608">
        <ele>41</ele>
        <time>2026-03-09T16:57:00.000Z</time>
      </trkpt>
      <trkpt lat="43.37399" lon="-1.75615">
        <ele>41</ele>
        <time>2026-03-09T16:57:01.000Z</time>
      </trkpt>
      <trkpt lat="43.3741" lon="-1.75623">
        <ele>40</ele>
        <time>2026-03-09T16:57:04.000Z</time>
      </trkpt>
      <trkpt lat="43.37421" lon="-1.75629">
        <ele>40</ele>
        <time>2026-03-09T16:57:06.000Z</time>
      </trkpt>
      <trkpt lat="43.37431" lon="-1.75636">
        <ele>39</ele>
        <time>2026-03-09T16:57:08.000Z</time>
      </trkpt>
      <trkpt lat="43.37439" lon="-1.75643">
        <ele>38</ele>
        <time>2026-03-09T16:57:09.000Z</time>
      </trkpt>
      <trkpt lat="43.37446" lon="-1.7565">
        <ele>37</ele>
        <time>2026-03-09T16:57:11.000Z</time>
      </trkpt>
      <trkpt lat="43.3745" lon="-1.75655">
        <ele>36</ele>
        <time>2026-03-09T16:57:12.000Z</time>
      </trkpt>
      <trkpt lat="43.37453" lon="-1.7566">
        <ele>36</ele>
        <time>2026-03-09T16:57:13.000Z</time>
      </trkpt>
      <trkpt lat="43.37458" lon="-1.7567">
        <ele>35</ele>
        <time>2026-03-09T16:57:14.000Z</time>
      </trkpt>
      <trkpt lat="43.37461" lon="-1.75675">
        <ele>35</ele>
        <time>2026-03-09T16:57:15.000Z</time>
      </trkpt>
      <trkpt lat="43.37463" lon="-1.7568">
        <ele>34</ele>
        <time>2026-03-09T16:57:16.000Z</time>
      </trkpt>
      <trkpt lat="43.37465" lon="-1.7569">
        <ele>34</ele>
        <time>2026-03-09T16:57:17.000Z</time>
      </trkpt>
      <trkpt lat="43.37467" lon="-1.75702">
        <ele>33</ele>
        <time>2026-03-09T16:57:19.000Z</time>
      </trkpt>
      <trkpt lat="43.37467" lon="-1.75717">
        <ele>33</ele>
        <time>2026-03-09T16:57:21.000Z</time>
      </trkpt>
      <trkpt lat="43.37467" lon="-1.7573">
        <ele>33</ele>
        <time>2026-03-09T16:57:23.000Z</time>
      </trkpt>
      <trkpt lat="43.37464" lon="-1.75744">
        <ele>33</ele>
        <time>2026-03-09T16:57:24.000Z</time>
      </trkpt>
      <trkpt lat="43.37461" lon="-1.75757">
        <ele>32</ele>
        <time>2026-03-09T16:57:26.000Z</time>
      </trkpt>
      <trkpt lat="43.37455" lon="-1.7577">
        <ele>32</ele>
        <time>2026-03-09T16:57:28.000Z</time>
      </trkpt>
      <trkpt lat="43.37447" lon="-1.75784">
        <ele>32</ele>
        <time>2026-03-09T16:57:30.000Z</time>
      </trkpt>
      <trkpt lat="43.37396" lon="-1.7585">
        <ele>30</ele>
        <time>2026-03-09T16:57:43.000Z</time>
      </trkpt>
      <trkpt lat="43.37382" lon="-1.75868">
        <ele>28</ele>
        <time>2026-03-09T16:57:46.000Z</time>
      </trkpt>
      <trkpt lat="43.37376" lon="-1.75878">
        <ele>28</ele>
        <time>2026-03-09T16:57:48.000Z</time>
      </trkpt>
      <trkpt lat="43.37372" lon="-1.75887">
        <ele>27</ele>
        <time>2026-03-09T16:57:49.000Z</time>
      </trkpt>
      <trkpt lat="43.37368" lon="-1.75897">
        <ele>26</ele>
        <time>2026-03-09T16:57:51.000Z</time>
      </trkpt>
      <trkpt lat="43.37364" lon="-1.75913">
        <ele>25</ele>
        <time>2026-03-09T16:57:53.000Z</time>
      </trkpt>
      <trkpt lat="43.37363" lon="-1.75929">
        <ele>24</ele>
        <time>2026-03-09T16:57:55.000Z</time>
      </trkpt>
      <trkpt lat="43.37362" lon="-1.75941">
        <ele>23</ele>
        <time>2026-03-09T16:57:57.000Z</time>
      </trkpt>
      <trkpt lat="43.37363" lon="-1.75955">
        <ele>22</ele>
        <time>2026-03-09T16:57:58.000Z</time>
      </trkpt>
      <trkpt lat="43.37365" lon="-1.75965">
        <ele>22</ele>
        <time>2026-03-09T16:58:00.000Z</time>
      </trkpt>
      <trkpt lat="43.37366" lon="-1.75972">
        <ele>22</ele>
        <time>2026-03-09T16:58:01.000Z</time>
      </trkpt>
      <trkpt lat="43.37369" lon="-1.75981">
        <ele>21</ele>
        <time>2026-03-09T16:58:02.000Z</time>
      </trkpt>
      <trkpt lat="43.37373" lon="-1.75993">
        <ele>20</ele>
        <time>2026-03-09T16:58:04.000Z</time>
      </trkpt>
      <trkpt lat="43.37377" lon="-1.76">
        <ele>20</ele>
        <time>2026-03-09T16:58:05.000Z</time>
      </trkpt>
      <trkpt lat="43.37382" lon="-1.76008">
        <ele>20</ele>
        <time>2026-03-09T16:58:06.000Z</time>
      </trkpt>
      <trkpt lat="43.37388" lon="-1.76016">
        <ele>19</ele>
        <time>2026-03-09T16:58:08.000Z</time>
      </trkpt>
      <trkpt lat="43.37397" lon="-1.76025">
        <ele>19</ele>
        <time>2026-03-09T16:58:10.000Z</time>
      </trkpt>
      <trkpt lat="43.37405" lon="-1.76031">
        <ele>18</ele>
        <time>2026-03-09T16:58:11.000Z</time>
      </trkpt>
      <trkpt lat="43.37415" lon="-1.76036">
        <ele>18</ele>
        <time>2026-03-09T16:58:13.000Z</time>
      </trkpt>
      <trkpt lat="43.37425" lon="-1.76041">
        <ele>17</ele>
        <time>2026-03-09T16:58:15.000Z</time>
      </trkpt>
      <trkpt lat="43.37442" lon="-1.76047">
        <ele>16</ele>
        <time>2026-03-09T16:58:18.000Z</time>
      </trkpt>
      <trkpt lat="43.37453" lon="-1.76051">
        <ele>15</ele>
        <time>2026-03-09T16:58:20.000Z</time>
      </trkpt>
      <trkpt lat="43.37462" lon="-1.76056">
        <ele>15</ele>
        <time>2026-03-09T16:58:22.000Z</time>
      </trkpt>
      <trkpt lat="43.37474" lon="-1.76064">
        <ele>14</ele>
        <time>2026-03-09T16:58:24.000Z</time>
      </trkpt>
      <trkpt lat="43.37482" lon="-1.76071">
        <ele>13</ele>
        <time>2026-03-09T16:58:26.000Z</time>
      </trkpt>
      <trkpt lat="43.37492" lon="-1.7608">
        <ele>13</ele>
        <time>2026-03-09T16:58:28.000Z</time>
      </trkpt>
      <trkpt lat="43.37499" lon="-1.76086">
        <ele>12</ele>
        <time>2026-03-09T16:58:30.000Z</time>
      </trkpt>
      <trkpt lat="43.37512" lon="-1.76102">
        <ele>12</ele>
        <time>2026-03-09T16:58:33.000Z</time>
      </trkpt>
      <trkpt lat="43.37517" lon="-1.76109">
        <ele>11</ele>
        <time>2026-03-09T16:58:34.000Z</time>
      </trkpt>
      <trkpt lat="43.37525" lon="-1.76123">
        <ele>11</ele>
        <time>2026-03-09T16:58:36.000Z</time>
      </trkpt>
      <trkpt lat="43.37535" lon="-1.76141">
        <ele>10</ele>
        <time>2026-03-09T16:58:39.000Z</time>
      </trkpt>
      <trkpt lat="43.37541" lon="-1.76156">
        <ele>9</ele>
        <time>2026-03-09T16:58:41.000Z</time>
      </trkpt>
      <trkpt lat="43.37547" lon="-1.76175">
        <ele>8</ele>
        <time>2026-03-09T16:58:44.000Z</time>
      </trkpt>
      <trkpt lat="43.37555" lon="-1.76209">
        <ele>7</ele>
        <time>2026-03-09T16:58:49.000Z</time>
      </trkpt>
      <trkpt lat="43.37561" lon="-1.76243">
        <ele>6</ele>
        <time>2026-03-09T16:58:53.000Z</time>
      </trkpt>
      <trkpt lat="43.37563" lon="-1.7626">
        <ele>5</ele>
        <time>2026-03-09T16:58:56.000Z</time>
      </trkpt>
      <trkpt lat="43.37563" lon="-1.76276">
        <ele>5</ele>
        <time>2026-03-09T16:58:58.000Z</time>
      </trkpt>
      <trkpt lat="43.3756" lon="-1.76293">
        <ele>4</ele>
        <time>2026-03-09T16:59:00.000Z</time>
      </trkpt>
      <trkpt lat="43.37557" lon="-1.76308">
        <ele>4</ele>
        <time>2026-03-09T16:59:02.000Z</time>
      </trkpt>
      <trkpt lat="43.37526" lon="-1.76433">
        <ele>6</ele>
        <time>2026-03-09T16:59:19.000Z</time>
      </trkpt>
      <trkpt lat="43.37473" lon="-1.76656">
        <ele>3</ele>
        <time>2026-03-09T16:59:49.000Z</time>
      </trkpt>
      <trkpt lat="43.37444" lon="-1.76783">
        <ele>4</ele>
        <time>2026-03-09T17:00:07.000Z</time>
      </trkpt>
      <trkpt lat="43.37426" lon="-1.76879">
        <ele>3</ele>
        <time>2026-03-09T17:00:19.000Z</time>
      </trkpt>
      <trkpt lat="43.37399" lon="-1.76998">
        <ele>2</ele>
        <time>2026-03-09T17:00:35.000Z</time>
      </trkpt>
      <trkpt lat="43.37371" lon="-1.77124">
        <ele>4</ele>
        <time>2026-03-09T17:00:53.000Z</time>
      </trkpt>
      <trkpt lat="43.37346" lon="-1.77249">
        <ele>4</ele>
        <time>2026-03-09T17:01:09.000Z</time>
      </trkpt>
      <trkpt lat="43.37333" lon="-1.77314">
        <ele>4</ele>
        <time>2026-03-09T17:01:18.000Z</time>
      </trkpt>
      <trkpt lat="43.37333" lon="-1.77322">
        <ele>4</ele>
        <time>2026-03-09T17:01:19.000Z</time>
      </trkpt>
      <trkpt lat="43.37333" lon="-1.77331">
        <ele>4</ele>
        <time>2026-03-09T17:01:20.000Z</time>
      </trkpt>
      <trkpt lat="43.37332" lon="-1.77338">
        <ele>4</ele>
        <time>2026-03-09T17:01:21.000Z</time>
      </trkpt>
      <trkpt lat="43.37331" lon="-1.77347">
        <ele>5</ele>
        <time>2026-03-09T17:01:22.000Z</time>
      </trkpt>
      <trkpt lat="43.37329" lon="-1.77353">
        <ele>5</ele>
        <time>2026-03-09T17:01:23.000Z</time>
      </trkpt>
      <trkpt lat="43.37328" lon="-1.77356">
        <ele>5</ele>
        <time>2026-03-09T17:01:24.000Z</time>
      </trkpt>
      <trkpt lat="43.37322" lon="-1.7738">
        <ele>6</ele>
        <time>2026-03-09T17:01:27.000Z</time>
      </trkpt>
      <trkpt lat="43.3732" lon="-1.77393">
        <ele>7</ele>
        <time>2026-03-09T17:01:29.000Z</time>
      </trkpt>
      <trkpt lat="43.3732" lon="-1.77393">
        <ele>7</ele>
        <time>2026-03-09T17:01:29.000Z</time>
      </trkpt>
      <trkpt lat="43.37321" lon="-1.77396">
        <ele>7</ele>
        <time>2026-03-09T17:01:29.000Z</time>
      </trkpt>
      <trkpt lat="43.37322" lon="-1.77398">
        <ele>7</ele>
        <time>2026-03-09T17:01:29.000Z</time>
      </trkpt>
      <trkpt lat="43.37322" lon="-1.77401">
        <ele>7</ele>
        <time>2026-03-09T17:01:30.000Z</time>
      </trkpt>
      <trkpt lat="43.37321" lon="-1.77404">
        <ele>7</ele>
        <time>2026-03-09T17:01:30.000Z</time>
      </trkpt>
      <trkpt lat="43.3732" lon="-1.77407">
        <ele>8</ele>
        <time>2026-03-09T17:01:31.000Z</time>
      </trkpt>
      <trkpt lat="43.37318" lon="-1.77409">
        <ele>8</ele>
        <time>2026-03-09T17:01:31.000Z</time>
      </trkpt>
      <trkpt lat="43.37313" lon="-1.77456">
        <ele>7</ele>
        <time>2026-03-09T17:01:37.000Z</time>
      </trkpt>
      <trkpt lat="43.37312" lon="-1.77462">
        <ele>7</ele>
        <time>2026-03-09T17:01:38.000Z</time>
      </trkpt>
      <trkpt lat="43.37311" lon="-1.77468">
        <ele>7</ele>
        <time>2026-03-09T17:01:39.000Z</time>
      </trkpt>
      <trkpt lat="43.37311" lon="-1.77481">
        <ele>6</ele>
        <time>2026-03-09T17:01:40.000Z</time>
      </trkpt>
      <trkpt lat="43.37309" lon="-1.77502">
        <ele>6</ele>
        <time>2026-03-09T17:01:43.000Z</time>
      </trkpt>
      <trkpt lat="43.37298" lon="-1.77569">
        <ele>5</ele>
        <time>2026-03-09T17:01:52.000Z</time>
      </trkpt>
      <trkpt lat="43.37278" lon="-1.77711">
        <ele>4</ele>
        <time>2026-03-09T17:02:11.000Z</time>
      </trkpt>
      <trkpt lat="43.37273" lon="-1.77751">
        <ele>5</ele>
        <time>2026-03-09T17:02:16.000Z</time>
      </trkpt>
      <trkpt lat="43.37265" lon="-1.77818">
        <ele>4</ele>
        <time>2026-03-09T17:02:25.000Z</time>
      </trkpt>
      <trkpt lat="43.37259" lon="-1.77881">
        <ele>3</ele>
        <time>2026-03-09T17:02:33.000Z</time>
      </trkpt>
      <trkpt lat="43.37257" lon="-1.779">
        <ele>2</ele>
        <time>2026-03-09T17:02:35.000Z</time>
      </trkpt>
      <trkpt lat="43.37246" lon="-1.77981">
        <ele>2</ele>
        <time>2026-03-09T17:02:46.000Z</time>
      </trkpt>
      <trkpt lat="43.37242" lon="-1.78012">
        <ele>3</ele>
        <time>2026-03-09T17:02:50.000Z</time>
      </trkpt>
      <trkpt lat="43.37232" lon="-1.78094">
        <ele>4</ele>
        <time>2026-03-09T17:03:01.000Z</time>
      </trkpt>
      <trkpt lat="43.37213" lon="-1.78203">
        <ele>2</ele>
        <time>2026-03-09T17:03:15.000Z</time>
      </trkpt>
      <trkpt lat="43.37195" lon="-1.78312">
        <ele>3</ele>
        <time>2026-03-09T17:03:30.000Z</time>
      </trkpt>
      <trkpt lat="43.37189" lon="-1.78345">
        <ele>3</ele>
        <time>2026-03-09T17:03:34.000Z</time>
      </trkpt>
      <trkpt lat="43.37164" lon="-1.78467">
        <ele>5</ele>
        <time>2026-03-09T17:03:51.000Z</time>
      </trkpt>
      <trkpt lat="43.37138" lon="-1.78588">
        <ele>4</ele>
        <time>2026-03-09T17:04:07.000Z</time>
      </trkpt>
      <trkpt lat="43.3713" lon="-1.78627">
        <ele>2</ele>
        <time>2026-03-09T17:04:12.000Z</time>
      </trkpt>
      <trkpt lat="43.37129" lon="-1.78628">
        <ele>2</ele>
        <time>2026-03-09T17:04:12.000Z</time>
      </trkpt>
      <trkpt lat="43.37128" lon="-1.7863">
        <ele>2</ele>
        <time>2026-03-09T17:04:13.000Z</time>
      </trkpt>
      <trkpt lat="43.37127" lon="-1.78633">
        <ele>2</ele>
        <time>2026-03-09T17:04:13.000Z</time>
      </trkpt>
      <trkpt lat="43.37124" lon="-1.78637">
        <ele>2</ele>
        <time>2026-03-09T17:04:14.000Z</time>
      </trkpt>
      <trkpt lat="43.37122" lon="-1.78638">
        <ele>2</ele>
        <time>2026-03-09T17:04:14.000Z</time>
      </trkpt>
      <trkpt lat="43.37121" lon="-1.78639">
        <ele>2</ele>
        <time>2026-03-09T17:04:15.000Z</time>
      </trkpt>
      <trkpt lat="43.37117" lon="-1.78641">
        <ele>2</ele>
        <time>2026-03-09T17:04:15.000Z</time>
      </trkpt>
      <trkpt lat="43.37117" lon="-1.78641">
        <ele>2</ele>
        <time>2026-03-09T17:04:15.000Z</time>
      </trkpt>
      <trkpt lat="43.37116" lon="-1.7864">
        <ele>2</ele>
        <time>2026-03-09T17:04:16.000Z</time>
      </trkpt>
      <trkpt lat="43.37114" lon="-1.78639">
        <ele>2</ele>
        <time>2026-03-09T17:04:16.000Z</time>
      </trkpt>
      <trkpt lat="43.37102" lon="-1.78628">
        <ele>3</ele>
        <time>2026-03-09T17:04:18.000Z</time>
      </trkpt>
      <trkpt lat="43.37083" lon="-1.78613">
        <ele>4</ele>
        <time>2026-03-09T17:04:22.000Z</time>
      </trkpt>
      <trkpt lat="43.37061" lon="-1.78595">
        <ele>3</ele>
        <time>2026-03-09T17:04:27.000Z</time>
      </trkpt>
      <trkpt lat="43.37051" lon="-1.78586">
        <ele>3</ele>
        <time>2026-03-09T17:04:29.000Z</time>
      </trkpt>
      <trkpt lat="43.37047" lon="-1.78582">
        <ele>2</ele>
        <time>2026-03-09T17:04:30.000Z</time>
      </trkpt>
      <trkpt lat="43.37044" lon="-1.78574">
        <ele>2</ele>
        <time>2026-03-09T17:04:31.000Z</time>
      </trkpt>
      <trkpt lat="43.37042" lon="-1.78566">
        <ele>2</ele>
        <time>2026-03-09T17:04:32.000Z</time>
      </trkpt>
      <trkpt lat="43.37041" lon="-1.78558">
        <ele>2</ele>
        <time>2026-03-09T17:04:33.000Z</time>
      </trkpt>
      <trkpt lat="43.3704" lon="-1.78554">
        <ele>2</ele>
        <time>2026-03-09T17:04:34.000Z</time>
      </trkpt>
      <trkpt lat="43.3704" lon="-1.78549">
        <ele>2</ele>
        <time>2026-03-09T17:04:34.000Z</time>
      </trkpt>
      <trkpt lat="43.37041" lon="-1.7854">
        <ele>2</ele>
        <time>2026-03-09T17:04:36.000Z</time>
      </trkpt>
      <trkpt lat="43.37044" lon="-1.78523">
        <ele>3</ele>
        <time>2026-03-09T17:04:38.000Z</time>
      </trkpt>
      <trkpt lat="43.37048" lon="-1.78502">
        <ele>3</ele>
        <time>2026-03-09T17:04:41.000Z</time>
      </trkpt>
      <trkpt lat="43.37049" lon="-1.78495">
        <ele>3</ele>
        <time>2026-03-09T17:04:42.000Z</time>
      </trkpt>
      <trkpt lat="43.37064" lon="-1.78429">
        <ele>3</ele>
        <time>2026-03-09T17:04:51.000Z</time>
      </trkpt>
      <trkpt lat="43.37075" lon="-1.78366">
        <ele>3</ele>
        <time>2026-03-09T17:04:59.000Z</time>
      </trkpt>
      <trkpt lat="43.37082" lon="-1.78328">
        <ele>4</ele>
        <time>2026-03-09T17:05:04.000Z</time>
      </trkpt>
      <trkpt lat="43.37084" lon="-1.78314">
        <ele>4</ele>
        <time>2026-03-09T17:05:06.000Z</time>
      </trkpt>
      <trkpt lat="43.37087" lon="-1.78299">
        <ele>4</ele>
        <time>2026-03-09T17:05:08.000Z</time>
      </trkpt>
      <trkpt lat="43.37091" lon="-1.78278">
        <ele>5</ele>
        <time>2026-03-09T17:05:11.000Z</time>
      </trkpt>
      <trkpt lat="43.37106" lon="-1.78189">
        <ele>5</ele>
        <time>2026-03-09T17:05:23.000Z</time>
      </trkpt>
      <trkpt lat="43.37107" lon="-1.78182">
        <ele>5</ele>
        <time>2026-03-09T17:05:23.000Z</time>
      </trkpt>
      <trkpt lat="43.37107" lon="-1.78182">
        <ele>5</ele>
        <time>2026-03-09T17:05:23.000Z</time>
      </trkpt>
      <trkpt lat="43.37102" lon="-1.7818">
        <ele>5</ele>
        <time>2026-03-09T17:05:24.000Z</time>
      </trkpt>
      <trkpt lat="43.37101" lon="-1.78178">
        <ele>5</ele>
        <time>2026-03-09T17:05:25.000Z</time>
      </trkpt>
      <trkpt lat="43.37099" lon="-1.78176">
        <ele>5</ele>
        <time>2026-03-09T17:05:25.000Z</time>
      </trkpt>
      <trkpt lat="43.37088" lon="-1.78144">
        <ele>5</ele>
        <time>2026-03-09T17:05:30.000Z</time>
      </trkpt>
      <trkpt lat="43.37077" lon="-1.7812">
        <ele>5</ele>
        <time>2026-03-09T17:05:33.000Z</time>
      </trkpt>
      <trkpt lat="43.37056" lon="-1.78078">
        <ele>5</ele>
        <time>2026-03-09T17:05:40.000Z</time>
      </trkpt>
      <trkpt lat="43.37056" lon="-1.78078">
        <ele>5</ele>
        <time>2026-03-09T17:05:40.000Z</time>
      </trkpt>
      <trkpt lat="43.3705" lon="-1.78084">
        <ele>5</ele>
        <time>2026-03-09T17:05:41.000Z</time>
      </trkpt>
      <trkpt lat="43.37042" lon="-1.78088">
        <ele>4</ele>
        <time>2026-03-09T17:05:43.000Z</time>
      </trkpt>
      <trkpt lat="43.37035" lon="-1.78089">
        <ele>4</ele>
        <time>2026-03-09T17:05:44.000Z</time>
      </trkpt>
      <trkpt lat="43.37028" lon="-1.78087">
        <ele>4</ele>
        <time>2026-03-09T17:05:45.000Z</time>
      </trkpt>
      <trkpt lat="43.37021" lon="-1.78084">
        <ele>4</ele>
        <time>2026-03-09T17:05:47.000Z</time>
      </trkpt>
      <trkpt lat="43.37014" lon="-1.78077">
        <ele>4</ele>
        <time>2026-03-09T17:05:48.000Z</time>
      </trkpt>
      <trkpt lat="43.3701" lon="-1.78068">
        <ele>3</ele>
        <time>2026-03-09T17:05:50.000Z</time>
      </trkpt>
      <trkpt lat="43.37006" lon="-1.78058">
        <ele>3</ele>
        <time>2026-03-09T17:05:51.000Z</time>
      </trkpt>
      <trkpt lat="43.37005" lon="-1.78046">
        <ele>3</ele>
        <time>2026-03-09T17:05:53.000Z</time>
      </trkpt>
      <trkpt lat="43.37004" lon="-1.78033">
        <ele>3</ele>
        <time>2026-03-09T17:05:54.000Z</time>
      </trkpt>
      <trkpt lat="43.37005" lon="-1.78022">
        <ele>3</ele>
        <time>2026-03-09T17:05:56.000Z</time>
      </trkpt>
      <trkpt lat="43.37007" lon="-1.78013">
        <ele>3</ele>
        <time>2026-03-09T17:05:57.000Z</time>
      </trkpt>
      <trkpt lat="43.3701" lon="-1.78003">
        <ele>3</ele>
        <time>2026-03-09T17:05:58.000Z</time>
      </trkpt>
      <trkpt lat="43.37014" lon="-1.77995">
        <ele>4</ele>
        <time>2026-03-09T17:06:00.000Z</time>
      </trkpt>
      <trkpt lat="43.37016" lon="-1.77992">
        <ele>4</ele>
        <time>2026-03-09T17:06:00.000Z</time>
      </trkpt>
      <trkpt lat="43.37011" lon="-1.77978">
        <ele>4</ele>
        <time>2026-03-09T17:06:02.000Z</time>
      </trkpt>
      <trkpt lat="43.3701" lon="-1.77973">
        <ele>4</ele>
        <time>2026-03-09T17:06:03.000Z</time>
      </trkpt>
      <trkpt lat="43.37008" lon="-1.77966">
        <ele>4</ele>
        <time>2026-03-09T17:06:04.000Z</time>
      </trkpt>
      <trkpt lat="43.37007" lon="-1.77961">
        <ele>4</ele>
        <time>2026-03-09T17:06:04.000Z</time>
      </trkpt>
      <trkpt lat="43.37005" lon="-1.77953">
        <ele>4</ele>
        <time>2026-03-09T17:06:06.000Z</time>
      </trkpt>
      <trkpt lat="43.37001" lon="-1.77938">
        <ele>5</ele>
        <time>2026-03-09T17:06:08.000Z</time>
      </trkpt>
      <trkpt lat="43.37" lon="-1.77928">
        <ele>5</ele>
        <time>2026-03-09T17:06:09.000Z</time>
      </trkpt>
      <trkpt lat="43.37001" lon="-1.77918">
        <ele>5</ele>
        <time>2026-03-09T17:06:10.000Z</time>
      </trkpt>
      <trkpt lat="43.37003" lon="-1.77903">
        <ele>5</ele>
        <time>2026-03-09T17:06:12.000Z</time>
      </trkpt>
      <trkpt lat="43.37009" lon="-1.77882">
        <ele>5</ele>
        <time>2026-03-09T17:06:15.000Z</time>
      </trkpt>
      <trkpt lat="43.3701" lon="-1.77879">
        <ele>5</ele>
        <time>2026-03-09T17:06:16.000Z</time>
      </trkpt>
      <trkpt lat="43.37014" lon="-1.77865">
        <ele>5</ele>
        <time>2026-03-09T17:06:17.000Z</time>
      </trkpt>
      <trkpt lat="43.37019" lon="-1.77843">
        <ele>4</ele>
        <time>2026-03-09T17:06:20.000Z</time>
      </trkpt>
      <trkpt lat="43.37025" lon="-1.77815">
        <ele>4</ele>
        <time>2026-03-09T17:06:24.000Z</time>
      </trkpt>
      <trkpt lat="43.37028" lon="-1.77802">
        <ele>4</ele>
        <time>2026-03-09T17:06:26.000Z</time>
      </trkpt>
      <trkpt lat="43.37031" lon="-1.77791">
        <ele>4</ele>
        <time>2026-03-09T17:06:27.000Z</time>
      </trkpt>
      <trkpt lat="43.37035" lon="-1.77769">
        <ele>4</ele>
        <time>2026-03-09T17:06:30.000Z</time>
      </trkpt>
      <trkpt lat="43.37036" lon="-1.77744">
        <ele>4</ele>
        <time>2026-03-09T17:06:34.000Z</time>
      </trkpt>
      <trkpt lat="43.37036" lon="-1.77744">
        <ele>4</ele>
        <time>2026-03-09T17:06:34.000Z</time>
      </trkpt>
      <trkpt lat="43.37035" lon="-1.77744">
        <ele>4</ele>
        <time>2026-03-09T17:06:34.000Z</time>
      </trkpt>
      <trkpt lat="43.37035" lon="-1.77743">
        <ele>4</ele>
        <time>2026-03-09T17:06:34.000Z</time>
      </trkpt>
      <trkpt lat="43.37034" lon="-1.77743">
        <ele>4</ele>
        <time>2026-03-09T17:06:34.000Z</time>
      </trkpt>
      <trkpt lat="43.37033" lon="-1.77743">
        <ele>4</ele>
        <time>2026-03-09T17:06:34.000Z</time>
      </trkpt>
      <trkpt lat="43.37033" lon="-1.77742">
        <ele>4</ele>
        <time>2026-03-09T17:06:34.000Z</time>
      </trkpt>
      <trkpt lat="43.37032" lon="-1.77742">
        <ele>4</ele>
        <time>2026-03-09T17:06:35.000Z</time>
      </trkpt>
      <trkpt lat="43.37032" lon="-1.77741">
        <ele>4</ele>
        <time>2026-03-09T17:06:35.000Z</time>
      </trkpt>
      <trkpt lat="43.37032" lon="-1.7774">
        <ele>4</ele>
        <time>2026-03-09T17:06:35.000Z</time>
      </trkpt>
      <trkpt lat="43.37031" lon="-1.7774">
        <ele>4</ele>
        <time>2026-03-09T17:06:35.000Z</time>
      </trkpt>
      <trkpt lat="43.37031" lon="-1.77739">
        <ele>4</ele>
        <time>2026-03-09T17:06:35.000Z</time>
      </trkpt>
      <trkpt lat="43.37031" lon="-1.77738">
        <ele>4</ele>
        <time>2026-03-09T17:06:35.000Z</time>
      </trkpt>
      <trkpt lat="43.37031" lon="-1.77737">
        <ele>4</ele>
        <time>2026-03-09T17:06:35.000Z</time>
      </trkpt>
      <trkpt lat="43.3703" lon="-1.77737">
        <ele>4</ele>
        <time>2026-03-09T17:06:36.000Z</time>
      </trkpt>
      <trkpt lat="43.3703" lon="-1.77736">
        <ele>4</ele>
        <time>2026-03-09T17:06:36.000Z</time>
      </trkpt>
      <trkpt lat="43.3703" lon="-1.77735">
        <ele>4</ele>
        <time>2026-03-09T17:06:36.000Z</time>
      </trkpt>
      <trkpt lat="43.3703" lon="-1.77734">
        <ele>4</ele>
        <time>2026-03-09T17:06:36.000Z</time>
      </trkpt>
      <trkpt lat="43.3703" lon="-1.77733">
        <ele>4</ele>
        <time>2026-03-09T17:06:36.000Z</time>
      </trkpt>
      <trkpt lat="43.3703" lon="-1.77732">
        <ele>4</ele>
        <time>2026-03-09T17:06:36.000Z</time>
      </trkpt>
      <trkpt lat="43.37031" lon="-1.77732">
        <ele>4</ele>
        <time>2026-03-09T17:06:36.000Z</time>
      </trkpt>
      <trkpt lat="43.37031" lon="-1.77731">
        <ele>4</ele>
        <time>2026-03-09T17:06:37.000Z</time>
      </trkpt>
      <trkpt lat="43.37031" lon="-1.7773">
        <ele>4</ele>
        <time>2026-03-09T17:06:37.000Z</time>
      </trkpt>
      <trkpt lat="43.37032" lon="-1.77729">
        <ele>4</ele>
        <time>2026-03-09T17:06:37.000Z</time>
      </trkpt>
      <trkpt lat="43.37032" lon="-1.77728">
        <ele>4</ele>
        <time>2026-03-09T17:06:37.000Z</time>
      </trkpt>
      <trkpt lat="43.37033" lon="-1.77728">
        <ele>4</ele>
        <time>2026-03-09T17:06:37.000Z</time>
      </trkpt>
      <trkpt lat="43.37033" lon="-1.77727">
        <ele>4</ele>
        <time>2026-03-09T17:06:37.000Z</time>
      </trkpt>
      <trkpt lat="43.37034" lon="-1.77727">
        <ele>4</ele>
        <time>2026-03-09T17:06:38.000Z</time>
      </trkpt>
      <trkpt lat="43.37034" lon="-1.77726">
        <ele>4</ele>
        <time>2026-03-09T17:06:38.000Z</time>
      </trkpt>
      <trkpt lat="43.37035" lon="-1.77726">
        <ele>4</ele>
        <time>2026-03-09T17:06:38.000Z</time>
      </trkpt>
      <trkpt lat="43.37036" lon="-1.77726">
        <ele>4</ele>
        <time>2026-03-09T17:06:38.000Z</time>
      </trkpt>
      <trkpt lat="43.37037" lon="-1.77725">
        <ele>4</ele>
        <time>2026-03-09T17:06:38.000Z</time>
      </trkpt>
      <trkpt lat="43.37037" lon="-1.77726">
        <ele>4</ele>
        <time>2026-03-09T17:06:38.000Z</time>
      </trkpt>
      <trkpt lat="43.37038" lon="-1.77726">
        <ele>4</ele>
        <time>2026-03-09T17:06:39.000Z</time>
      </trkpt>
      <trkpt lat="43.37042" lon="-1.77718">
        <ele>4</ele>
        <time>2026-03-09T17:06:40.000Z</time>
      </trkpt>
      <trkpt lat="43.37046" lon="-1.77702">
        <ele>3</ele>
        <time>2026-03-09T17:06:42.000Z</time>
      </trkpt>
      <trkpt lat="43.37052" lon="-1.77664">
        <ele>3</ele>
        <time>2026-03-09T17:06:47.000Z</time>
      </trkpt>
      <trkpt lat="43.37057" lon="-1.77634">
        <ele>4</ele>
        <time>2026-03-09T17:06:51.000Z</time>
      </trkpt>
      <trkpt lat="43.37062" lon="-1.77609">
        <ele>4</ele>
        <time>2026-03-09T17:06:54.000Z</time>
      </trkpt>
      <trkpt lat="43.37064" lon="-1.77593">
        <ele>4</ele>
        <time>2026-03-09T17:06:56.000Z</time>
      </trkpt>
      <trkpt lat="43.37064" lon="-1.77584">
        <ele>4</ele>
        <time>2026-03-09T17:06:58.000Z</time>
      </trkpt>
      <trkpt lat="43.37065" lon="-1.77574">
        <ele>4</ele>
        <time>2026-03-09T17:06:59.000Z</time>
      </trkpt>
      <trkpt lat="43.37065" lon="-1.77554">
        <ele>5</ele>
        <time>2026-03-09T17:07:02.000Z</time>
      </trkpt>
      <trkpt lat="43.37064" lon="-1.7753">
        <ele>5</ele>
        <time>2026-03-09T17:07:05.000Z</time>
      </trkpt>
      <trkpt lat="43.37061" lon="-1.77505">
        <ele>5</ele>
        <time>2026-03-09T17:07:08.000Z</time>
      </trkpt>
      <trkpt lat="43.37058" lon="-1.77483">
        <ele>5</ele>
        <time>2026-03-09T17:07:11.000Z</time>
      </trkpt>
      <trkpt lat="43.37052" lon="-1.77462">
        <ele>5</ele>
        <time>2026-03-09T17:07:14.000Z</time>
      </trkpt>
      <trkpt lat="43.37046" lon="-1.77442">
        <ele>5</ele>
        <time>2026-03-09T17:07:17.000Z</time>
      </trkpt>
      <trkpt lat="43.37043" lon="-1.77434">
        <ele>6</ele>
        <time>2026-03-09T17:07:18.000Z</time>
      </trkpt>
      <trkpt lat="43.3704" lon="-1.77423">
        <ele>6</ele>
        <time>2026-03-09T17:07:19.000Z</time>
      </trkpt>
      <trkpt lat="43.37033" lon="-1.77408">
        <ele>6</ele>
        <time>2026-03-09T17:07:21.000Z</time>
      </trkpt>
      <trkpt lat="43.37026" lon="-1.77393">
        <ele>5</ele>
        <time>2026-03-09T17:07:24.000Z</time>
      </trkpt>
      <trkpt lat="43.37025" lon="-1.77389">
        <ele>5</ele>
        <time>2026-03-09T17:07:24.000Z</time>
      </trkpt>
      <trkpt lat="43.37021" lon="-1.77382">
        <ele>5</ele>
        <time>2026-03-09T17:07:26.000Z</time>
      </trkpt>
      <trkpt lat="43.37017" lon="-1.77374">
        <ele>5</ele>
        <time>2026-03-09T17:07:27.000Z</time>
      </trkpt>
      <trkpt lat="43.37014" lon="-1.7737">
        <ele>5</ele>
        <time>2026-03-09T17:07:28.000Z</time>
      </trkpt>
      <trkpt lat="43.37005" lon="-1.77356">
        <ele>5</ele>
        <time>2026-03-09T17:07:30.000Z</time>
      </trkpt>
      <trkpt lat="43.36994" lon="-1.77341">
        <ele>5</ele>
        <time>2026-03-09T17:07:33.000Z</time>
      </trkpt>
      <trkpt lat="43.36986" lon="-1.7733">
        <ele>4</ele>
        <time>2026-03-09T17:07:35.000Z</time>
      </trkpt>
      <trkpt lat="43.3698" lon="-1.77322">
        <ele>4</ele>
        <time>2026-03-09T17:07:36.000Z</time>
      </trkpt>
      <trkpt lat="43.36961" lon="-1.773">
        <ele>3</ele>
        <time>2026-03-09T17:07:41.000Z</time>
      </trkpt>
      <trkpt lat="43.36925" lon="-1.77256">
        <ele>2</ele>
        <time>2026-03-09T17:07:49.000Z</time>
      </trkpt>
      <trkpt lat="43.36915" lon="-1.77244">
        <ele>2</ele>
        <time>2026-03-09T17:07:52.000Z</time>
      </trkpt>
      <trkpt lat="43.36904" lon="-1.77233">
        <ele>2</ele>
        <time>2026-03-09T17:07:54.000Z</time>
      </trkpt>
      <trkpt lat="43.36902" lon="-1.77231">
        <ele>2</ele>
        <time>2026-03-09T17:07:54.000Z</time>
      </trkpt>
      <trkpt lat="43.36893" lon="-1.77224">
        <ele>2</ele>
        <time>2026-03-09T17:07:56.000Z</time>
      </trkpt>
      <trkpt lat="43.3689" lon="-1.77221">
        <ele>3</ele>
        <time>2026-03-09T17:07:57.000Z</time>
      </trkpt>
      <trkpt lat="43.3688" lon="-1.77212">
        <ele>3</ele>
        <time>2026-03-09T17:07:59.000Z</time>
      </trkpt>
      <trkpt lat="43.36865" lon="-1.77202">
        <ele>3</ele>
        <time>2026-03-09T17:08:02.000Z</time>
      </trkpt>
      <trkpt lat="43.36852" lon="-1.77194">
        <ele>3</ele>
        <time>2026-03-09T17:08:05.000Z</time>
      </trkpt>
      <trkpt lat="43.36849" lon="-1.77191">
        <ele>3</ele>
        <time>2026-03-09T17:08:05.000Z</time>
      </trkpt>
      <trkpt lat="43.36841" lon="-1.77187">
        <ele>3</ele>
        <time>2026-03-09T17:08:07.000Z</time>
      </trkpt>
      <trkpt lat="43.36834" lon="-1.77182">
        <ele>3</ele>
        <time>2026-03-09T17:08:08.000Z</time>
      </trkpt>
      <trkpt lat="43.36773" lon="-1.7714">
        <ele>5</ele>
        <time>2026-03-09T17:08:20.000Z</time>
      </trkpt>
      <trkpt lat="43.36718" lon="-1.77103">
        <ele>5</ele>
        <time>2026-03-09T17:08:31.000Z</time>
      </trkpt>
      <trkpt lat="43.36713" lon="-1.77099">
        <ele>5</ele>
        <time>2026-03-09T17:08:32.000Z</time>
      </trkpt>
      <trkpt lat="43.36703" lon="-1.77093">
        <ele>5</ele>
        <time>2026-03-09T17:08:34.000Z</time>
      </trkpt>
      <trkpt lat="43.36651" lon="-1.77058">
        <ele>4</ele>
        <time>2026-03-09T17:08:44.000Z</time>
      </trkpt>
      <trkpt lat="43.36619" lon="-1.77035">
        <ele>5</ele>
        <time>2026-03-09T17:08:51.000Z</time>
      </trkpt>
      <trkpt lat="43.36617" lon="-1.77034">
        <ele>5</ele>
        <time>2026-03-09T17:08:51.000Z</time>
      </trkpt>
      <trkpt lat="43.36606" lon="-1.77027">
        <ele>6</ele>
        <time>2026-03-09T17:08:53.000Z</time>
      </trkpt>
      <trkpt lat="43.36558" lon="-1.76993">
        <ele>6</ele>
        <time>2026-03-09T17:09:03.000Z</time>
      </trkpt>
      <trkpt lat="43.36539" lon="-1.76988">
        <ele>5</ele>
        <time>2026-03-09T17:09:06.000Z</time>
      </trkpt>
      <trkpt lat="43.36523" lon="-1.76978">
        <ele>5</ele>
        <time>2026-03-09T17:09:10.000Z</time>
      </trkpt>
      <trkpt lat="43.3652" lon="-1.76976">
        <ele>5</ele>
        <time>2026-03-09T17:09:10.000Z</time>
      </trkpt>
      <trkpt lat="43.3652" lon="-1.76976">
        <ele>5</ele>
        <time>2026-03-09T17:09:10.000Z</time>
      </trkpt>
      <trkpt lat="43.36517" lon="-1.76977">
        <ele>5</ele>
        <time>2026-03-09T17:09:11.000Z</time>
      </trkpt>
      <trkpt lat="43.36514" lon="-1.76978">
        <ele>5</ele>
        <time>2026-03-09T17:09:11.000Z</time>
      </trkpt>
      <trkpt lat="43.36511" lon="-1.76978">
        <ele>4</ele>
        <time>2026-03-09T17:09:12.000Z</time>
      </trkpt>
      <trkpt lat="43.36507" lon="-1.76978">
        <ele>4</ele>
        <time>2026-03-09T17:09:12.000Z</time>
      </trkpt>
      <trkpt lat="43.36505" lon="-1.76976">
        <ele>4</ele>
        <time>2026-03-09T17:09:13.000Z</time>
      </trkpt>
      <trkpt lat="43.36501" lon="-1.76979">
        <ele>4</ele>
        <time>2026-03-09T17:09:14.000Z</time>
      </trkpt>
      <trkpt lat="43.36495" lon="-1.76981">
        <ele>4</ele>
        <time>2026-03-09T17:09:15.000Z</time>
      </trkpt>
      <trkpt lat="43.36488" lon="-1.76984">
        <ele>5</ele>
        <time>2026-03-09T17:09:16.000Z</time>
      </trkpt>
      <trkpt lat="43.36477" lon="-1.7699">
        <ele>7</ele>
        <time>2026-03-09T17:09:18.000Z</time>
      </trkpt>
      <trkpt lat="43.36459" lon="-1.77001">
        <ele>9</ele>
        <time>2026-03-09T17:09:22.000Z</time>
      </trkpt>
      <trkpt lat="43.36451" lon="-1.77004">
        <ele>10</ele>
        <time>2026-03-09T17:09:23.000Z</time>
      </trkpt>
      <trkpt lat="43.36445" lon="-1.77009">
        <ele>10</ele>
        <time>2026-03-09T17:09:24.000Z</time>
      </trkpt>
      <trkpt lat="43.36445" lon="-1.7701">
        <ele>10</ele>
        <time>2026-03-09T17:09:25.000Z</time>
      </trkpt>
      <trkpt lat="43.36438" lon="-1.77019">
        <ele>11</ele>
        <time>2026-03-09T17:09:26.000Z</time>
      </trkpt>
      <trkpt lat="43.36428" lon="-1.77033">
        <ele>11</ele>
        <time>2026-03-09T17:09:29.000Z</time>
      </trkpt>
      <trkpt lat="43.36417" lon="-1.7705">
        <ele>10</ele>
        <time>2026-03-09T17:09:32.000Z</time>
      </trkpt>
      <trkpt lat="43.36399" lon="-1.77082">
        <ele>11</ele>
        <time>2026-03-09T17:09:37.000Z</time>
      </trkpt>
      <trkpt lat="43.36393" lon="-1.77091">
        <ele>11</ele>
        <time>2026-03-09T17:09:39.000Z</time>
      </trkpt>
      <trkpt lat="43.36389" lon="-1.77096">
        <ele>12</ele>
        <time>2026-03-09T17:09:40.000Z</time>
      </trkpt>
      <trkpt lat="43.36387" lon="-1.77099">
        <ele>12</ele>
        <time>2026-03-09T17:09:40.000Z</time>
      </trkpt>
      <trkpt lat="43.36384" lon="-1.77102">
        <ele>13</ele>
        <time>2026-03-09T17:09:41.000Z</time>
      </trkpt>
      <trkpt lat="43.36376" lon="-1.77112">
        <ele>14</ele>
        <time>2026-03-09T17:09:43.000Z</time>
      </trkpt>
      <trkpt lat="43.36361" lon="-1.77126">
        <ele>15</ele>
        <time>2026-03-09T17:09:46.000Z</time>
      </trkpt>
      <trkpt lat="43.36343" lon="-1.77143">
        <ele>17</ele>
        <time>2026-03-09T17:09:50.000Z</time>
      </trkpt>
      <trkpt lat="43.36336" lon="-1.77149">
        <ele>17</ele>
        <time>2026-03-09T17:09:51.000Z</time>
      </trkpt>
      <trkpt lat="43.36331" lon="-1.77151">
        <ele>17</ele>
        <time>2026-03-09T17:09:52.000Z</time>
      </trkpt>
      <trkpt lat="43.36326" lon="-1.77153">
        <ele>17</ele>
        <time>2026-03-09T17:09:53.000Z</time>
      </trkpt>
      <trkpt lat="43.36319" lon="-1.77155">
        <ele>17</ele>
        <time>2026-03-09T17:09:54.000Z</time>
      </trkpt>
      <trkpt lat="43.36314" lon="-1.77155">
        <ele>18</ele>
        <time>2026-03-09T17:09:55.000Z</time>
      </trkpt>
      <trkpt lat="43.36306" lon="-1.77156">
        <ele>18</ele>
        <time>2026-03-09T17:09:57.000Z</time>
      </trkpt>
      <trkpt lat="43.36293" lon="-1.77155">
        <ele>19</ele>
        <time>2026-03-09T17:09:59.000Z</time>
      </trkpt>
      <trkpt lat="43.36286" lon="-1.77155">
        <ele>19</ele>
        <time>2026-03-09T17:10:00.000Z</time>
      </trkpt>
      <trkpt lat="43.36283" lon="-1.77155">
        <ele>19</ele>
        <time>2026-03-09T17:10:01.000Z</time>
      </trkpt>
      <trkpt lat="43.36277" lon="-1.77156">
        <ele>19</ele>
        <time>2026-03-09T17:10:02.000Z</time>
      </trkpt>
      <trkpt lat="43.36273" lon="-1.77156">
        <ele>19</ele>
        <time>2026-03-09T17:10:03.000Z</time>
      </trkpt>
      <trkpt lat="43.36269" lon="-1.77157">
        <ele>19</ele>
        <time>2026-03-09T17:10:03.000Z</time>
      </trkpt>
      <trkpt lat="43.36264" lon="-1.77159">
        <ele>19</ele>
        <time>2026-03-09T17:10:04.000Z</time>
      </trkpt>
      <trkpt lat="43.36256" lon="-1.77162">
        <ele>19</ele>
        <time>2026-03-09T17:10:06.000Z</time>
      </trkpt>
      <trkpt lat="43.36248" lon="-1.77166">
        <ele>18</ele>
        <time>2026-03-09T17:10:07.000Z</time>
      </trkpt>
      <trkpt lat="43.36233" lon="-1.77175">
        <ele>17</ele>
        <time>2026-03-09T17:10:10.000Z</time>
      </trkpt>
      <trkpt lat="43.36228" lon="-1.77179">
        <ele>17</ele>
        <time>2026-03-09T17:10:11.000Z</time>
      </trkpt>
      <trkpt lat="43.36223" lon="-1.77184">
        <ele>16</ele>
        <time>2026-03-09T17:10:12.000Z</time>
      </trkpt>
      <trkpt lat="43.36204" lon="-1.77198">
        <ele>15</ele>
        <time>2026-03-09T17:10:16.000Z</time>
      </trkpt>
      <trkpt lat="43.36203" lon="-1.77198">
        <ele>15</ele>
        <time>2026-03-09T17:10:16.000Z</time>
      </trkpt>
      <trkpt lat="43.36195" lon="-1.77204">
        <ele>14</ele>
        <time>2026-03-09T17:10:18.000Z</time>
      </trkpt>
      <trkpt lat="43.36184" lon="-1.77213">
        <ele>14</ele>
        <time>2026-03-09T17:10:20.000Z</time>
      </trkpt>
      <trkpt lat="43.36184" lon="-1.77213">
        <ele>14</ele>
        <time>2026-03-09T17:10:20.000Z</time>
      </trkpt>
      <trkpt lat="43.36183" lon="-1.77216">
        <ele>13</ele>
        <time>2026-03-09T17:10:21.000Z</time>
      </trkpt>
      <trkpt lat="43.36182" lon="-1.77219">
        <ele>13</ele>
        <time>2026-03-09T17:10:21.000Z</time>
      </trkpt>
      <trkpt lat="43.3618" lon="-1.77221">
        <ele>13</ele>
        <time>2026-03-09T17:10:21.000Z</time>
      </trkpt>
      <trkpt lat="43.36178" lon="-1.77223">
        <ele>12</ele>
        <time>2026-03-09T17:10:22.000Z</time>
      </trkpt>
      <trkpt lat="43.36175" lon="-1.77224">
        <ele>12</ele>
        <time>2026-03-09T17:10:22.000Z</time>
      </trkpt>
      <trkpt lat="43.3617" lon="-1.77236">
        <ele>11</ele>
        <time>2026-03-09T17:10:24.000Z</time>
      </trkpt>
      <trkpt lat="43.36167" lon="-1.77242">
        <ele>10</ele>
        <time>2026-03-09T17:10:25.000Z</time>
      </trkpt>
      <trkpt lat="43.36159" lon="-1.77267">
        <ele>9</ele>
        <time>2026-03-09T17:10:29.000Z</time>
      </trkpt>
      <trkpt lat="43.36158" lon="-1.77271">
        <ele>8</ele>
        <time>2026-03-09T17:10:29.000Z</time>
      </trkpt>
      <trkpt lat="43.36155" lon="-1.77276">
        <ele>8</ele>
        <time>2026-03-09T17:10:30.000Z</time>
      </trkpt>
      <trkpt lat="43.36153" lon="-1.77287">
        <ele>8</ele>
        <time>2026-03-09T17:10:32.000Z</time>
      </trkpt>
      <trkpt lat="43.36151" lon="-1.77292">
        <ele>8</ele>
        <time>2026-03-09T17:10:32.000Z</time>
      </trkpt>
      <trkpt lat="43.36145" lon="-1.77318">
        <ele>8</ele>
        <time>2026-03-09T17:10:36.000Z</time>
      </trkpt>
      <trkpt lat="43.36138" lon="-1.77351">
        <ele>8</ele>
        <time>2026-03-09T17:10:40.000Z</time>
      </trkpt>
      <trkpt lat="43.36133" lon="-1.77369">
        <ele>9</ele>
        <time>2026-03-09T17:10:43.000Z</time>
      </trkpt>
      <trkpt lat="43.36132" lon="-1.77376">
        <ele>9</ele>
        <time>2026-03-09T17:10:44.000Z</time>
      </trkpt>
      <trkpt lat="43.36124" lon="-1.77406">
        <ele>11</ele>
        <time>2026-03-09T17:10:48.000Z</time>
      </trkpt>
      <trkpt lat="43.36123" lon="-1.77411">
        <ele>11</ele>
        <time>2026-03-09T17:10:48.000Z</time>
      </trkpt>
      <trkpt lat="43.36117" lon="-1.77429">
        <ele>12</ele>
        <time>2026-03-09T17:10:51.000Z</time>
      </trkpt>
      <trkpt lat="43.36115" lon="-1.77434">
        <ele>12</ele>
        <time>2026-03-09T17:10:52.000Z</time>
      </trkpt>
      <trkpt lat="43.3611" lon="-1.77446">
        <ele>13</ele>
        <time>2026-03-09T17:10:54.000Z</time>
      </trkpt>
      <trkpt lat="43.36105" lon="-1.77456">
        <ele>14</ele>
        <time>2026-03-09T17:10:55.000Z</time>
      </trkpt>
      <trkpt lat="43.361" lon="-1.77468">
        <ele>14</ele>
        <time>2026-03-09T17:10:57.000Z</time>
      </trkpt>
      <trkpt lat="43.36098" lon="-1.7747">
        <ele>15</ele>
        <time>2026-03-09T17:10:57.000Z</time>
      </trkpt>
      <trkpt lat="43.36093" lon="-1.77479">
        <ele>15</ele>
        <time>2026-03-09T17:10:59.000Z</time>
      </trkpt>
      <trkpt lat="43.36087" lon="-1.77488">
        <ele>16</ele>
        <time>2026-03-09T17:11:00.000Z</time>
      </trkpt>
      <trkpt lat="43.36077" lon="-1.77499">
        <ele>18</ele>
        <time>2026-03-09T17:11:03.000Z</time>
      </trkpt>
      <trkpt lat="43.36067" lon="-1.77511">
        <ele>18</ele>
        <time>2026-03-09T17:11:05.000Z</time>
      </trkpt>
      <trkpt lat="43.36054" lon="-1.77521">
        <ele>18</ele>
        <time>2026-03-09T17:11:08.000Z</time>
      </trkpt>
      <trkpt lat="43.36044" lon="-1.77528">
        <ele>19</ele>
        <time>2026-03-09T17:11:10.000Z</time>
      </trkpt>
      <trkpt lat="43.36037" lon="-1.77531">
        <ele>20</ele>
        <time>2026-03-09T17:11:11.000Z</time>
      </trkpt>
      <trkpt lat="43.36037" lon="-1.77532">
        <ele>20</ele>
        <time>2026-03-09T17:11:11.000Z</time>
      </trkpt>
      <trkpt lat="43.3603" lon="-1.77535">
        <ele>21</ele>
        <time>2026-03-09T17:11:12.000Z</time>
      </trkpt>
      <trkpt lat="43.36028" lon="-1.77537">
        <ele>21</ele>
        <time>2026-03-09T17:11:13.000Z</time>
      </trkpt>
      <trkpt lat="43.36017" lon="-1.7754">
        <ele>22</ele>
        <time>2026-03-09T17:11:15.000Z</time>
      </trkpt>
      <trkpt lat="43.36017" lon="-1.77541">
        <ele>22</ele>
        <time>2026-03-09T17:11:15.000Z</time>
      </trkpt>
      <trkpt lat="43.36016" lon="-1.77542">
        <ele>22</ele>
        <time>2026-03-09T17:11:15.000Z</time>
      </trkpt>
      <trkpt lat="43.36016" lon="-1.77543">
        <ele>22</ele>
        <time>2026-03-09T17:11:15.000Z</time>
      </trkpt>
      <trkpt lat="43.36015" lon="-1.77544">
        <ele>22</ele>
        <time>2026-03-09T17:11:16.000Z</time>
      </trkpt>
      <trkpt lat="43.36014" lon="-1.77545">
        <ele>22</ele>
        <time>2026-03-09T17:11:16.000Z</time>
      </trkpt>
      <trkpt lat="43.36014" lon="-1.77546">
        <ele>22</ele>
        <time>2026-03-09T17:11:16.000Z</time>
      </trkpt>
      <trkpt lat="43.36013" lon="-1.77546">
        <ele>22</ele>
        <time>2026-03-09T17:11:16.000Z</time>
      </trkpt>
      <trkpt lat="43.36013" lon="-1.77547">
        <ele>22</ele>
        <time>2026-03-09T17:11:16.000Z</time>
      </trkpt>
      <trkpt lat="43.36012" lon="-1.77547">
        <ele>22</ele>
        <time>2026-03-09T17:11:16.000Z</time>
      </trkpt>
      <trkpt lat="43.36011" lon="-1.77548">
        <ele>22</ele>
        <time>2026-03-09T17:11:17.000Z</time>
      </trkpt>
      <trkpt lat="43.3601" lon="-1.77548">
        <ele>23</ele>
        <time>2026-03-09T17:11:17.000Z</time>
      </trkpt>
      <trkpt lat="43.36009" lon="-1.77548">
        <ele>23</ele>
        <time>2026-03-09T17:11:17.000Z</time>
      </trkpt>
      <trkpt lat="43.36008" lon="-1.77548">
        <ele>23</ele>
        <time>2026-03-09T17:11:17.000Z</time>
      </trkpt>
      <trkpt lat="43.36007" lon="-1.77548">
        <ele>23</ele>
        <time>2026-03-09T17:11:17.000Z</time>
      </trkpt>
      <trkpt lat="43.36006" lon="-1.77548">
        <ele>23</ele>
        <time>2026-03-09T17:11:18.000Z</time>
      </trkpt>
      <trkpt lat="43.36005" lon="-1.77548">
        <ele>23</ele>
        <time>2026-03-09T17:11:18.000Z</time>
      </trkpt>
      <trkpt lat="43.36004" lon="-1.77547">
        <ele>23</ele>
        <time>2026-03-09T17:11:18.000Z</time>
      </trkpt>
      <trkpt lat="43.36003" lon="-1.77547">
        <ele>23</ele>
        <time>2026-03-09T17:11:18.000Z</time>
      </trkpt>
      <trkpt lat="43.35996" lon="-1.77551">
        <ele>24</ele>
        <time>2026-03-09T17:11:19.000Z</time>
      </trkpt>
      <trkpt lat="43.35992" lon="-1.77553">
        <ele>24</ele>
        <time>2026-03-09T17:11:20.000Z</time>
      </trkpt>
      <trkpt lat="43.35987" lon="-1.77554">
        <ele>25</ele>
        <time>2026-03-09T17:11:21.000Z</time>
      </trkpt>
      <trkpt lat="43.35978" lon="-1.77556">
        <ele>25</ele>
        <time>2026-03-09T17:11:23.000Z</time>
      </trkpt>
      <trkpt lat="43.35948" lon="-1.7757">
        <ele>27</ele>
        <time>2026-03-09T17:11:28.000Z</time>
      </trkpt>
      <trkpt lat="43.3594" lon="-1.77573">
        <ele>27</ele>
        <time>2026-03-09T17:11:30.000Z</time>
      </trkpt>
      <trkpt lat="43.35904" lon="-1.77592">
        <ele>27</ele>
        <time>2026-03-09T17:11:37.000Z</time>
      </trkpt>
      <trkpt lat="43.35886" lon="-1.77599">
        <ele>26</ele>
        <time>2026-03-09T17:11:40.000Z</time>
      </trkpt>
      <trkpt lat="43.35873" lon="-1.77603">
        <ele>26</ele>
        <time>2026-03-09T17:11:42.000Z</time>
      </trkpt>
      <trkpt lat="43.35858" lon="-1.77608">
        <ele>25</ele>
        <time>2026-03-09T17:11:45.000Z</time>
      </trkpt>
      <trkpt lat="43.35841" lon="-1.77614">
        <ele>25</ele>
        <time>2026-03-09T17:11:48.000Z</time>
      </trkpt>
      <trkpt lat="43.35836" lon="-1.77615">
        <ele>25</ele>
        <time>2026-03-09T17:11:49.000Z</time>
      </trkpt>
      <trkpt lat="43.35831" lon="-1.77617">
        <ele>24</ele>
        <time>2026-03-09T17:11:50.000Z</time>
      </trkpt>
      <trkpt lat="43.35825" lon="-1.77621">
        <ele>24</ele>
        <time>2026-03-09T17:11:51.000Z</time>
      </trkpt>
      <trkpt lat="43.35808" lon="-1.77635">
        <ele>22</ele>
        <time>2026-03-09T17:11:55.000Z</time>
      </trkpt>
      <trkpt lat="43.35803" lon="-1.77638">
        <ele>21</ele>
        <time>2026-03-09T17:11:56.000Z</time>
      </trkpt>
      <trkpt lat="43.35797" lon="-1.7764">
        <ele>21</ele>
        <time>2026-03-09T17:11:57.000Z</time>
      </trkpt>
      <trkpt lat="43.35791" lon="-1.77641">
        <ele>20</ele>
        <time>2026-03-09T17:11:58.000Z</time>
      </trkpt>
      <trkpt lat="43.35774" lon="-1.77639">
        <ele>19</ele>
        <time>2026-03-09T17:12:01.000Z</time>
      </trkpt>
      <trkpt lat="43.35758" lon="-1.77637">
        <ele>18</ele>
        <time>2026-03-09T17:12:04.000Z</time>
      </trkpt>
      <trkpt lat="43.35743" lon="-1.77635">
        <ele>18</ele>
        <time>2026-03-09T17:12:07.000Z</time>
      </trkpt>
      <trkpt lat="43.35737" lon="-1.77634">
        <ele>18</ele>
        <time>2026-03-09T17:12:08.000Z</time>
      </trkpt>
      <trkpt lat="43.3573" lon="-1.77633">
        <ele>18</ele>
        <time>2026-03-09T17:12:09.000Z</time>
      </trkpt>
      <trkpt lat="43.35721" lon="-1.77631">
        <ele>18</ele>
        <time>2026-03-09T17:12:10.000Z</time>
      </trkpt>
      <trkpt lat="43.35714" lon="-1.7763">
        <ele>18</ele>
        <time>2026-03-09T17:12:12.000Z</time>
      </trkpt>
      <trkpt lat="43.35705" lon="-1.77629">
        <ele>18</ele>
        <time>2026-03-09T17:12:13.000Z</time>
      </trkpt>
      <trkpt lat="43.35701" lon="-1.77628">
        <ele>18</ele>
        <time>2026-03-09T17:12:14.000Z</time>
      </trkpt>
      <trkpt lat="43.35693" lon="-1.77627">
        <ele>18</ele>
        <time>2026-03-09T17:12:15.000Z</time>
      </trkpt>
      <trkpt lat="43.35692" lon="-1.77627">
        <ele>18</ele>
        <time>2026-03-09T17:12:16.000Z</time>
      </trkpt>
      <trkpt lat="43.35683" lon="-1.77628">
        <ele>18</ele>
        <time>2026-03-09T17:12:17.000Z</time>
      </trkpt>
      <trkpt lat="43.35678" lon="-1.77647">
        <ele>17</ele>
        <time>2026-03-09T17:12:20.000Z</time>
      </trkpt>
      <trkpt lat="43.35671" lon="-1.77663">
        <ele>16</ele>
        <time>2026-03-09T17:12:22.000Z</time>
      </trkpt>
      <trkpt lat="43.35661" lon="-1.77678">
        <ele>15</ele>
        <time>2026-03-09T17:12:25.000Z</time>
      </trkpt>
      <trkpt lat="43.35649" lon="-1.77697">
        <ele>15</ele>
        <time>2026-03-09T17:12:28.000Z</time>
      </trkpt>
      <trkpt lat="43.35639" lon="-1.7771">
        <ele>15</ele>
        <time>2026-03-09T17:12:31.000Z</time>
      </trkpt>
      <trkpt lat="43.35633" lon="-1.77717">
        <ele>15</ele>
        <time>2026-03-09T17:12:32.000Z</time>
      </trkpt>
      <trkpt lat="43.35624" lon="-1.77727">
        <ele>15</ele>
        <time>2026-03-09T17:12:34.000Z</time>
      </trkpt>
      <trkpt lat="43.35623" lon="-1.77728">
        <ele>15</ele>
        <time>2026-03-09T17:12:34.000Z</time>
      </trkpt>
      <trkpt lat="43.35612" lon="-1.77739">
        <ele>15</ele>
        <time>2026-03-09T17:12:37.000Z</time>
      </trkpt>
      <trkpt lat="43.3557" lon="-1.77789">
        <ele>15</ele>
        <time>2026-03-09T17:12:47.000Z</time>
      </trkpt>
      <trkpt lat="43.3556" lon="-1.77799">
        <ele>15</ele>
        <time>2026-03-09T17:12:49.000Z</time>
      </trkpt>
      <trkpt lat="43.35503" lon="-1.7787">
        <ele>15</ele>
        <time>2026-03-09T17:13:02.000Z</time>
      </trkpt>
      <trkpt lat="43.3533" lon="-1.78087">
        <ele>14</ele>
        <time>2026-03-09T17:13:44.000Z</time>
      </trkpt>
      <trkpt lat="43.35302" lon="-1.78124">
        <ele>15</ele>
        <time>2026-03-09T17:13:51.000Z</time>
      </trkpt>
      <trkpt lat="43.35281" lon="-1.7815">
        <ele>15</ele>
        <time>2026-03-09T17:13:56.000Z</time>
      </trkpt>
      <trkpt lat="43.35267" lon="-1.78168">
        <ele>16</ele>
        <time>2026-03-09T17:14:00.000Z</time>
      </trkpt>
      <trkpt lat="43.35265" lon="-1.78171">
        <ele>16</ele>
        <time>2026-03-09T17:14:00.000Z</time>
      </trkpt>
      <trkpt lat="43.35252" lon="-1.78193">
        <ele>15</ele>
        <time>2026-03-09T17:14:04.000Z</time>
      </trkpt>
      <trkpt lat="43.35248" lon="-1.782">
        <ele>14</ele>
        <time>2026-03-09T17:14:05.000Z</time>
      </trkpt>
      <trkpt lat="43.3524" lon="-1.78211">
        <ele>14</ele>
        <time>2026-03-09T17:14:07.000Z</time>
      </trkpt>
      <trkpt lat="43.35221" lon="-1.78234">
        <ele>14</ele>
        <time>2026-03-09T17:14:11.000Z</time>
      </trkpt>
      <trkpt lat="43.35189" lon="-1.7827">
        <ele>15</ele>
        <time>2026-03-09T17:14:19.000Z</time>
      </trkpt>
      <trkpt lat="43.35181" lon="-1.7828">
        <ele>15</ele>
        <time>2026-03-09T17:14:21.000Z</time>
      </trkpt>
      <trkpt lat="43.35177" lon="-1.78284">
        <ele>15</ele>
        <time>2026-03-09T17:14:22.000Z</time>
      </trkpt>
      <trkpt lat="43.35174" lon="-1.78286">
        <ele>15</ele>
        <time>2026-03-09T17:14:22.000Z</time>
      </trkpt>
      <trkpt lat="43.35166" lon="-1.78293">
        <ele>15</ele>
        <time>2026-03-09T17:14:24.000Z</time>
      </trkpt>
      <trkpt lat="43.35162" lon="-1.78295">
        <ele>15</ele>
        <time>2026-03-09T17:14:25.000Z</time>
      </trkpt>
      <trkpt lat="43.35153" lon="-1.78296">
        <ele>15</ele>
        <time>2026-03-09T17:14:26.000Z</time>
      </trkpt>
      <trkpt lat="43.35137" lon="-1.78298">
        <ele>15</ele>
        <time>2026-03-09T17:14:29.000Z</time>
      </trkpt>
      <trkpt lat="43.35126" lon="-1.78298">
        <ele>15</ele>
        <time>2026-03-09T17:14:31.000Z</time>
      </trkpt>
      <trkpt lat="43.35119" lon="-1.78295">
        <ele>15</ele>
        <time>2026-03-09T17:14:32.000Z</time>
      </trkpt>
      <trkpt lat="43.35112" lon="-1.78291">
        <ele>16</ele>
        <time>2026-03-09T17:14:34.000Z</time>
      </trkpt>
      <trkpt lat="43.35107" lon="-1.78287">
        <ele>16</ele>
        <time>2026-03-09T17:14:35.000Z</time>
      </trkpt>
      <trkpt lat="43.35098" lon="-1.78282">
        <ele>16</ele>
        <time>2026-03-09T17:14:36.000Z</time>
      </trkpt>
      <trkpt lat="43.35087" lon="-1.7828">
        <ele>17</ele>
        <time>2026-03-09T17:14:38.000Z</time>
      </trkpt>
      <trkpt lat="43.35084" lon="-1.7828">
        <ele>17</ele>
        <time>2026-03-09T17:14:39.000Z</time>
      </trkpt>
      <trkpt lat="43.35077" lon="-1.78281">
        <ele>16</ele>
        <time>2026-03-09T17:14:40.000Z</time>
      </trkpt>
      <trkpt lat="43.35075" lon="-1.78285">
        <ele>16</ele>
        <time>2026-03-09T17:14:41.000Z</time>
      </trkpt>
      <trkpt lat="43.35075" lon="-1.78287">
        <ele>16</ele>
        <time>2026-03-09T17:14:41.000Z</time>
      </trkpt>
      <trkpt lat="43.35075" lon="-1.78287">
        <ele>16</ele>
        <time>2026-03-09T17:14:41.000Z</time>
      </trkpt>
      <trkpt lat="43.35075" lon="-1.78288">
        <ele>16</ele>
        <time>2026-03-09T17:14:41.000Z</time>
      </trkpt>
      <trkpt lat="43.35076" lon="-1.78289">
        <ele>16</ele>
        <time>2026-03-09T17:14:41.000Z</time>
      </trkpt>
      <trkpt lat="43.35083" lon="-1.78298">
        <ele>16</ele>
        <time>2026-03-09T17:14:43.000Z</time>
      </trkpt>
      <trkpt lat="43.35091" lon="-1.78307">
        <ele>15</ele>
        <time>2026-03-09T17:14:45.000Z</time>
      </trkpt>
      <trkpt lat="43.35091" lon="-1.78307">
        <ele>15</ele>
        <time>2026-03-09T17:14:45.000Z</time>
      </trkpt>
      <trkpt lat="43.35089" lon="-1.78313">
        <ele>15</ele>
        <time>2026-03-09T17:14:46.000Z</time>
      </trkpt>
      <trkpt lat="43.35084" lon="-1.78329">
        <ele>14</ele>
        <time>2026-03-09T17:14:48.000Z</time>
      </trkpt>
      <trkpt lat="43.35077" lon="-1.78342">
        <ele>13</ele>
        <time>2026-03-09T17:14:50.000Z</time>
      </trkpt>
      <trkpt lat="43.35067" lon="-1.78352">
        <ele>12</ele>
        <time>2026-03-09T17:14:52.000Z</time>
      </trkpt>
      <trkpt lat="43.35056" lon="-1.78359">
        <ele>12</ele>
        <time>2026-03-09T17:14:54.000Z</time>
      </trkpt>
      <trkpt lat="43.3503" lon="-1.78369">
        <ele>10</ele>
        <time>2026-03-09T17:14:59.000Z</time>
      </trkpt>
      <trkpt lat="43.3502" lon="-1.78374">
        <ele>9</ele>
        <time>2026-03-09T17:15:01.000Z</time>
      </trkpt>
      <trkpt lat="43.35011" lon="-1.78378">
        <ele>9</ele>
        <time>2026-03-09T17:15:03.000Z</time>
      </trkpt>
      <trkpt lat="43.35011" lon="-1.78378">
        <ele>9</ele>
        <time>2026-03-09T17:15:03.000Z</time>
      </trkpt>
      <trkpt lat="43.3499" lon="-1.78409">
        <ele>7</ele>
        <time>2026-03-09T17:15:08.000Z</time>
      </trkpt>
      <trkpt lat="43.34984" lon="-1.78416">
        <ele>6</ele>
        <time>2026-03-09T17:15:10.000Z</time>
      </trkpt>
      <trkpt lat="43.34972" lon="-1.78428">
        <ele>6</ele>
        <time>2026-03-09T17:15:12.000Z</time>
      </trkpt>
      <trkpt lat="43.34963" lon="-1.78438">
        <ele>5</ele>
        <time>2026-03-09T17:15:14.000Z</time>
      </trkpt>
      <trkpt lat="43.34935" lon="-1.78471">
        <ele>3</ele>
        <time>2026-03-09T17:15:21.000Z</time>
      </trkpt>
      <trkpt lat="43.34935" lon="-1.78471">
        <ele>3</ele>
        <time>2026-03-09T17:15:21.000Z</time>
      </trkpt>
      <trkpt lat="43.34814" lon="-1.78631">
        <ele>6</ele>
        <time>2026-03-09T17:15:51.000Z</time>
      </trkpt>
      <trkpt lat="43.34791" lon="-1.78662">
        <ele>5</ele>
        <time>2026-03-09T17:15:57.000Z</time>
      </trkpt>
      <trkpt lat="43.34791" lon="-1.78662">
        <ele>5</ele>
        <time>2026-03-09T17:15:57.000Z</time>
      </trkpt>
      <trkpt lat="43.34793" lon="-1.78667">
        <ele>6</ele>
        <time>2026-03-09T17:15:57.000Z</time>
      </trkpt>
      <trkpt lat="43.34794" lon="-1.7867">
        <ele>6</ele>
        <time>2026-03-09T17:15:58.000Z</time>
      </trkpt>
      <trkpt lat="43.34794" lon="-1.78673">
        <ele>6</ele>
        <time>2026-03-09T17:15:58.000Z</time>
      </trkpt>
      <trkpt lat="43.34795" lon="-1.78676">
        <ele>6</ele>
        <time>2026-03-09T17:15:59.000Z</time>
      </trkpt>
      <trkpt lat="43.34795" lon="-1.7868">
        <ele>5</ele>
        <time>2026-03-09T17:15:59.000Z</time>
      </trkpt>
      <trkpt lat="43.34794" lon="-1.78683">
        <ele>5</ele>
        <time>2026-03-09T17:16:00.000Z</time>
      </trkpt>
      <trkpt lat="43.34794" lon="-1.78686">
        <ele>5</ele>
        <time>2026-03-09T17:16:00.000Z</time>
      </trkpt>
      <trkpt lat="43.34793" lon="-1.78689">
        <ele>5</ele>
        <time>2026-03-09T17:16:00.000Z</time>
      </trkpt>
      <trkpt lat="43.34793" lon="-1.78692">
        <ele>5</ele>
        <time>2026-03-09T17:16:01.000Z</time>
      </trkpt>
      <trkpt lat="43.34791" lon="-1.78694">
        <ele>5</ele>
        <time>2026-03-09T17:16:01.000Z</time>
      </trkpt>
      <trkpt lat="43.3479" lon="-1.78697">
        <ele>5</ele>
        <time>2026-03-09T17:16:02.000Z</time>
      </trkpt>
      <trkpt lat="43.34789" lon="-1.78699">
        <ele>5</ele>
        <time>2026-03-09T17:16:02.000Z</time>
      </trkpt>
      <trkpt lat="43.34787" lon="-1.78701">
        <ele>5</ele>
        <time>2026-03-09T17:16:02.000Z</time>
      </trkpt>
      <trkpt lat="43.34786" lon="-1.78703">
        <ele>5</ele>
        <time>2026-03-09T17:16:03.000Z</time>
      </trkpt>
      <trkpt lat="43.34785" lon="-1.78704">
        <ele>5</ele>
        <time>2026-03-09T17:16:03.000Z</time>
      </trkpt>
      <trkpt lat="43.34783" lon="-1.78704">
        <ele>5</ele>
        <time>2026-03-09T17:16:03.000Z</time>
      </trkpt>
      <trkpt lat="43.34782" lon="-1.78705">
        <ele>5</ele>
        <time>2026-03-09T17:16:03.000Z</time>
      </trkpt>
      <trkpt lat="43.34781" lon="-1.78706">
        <ele>5</ele>
        <time>2026-03-09T17:16:04.000Z</time>
      </trkpt>
      <trkpt lat="43.34779" lon="-1.78706">
        <ele>5</ele>
        <time>2026-03-09T17:16:04.000Z</time>
      </trkpt>
      <trkpt lat="43.34778" lon="-1.78707">
        <ele>5</ele>
        <time>2026-03-09T17:16:04.000Z</time>
      </trkpt>
      <trkpt lat="43.34777" lon="-1.78707">
        <ele>4</ele>
        <time>2026-03-09T17:16:04.000Z</time>
      </trkpt>
      <trkpt lat="43.34775" lon="-1.78707">
        <ele>4</ele>
        <time>2026-03-09T17:16:05.000Z</time>
      </trkpt>
      <trkpt lat="43.34773" lon="-1.78707">
        <ele>4</ele>
        <time>2026-03-09T17:16:05.000Z</time>
      </trkpt>
      <trkpt lat="43.34772" lon="-1.78706">
        <ele>4</ele>
        <time>2026-03-09T17:16:05.000Z</time>
      </trkpt>
      <trkpt lat="43.3477" lon="-1.78706">
        <ele>4</ele>
        <time>2026-03-09T17:16:06.000Z</time>
      </trkpt>
      <trkpt lat="43.34768" lon="-1.78705">
        <ele>4</ele>
        <time>2026-03-09T17:16:06.000Z</time>
      </trkpt>
      <trkpt lat="43.34767" lon="-1.78704">
        <ele>4</ele>
        <time>2026-03-09T17:16:06.000Z</time>
      </trkpt>
      <trkpt lat="43.34766" lon="-1.78703">
        <ele>4</ele>
        <time>2026-03-09T17:16:07.000Z</time>
      </trkpt>
      <trkpt lat="43.34764" lon="-1.78702">
        <ele>4</ele>
        <time>2026-03-09T17:16:07.000Z</time>
      </trkpt>
      <trkpt lat="43.34758" lon="-1.78703">
        <ele>4</ele>
        <time>2026-03-09T17:16:08.000Z</time>
      </trkpt>
      <trkpt lat="43.34751" lon="-1.78703">
        <ele>4</ele>
        <time>2026-03-09T17:16:09.000Z</time>
      </trkpt>
      <trkpt lat="43.34747" lon="-1.78705">
        <ele>3</ele>
        <time>2026-03-09T17:16:10.000Z</time>
      </trkpt>
      <trkpt lat="43.34737" lon="-1.78709">
        <ele>3</ele>
        <time>2026-03-09T17:16:12.000Z</time>
      </trkpt>
      <trkpt lat="43.34733" lon="-1.78711">
        <ele>3</ele>
        <time>2026-03-09T17:16:13.000Z</time>
      </trkpt>
      <trkpt lat="43.34718" lon="-1.78718">
        <ele>3</ele>
        <time>2026-03-09T17:16:15.000Z</time>
      </trkpt>
      <trkpt lat="43.3469" lon="-1.78731">
        <ele>2</ele>
        <time>2026-03-09T17:16:21.000Z</time>
      </trkpt>
      <trkpt lat="43.34678" lon="-1.78738">
        <ele>2</ele>
        <time>2026-03-09T17:16:23.000Z</time>
      </trkpt>
      <trkpt lat="43.34662" lon="-1.78745">
        <ele>2</ele>
        <time>2026-03-09T17:16:26.000Z</time>
      </trkpt>
      <trkpt lat="43.34653" lon="-1.78749">
        <ele>2</ele>
        <time>2026-03-09T17:16:28.000Z</time>
      </trkpt>
      <trkpt lat="43.34597" lon="-1.78777">
        <ele>3</ele>
        <time>2026-03-09T17:16:38.000Z</time>
      </trkpt>
      <trkpt lat="43.34585" lon="-1.78783">
        <ele>3</ele>
        <time>2026-03-09T17:16:41.000Z</time>
      </trkpt>
      <trkpt lat="43.34572" lon="-1.7879">
        <ele>3</ele>
        <time>2026-03-09T17:16:43.000Z</time>
      </trkpt>
      <trkpt lat="43.34572" lon="-1.7879">
        <ele>3</ele>
        <time>2026-03-09T17:16:43.000Z</time>
      </trkpt>
      <trkpt lat="43.34572" lon="-1.78793">
        <ele>3</ele>
        <time>2026-03-09T17:16:43.000Z</time>
      </trkpt>
      <trkpt lat="43.34572" lon="-1.78795">
        <ele>3</ele>
        <time>2026-03-09T17:16:44.000Z</time>
      </trkpt>
      <trkpt lat="43.34572" lon="-1.78798">
        <ele>3</ele>
        <time>2026-03-09T17:16:44.000Z</time>
      </trkpt>
      <trkpt lat="43.34572" lon="-1.788">
        <ele>3</ele>
        <time>2026-03-09T17:16:44.000Z</time>
      </trkpt>
      <trkpt lat="43.34571" lon="-1.78802">
        <ele>3</ele>
        <time>2026-03-09T17:16:45.000Z</time>
      </trkpt>
      <trkpt lat="43.34571" lon="-1.78805">
        <ele>3</ele>
        <time>2026-03-09T17:16:45.000Z</time>
      </trkpt>
      <trkpt lat="43.3457" lon="-1.78807">
        <ele>3</ele>
        <time>2026-03-09T17:16:45.000Z</time>
      </trkpt>
      <trkpt lat="43.34569" lon="-1.78809">
        <ele>3</ele>
        <time>2026-03-09T17:16:46.000Z</time>
      </trkpt>
      <trkpt lat="43.34568" lon="-1.78811">
        <ele>3</ele>
        <time>2026-03-09T17:16:46.000Z</time>
      </trkpt>
      <trkpt lat="43.34567" lon="-1.78813">
        <ele>3</ele>
        <time>2026-03-09T17:16:46.000Z</time>
      </trkpt>
      <trkpt lat="43.34566" lon="-1.78814">
        <ele>3</ele>
        <time>2026-03-09T17:16:47.000Z</time>
      </trkpt>
      <trkpt lat="43.34564" lon="-1.78816">
        <ele>3</ele>
        <time>2026-03-09T17:16:47.000Z</time>
      </trkpt>
      <trkpt lat="43.34563" lon="-1.78817">
        <ele>3</ele>
        <time>2026-03-09T17:16:47.000Z</time>
      </trkpt>
      <trkpt lat="43.34561" lon="-1.78819">
        <ele>3</ele>
        <time>2026-03-09T17:16:48.000Z</time>
      </trkpt>
      <trkpt lat="43.3456" lon="-1.7882">
        <ele>3</ele>
        <time>2026-03-09T17:16:48.000Z</time>
      </trkpt>
      <trkpt lat="43.34558" lon="-1.7882">
        <ele>3</ele>
        <time>2026-03-09T17:16:48.000Z</time>
      </trkpt>
      <trkpt lat="43.34556" lon="-1.78821">
        <ele>3</ele>
        <time>2026-03-09T17:16:49.000Z</time>
      </trkpt>
      <trkpt lat="43.34554" lon="-1.78821">
        <ele>3</ele>
        <time>2026-03-09T17:16:49.000Z</time>
      </trkpt>
      <trkpt lat="43.34551" lon="-1.78831">
        <ele>3</ele>
        <time>2026-03-09T17:16:50.000Z</time>
      </trkpt>
      <trkpt lat="43.34549" lon="-1.78837">
        <ele>3</ele>
        <time>2026-03-09T17:16:51.000Z</time>
      </trkpt>
      <trkpt lat="43.34547" lon="-1.78843">
        <ele>3</ele>
        <time>2026-03-09T17:16:52.000Z</time>
      </trkpt>
      <trkpt lat="43.34546" lon="-1.78845">
        <ele>3</ele>
        <time>2026-03-09T17:16:52.000Z</time>
      </trkpt>
      <trkpt lat="43.34543" lon="-1.78854">
        <ele>4</ele>
        <time>2026-03-09T17:16:54.000Z</time>
      </trkpt>
      <trkpt lat="43.34541" lon="-1.78858">
        <ele>4</ele>
        <time>2026-03-09T17:16:54.000Z</time>
      </trkpt>
      <trkpt lat="43.3454" lon="-1.78862">
        <ele>4</ele>
        <time>2026-03-09T17:16:55.000Z</time>
      </trkpt>
      <trkpt lat="43.34537" lon="-1.78867">
        <ele>4</ele>
        <time>2026-03-09T17:16:56.000Z</time>
      </trkpt>
      <trkpt lat="43.34534" lon="-1.78871">
        <ele>4</ele>
        <time>2026-03-09T17:16:56.000Z</time>
      </trkpt>
      <trkpt lat="43.34528" lon="-1.7888">
        <ele>4</ele>
        <time>2026-03-09T17:16:58.000Z</time>
      </trkpt>
      <trkpt lat="43.34523" lon="-1.78887">
        <ele>5</ele>
        <time>2026-03-09T17:16:59.000Z</time>
      </trkpt>
      <trkpt lat="43.34516" lon="-1.78896">
        <ele>5</ele>
        <time>2026-03-09T17:17:01.000Z</time>
      </trkpt>
      <trkpt lat="43.34512" lon="-1.78901">
        <ele>5</ele>
        <time>2026-03-09T17:17:02.000Z</time>
      </trkpt>
      <trkpt lat="43.3451" lon="-1.78905">
        <ele>5</ele>
        <time>2026-03-09T17:17:03.000Z</time>
      </trkpt>
      <trkpt lat="43.34507" lon="-1.78907">
        <ele>6</ele>
        <time>2026-03-09T17:17:03.000Z</time>
      </trkpt>
      <trkpt lat="43.34494" lon="-1.7892">
        <ele>6</ele>
        <time>2026-03-09T17:17:06.000Z</time>
      </trkpt>
      <trkpt lat="43.34486" lon="-1.78926">
        <ele>7</ele>
        <time>2026-03-09T17:17:08.000Z</time>
      </trkpt>
      <trkpt lat="43.3448" lon="-1.7893">
        <ele>7</ele>
        <time>2026-03-09T17:17:09.000Z</time>
      </trkpt>
      <trkpt lat="43.34476" lon="-1.78932">
        <ele>7</ele>
        <time>2026-03-09T17:17:10.000Z</time>
      </trkpt>
      <trkpt lat="43.34473" lon="-1.78933">
        <ele>7</ele>
        <time>2026-03-09T17:17:10.000Z</time>
      </trkpt>
      <trkpt lat="43.34468" lon="-1.78937">
        <ele>7</ele>
        <time>2026-03-09T17:17:11.000Z</time>
      </trkpt>
      <trkpt lat="43.34462" lon="-1.78941">
        <ele>8</ele>
        <time>2026-03-09T17:17:12.000Z</time>
      </trkpt>
      <trkpt lat="43.34449" lon="-1.78946">
        <ele>8</ele>
        <time>2026-03-09T17:17:15.000Z</time>
      </trkpt>
      <trkpt lat="43.34445" lon="-1.78948">
        <ele>9</ele>
        <time>2026-03-09T17:17:15.000Z</time>
      </trkpt>
      <trkpt lat="43.3444" lon="-1.78952">
        <ele>9</ele>
        <time>2026-03-09T17:17:17.000Z</time>
      </trkpt>
      <trkpt lat="43.34431" lon="-1.78959">
        <ele>9</ele>
        <time>2026-03-09T17:17:18.000Z</time>
      </trkpt>
      <trkpt lat="43.34427" lon="-1.78964">
        <ele>10</ele>
        <time>2026-03-09T17:17:19.000Z</time>
      </trkpt>
      <trkpt lat="43.34424" lon="-1.7897">
        <ele>10</ele>
        <time>2026-03-09T17:17:20.000Z</time>
      </trkpt>
      <trkpt lat="43.34421" lon="-1.78976">
        <ele>10</ele>
        <time>2026-03-09T17:17:21.000Z</time>
      </trkpt>
      <trkpt lat="43.34417" lon="-1.78984">
        <ele>11</ele>
        <time>2026-03-09T17:17:22.000Z</time>
      </trkpt>
      <trkpt lat="43.34415" lon="-1.78989">
        <ele>11</ele>
        <time>2026-03-09T17:17:23.000Z</time>
      </trkpt>
      <trkpt lat="43.34414" lon="-1.78992">
        <ele>11</ele>
        <time>2026-03-09T17:17:24.000Z</time>
      </trkpt>
      <trkpt lat="43.34413" lon="-1.78995">
        <ele>11</ele>
        <time>2026-03-09T17:17:24.000Z</time>
      </trkpt>
      <trkpt lat="43.34411" lon="-1.79001">
        <ele>11</ele>
        <time>2026-03-09T17:17:25.000Z</time>
      </trkpt>
      <trkpt lat="43.3441" lon="-1.79009">
        <ele>12</ele>
        <time>2026-03-09T17:17:26.000Z</time>
      </trkpt>
      <trkpt lat="43.34407" lon="-1.79021">
        <ele>12</ele>
        <time>2026-03-09T17:17:28.000Z</time>
      </trkpt>
      <trkpt lat="43.34407" lon="-1.79021">
        <ele>12</ele>
        <time>2026-03-09T17:17:28.000Z</time>
      </trkpt>
      <trkpt lat="43.34409" lon="-1.79177">
        <ele>17</ele>
        <time>2026-03-09T17:17:48.000Z</time>
      </trkpt>
      <trkpt lat="43.34413" lon="-1.79191">
        <ele>17</ele>
        <time>2026-03-09T17:17:50.000Z</time>
      </trkpt>
      <trkpt lat="43.34416" lon="-1.79208">
        <ele>18</ele>
        <time>2026-03-09T17:17:52.000Z</time>
      </trkpt>
      <trkpt lat="43.34422" lon="-1.79229">
        <ele>18</ele>
        <time>2026-03-09T17:17:55.000Z</time>
      </trkpt>
      <trkpt lat="43.34425" lon="-1.79241">
        <ele>18</ele>
        <time>2026-03-09T17:17:57.000Z</time>
      </trkpt>
      <trkpt lat="43.34434" lon="-1.79265">
        <ele>17</ele>
        <time>2026-03-09T17:18:00.000Z</time>
      </trkpt>
      <trkpt lat="43.34439" lon="-1.79276">
        <ele>16</ele>
        <time>2026-03-09T17:18:02.000Z</time>
      </trkpt>
      <trkpt lat="43.34443" lon="-1.79285">
        <ele>15</ele>
        <time>2026-03-09T17:18:03.000Z</time>
      </trkpt>
      <trkpt lat="43.34452" lon="-1.79297">
        <ele>14</ele>
        <time>2026-03-09T17:18:05.000Z</time>
      </trkpt>
      <trkpt lat="43.34464" lon="-1.79313">
        <ele>12</ele>
        <time>2026-03-09T17:18:08.000Z</time>
      </trkpt>
      <trkpt lat="43.34474" lon="-1.79325">
        <ele>11</ele>
        <time>2026-03-09T17:18:11.000Z</time>
      </trkpt>
      <trkpt lat="43.34482" lon="-1.79335">
        <ele>10</ele>
        <time>2026-03-09T17:18:13.000Z</time>
      </trkpt>
      <trkpt lat="43.34493" lon="-1.7935">
        <ele>9</ele>
        <time>2026-03-09T17:18:15.000Z</time>
      </trkpt>
      <trkpt lat="43.34498" lon="-1.79358">
        <ele>9</ele>
        <time>2026-03-09T17:18:17.000Z</time>
      </trkpt>
      <trkpt lat="43.34502" lon="-1.79368">
        <ele>9</ele>
        <time>2026-03-09T17:18:18.000Z</time>
      </trkpt>
      <trkpt lat="43.34506" lon="-1.79375">
        <ele>9</ele>
        <time>2026-03-09T17:18:19.000Z</time>
      </trkpt>
      <trkpt lat="43.34509" lon="-1.79384">
        <ele>10</ele>
        <time>2026-03-09T17:18:21.000Z</time>
      </trkpt>
      <trkpt lat="43.34512" lon="-1.79397">
        <ele>10</ele>
        <time>2026-03-09T17:18:22.000Z</time>
      </trkpt>
      <trkpt lat="43.34514" lon="-1.79405">
        <ele>10</ele>
        <time>2026-03-09T17:18:23.000Z</time>
      </trkpt>
      <trkpt lat="43.34515" lon="-1.79416">
        <ele>10</ele>
        <time>2026-03-09T17:18:25.000Z</time>
      </trkpt>
      <trkpt lat="43.34515" lon="-1.79431">
        <ele>10</ele>
        <time>2026-03-09T17:18:27.000Z</time>
      </trkpt>
      <trkpt lat="43.34515" lon="-1.79446">
        <ele>11</ele>
        <time>2026-03-09T17:18:29.000Z</time>
      </trkpt>
      <trkpt lat="43.34515" lon="-1.79461">
        <ele>11</ele>
        <time>2026-03-09T17:18:31.000Z</time>
      </trkpt>
      <trkpt lat="43.34514" lon="-1.79474">
        <ele>11</ele>
        <time>2026-03-09T17:18:32.000Z</time>
      </trkpt>
      <trkpt lat="43.34513" lon="-1.79481">
        <ele>11</ele>
        <time>2026-03-09T17:18:33.000Z</time>
      </trkpt>
      <trkpt lat="43.3451" lon="-1.795">
        <ele>12</ele>
        <time>2026-03-09T17:18:36.000Z</time>
      </trkpt>
      <trkpt lat="43.34505" lon="-1.79536">
        <ele>10</ele>
        <time>2026-03-09T17:18:41.000Z</time>
      </trkpt>
      <trkpt lat="43.34503" lon="-1.79551">
        <ele>9</ele>
        <time>2026-03-09T17:18:43.000Z</time>
      </trkpt>
      <trkpt lat="43.34497" lon="-1.79604">
        <ele>7</ele>
        <time>2026-03-09T17:18:50.000Z</time>
      </trkpt>
      <trkpt lat="43.34495" lon="-1.79617">
        <ele>7</ele>
        <time>2026-03-09T17:18:51.000Z</time>
      </trkpt>
      <trkpt lat="43.34495" lon="-1.79618">
        <ele>7</ele>
        <time>2026-03-09T17:18:51.000Z</time>
      </trkpt>
      <trkpt lat="43.34493" lon="-1.7963">
        <ele>7</ele>
        <time>2026-03-09T17:18:53.000Z</time>
      </trkpt>
      <trkpt lat="43.34493" lon="-1.79638">
        <ele>7</ele>
        <time>2026-03-09T17:18:54.000Z</time>
      </trkpt>
      <trkpt lat="43.34491" lon="-1.79651">
        <ele>7</ele>
        <time>2026-03-09T17:18:56.000Z</time>
      </trkpt>
      <trkpt lat="43.34491" lon="-1.79661">
        <ele>7</ele>
        <time>2026-03-09T17:18:57.000Z</time>
      </trkpt>
      <trkpt lat="43.34489" lon="-1.79682">
        <ele>7</ele>
        <time>2026-03-09T17:19:00.000Z</time>
      </trkpt>
      <trkpt lat="43.34489" lon="-1.79692">
        <ele>7</ele>
        <time>2026-03-09T17:19:01.000Z</time>
      </trkpt>
      <trkpt lat="43.34489" lon="-1.79705">
        <ele>7</ele>
        <time>2026-03-09T17:19:03.000Z</time>
      </trkpt>
      <trkpt lat="43.34489" lon="-1.79716">
        <ele>7</ele>
        <time>2026-03-09T17:19:04.000Z</time>
      </trkpt>
      <trkpt lat="43.34489" lon="-1.79723">
        <ele>7</ele>
        <time>2026-03-09T17:19:05.000Z</time>
      </trkpt>
      <trkpt lat="43.3449" lon="-1.79727">
        <ele>7</ele>
        <time>2026-03-09T17:19:06.000Z</time>
      </trkpt>
      <trkpt lat="43.34491" lon="-1.79743">
        <ele>8</ele>
        <time>2026-03-09T17:19:08.000Z</time>
      </trkpt>
      <trkpt lat="43.34493" lon="-1.79754">
        <ele>8</ele>
        <time>2026-03-09T17:19:09.000Z</time>
      </trkpt>
      <trkpt lat="43.34494" lon="-1.79765">
        <ele>8</ele>
        <time>2026-03-09T17:19:11.000Z</time>
      </trkpt>
      <trkpt lat="43.34496" lon="-1.79778">
        <ele>8</ele>
        <time>2026-03-09T17:19:12.000Z</time>
      </trkpt>
      <trkpt lat="43.34499" lon="-1.7979">
        <ele>8</ele>
        <time>2026-03-09T17:19:14.000Z</time>
      </trkpt>
      <trkpt lat="43.34501" lon="-1.79797">
        <ele>8</ele>
        <time>2026-03-09T17:19:15.000Z</time>
      </trkpt>
      <trkpt lat="43.34503" lon="-1.79806">
        <ele>8</ele>
        <time>2026-03-09T17:19:16.000Z</time>
      </trkpt>
      <trkpt lat="43.34503" lon="-1.79808">
        <ele>8</ele>
        <time>2026-03-09T17:19:16.000Z</time>
      </trkpt>
      <trkpt lat="43.34506" lon="-1.79816">
        <ele>8</ele>
        <time>2026-03-09T17:19:18.000Z</time>
      </trkpt>
      <trkpt lat="43.34509" lon="-1.79826">
        <ele>8</ele>
        <time>2026-03-09T17:19:19.000Z</time>
      </trkpt>
      <trkpt lat="43.34512" lon="-1.79835">
        <ele>8</ele>
        <time>2026-03-09T17:19:20.000Z</time>
      </trkpt>
      <trkpt lat="43.34517" lon="-1.79849">
        <ele>8</ele>
        <time>2026-03-09T17:19:22.000Z</time>
      </trkpt>
      <trkpt lat="43.34522" lon="-1.79861">
        <ele>8</ele>
        <time>2026-03-09T17:19:24.000Z</time>
      </trkpt>
      <trkpt lat="43.34529" lon="-1.79879">
        <ele>8</ele>
        <time>2026-03-09T17:19:27.000Z</time>
      </trkpt>
      <trkpt lat="43.34534" lon="-1.79893">
        <ele>8</ele>
        <time>2026-03-09T17:19:29.000Z</time>
      </trkpt>
      <trkpt lat="43.34535" lon="-1.79895">
        <ele>8</ele>
        <time>2026-03-09T17:19:29.000Z</time>
      </trkpt>
      <trkpt lat="43.34539" lon="-1.79909">
        <ele>8</ele>
        <time>2026-03-09T17:19:31.000Z</time>
      </trkpt>
      <trkpt lat="43.34544" lon="-1.7992">
        <ele>8</ele>
        <time>2026-03-09T17:19:33.000Z</time>
      </trkpt>
      <trkpt lat="43.34545" lon="-1.79925">
        <ele>8</ele>
        <time>2026-03-09T17:19:33.000Z</time>
      </trkpt>
      <trkpt lat="43.3455" lon="-1.7994">
        <ele>7</ele>
        <time>2026-03-09T17:19:35.000Z</time>
      </trkpt>
      <trkpt lat="43.3455" lon="-1.7994">
        <ele>7</ele>
        <time>2026-03-09T17:19:35.000Z</time>
      </trkpt>
      <trkpt lat="43.34553" lon="-1.79943">
        <ele>7</ele>
        <time>2026-03-09T17:19:36.000Z</time>
      </trkpt>
      <trkpt lat="43.34555" lon="-1.79945">
        <ele>6</ele>
        <time>2026-03-09T17:19:37.000Z</time>
      </trkpt>
      <trkpt lat="43.34556" lon="-1.79947">
        <ele>6</ele>
        <time>2026-03-09T17:19:37.000Z</time>
      </trkpt>
      <trkpt lat="43.34558" lon="-1.7995">
        <ele>6</ele>
        <time>2026-03-09T17:19:37.000Z</time>
      </trkpt>
      <trkpt lat="43.34559" lon="-1.79954">
        <ele>6</ele>
        <time>2026-03-09T17:19:38.000Z</time>
      </trkpt>
      <trkpt lat="43.34562" lon="-1.79962">
        <ele>6</ele>
        <time>2026-03-09T17:19:39.000Z</time>
      </trkpt>
      <trkpt lat="43.34566" lon="-1.79973">
        <ele>5</ele>
        <time>2026-03-09T17:19:41.000Z</time>
      </trkpt>
      <trkpt lat="43.3457" lon="-1.79985">
        <ele>5</ele>
        <time>2026-03-09T17:19:42.000Z</time>
      </trkpt>
      <trkpt lat="43.34574" lon="-1.79992">
        <ele>5</ele>
        <time>2026-03-09T17:19:44.000Z</time>
      </trkpt>
      <trkpt lat="43.34577" lon="-1.79997">
        <ele>5</ele>
        <time>2026-03-09T17:19:44.000Z</time>
      </trkpt>
      <trkpt lat="43.34577" lon="-1.79997">
        <ele>5</ele>
        <time>2026-03-09T17:19:44.000Z</time>
      </trkpt>
      <trkpt lat="43.34579" lon="-1.80001">
        <ele>4</ele>
        <time>2026-03-09T17:19:45.000Z</time>
      </trkpt>
      <trkpt lat="43.34583" lon="-1.80008">
        <ele>4</ele>
        <time>2026-03-09T17:19:46.000Z</time>
      </trkpt>
      <trkpt lat="43.34586" lon="-1.80014">
        <ele>4</ele>
        <time>2026-03-09T17:19:47.000Z</time>
      </trkpt>
      <trkpt lat="43.34588" lon="-1.80019">
        <ele>4</ele>
        <time>2026-03-09T17:19:48.000Z</time>
      </trkpt>
      <trkpt lat="43.3459" lon="-1.80023">
        <ele>4</ele>
        <time>2026-03-09T17:19:48.000Z</time>
      </trkpt>
      <trkpt lat="43.34591" lon="-1.80026">
        <ele>4</ele>
        <time>2026-03-09T17:19:49.000Z</time>
      </trkpt>
      <trkpt lat="43.34591" lon="-1.80028">
        <ele>4</ele>
        <time>2026-03-09T17:19:49.000Z</time>
      </trkpt>
      <trkpt lat="43.34591" lon="-1.80031">
        <ele>4</ele>
        <time>2026-03-09T17:19:50.000Z</time>
      </trkpt>
      <trkpt lat="43.34591" lon="-1.80034">
        <ele>4</ele>
        <time>2026-03-09T17:19:50.000Z</time>
      </trkpt>
      <trkpt lat="43.34591" lon="-1.80039">
        <ele>4</ele>
        <time>2026-03-09T17:19:51.000Z</time>
      </trkpt>
      <trkpt lat="43.34589" lon="-1.80043">
        <ele>4</ele>
        <time>2026-03-09T17:19:51.000Z</time>
      </trkpt>
      <trkpt lat="43.34588" lon="-1.80046">
        <ele>4</ele>
        <time>2026-03-09T17:19:52.000Z</time>
      </trkpt>
      <trkpt lat="43.34584" lon="-1.80053">
        <ele>4</ele>
        <time>2026-03-09T17:19:53.000Z</time>
      </trkpt>
      <trkpt lat="43.3458" lon="-1.80059">
        <ele>4</ele>
        <time>2026-03-09T17:19:54.000Z</time>
      </trkpt>
      <trkpt lat="43.34577" lon="-1.80062">
        <ele>4</ele>
        <time>2026-03-09T17:19:54.000Z</time>
      </trkpt>
      <trkpt lat="43.34573" lon="-1.80067">
        <ele>5</ele>
        <time>2026-03-09T17:19:55.000Z</time>
      </trkpt>
      <trkpt lat="43.34567" lon="-1.80076">
        <ele>5</ele>
        <time>2026-03-09T17:19:57.000Z</time>
      </trkpt>
      <trkpt lat="43.34565" lon="-1.80077">
        <ele>5</ele>
        <time>2026-03-09T17:19:57.000Z</time>
      </trkpt>
      <trkpt lat="43.34554" lon="-1.80092">
        <ele>6</ele>
        <time>2026-03-09T17:20:00.000Z</time>
      </trkpt>
      <trkpt lat="43.34546" lon="-1.80107">
        <ele>6</ele>
        <time>2026-03-09T17:20:03.000Z</time>
      </trkpt>
      <trkpt lat="43.34545" lon="-1.80112">
        <ele>6</ele>
        <time>2026-03-09T17:20:03.000Z</time>
      </trkpt>
      <trkpt lat="43.34545" lon="-1.80112">
        <ele>6</ele>
        <time>2026-03-09T17:20:03.000Z</time>
      </trkpt>
      <trkpt lat="43.34545" lon="-1.80115">
        <ele>6</ele>
        <time>2026-03-09T17:20:04.000Z</time>
      </trkpt>
      <trkpt lat="43.34546" lon="-1.80119">
        <ele>6</ele>
        <time>2026-03-09T17:20:04.000Z</time>
      </trkpt>
      <trkpt lat="43.34546" lon="-1.80122">
        <ele>6</ele>
        <time>2026-03-09T17:20:05.000Z</time>
      </trkpt>
      <trkpt lat="43.34546" lon="-1.80125">
        <ele>6</ele>
        <time>2026-03-09T17:20:05.000Z</time>
      </trkpt>
      <trkpt lat="43.34546" lon="-1.80128">
        <ele>6</ele>
        <time>2026-03-09T17:20:05.000Z</time>
      </trkpt>
      <trkpt lat="43.34546" lon="-1.80131">
        <ele>6</ele>
        <time>2026-03-09T17:20:06.000Z</time>
      </trkpt>
      <trkpt lat="43.34545" lon="-1.80134">
        <ele>6</ele>
        <time>2026-03-09T17:20:06.000Z</time>
      </trkpt>
      <trkpt lat="43.34544" lon="-1.80138">
        <ele>6</ele>
        <time>2026-03-09T17:20:07.000Z</time>
      </trkpt>
      <trkpt lat="43.3455" lon="-1.80152">
        <ele>6</ele>
        <time>2026-03-09T17:20:09.000Z</time>
      </trkpt>
      <trkpt lat="43.34555" lon="-1.8016">
        <ele>6</ele>
        <time>2026-03-09T17:20:10.000Z</time>
      </trkpt>
      <trkpt lat="43.34563" lon="-1.80167">
        <ele>6</ele>
        <time>2026-03-09T17:20:12.000Z</time>
      </trkpt>
      <trkpt lat="43.34572" lon="-1.80174">
        <ele>6</ele>
        <time>2026-03-09T17:20:14.000Z</time>
      </trkpt>
      <trkpt lat="43.34587" lon="-1.80183">
        <ele>6</ele>
        <time>2026-03-09T17:20:17.000Z</time>
      </trkpt>
      <trkpt lat="43.3459" lon="-1.80185">
        <ele>6</ele>
        <time>2026-03-09T17:20:17.000Z</time>
      </trkpt>
      <trkpt lat="43.34596" lon="-1.80187">
        <ele>6</ele>
        <time>2026-03-09T17:20:18.000Z</time>
      </trkpt>
      <trkpt lat="43.34601" lon="-1.80188">
        <ele>6</ele>
        <time>2026-03-09T17:20:19.000Z</time>
      </trkpt>
      <trkpt lat="43.34602" lon="-1.80188">
        <ele>6</ele>
        <time>2026-03-09T17:20:19.000Z</time>
      </trkpt>
      <trkpt lat="43.34608" lon="-1.80188">
        <ele>6</ele>
        <time>2026-03-09T17:20:20.000Z</time>
      </trkpt>
      <trkpt lat="43.34611" lon="-1.80189">
        <ele>6</ele>
        <time>2026-03-09T17:20:21.000Z</time>
      </trkpt>
      <trkpt lat="43.34616" lon="-1.80188">
        <ele>6</ele>
        <time>2026-03-09T17:20:22.000Z</time>
      </trkpt>
      <trkpt lat="43.34621" lon="-1.80187">
        <ele>6</ele>
        <time>2026-03-09T17:20:23.000Z</time>
      </trkpt>
      <trkpt lat="43.34628" lon="-1.80185">
        <ele>5</ele>
        <time>2026-03-09T17:20:24.000Z</time>
      </trkpt>
      <trkpt lat="43.34635" lon="-1.80182">
        <ele>5</ele>
        <time>2026-03-09T17:20:25.000Z</time>
      </trkpt>
      <trkpt lat="43.34651" lon="-1.80173">
        <ele>5</ele>
        <time>2026-03-09T17:20:28.000Z</time>
      </trkpt>
      <trkpt lat="43.34674" lon="-1.80158">
        <ele>4</ele>
        <time>2026-03-09T17:20:33.000Z</time>
      </trkpt>
      <trkpt lat="43.34686" lon="-1.80151">
        <ele>4</ele>
        <time>2026-03-09T17:20:35.000Z</time>
      </trkpt>
      <trkpt lat="43.34705" lon="-1.8014">
        <ele>3</ele>
        <time>2026-03-09T17:20:39.000Z</time>
      </trkpt>
      <trkpt lat="43.34718" lon="-1.80133">
        <ele>3</ele>
        <time>2026-03-09T17:20:41.000Z</time>
      </trkpt>
      <trkpt lat="43.34731" lon="-1.80125">
        <ele>2</ele>
        <time>2026-03-09T17:20:44.000Z</time>
      </trkpt>
      <trkpt lat="43.34755" lon="-1.8011">
        <ele>2</ele>
        <time>2026-03-09T17:20:49.000Z</time>
      </trkpt>
      <trkpt lat="43.34782" lon="-1.80095">
        <ele>2</ele>
        <time>2026-03-09T17:20:54.000Z</time>
      </trkpt>
      <trkpt lat="43.34853" lon="-1.80051">
        <ele>2</ele>
        <time>2026-03-09T17:21:08.000Z</time>
      </trkpt>
      <trkpt lat="43.3488" lon="-1.80034">
        <ele>2</ele>
        <time>2026-03-09T17:21:13.000Z</time>
      </trkpt>
      <trkpt lat="43.34901" lon="-1.80022">
        <ele>2</ele>
        <time>2026-03-09T17:21:17.000Z</time>
      </trkpt>
      <trkpt lat="43.34913" lon="-1.80016">
        <ele>2</ele>
        <time>2026-03-09T17:21:19.000Z</time>
      </trkpt>
      <trkpt lat="43.34918" lon="-1.80013">
        <ele>2</ele>
        <time>2026-03-09T17:21:20.000Z</time>
      </trkpt>
      <trkpt lat="43.34922" lon="-1.8001">
        <ele>2</ele>
        <time>2026-03-09T17:21:21.000Z</time>
      </trkpt>
      <trkpt lat="43.34926" lon="-1.80005">
        <ele>2</ele>
        <time>2026-03-09T17:21:22.000Z</time>
      </trkpt>
      <trkpt lat="43.34929" lon="-1.80003">
        <ele>2</ele>
        <time>2026-03-09T17:21:23.000Z</time>
      </trkpt>
      <trkpt lat="43.34934" lon="-1.79999">
        <ele>2</ele>
        <time>2026-03-09T17:21:24.000Z</time>
      </trkpt>
      <trkpt lat="43.34937" lon="-1.79997">
        <ele>2</ele>
        <time>2026-03-09T17:21:24.000Z</time>
      </trkpt>
      <trkpt lat="43.34954" lon="-1.79988">
        <ele>2</ele>
        <time>2026-03-09T17:21:28.000Z</time>
      </trkpt>
      <trkpt lat="43.35017" lon="-1.79951">
        <ele>2</ele>
        <time>2026-03-09T17:21:40.000Z</time>
      </trkpt>
      <trkpt lat="43.35017" lon="-1.79951">
        <ele>2</ele>
        <time>2026-03-09T17:21:40.000Z</time>
      </trkpt>
      <trkpt lat="43.35036" lon="-1.79936">
        <ele>1</ele>
        <time>2026-03-09T17:21:44.000Z</time>
      </trkpt>
      <trkpt lat="43.35043" lon="-1.79929">
        <ele>1</ele>
        <time>2026-03-09T17:21:45.000Z</time>
      </trkpt>
      <trkpt lat="43.35047" lon="-1.79923">
        <ele>1</ele>
        <time>2026-03-09T17:21:46.000Z</time>
      </trkpt>
      <trkpt lat="43.35054" lon="-1.79913">
        <ele>1.9</ele>
        <time>2026-03-09T17:21:48.000Z</time>
      </trkpt>
      <trkpt lat="43.35056" lon="-1.7991">
        <ele>1.8</ele>
        <time>2026-03-09T17:21:49.000Z</time>
      </trkpt>
      <trkpt lat="43.35066" lon="-1.79895">
        <ele>1.9</ele>
        <time>2026-03-09T17:21:51.000Z</time>
      </trkpt>
      <trkpt lat="43.3507" lon="-1.79887">
        <ele>2</ele>
        <time>2026-03-09T17:21:52.000Z</time>
      </trkpt>
      <trkpt lat="43.35088" lon="-1.79866">
        <ele>1</ele>
        <time>2026-03-09T17:21:57.000Z</time>
      </trkpt>
      <trkpt lat="43.35095" lon="-1.7986">
        <ele>1</ele>
        <time>2026-03-09T17:21:58.000Z</time>
      </trkpt>
      <trkpt lat="43.35098" lon="-1.79856">
        <ele>1</ele>
        <time>2026-03-09T17:21:59.000Z</time>
      </trkpt>
      <trkpt lat="43.35133" lon="-1.79817">
        <ele>2</ele>
        <time>2026-03-09T17:22:07.000Z</time>
      </trkpt>
      <trkpt lat="43.35161" lon="-1.79781">
        <ele>2</ele>
        <time>2026-03-09T17:22:14.000Z</time>
      </trkpt>
      <trkpt lat="43.35191" lon="-1.79744">
        <ele>2</ele>
        <time>2026-03-09T17:22:21.000Z</time>
      </trkpt>
      <trkpt lat="43.35205" lon="-1.79725">
        <ele>2</ele>
        <time>2026-03-09T17:22:24.000Z</time>
      </trkpt>
      <trkpt lat="43.35228" lon="-1.79697">
        <ele>3</ele>
        <time>2026-03-09T17:22:30.000Z</time>
      </trkpt>
      <trkpt lat="43.35235" lon="-1.79687">
        <ele>3</ele>
        <time>2026-03-09T17:22:32.000Z</time>
      </trkpt>
      <trkpt lat="43.35239" lon="-1.79682">
        <ele>3</ele>
        <time>2026-03-09T17:22:33.000Z</time>
      </trkpt>
      <trkpt lat="43.35248" lon="-1.79674">
        <ele>3</ele>
        <time>2026-03-09T17:22:34.000Z</time>
      </trkpt>
      <trkpt lat="43.35255" lon="-1.79669">
        <ele>3</ele>
        <time>2026-03-09T17:22:36.000Z</time>
      </trkpt>
      <trkpt lat="43.35263" lon="-1.79664">
        <ele>3</ele>
        <time>2026-03-09T17:22:37.000Z</time>
      </trkpt>
      <trkpt lat="43.35271" lon="-1.79659">
        <ele>2</ele>
        <time>2026-03-09T17:22:39.000Z</time>
      </trkpt>
      <trkpt lat="43.35282" lon="-1.79656">
        <ele>2</ele>
        <time>2026-03-09T17:22:41.000Z</time>
      </trkpt>
      <trkpt lat="43.35285" lon="-1.79655">
        <ele>2</ele>
        <time>2026-03-09T17:22:42.000Z</time>
      </trkpt>
      <trkpt lat="43.35291" lon="-1.79654">
        <ele>2</ele>
        <time>2026-03-09T17:22:43.000Z</time>
      </trkpt>
      <trkpt lat="43.35298" lon="-1.79651">
        <ele>2</ele>
        <time>2026-03-09T17:22:44.000Z</time>
      </trkpt>
      <trkpt lat="43.35353" lon="-1.79631">
        <ele>1</ele>
        <time>2026-03-09T17:22:54.000Z</time>
      </trkpt>
      <trkpt lat="43.35511" lon="-1.79579">
        <ele>-1</ele>
        <time>2026-03-09T17:23:23.000Z</time>
      </trkpt>
      <trkpt lat="43.35521" lon="-1.79576">
        <ele>-1</ele>
        <time>2026-03-09T17:23:25.000Z</time>
      </trkpt>
      <trkpt lat="43.35547" lon="-1.79567">
        <ele>-1</ele>
        <time>2026-03-09T17:23:30.000Z</time>
      </trkpt>
      <trkpt lat="43.35551" lon="-1.79563">
        <ele>-1</ele>
        <time>2026-03-09T17:23:30.000Z</time>
      </trkpt>
      <trkpt lat="43.35552" lon="-1.79562">
        <ele>-1</ele>
        <time>2026-03-09T17:23:31.000Z</time>
      </trkpt>
      <trkpt lat="43.35558" lon="-1.79558">
        <ele>-1</ele>
        <time>2026-03-09T17:23:32.000Z</time>
      </trkpt>
      <trkpt lat="43.35579" lon="-1.79548">
        <ele>-1</ele>
        <time>2026-03-09T17:23:36.000Z</time>
      </trkpt>
      <trkpt lat="43.35593" lon="-1.79539">
        <ele>2.3</ele>
        <time>2026-03-09T17:23:39.000Z</time>
      </trkpt>
      <trkpt lat="43.35603" lon="-1.79532">
        <ele>2.5</ele>
        <time>2026-03-09T17:23:41.000Z</time>
      </trkpt>
      <trkpt lat="43.35611" lon="-1.79525">
        <ele>3</ele>
        <time>2026-03-09T17:23:42.000Z</time>
      </trkpt>
      <trkpt lat="43.35623" lon="-1.79513">
        <ele>2.6</ele>
        <time>2026-03-09T17:23:45.000Z</time>
      </trkpt>
      <trkpt lat="43.35656" lon="-1.79474">
        <ele>1</ele>
        <time>2026-03-09T17:23:53.000Z</time>
      </trkpt>
      <trkpt lat="43.35682" lon="-1.79445">
        <ele>1</ele>
        <time>2026-03-09T17:23:59.000Z</time>
      </trkpt>
      <trkpt lat="43.3575" lon="-1.79373">
        <ele>2.4</ele>
        <time>2026-03-09T17:24:14.000Z</time>
      </trkpt>
      <trkpt lat="43.35788" lon="-1.79334">
        <ele>2</ele>
        <time>2026-03-09T17:24:22.000Z</time>
      </trkpt>
      <trkpt lat="43.35792" lon="-1.79331">
        <ele>1</ele>
        <time>2026-03-09T17:24:23.000Z</time>
      </trkpt>
      <trkpt lat="43.35798" lon="-1.79326">
        <ele>1</ele>
        <time>2026-03-09T17:24:24.000Z</time>
      </trkpt>
      <trkpt lat="43.35824" lon="-1.79296">
        <ele>1</ele>
        <time>2026-03-09T17:24:30.000Z</time>
      </trkpt>
      <trkpt lat="43.35881" lon="-1.79231">
        <ele>2.2</ele>
        <time>2026-03-09T17:24:44.000Z</time>
      </trkpt>
      <trkpt lat="43.35894" lon="-1.7922">
        <ele>2.9</ele>
        <time>2026-03-09T17:24:46.000Z</time>
      </trkpt>
      <trkpt lat="43.35915" lon="-1.79206">
        <ele>2.9</ele>
        <time>2026-03-09T17:24:50.000Z</time>
      </trkpt>
      <trkpt lat="43.35929" lon="-1.79197">
        <ele>-1</ele>
        <time>2026-03-09T17:24:53.000Z</time>
      </trkpt>
      <trkpt lat="43.35929" lon="-1.79197">
        <ele>-1</ele>
        <time>2026-03-09T17:24:53.000Z</time>
      </trkpt>
      <trkpt lat="43.35928" lon="-1.79194">
        <ele>-1</ele>
        <time>2026-03-09T17:24:54.000Z</time>
      </trkpt>
      <trkpt lat="43.35928" lon="-1.79191">
        <ele>-1</ele>
        <time>2026-03-09T17:24:54.000Z</time>
      </trkpt>
      <trkpt lat="43.35927" lon="-1.79188">
        <ele>-1</ele>
        <time>2026-03-09T17:24:54.000Z</time>
      </trkpt>
      <trkpt lat="43.35927" lon="-1.79185">
        <ele>-1</ele>
        <time>2026-03-09T17:24:55.000Z</time>
      </trkpt>
      <trkpt lat="43.35927" lon="-1.79182">
        <ele>-1</ele>
        <time>2026-03-09T17:24:55.000Z</time>
      </trkpt>
      <trkpt lat="43.35928" lon="-1.79179">
        <ele>-1</ele>
        <time>2026-03-09T17:24:56.000Z</time>
      </trkpt>
      <trkpt lat="43.35928" lon="-1.79176">
        <ele>-1</ele>
        <time>2026-03-09T17:24:56.000Z</time>
      </trkpt>
      <trkpt lat="43.35929" lon="-1.79173">
        <ele>-1</ele>
        <time>2026-03-09T17:24:56.000Z</time>
      </trkpt>
      <trkpt lat="43.3593" lon="-1.7917">
        <ele>-1</ele>
        <time>2026-03-09T17:24:57.000Z</time>
      </trkpt>
      <trkpt lat="43.35932" lon="-1.79168">
        <ele>-1</ele>
        <time>2026-03-09T17:24:57.000Z</time>
      </trkpt>
      <trkpt lat="43.35933" lon="-1.79165">
        <ele>-1</ele>
        <time>2026-03-09T17:24:58.000Z</time>
      </trkpt>
      <trkpt lat="43.35936" lon="-1.79161">
        <ele>-1</ele>
        <time>2026-03-09T17:24:58.000Z</time>
      </trkpt>
      <trkpt lat="43.35939" lon="-1.79159">
        <ele>2.9</ele>
        <time>2026-03-09T17:24:59.000Z</time>
      </trkpt>
      <trkpt lat="43.35941" lon="-1.79157">
        <ele>2.8</ele>
        <time>2026-03-09T17:24:59.000Z</time>
      </trkpt>
      <trkpt lat="43.35943" lon="-1.79156">
        <ele>2.8</ele>
        <time>2026-03-09T17:25:00.000Z</time>
      </trkpt>
      <trkpt lat="43.35946" lon="-1.79155">
        <ele>2.8</ele>
        <time>2026-03-09T17:25:00.000Z</time>
      </trkpt>
      <trkpt lat="43.35948" lon="-1.79155">
        <ele>2.9</ele>
        <time>2026-03-09T17:25:01.000Z</time>
      </trkpt>
      <trkpt lat="43.3595" lon="-1.79155">
        <ele>3</ele>
        <time>2026-03-09T17:25:01.000Z</time>
      </trkpt>
      <trkpt lat="43.35952" lon="-1.79155">
        <ele>3.1</ele>
        <time>2026-03-09T17:25:01.000Z</time>
      </trkpt>
      <trkpt lat="43.35955" lon="-1.79156">
        <ele>3.3</ele>
        <time>2026-03-09T17:25:02.000Z</time>
      </trkpt>
      <trkpt lat="43.35957" lon="-1.79156">
        <ele>3.4</ele>
        <time>2026-03-09T17:25:02.000Z</time>
      </trkpt>
      <trkpt lat="43.35959" lon="-1.79158">
        <ele>3.6</ele>
        <time>2026-03-09T17:25:03.000Z</time>
      </trkpt>
      <trkpt lat="43.35961" lon="-1.79159">
        <ele>3.7</ele>
        <time>2026-03-09T17:25:03.000Z</time>
      </trkpt>
      <trkpt lat="43.35963" lon="-1.79161">
        <ele>3.8</ele>
        <time>2026-03-09T17:25:04.000Z</time>
      </trkpt>
      <trkpt lat="43.35965" lon="-1.79162">
        <ele>3.9</ele>
        <time>2026-03-09T17:25:04.000Z</time>
      </trkpt>
      <trkpt lat="43.35968" lon="-1.79167">
        <ele>4</ele>
        <time>2026-03-09T17:25:05.000Z</time>
      </trkpt>
      <trkpt lat="43.35969" lon="-1.7917">
        <ele>4</ele>
        <time>2026-03-09T17:25:05.000Z</time>
      </trkpt>
      <trkpt lat="43.3597" lon="-1.79172">
        <ele>4</ele>
        <time>2026-03-09T17:25:06.000Z</time>
      </trkpt>
      <trkpt lat="43.35971" lon="-1.79175">
        <ele>4</ele>
        <time>2026-03-09T17:25:06.000Z</time>
      </trkpt>
      <trkpt lat="43.35972" lon="-1.79178">
        <ele>4</ele>
        <time>2026-03-09T17:25:06.000Z</time>
      </trkpt>
      <trkpt lat="43.35972" lon="-1.79181">
        <ele>4</ele>
        <time>2026-03-09T17:25:07.000Z</time>
      </trkpt>
      <trkpt lat="43.35973" lon="-1.79185">
        <ele>3.9</ele>
        <time>2026-03-09T17:25:07.000Z</time>
      </trkpt>
      <trkpt lat="43.35973" lon="-1.79188">
        <ele>3.9</ele>
        <time>2026-03-09T17:25:08.000Z</time>
      </trkpt>
      <trkpt lat="43.35972" lon="-1.79191">
        <ele>4</ele>
        <time>2026-03-09T17:25:08.000Z</time>
      </trkpt>
      <trkpt lat="43.35972" lon="-1.79194">
        <ele>4</ele>
        <time>2026-03-09T17:25:09.000Z</time>
      </trkpt>
      <trkpt lat="43.35971" lon="-1.79197">
        <ele>3.9</ele>
        <time>2026-03-09T17:25:09.000Z</time>
      </trkpt>
      <trkpt lat="43.3597" lon="-1.792">
        <ele>3.8</ele>
        <time>2026-03-09T17:25:09.000Z</time>
      </trkpt>
      <trkpt lat="43.35969" lon="-1.79203">
        <ele>3.7</ele>
        <time>2026-03-09T17:25:10.000Z</time>
      </trkpt>
      <trkpt lat="43.35968" lon="-1.79205">
        <ele>3.6</ele>
        <time>2026-03-09T17:25:10.000Z</time>
      </trkpt>
      <trkpt lat="43.35966" lon="-1.79207">
        <ele>3.5</ele>
        <time>2026-03-09T17:25:11.000Z</time>
      </trkpt>
      <trkpt lat="43.35965" lon="-1.7921">
        <ele>3.4</ele>
        <time>2026-03-09T17:25:11.000Z</time>
      </trkpt>
      <trkpt lat="43.35963" lon="-1.79212">
        <ele>3.4</ele>
        <time>2026-03-09T17:25:11.000Z</time>
      </trkpt>
      <trkpt lat="43.35961" lon="-1.79213">
        <ele>3.3</ele>
        <time>2026-03-09T17:25:12.000Z</time>
      </trkpt>
      <trkpt lat="43.35959" lon="-1.79215">
        <ele>3.3</ele>
        <time>2026-03-09T17:25:12.000Z</time>
      </trkpt>
      <trkpt lat="43.35963" lon="-1.7924">
        <ele>3</ele>
        <time>2026-03-09T17:25:16.000Z</time>
      </trkpt>
      <trkpt lat="43.35967" lon="-1.79263">
        <ele>3.2</ele>
        <time>2026-03-09T17:25:19.000Z</time>
      </trkpt>
      <trkpt lat="43.35971" lon="-1.79288">
        <ele>3.9</ele>
        <time>2026-03-09T17:25:22.000Z</time>
      </trkpt>
      <trkpt lat="43.35972" lon="-1.79295">
        <ele>4</ele>
        <time>2026-03-09T17:25:23.000Z</time>
      </trkpt>
      <trkpt lat="43.35974" lon="-1.79303">
        <ele>3.8</ele>
        <time>2026-03-09T17:25:24.000Z</time>
      </trkpt>
      <trkpt lat="43.35977" lon="-1.79321">
        <ele>1</ele>
        <time>2026-03-09T17:25:26.000Z</time>
      </trkpt>
      <trkpt lat="43.35982" lon="-1.79352">
        <ele>1</ele>
        <time>2026-03-09T17:25:31.000Z</time>
      </trkpt>
      <trkpt lat="43.35986" lon="-1.79373">
        <ele>1</ele>
        <time>2026-03-09T17:25:33.000Z</time>
      </trkpt>
      <trkpt lat="43.35992" lon="-1.79395">
        <ele>1</ele>
        <time>2026-03-09T17:25:36.000Z</time>
      </trkpt>
      <trkpt lat="43.35999" lon="-1.79416">
        <ele>1</ele>
        <time>2026-03-09T17:25:39.000Z</time>
      </trkpt>
      <trkpt lat="43.36004" lon="-1.79432">
        <ele>1</ele>
        <time>2026-03-09T17:25:42.000Z</time>
      </trkpt>
      <trkpt lat="43.36012" lon="-1.7945">
        <ele>2</ele>
        <time>2026-03-09T17:25:44.000Z</time>
      </trkpt>
      <trkpt lat="43.36017" lon="-1.79459">
        <ele>2</ele>
        <time>2026-03-09T17:25:46.000Z</time>
      </trkpt>
      <trkpt lat="43.36023" lon="-1.7947">
        <ele>2</ele>
        <time>2026-03-09T17:25:48.000Z</time>
      </trkpt>
      <trkpt lat="43.36028" lon="-1.79477">
        <ele>2</ele>
        <time>2026-03-09T17:25:49.000Z</time>
      </trkpt>
      <trkpt lat="43.36037" lon="-1.79487">
        <ele>3</ele>
        <time>2026-03-09T17:25:51.000Z</time>
      </trkpt>
      <trkpt lat="43.36045" lon="-1.79493">
        <ele>3</ele>
        <time>2026-03-09T17:25:53.000Z</time>
      </trkpt>
      <trkpt lat="43.36061" lon="-1.79501">
        <ele>4</ele>
        <time>2026-03-09T17:25:56.000Z</time>
      </trkpt>
      <trkpt lat="43.36063" lon="-1.79502">
        <ele>4</ele>
        <time>2026-03-09T17:25:56.000Z</time>
      </trkpt>
      <trkpt lat="43.36065" lon="-1.79503">
        <ele>4</ele>
        <time>2026-03-09T17:25:56.000Z</time>
      </trkpt>
      <trkpt lat="43.36069" lon="-1.79504">
        <ele>4</ele>
        <time>2026-03-09T17:25:57.000Z</time>
      </trkpt>
      <trkpt lat="43.36073" lon="-1.79505">
        <ele>4</ele>
        <time>2026-03-09T17:25:58.000Z</time>
      </trkpt>
      <trkpt lat="43.36075" lon="-1.79505">
        <ele>4</ele>
        <time>2026-03-09T17:25:58.000Z</time>
      </trkpt>
      <trkpt lat="43.36079" lon="-1.79505">
        <ele>4</ele>
        <time>2026-03-09T17:25:59.000Z</time>
      </trkpt>
      <trkpt lat="43.36081" lon="-1.79505">
        <ele>4</ele>
        <time>2026-03-09T17:25:59.000Z</time>
      </trkpt>
      <trkpt lat="43.36087" lon="-1.79504">
        <ele>4</ele>
        <time>2026-03-09T17:26:00.000Z</time>
      </trkpt>
      <trkpt lat="43.36091" lon="-1.79503">
        <ele>4</ele>
        <time>2026-03-09T17:26:01.000Z</time>
      </trkpt>
      <trkpt lat="43.36091" lon="-1.79503">
        <ele>4</ele>
        <time>2026-03-09T17:26:01.000Z</time>
      </trkpt>
      <trkpt lat="43.3609" lon="-1.795">
        <ele>4</ele>
        <time>2026-03-09T17:26:01.000Z</time>
      </trkpt>
      <trkpt lat="43.3609" lon="-1.79498">
        <ele>4</ele>
        <time>2026-03-09T17:26:02.000Z</time>
      </trkpt>
      <trkpt lat="43.36089" lon="-1.79495">
        <ele>4</ele>
        <time>2026-03-09T17:26:02.000Z</time>
      </trkpt>
      <trkpt lat="43.36089" lon="-1.79492">
        <ele>4</ele>
        <time>2026-03-09T17:26:02.000Z</time>
      </trkpt>
      <trkpt lat="43.36089" lon="-1.79489">
        <ele>4</ele>
        <time>2026-03-09T17:26:03.000Z</time>
      </trkpt>
      <trkpt lat="43.36089" lon="-1.79487">
        <ele>4</ele>
        <time>2026-03-09T17:26:03.000Z</time>
      </trkpt>
      <trkpt lat="43.3609" lon="-1.79484">
        <ele>4</ele>
        <time>2026-03-09T17:26:04.000Z</time>
      </trkpt>
      <trkpt lat="43.3609" lon="-1.79481">
        <ele>4</ele>
        <time>2026-03-09T17:26:04.000Z</time>
      </trkpt>
      <trkpt lat="43.36091" lon="-1.79479">
        <ele>4</ele>
        <time>2026-03-09T17:26:04.000Z</time>
      </trkpt>
      <trkpt lat="43.36092" lon="-1.79476">
        <ele>4</ele>
        <time>2026-03-09T17:26:05.000Z</time>
      </trkpt>
      <trkpt lat="43.36093" lon="-1.79474">
        <ele>4</ele>
        <time>2026-03-09T17:26:05.000Z</time>
      </trkpt>
      <trkpt lat="43.36094" lon="-1.79471">
        <ele>4</ele>
        <time>2026-03-09T17:26:05.000Z</time>
      </trkpt>
      <trkpt lat="43.36096" lon="-1.79469">
        <ele>4</ele>
        <time>2026-03-09T17:26:06.000Z</time>
      </trkpt>
      <trkpt lat="43.36097" lon="-1.79468">
        <ele>4</ele>
        <time>2026-03-09T17:26:06.000Z</time>
      </trkpt>
      <trkpt lat="43.36099" lon="-1.79466">
        <ele>4</ele>
        <time>2026-03-09T17:26:07.000Z</time>
      </trkpt>
      <trkpt lat="43.361" lon="-1.79464">
        <ele>4</ele>
        <time>2026-03-09T17:26:07.000Z</time>
      </trkpt>
      <trkpt lat="43.36104" lon="-1.79463">
        <ele>4</ele>
        <time>2026-03-09T17:26:08.000Z</time>
      </trkpt>
      <trkpt lat="43.36107" lon="-1.79461">
        <ele>4</ele>
        <time>2026-03-09T17:26:08.000Z</time>
      </trkpt>
      <trkpt lat="43.36109" lon="-1.79461">
        <ele>4</ele>
        <time>2026-03-09T17:26:09.000Z</time>
      </trkpt>
      <trkpt lat="43.36111" lon="-1.79461">
        <ele>4</ele>
        <time>2026-03-09T17:26:09.000Z</time>
      </trkpt>
      <trkpt lat="43.36113" lon="-1.79461">
        <ele>4</ele>
        <time>2026-03-09T17:26:09.000Z</time>
      </trkpt>
      <trkpt lat="43.36115" lon="-1.79462">
        <ele>4</ele>
        <time>2026-03-09T17:26:10.000Z</time>
      </trkpt>
      <trkpt lat="43.36117" lon="-1.79463">
        <ele>4</ele>
        <time>2026-03-09T17:26:10.000Z</time>
      </trkpt>
      <trkpt lat="43.36119" lon="-1.79464">
        <ele>4</ele>
        <time>2026-03-09T17:26:10.000Z</time>
      </trkpt>
      <trkpt lat="43.36121" lon="-1.79465">
        <ele>4</ele>
        <time>2026-03-09T17:26:11.000Z</time>
      </trkpt>
      <trkpt lat="43.36123" lon="-1.79466">
        <ele>4</ele>
        <time>2026-03-09T17:26:11.000Z</time>
      </trkpt>
      <trkpt lat="43.36124" lon="-1.79468">
        <ele>4</ele>
        <time>2026-03-09T17:26:11.000Z</time>
      </trkpt>
      <trkpt lat="43.36126" lon="-1.7947">
        <ele>4</ele>
        <time>2026-03-09T17:26:12.000Z</time>
      </trkpt>
      <trkpt lat="43.36127" lon="-1.79472">
        <ele>4</ele>
        <time>2026-03-09T17:26:12.000Z</time>
      </trkpt>
      <trkpt lat="43.36128" lon="-1.79475">
        <ele>4</ele>
        <time>2026-03-09T17:26:13.000Z</time>
      </trkpt>
      <trkpt lat="43.36129" lon="-1.79477">
        <ele>4</ele>
        <time>2026-03-09T17:26:13.000Z</time>
      </trkpt>
      <trkpt lat="43.36131" lon="-1.79479">
        <ele>4</ele>
        <time>2026-03-09T17:26:13.000Z</time>
      </trkpt>
      <trkpt lat="43.36131" lon="-1.79485">
        <ele>4</ele>
        <time>2026-03-09T17:26:14.000Z</time>
      </trkpt>
      <trkpt lat="43.36132" lon="-1.79487">
        <ele>4</ele>
        <time>2026-03-09T17:26:14.000Z</time>
      </trkpt>
      <trkpt lat="43.36132" lon="-1.7949">
        <ele>4</ele>
        <time>2026-03-09T17:26:15.000Z</time>
      </trkpt>
      <trkpt lat="43.36132" lon="-1.79493">
        <ele>4</ele>
        <time>2026-03-09T17:26:15.000Z</time>
      </trkpt>
      <trkpt lat="43.36132" lon="-1.79496">
        <ele>4</ele>
        <time>2026-03-09T17:26:16.000Z</time>
      </trkpt>
      <trkpt lat="43.36131" lon="-1.79498">
        <ele>4</ele>
        <time>2026-03-09T17:26:16.000Z</time>
      </trkpt>
      <trkpt lat="43.3613" lon="-1.79501">
        <ele>4</ele>
        <time>2026-03-09T17:26:16.000Z</time>
      </trkpt>
      <trkpt lat="43.3613" lon="-1.79504">
        <ele>4</ele>
        <time>2026-03-09T17:26:17.000Z</time>
      </trkpt>
      <trkpt lat="43.36129" lon="-1.79506">
        <ele>4</ele>
        <time>2026-03-09T17:26:17.000Z</time>
      </trkpt>
      <trkpt lat="43.36127" lon="-1.79508">
        <ele>4</ele>
        <time>2026-03-09T17:26:17.000Z</time>
      </trkpt>
      <trkpt lat="43.36126" lon="-1.79511">
        <ele>4</ele>
        <time>2026-03-09T17:26:18.000Z</time>
      </trkpt>
      <trkpt lat="43.36125" lon="-1.79513">
        <ele>4</ele>
        <time>2026-03-09T17:26:18.000Z</time>
      </trkpt>
      <trkpt lat="43.36123" lon="-1.79514">
        <ele>4</ele>
        <time>2026-03-09T17:26:19.000Z</time>
      </trkpt>
      <trkpt lat="43.36121" lon="-1.79516">
        <ele>4</ele>
        <time>2026-03-09T17:26:19.000Z</time>
      </trkpt>
      <trkpt lat="43.3612" lon="-1.79517">
        <ele>4</ele>
        <time>2026-03-09T17:26:19.000Z</time>
      </trkpt>
      <trkpt lat="43.36118" lon="-1.79518">
        <ele>4</ele>
        <time>2026-03-09T17:26:20.000Z</time>
      </trkpt>
      <trkpt lat="43.36126" lon="-1.79539">
        <ele>4</ele>
        <time>2026-03-09T17:26:23.000Z</time>
      </trkpt>
      <trkpt lat="43.3613" lon="-1.79548">
        <ele>4</ele>
        <time>2026-03-09T17:26:24.000Z</time>
      </trkpt>
      <trkpt lat="43.36248" lon="-1.79852">
        <ele>4</ele>
        <time>2026-03-09T17:27:09.000Z</time>
      </trkpt>
      <trkpt lat="43.36266" lon="-1.79896">
        <ele>4</ele>
        <time>2026-03-09T17:27:15.000Z</time>
      </trkpt>
      <trkpt lat="43.36269" lon="-1.79899">
        <ele>4</ele>
        <time>2026-03-09T17:27:16.000Z</time>
      </trkpt>
      <trkpt lat="43.36274" lon="-1.79909">
        <ele>4</ele>
        <time>2026-03-09T17:27:17.000Z</time>
      </trkpt>
      <trkpt lat="43.3628" lon="-1.79921">
        <ele>4</ele>
        <time>2026-03-09T17:27:19.000Z</time>
      </trkpt>
      <trkpt lat="43.36285" lon="-1.79928">
        <ele>4</ele>
        <time>2026-03-09T17:27:21.000Z</time>
      </trkpt>
      <trkpt lat="43.36291" lon="-1.79934">
        <ele>4</ele>
        <time>2026-03-09T17:27:22.000Z</time>
      </trkpt>
      <trkpt lat="43.36291" lon="-1.79934">
        <ele>4</ele>
        <time>2026-03-09T17:27:22.000Z</time>
      </trkpt>
      <trkpt lat="43.36293" lon="-1.79934">
        <ele>4</ele>
        <time>2026-03-09T17:27:22.000Z</time>
      </trkpt>
      <trkpt lat="43.36295" lon="-1.79936">
        <ele>4</ele>
        <time>2026-03-09T17:27:23.000Z</time>
      </trkpt>
      <trkpt lat="43.36297" lon="-1.79937">
        <ele>4</ele>
        <time>2026-03-09T17:27:23.000Z</time>
      </trkpt>
      <trkpt lat="43.36299" lon="-1.79939">
        <ele>4</ele>
        <time>2026-03-09T17:27:24.000Z</time>
      </trkpt>
      <trkpt lat="43.36301" lon="-1.79941">
        <ele>4</ele>
        <time>2026-03-09T17:27:24.000Z</time>
      </trkpt>
      <trkpt lat="43.36302" lon="-1.79943">
        <ele>4</ele>
        <time>2026-03-09T17:27:24.000Z</time>
      </trkpt>
      <trkpt lat="43.36303" lon="-1.79944">
        <ele>4</ele>
        <time>2026-03-09T17:27:24.000Z</time>
      </trkpt>
      <trkpt lat="43.36304" lon="-1.79945">
        <ele>4</ele>
        <time>2026-03-09T17:27:25.000Z</time>
      </trkpt>
      <trkpt lat="43.36305" lon="-1.79948">
        <ele>4</ele>
        <time>2026-03-09T17:27:25.000Z</time>
      </trkpt>
      <trkpt lat="43.36306" lon="-1.7995">
        <ele>4</ele>
        <time>2026-03-09T17:27:25.000Z</time>
      </trkpt>
      <trkpt lat="43.36307" lon="-1.79953">
        <ele>4</ele>
        <time>2026-03-09T17:27:26.000Z</time>
      </trkpt>
      <trkpt lat="43.36307" lon="-1.79956">
        <ele>4</ele>
        <time>2026-03-09T17:27:26.000Z</time>
      </trkpt>
      <trkpt lat="43.36308" lon="-1.79959">
        <ele>3</ele>
        <time>2026-03-09T17:27:27.000Z</time>
      </trkpt>
      <trkpt lat="43.36308" lon="-1.79962">
        <ele>3</ele>
        <time>2026-03-09T17:27:27.000Z</time>
      </trkpt>
      <trkpt lat="43.36308" lon="-1.79965">
        <ele>3</ele>
        <time>2026-03-09T17:27:27.000Z</time>
      </trkpt>
      <trkpt lat="43.36308" lon="-1.79968">
        <ele>3</ele>
        <time>2026-03-09T17:27:28.000Z</time>
      </trkpt>
      <trkpt lat="43.36307" lon="-1.79971">
        <ele>3</ele>
        <time>2026-03-09T17:27:28.000Z</time>
      </trkpt>
      <trkpt lat="43.36307" lon="-1.79974">
        <ele>3</ele>
        <time>2026-03-09T17:27:29.000Z</time>
      </trkpt>
      <trkpt lat="43.36306" lon="-1.79976">
        <ele>3</ele>
        <time>2026-03-09T17:27:29.000Z</time>
      </trkpt>
      <trkpt lat="43.36317" lon="-1.80009">
        <ele>3</ele>
        <time>2026-03-09T17:27:34.000Z</time>
      </trkpt>
      <trkpt lat="43.36317" lon="-1.80014">
        <ele>4</ele>
        <time>2026-03-09T17:27:34.000Z</time>
      </trkpt>
      <trkpt lat="43.36328" lon="-1.80037">
        <ele>4</ele>
        <time>2026-03-09T17:27:38.000Z</time>
      </trkpt>
      <trkpt lat="43.36337" lon="-1.80054">
        <ele>5</ele>
        <time>2026-03-09T17:27:41.000Z</time>
      </trkpt>
      <trkpt lat="43.36347" lon="-1.80069">
        <ele>6</ele>
        <time>2026-03-09T17:27:43.000Z</time>
      </trkpt>
      <trkpt lat="43.36357" lon="-1.80084">
        <ele>6</ele>
        <time>2026-03-09T17:27:46.000Z</time>
      </trkpt>
      <trkpt lat="43.36367" lon="-1.80101">
        <ele>7</ele>
        <time>2026-03-09T17:27:49.000Z</time>
      </trkpt>
      <trkpt lat="43.36374" lon="-1.80108">
        <ele>7</ele>
        <time>2026-03-09T17:27:50.000Z</time>
      </trkpt>
      <trkpt lat="43.3638" lon="-1.80115">
        <ele>8</ele>
        <time>2026-03-09T17:27:52.000Z</time>
      </trkpt>
      <trkpt lat="43.36389" lon="-1.80125">
        <ele>8</ele>
        <time>2026-03-09T17:27:54.000Z</time>
      </trkpt>
      <trkpt lat="43.36392" lon="-1.80127">
        <ele>8</ele>
        <time>2026-03-09T17:27:54.000Z</time>
      </trkpt>
      <trkpt lat="43.36394" lon="-1.80129">
        <ele>8</ele>
        <time>2026-03-09T17:27:55.000Z</time>
      </trkpt>
      <trkpt lat="43.36401" lon="-1.80136">
        <ele>9</ele>
        <time>2026-03-09T17:27:56.000Z</time>
      </trkpt>
      <trkpt lat="43.36403" lon="-1.80138">
        <ele>9</ele>
        <time>2026-03-09T17:27:57.000Z</time>
      </trkpt>
      <trkpt lat="43.36414" lon="-1.80148">
        <ele>9</ele>
        <time>2026-03-09T17:27:59.000Z</time>
      </trkpt>
      <trkpt lat="43.36426" lon="-1.80157">
        <ele>10</ele>
        <time>2026-03-09T17:28:01.000Z</time>
      </trkpt>
      <trkpt lat="43.36439" lon="-1.80165">
        <ele>10</ele>
        <time>2026-03-09T17:28:04.000Z</time>
      </trkpt>
      <trkpt lat="43.36452" lon="-1.80172">
        <ele>11</ele>
        <time>2026-03-09T17:28:07.000Z</time>
      </trkpt>
      <trkpt lat="43.36464" lon="-1.80179">
        <ele>12</ele>
        <time>2026-03-09T17:28:09.000Z</time>
      </trkpt>
      <trkpt lat="43.36477" lon="-1.80184">
        <ele>12</ele>
        <time>2026-03-09T17:28:11.000Z</time>
      </trkpt>
      <trkpt lat="43.36491" lon="-1.80189">
        <ele>13</ele>
        <time>2026-03-09T17:28:14.000Z</time>
      </trkpt>
      <trkpt lat="43.36504" lon="-1.80193">
        <ele>13</ele>
        <time>2026-03-09T17:28:16.000Z</time>
      </trkpt>
      <trkpt lat="43.36518" lon="-1.80196">
        <ele>13</ele>
        <time>2026-03-09T17:28:19.000Z</time>
      </trkpt>
      <trkpt lat="43.36529" lon="-1.80198">
        <ele>14</ele>
        <time>2026-03-09T17:28:21.000Z</time>
      </trkpt>
      <trkpt lat="43.36541" lon="-1.802">
        <ele>14</ele>
        <time>2026-03-09T17:28:23.000Z</time>
      </trkpt>
      <trkpt lat="43.36553" lon="-1.802">
        <ele>14</ele>
        <time>2026-03-09T17:28:25.000Z</time>
      </trkpt>
      <trkpt lat="43.36564" lon="-1.802">
        <ele>14</ele>
        <time>2026-03-09T17:28:27.000Z</time>
      </trkpt>
      <trkpt lat="43.36576" lon="-1.80199">
        <ele>14</ele>
        <time>2026-03-09T17:28:29.000Z</time>
      </trkpt>
      <trkpt lat="43.36588" lon="-1.80196">
        <ele>15</ele>
        <time>2026-03-09T17:28:31.000Z</time>
      </trkpt>
      <trkpt lat="43.36599" lon="-1.80194">
        <ele>15</ele>
        <time>2026-03-09T17:28:33.000Z</time>
      </trkpt>
      <trkpt lat="43.3661" lon="-1.8019">
        <ele>16</ele>
        <time>2026-03-09T17:28:35.000Z</time>
      </trkpt>
      <trkpt lat="43.3661" lon="-1.8019">
        <ele>16</ele>
        <time>2026-03-09T17:28:35.000Z</time>
      </trkpt>
      <trkpt lat="43.3661" lon="-1.80187">
        <ele>16</ele>
        <time>2026-03-09T17:28:36.000Z</time>
      </trkpt>
      <trkpt lat="43.3661" lon="-1.80185">
        <ele>16</ele>
        <time>2026-03-09T17:28:36.000Z</time>
      </trkpt>
      <trkpt lat="43.3661" lon="-1.80184">
        <ele>16</ele>
        <time>2026-03-09T17:28:36.000Z</time>
      </trkpt>
      <trkpt lat="43.36611" lon="-1.80182">
        <ele>16</ele>
        <time>2026-03-09T17:28:36.000Z</time>
      </trkpt>
      <trkpt lat="43.36611" lon="-1.80181">
        <ele>16</ele>
        <time>2026-03-09T17:28:36.000Z</time>
      </trkpt>
      <trkpt lat="43.36611" lon="-1.80179">
        <ele>16</ele>
        <time>2026-03-09T17:28:37.000Z</time>
      </trkpt>
      <trkpt lat="43.36612" lon="-1.80178">
        <ele>16</ele>
        <time>2026-03-09T17:28:37.000Z</time>
      </trkpt>
      <trkpt lat="43.36612" lon="-1.80176">
        <ele>16</ele>
        <time>2026-03-09T17:28:37.000Z</time>
      </trkpt>
      <trkpt lat="43.36613" lon="-1.80175">
        <ele>16</ele>
        <time>2026-03-09T17:28:37.000Z</time>
      </trkpt>
      <trkpt lat="43.36613" lon="-1.80174">
        <ele>16</ele>
        <time>2026-03-09T17:28:38.000Z</time>
      </trkpt>
      <trkpt lat="43.36614" lon="-1.80172">
        <ele>16</ele>
        <time>2026-03-09T17:28:38.000Z</time>
      </trkpt>
      <trkpt lat="43.36615" lon="-1.80171">
        <ele>16</ele>
        <time>2026-03-09T17:28:38.000Z</time>
      </trkpt>
      <trkpt lat="43.36615" lon="-1.8017">
        <ele>16</ele>
        <time>2026-03-09T17:28:38.000Z</time>
      </trkpt>
      <trkpt lat="43.36616" lon="-1.80169">
        <ele>16</ele>
        <time>2026-03-09T17:28:38.000Z</time>
      </trkpt>
      <trkpt lat="43.36617" lon="-1.80168">
        <ele>16</ele>
        <time>2026-03-09T17:28:39.000Z</time>
      </trkpt>
      <trkpt lat="43.36618" lon="-1.80167">
        <ele>16</ele>
        <time>2026-03-09T17:28:39.000Z</time>
      </trkpt>
      <trkpt lat="43.36619" lon="-1.80167">
        <ele>16</ele>
        <time>2026-03-09T17:28:39.000Z</time>
      </trkpt>
      <trkpt lat="43.3662" lon="-1.80166">
        <ele>16</ele>
        <time>2026-03-09T17:28:39.000Z</time>
      </trkpt>
      <trkpt lat="43.36621" lon="-1.80165">
        <ele>16</ele>
        <time>2026-03-09T17:28:39.000Z</time>
      </trkpt>
      <trkpt lat="43.36622" lon="-1.80165">
        <ele>16</ele>
        <time>2026-03-09T17:28:40.000Z</time>
      </trkpt>
      <trkpt lat="43.36623" lon="-1.80165">
        <ele>16</ele>
        <time>2026-03-09T17:28:40.000Z</time>
      </trkpt>
      <trkpt lat="43.36625" lon="-1.80165">
        <ele>17</ele>
        <time>2026-03-09T17:28:40.000Z</time>
      </trkpt>
      <trkpt lat="43.36626" lon="-1.80164">
        <ele>17</ele>
        <time>2026-03-09T17:28:40.000Z</time>
      </trkpt>
      <trkpt lat="43.36627" lon="-1.80164">
        <ele>17</ele>
        <time>2026-03-09T17:28:41.000Z</time>
      </trkpt>
      <trkpt lat="43.36628" lon="-1.80164">
        <ele>17</ele>
        <time>2026-03-09T17:28:41.000Z</time>
      </trkpt>
      <trkpt lat="43.36629" lon="-1.80165">
        <ele>17</ele>
        <time>2026-03-09T17:28:41.000Z</time>
      </trkpt>
      <trkpt lat="43.3663" lon="-1.80165">
        <ele>17</ele>
        <time>2026-03-09T17:28:41.000Z</time>
      </trkpt>
      <trkpt lat="43.36631" lon="-1.80165">
        <ele>17</ele>
        <time>2026-03-09T17:28:41.000Z</time>
      </trkpt>
      <trkpt lat="43.36632" lon="-1.80166">
        <ele>17</ele>
        <time>2026-03-09T17:28:42.000Z</time>
      </trkpt>
      <trkpt lat="43.36633" lon="-1.80167">
        <ele>17</ele>
        <time>2026-03-09T17:28:42.000Z</time>
      </trkpt>
      <trkpt lat="43.36634" lon="-1.80167">
        <ele>17</ele>
        <time>2026-03-09T17:28:42.000Z</time>
      </trkpt>
      <trkpt lat="43.36635" lon="-1.80168">
        <ele>17</ele>
        <time>2026-03-09T17:28:42.000Z</time>
      </trkpt>
      <trkpt lat="43.36636" lon="-1.80169">
        <ele>17</ele>
        <time>2026-03-09T17:28:42.000Z</time>
      </trkpt>
      <trkpt lat="43.36637" lon="-1.8017">
        <ele>17</ele>
        <time>2026-03-09T17:28:43.000Z</time>
      </trkpt>
      <trkpt lat="43.36638" lon="-1.80171">
        <ele>17</ele>
        <time>2026-03-09T17:28:43.000Z</time>
      </trkpt>
      <trkpt lat="43.36639" lon="-1.80172">
        <ele>17</ele>
        <time>2026-03-09T17:28:43.000Z</time>
      </trkpt>
      <trkpt lat="43.36639" lon="-1.80174">
        <ele>17</ele>
        <time>2026-03-09T17:28:43.000Z</time>
      </trkpt>
      <trkpt lat="43.3664" lon="-1.80175">
        <ele>17</ele>
        <time>2026-03-09T17:28:44.000Z</time>
      </trkpt>
      <trkpt lat="43.3664" lon="-1.80176">
        <ele>17</ele>
        <time>2026-03-09T17:28:44.000Z</time>
      </trkpt>
      <trkpt lat="43.36641" lon="-1.80178">
        <ele>17</ele>
        <time>2026-03-09T17:28:44.000Z</time>
      </trkpt>
      <trkpt lat="43.36641" lon="-1.80179">
        <ele>17</ele>
        <time>2026-03-09T17:28:44.000Z</time>
      </trkpt>
      <trkpt lat="43.36642" lon="-1.80181">
        <ele>17</ele>
        <time>2026-03-09T17:28:44.000Z</time>
      </trkpt>
      <trkpt lat="43.36642" lon="-1.80184">
        <ele>17</ele>
        <time>2026-03-09T17:28:45.000Z</time>
      </trkpt>
      <trkpt lat="43.36642" lon="-1.80185">
        <ele>17</ele>
        <time>2026-03-09T17:28:45.000Z</time>
      </trkpt>
      <trkpt lat="43.36642" lon="-1.80187">
        <ele>17</ele>
        <time>2026-03-09T17:28:45.000Z</time>
      </trkpt>
      <trkpt lat="43.36642" lon="-1.80188">
        <ele>17</ele>
        <time>2026-03-09T17:28:45.000Z</time>
      </trkpt>
      <trkpt lat="43.36642" lon="-1.8019">
        <ele>17</ele>
        <time>2026-03-09T17:28:46.000Z</time>
      </trkpt>
      <trkpt lat="43.36642" lon="-1.80191">
        <ele>17</ele>
        <time>2026-03-09T17:28:46.000Z</time>
      </trkpt>
      <trkpt lat="43.36641" lon="-1.80193">
        <ele>17</ele>
        <time>2026-03-09T17:28:46.000Z</time>
      </trkpt>
      <trkpt lat="43.36641" lon="-1.80194">
        <ele>17</ele>
        <time>2026-03-09T17:28:46.000Z</time>
      </trkpt>
      <trkpt lat="43.36641" lon="-1.80196">
        <ele>17</ele>
        <time>2026-03-09T17:28:46.000Z</time>
      </trkpt>
      <trkpt lat="43.3664" lon="-1.80197">
        <ele>17</ele>
        <time>2026-03-09T17:28:47.000Z</time>
      </trkpt>
      <trkpt lat="43.3664" lon="-1.80198">
        <ele>17</ele>
        <time>2026-03-09T17:28:47.000Z</time>
      </trkpt>
      <trkpt lat="43.36639" lon="-1.802">
        <ele>17</ele>
        <time>2026-03-09T17:28:47.000Z</time>
      </trkpt>
      <trkpt lat="43.36638" lon="-1.80201">
        <ele>17</ele>
        <time>2026-03-09T17:28:47.000Z</time>
      </trkpt>
      <trkpt lat="43.36637" lon="-1.80202">
        <ele>17</ele>
        <time>2026-03-09T17:28:48.000Z</time>
      </trkpt>
      <trkpt lat="43.36637" lon="-1.80203">
        <ele>17</ele>
        <time>2026-03-09T17:28:48.000Z</time>
      </trkpt>
      <trkpt lat="43.36636" lon="-1.80204">
        <ele>17</ele>
        <time>2026-03-09T17:28:48.000Z</time>
      </trkpt>
      <trkpt lat="43.36635" lon="-1.80205">
        <ele>17</ele>
        <time>2026-03-09T17:28:48.000Z</time>
      </trkpt>
      <trkpt lat="43.36634" lon="-1.80206">
        <ele>17</ele>
        <time>2026-03-09T17:28:48.000Z</time>
      </trkpt>
      <trkpt lat="43.36633" lon="-1.80206">
        <ele>17</ele>
        <time>2026-03-09T17:28:48.000Z</time>
      </trkpt>
      <trkpt lat="43.36632" lon="-1.80207">
        <ele>17</ele>
        <time>2026-03-09T17:28:49.000Z</time>
      </trkpt>
      <trkpt lat="43.3663" lon="-1.80208">
        <ele>16</ele>
        <time>2026-03-09T17:28:49.000Z</time>
      </trkpt>
      <trkpt lat="43.36633" lon="-1.80238">
        <ele>16</ele>
        <time>2026-03-09T17:28:53.000Z</time>
      </trkpt>
      <trkpt lat="43.36635" lon="-1.80258">
        <ele>16</ele>
        <time>2026-03-09T17:28:56.000Z</time>
      </trkpt>
      <trkpt lat="43.36636" lon="-1.80281">
        <ele>16</ele>
        <time>2026-03-09T17:28:59.000Z</time>
      </trkpt>
      <trkpt lat="43.36638" lon="-1.803">
        <ele>16</ele>
        <time>2026-03-09T17:29:01.000Z</time>
      </trkpt>
      <trkpt lat="43.36641" lon="-1.8033">
        <ele>15</ele>
        <time>2026-03-09T17:29:05.000Z</time>
      </trkpt>
      <trkpt lat="43.36645" lon="-1.80355">
        <ele>16</ele>
        <time>2026-03-09T17:29:08.000Z</time>
      </trkpt>
      <trkpt lat="43.36647" lon="-1.80377">
        <ele>17</ele>
        <time>2026-03-09T17:29:11.000Z</time>
      </trkpt>
      <trkpt lat="43.36648" lon="-1.80389">
        <ele>18</ele>
        <time>2026-03-09T17:29:13.000Z</time>
      </trkpt>
      <trkpt lat="43.36654" lon="-1.80435">
        <ele>21</ele>
        <time>2026-03-09T17:29:19.000Z</time>
      </trkpt>
      <trkpt lat="43.36656" lon="-1.80487">
        <ele>25</ele>
        <time>2026-03-09T17:29:25.000Z</time>
      </trkpt>
      <trkpt lat="43.36655" lon="-1.80517">
        <ele>26</ele>
        <time>2026-03-09T17:29:29.000Z</time>
      </trkpt>
      <trkpt lat="43.36654" lon="-1.80543">
        <ele>27</ele>
        <time>2026-03-09T17:29:33.000Z</time>
      </trkpt>
      <trkpt lat="43.36658" lon="-1.80568">
        <ele>28</ele>
        <time>2026-03-09T17:29:36.000Z</time>
      </trkpt>
      <trkpt lat="43.36663" lon="-1.80589">
        <ele>28</ele>
        <time>2026-03-09T17:29:39.000Z</time>
      </trkpt>
      <trkpt lat="43.36666" lon="-1.80601">
        <ele>29</ele>
        <time>2026-03-09T17:29:41.000Z</time>
      </trkpt>
      <trkpt lat="43.36669" lon="-1.80612">
        <ele>30</ele>
        <time>2026-03-09T17:29:42.000Z</time>
      </trkpt>
      <trkpt lat="43.3667" lon="-1.80621">
        <ele>30</ele>
        <time>2026-03-09T17:29:43.000Z</time>
      </trkpt>
      <trkpt lat="43.36671" lon="-1.8063">
        <ele>31</ele>
        <time>2026-03-09T17:29:44.000Z</time>
      </trkpt>
      <trkpt lat="43.36672" lon="-1.80656">
        <ele>32</ele>
        <time>2026-03-09T17:29:48.000Z</time>
      </trkpt>
      <trkpt lat="43.36672" lon="-1.80673">
        <ele>33</ele>
        <time>2026-03-09T17:29:50.000Z</time>
      </trkpt>
      <trkpt lat="43.36671" lon="-1.80691">
        <ele>35</ele>
        <time>2026-03-09T17:29:52.000Z</time>
      </trkpt>
      <trkpt lat="43.3667" lon="-1.80706">
        <ele>36</ele>
        <time>2026-03-09T17:29:54.000Z</time>
      </trkpt>
      <trkpt lat="43.36669" lon="-1.80717">
        <ele>37</ele>
        <time>2026-03-09T17:29:56.000Z</time>
      </trkpt>
      <trkpt lat="43.36666" lon="-1.80746">
        <ele>40</ele>
        <time>2026-03-09T17:30:00.000Z</time>
      </trkpt>
      <trkpt lat="43.36665" lon="-1.80756">
        <ele>40</ele>
        <time>2026-03-09T17:30:01.000Z</time>
      </trkpt>
      <trkpt lat="43.36665" lon="-1.80764">
        <ele>41</ele>
        <time>2026-03-09T17:30:02.000Z</time>
      </trkpt>
      <trkpt lat="43.36666" lon="-1.80772">
        <ele>41</ele>
        <time>2026-03-09T17:30:03.000Z</time>
      </trkpt>
      <trkpt lat="43.36666" lon="-1.80781">
        <ele>42</ele>
        <time>2026-03-09T17:30:04.000Z</time>
      </trkpt>
      <trkpt lat="43.36669" lon="-1.80788">
        <ele>42</ele>
        <time>2026-03-09T17:30:05.000Z</time>
      </trkpt>
      <trkpt lat="43.3667" lon="-1.80796">
        <ele>42</ele>
        <time>2026-03-09T17:30:06.000Z</time>
      </trkpt>
      <trkpt lat="43.36673" lon="-1.80805">
        <ele>43</ele>
        <time>2026-03-09T17:30:07.000Z</time>
      </trkpt>
      <trkpt lat="43.36678" lon="-1.80817">
        <ele>44</ele>
        <time>2026-03-09T17:30:09.000Z</time>
      </trkpt>
      <trkpt lat="43.36686" lon="-1.80835">
        <ele>45</ele>
        <time>2026-03-09T17:30:12.000Z</time>
      </trkpt>
      <trkpt lat="43.36689" lon="-1.80844">
        <ele>47</ele>
        <time>2026-03-09T17:30:13.000Z</time>
      </trkpt>
      <trkpt lat="43.3669" lon="-1.80849">
        <ele>47</ele>
        <time>2026-03-09T17:30:14.000Z</time>
      </trkpt>
      <trkpt lat="43.3669" lon="-1.80853">
        <ele>48</ele>
        <time>2026-03-09T17:30:14.000Z</time>
      </trkpt>
      <trkpt lat="43.36688" lon="-1.80858">
        <ele>48</ele>
        <time>2026-03-09T17:30:15.000Z</time>
      </trkpt>
      <trkpt lat="43.36686" lon="-1.80863">
        <ele>49</ele>
        <time>2026-03-09T17:30:16.000Z</time>
      </trkpt>
      <trkpt lat="43.36683" lon="-1.80866">
        <ele>49</ele>
        <time>2026-03-09T17:30:17.000Z</time>
      </trkpt>
      <trkpt lat="43.36681" lon="-1.80868">
        <ele>49</ele>
        <time>2026-03-09T17:30:17.000Z</time>
      </trkpt>
      <trkpt lat="43.36678" lon="-1.80869">
        <ele>49</ele>
        <time>2026-03-09T17:30:18.000Z</time>
      </trkpt>
      <trkpt lat="43.36672" lon="-1.80869">
        <ele>49</ele>
        <time>2026-03-09T17:30:19.000Z</time>
      </trkpt>
      <trkpt lat="43.36667" lon="-1.80868">
        <ele>49</ele>
        <time>2026-03-09T17:30:20.000Z</time>
      </trkpt>
      <trkpt lat="43.36663" lon="-1.80867">
        <ele>49</ele>
        <time>2026-03-09T17:30:20.000Z</time>
      </trkpt>
      <trkpt lat="43.36656" lon="-1.80863">
        <ele>48</ele>
        <time>2026-03-09T17:30:22.000Z</time>
      </trkpt>
      <trkpt lat="43.36645" lon="-1.80854">
        <ele>48</ele>
        <time>2026-03-09T17:30:24.000Z</time>
      </trkpt>
      <trkpt lat="43.36643" lon="-1.80853">
        <ele>48</ele>
        <time>2026-03-09T17:30:24.000Z</time>
      </trkpt>
      <trkpt lat="43.36632" lon="-1.80843">
        <ele>47</ele>
        <time>2026-03-09T17:30:27.000Z</time>
      </trkpt>
      <trkpt lat="43.36611" lon="-1.80822">
        <ele>46</ele>
        <time>2026-03-09T17:30:31.000Z</time>
      </trkpt>
      <trkpt lat="43.36602" lon="-1.80813">
        <ele>46</ele>
        <time>2026-03-09T17:30:33.000Z</time>
      </trkpt>
      <trkpt lat="43.36595" lon="-1.80805">
        <ele>45</ele>
        <time>2026-03-09T17:30:35.000Z</time>
      </trkpt>
      <trkpt lat="43.36591" lon="-1.80799">
        <ele>45</ele>
        <time>2026-03-09T17:30:36.000Z</time>
      </trkpt>
      <trkpt lat="43.36586" lon="-1.8079">
        <ele>44</ele>
        <time>2026-03-09T17:30:37.000Z</time>
      </trkpt>
      <trkpt lat="43.3658" lon="-1.80779">
        <ele>44</ele>
        <time>2026-03-09T17:30:39.000Z</time>
      </trkpt>
      <trkpt lat="43.36574" lon="-1.80763">
        <ele>43</ele>
        <time>2026-03-09T17:30:41.000Z</time>
      </trkpt>
      <trkpt lat="43.36569" lon="-1.80753">
        <ele>43</ele>
        <time>2026-03-09T17:30:43.000Z</time>
      </trkpt>
      <trkpt lat="43.36565" lon="-1.80742">
        <ele>43</ele>
        <time>2026-03-09T17:30:45.000Z</time>
      </trkpt>
      <trkpt lat="43.36559" lon="-1.80729">
        <ele>43</ele>
        <time>2026-03-09T17:30:47.000Z</time>
      </trkpt>
      <trkpt lat="43.36554" lon="-1.80715">
        <ele>42</ele>
        <time>2026-03-09T17:30:49.000Z</time>
      </trkpt>
      <trkpt lat="43.36549" lon="-1.80706">
        <ele>42</ele>
        <time>2026-03-09T17:30:50.000Z</time>
      </trkpt>
      <trkpt lat="43.36543" lon="-1.80699">
        <ele>43</ele>
        <time>2026-03-09T17:30:51.000Z</time>
      </trkpt>
      <trkpt lat="43.36537" lon="-1.80694">
        <ele>43</ele>
        <time>2026-03-09T17:30:53.000Z</time>
      </trkpt>
      <trkpt lat="43.36532" lon="-1.80691">
        <ele>43</ele>
        <time>2026-03-09T17:30:54.000Z</time>
      </trkpt>
      <trkpt lat="43.36527" lon="-1.80688">
        <ele>44</ele>
        <time>2026-03-09T17:30:55.000Z</time>
      </trkpt>
      <trkpt lat="43.36522" lon="-1.80686">
        <ele>44</ele>
        <time>2026-03-09T17:30:56.000Z</time>
      </trkpt>
      <trkpt lat="43.36516" lon="-1.80685">
        <ele>45</ele>
        <time>2026-03-09T17:30:57.000Z</time>
      </trkpt>
      <trkpt lat="43.36507" lon="-1.80684">
        <ele>45</ele>
        <time>2026-03-09T17:30:58.000Z</time>
      </trkpt>
      <trkpt lat="43.36496" lon="-1.80685">
        <ele>46</ele>
        <time>2026-03-09T17:31:00.000Z</time>
      </trkpt>
      <trkpt lat="43.3649" lon="-1.80686">
        <ele>47</ele>
        <time>2026-03-09T17:31:01.000Z</time>
      </trkpt>
      <trkpt lat="43.36481" lon="-1.80689">
        <ele>47</ele>
        <time>2026-03-09T17:31:03.000Z</time>
      </trkpt>
      <trkpt lat="43.36477" lon="-1.8069">
        <ele>47</ele>
        <time>2026-03-09T17:31:04.000Z</time>
      </trkpt>
      <trkpt lat="43.36473" lon="-1.80692">
        <ele>47</ele>
        <time>2026-03-09T17:31:04.000Z</time>
      </trkpt>
      <trkpt lat="43.36465" lon="-1.80697">
        <ele>48</ele>
        <time>2026-03-09T17:31:06.000Z</time>
      </trkpt>
      <trkpt lat="43.36455" lon="-1.80705">
        <ele>48</ele>
        <time>2026-03-09T17:31:08.000Z</time>
      </trkpt>
      <trkpt lat="43.36451" lon="-1.8071">
        <ele>49</ele>
        <time>2026-03-09T17:31:09.000Z</time>
      </trkpt>
      <trkpt lat="43.36448" lon="-1.80715">
        <ele>49</ele>
        <time>2026-03-09T17:31:10.000Z</time>
      </trkpt>
      <trkpt lat="43.36445" lon="-1.80723">
        <ele>49</ele>
        <time>2026-03-09T17:31:11.000Z</time>
      </trkpt>
      <trkpt lat="43.36444" lon="-1.80726">
        <ele>49</ele>
        <time>2026-03-09T17:31:11.000Z</time>
      </trkpt>
      <trkpt lat="43.36444" lon="-1.80729">
        <ele>49</ele>
        <time>2026-03-09T17:31:12.000Z</time>
      </trkpt>
      <trkpt lat="43.36445" lon="-1.80732">
        <ele>49</ele>
        <time>2026-03-09T17:31:12.000Z</time>
      </trkpt>
      <trkpt lat="43.36446" lon="-1.80738">
        <ele>50</ele>
        <time>2026-03-09T17:31:13.000Z</time>
      </trkpt>
      <trkpt lat="43.36466" lon="-1.80798">
        <ele>51</ele>
        <time>2026-03-09T17:31:22.000Z</time>
      </trkpt>
      <trkpt lat="43.36492" lon="-1.80878">
        <ele>55</ele>
        <time>2026-03-09T17:31:33.000Z</time>
      </trkpt>
      <trkpt lat="43.36494" lon="-1.80882">
        <ele>55</ele>
        <time>2026-03-09T17:31:34.000Z</time>
      </trkpt>
      <trkpt lat="43.36496" lon="-1.80887">
        <ele>56</ele>
        <time>2026-03-09T17:31:34.000Z</time>
      </trkpt>
      <trkpt lat="43.36499" lon="-1.80892">
        <ele>56</ele>
        <time>2026-03-09T17:31:35.000Z</time>
      </trkpt>
      <trkpt lat="43.36507" lon="-1.809">
        <ele>56</ele>
        <time>2026-03-09T17:31:37.000Z</time>
      </trkpt>
      <trkpt lat="43.36515" lon="-1.80907">
        <ele>57</ele>
        <time>2026-03-09T17:31:39.000Z</time>
      </trkpt>
      <trkpt lat="43.36521" lon="-1.80912">
        <ele>57</ele>
        <time>2026-03-09T17:31:40.000Z</time>
      </trkpt>
      <trkpt lat="43.36528" lon="-1.80916">
        <ele>57</ele>
        <time>2026-03-09T17:31:41.000Z</time>
      </trkpt>
      <trkpt lat="43.36535" lon="-1.8092">
        <ele>57</ele>
        <time>2026-03-09T17:31:43.000Z</time>
      </trkpt>
      <trkpt lat="43.36543" lon="-1.80924">
        <ele>57</ele>
        <time>2026-03-09T17:31:44.000Z</time>
      </trkpt>
      <trkpt lat="43.36551" lon="-1.80926">
        <ele>58</ele>
        <time>2026-03-09T17:31:46.000Z</time>
      </trkpt>
      <trkpt lat="43.36564" lon="-1.80931">
        <ele>58</ele>
        <time>2026-03-09T17:31:48.000Z</time>
      </trkpt>
      <trkpt lat="43.36573" lon="-1.80934">
        <ele>59</ele>
        <time>2026-03-09T17:31:50.000Z</time>
      </trkpt>
      <trkpt lat="43.36585" lon="-1.80939">
        <ele>59</ele>
        <time>2026-03-09T17:31:52.000Z</time>
      </trkpt>
      <trkpt lat="43.36593" lon="-1.80943">
        <ele>60</ele>
        <time>2026-03-09T17:31:53.000Z</time>
      </trkpt>
      <trkpt lat="43.36598" lon="-1.80947">
        <ele>60</ele>
        <time>2026-03-09T17:31:54.000Z</time>
      </trkpt>
      <trkpt lat="43.36603" lon="-1.80949">
        <ele>61</ele>
        <time>2026-03-09T17:31:55.000Z</time>
      </trkpt>
      <trkpt lat="43.36613" lon="-1.80956">
        <ele>62</ele>
        <time>2026-03-09T17:31:57.000Z</time>
      </trkpt>
      <trkpt lat="43.36622" lon="-1.80962">
        <ele>63</ele>
        <time>2026-03-09T17:31:59.000Z</time>
      </trkpt>
      <trkpt lat="43.3663" lon="-1.80968">
        <ele>64</ele>
        <time>2026-03-09T17:32:01.000Z</time>
      </trkpt>
      <trkpt lat="43.36641" lon="-1.80976">
        <ele>65</ele>
        <time>2026-03-09T17:32:03.000Z</time>
      </trkpt>
      <trkpt lat="43.36654" lon="-1.80985">
        <ele>68</ele>
        <time>2026-03-09T17:32:05.000Z</time>
      </trkpt>
      <trkpt lat="43.36667" lon="-1.80993">
        <ele>70</ele>
        <time>2026-03-09T17:32:08.000Z</time>
      </trkpt>
      <trkpt lat="43.36679" lon="-1.81">
        <ele>72</ele>
        <time>2026-03-09T17:32:10.000Z</time>
      </trkpt>
      <trkpt lat="43.36689" lon="-1.81007">
        <ele>73</ele>
        <time>2026-03-09T17:32:12.000Z</time>
      </trkpt>
      <trkpt lat="43.36696" lon="-1.81013">
        <ele>75</ele>
        <time>2026-03-09T17:32:14.000Z</time>
      </trkpt>
      <trkpt lat="43.367" lon="-1.81017">
        <ele>76</ele>
        <time>2026-03-09T17:32:15.000Z</time>
      </trkpt>
      <trkpt lat="43.36702" lon="-1.81019">
        <ele>76</ele>
        <time>2026-03-09T17:32:15.000Z</time>
      </trkpt>
      <trkpt lat="43.36707" lon="-1.81027">
        <ele>78</ele>
        <time>2026-03-09T17:32:16.000Z</time>
      </trkpt>
      <trkpt lat="43.36713" lon="-1.81036">
        <ele>80</ele>
        <time>2026-03-09T17:32:18.000Z</time>
      </trkpt>
      <trkpt lat="43.36722" lon="-1.81047">
        <ele>82</ele>
        <time>2026-03-09T17:32:20.000Z</time>
      </trkpt>
      <trkpt lat="43.36729" lon="-1.81055">
        <ele>85</ele>
        <time>2026-03-09T17:32:22.000Z</time>
      </trkpt>
      <trkpt lat="43.36736" lon="-1.81062">
        <ele>87</ele>
        <time>2026-03-09T17:32:23.000Z</time>
      </trkpt>
      <trkpt lat="43.3674" lon="-1.81066">
        <ele>88</ele>
        <time>2026-03-09T17:32:24.000Z</time>
      </trkpt>
      <trkpt lat="43.36745" lon="-1.81068">
        <ele>89</ele>
        <time>2026-03-09T17:32:25.000Z</time>
      </trkpt>
      <trkpt lat="43.36751" lon="-1.81069">
        <ele>90</ele>
        <time>2026-03-09T17:32:26.000Z</time>
      </trkpt>
      <trkpt lat="43.36757" lon="-1.81066">
        <ele>91</ele>
        <time>2026-03-09T17:32:27.000Z</time>
      </trkpt>
      <trkpt lat="43.36759" lon="-1.81064">
        <ele>91</ele>
        <time>2026-03-09T17:32:28.000Z</time>
      </trkpt>
      <trkpt lat="43.3676" lon="-1.81063">
        <ele>91</ele>
        <time>2026-03-09T17:32:28.000Z</time>
      </trkpt>
      <trkpt lat="43.36763" lon="-1.8106">
        <ele>91</ele>
        <time>2026-03-09T17:32:29.000Z</time>
      </trkpt>
      <trkpt lat="43.36765" lon="-1.81056">
        <ele>91</ele>
        <time>2026-03-09T17:32:29.000Z</time>
      </trkpt>
      <trkpt lat="43.36768" lon="-1.8105">
        <ele>90</ele>
        <time>2026-03-09T17:32:30.000Z</time>
      </trkpt>
      <trkpt lat="43.36779" lon="-1.81025">
        <ele>87</ele>
        <time>2026-03-09T17:32:34.000Z</time>
      </trkpt>
      <trkpt lat="43.36789" lon="-1.81007">
        <ele>86</ele>
        <time>2026-03-09T17:32:37.000Z</time>
      </trkpt>
      <trkpt lat="43.36791" lon="-1.81004">
        <ele>85</ele>
        <time>2026-03-09T17:32:37.000Z</time>
      </trkpt>
      <trkpt lat="43.36794" lon="-1.81001">
        <ele>85</ele>
        <time>2026-03-09T17:32:38.000Z</time>
      </trkpt>
      <trkpt lat="43.36798" lon="-1.80998">
        <ele>85</ele>
        <time>2026-03-09T17:32:39.000Z</time>
      </trkpt>
      <trkpt lat="43.36801" lon="-1.80997">
        <ele>85</ele>
        <time>2026-03-09T17:32:39.000Z</time>
      </trkpt>
      <trkpt lat="43.36806" lon="-1.80996">
        <ele>86</ele>
        <time>2026-03-09T17:32:40.000Z</time>
      </trkpt>
      <trkpt lat="43.36808" lon="-1.80996">
        <ele>86</ele>
        <time>2026-03-09T17:32:41.000Z</time>
      </trkpt>
      <trkpt lat="43.36812" lon="-1.80996">
        <ele>87</ele>
        <time>2026-03-09T17:32:41.000Z</time>
      </trkpt>
      <trkpt lat="43.36815" lon="-1.80997">
        <ele>88</ele>
        <time>2026-03-09T17:32:42.000Z</time>
      </trkpt>
      <trkpt lat="43.36819" lon="-1.80999">
        <ele>89</ele>
        <time>2026-03-09T17:32:43.000Z</time>
      </trkpt>
      <trkpt lat="43.36824" lon="-1.81003">
        <ele>91</ele>
        <time>2026-03-09T17:32:44.000Z</time>
      </trkpt>
      <trkpt lat="43.36829" lon="-1.81008">
        <ele>93</ele>
        <time>2026-03-09T17:32:45.000Z</time>
      </trkpt>
      <trkpt lat="43.36834" lon="-1.81011">
        <ele>95</ele>
        <time>2026-03-09T17:32:46.000Z</time>
      </trkpt>
      <trkpt lat="43.36839" lon="-1.81012">
        <ele>96</ele>
        <time>2026-03-09T17:32:47.000Z</time>
      </trkpt>
      <trkpt lat="43.36845" lon="-1.81013">
        <ele>97</ele>
        <time>2026-03-09T17:32:48.000Z</time>
      </trkpt>
      <trkpt lat="43.36851" lon="-1.81013">
        <ele>98</ele>
        <time>2026-03-09T17:32:49.000Z</time>
      </trkpt>
      <trkpt lat="43.36856" lon="-1.81012">
        <ele>98</ele>
        <time>2026-03-09T17:32:50.000Z</time>
      </trkpt>
      <trkpt lat="43.36869" lon="-1.8101">
        <ele>100</ele>
        <time>2026-03-09T17:32:52.000Z</time>
      </trkpt>
      <trkpt lat="43.36881" lon="-1.81006">
        <ele>100</ele>
        <time>2026-03-09T17:32:54.000Z</time>
      </trkpt>
      <trkpt lat="43.36893" lon="-1.81">
        <ele>101</ele>
        <time>2026-03-09T17:32:57.000Z</time>
      </trkpt>
      <trkpt lat="43.36905" lon="-1.80993">
        <ele>100</ele>
        <time>2026-03-09T17:32:59.000Z</time>
      </trkpt>
      <trkpt lat="43.36914" lon="-1.80987">
        <ele>100</ele>
        <time>2026-03-09T17:33:01.000Z</time>
      </trkpt>
      <trkpt lat="43.36921" lon="-1.80982">
        <ele>100</ele>
        <time>2026-03-09T17:33:02.000Z</time>
      </trkpt>
      <trkpt lat="43.3693" lon="-1.80977">
        <ele>100</ele>
        <time>2026-03-09T17:33:04.000Z</time>
      </trkpt>
      <trkpt lat="43.36942" lon="-1.80969">
        <ele>99</ele>
        <time>2026-03-09T17:33:06.000Z</time>
      </trkpt>
      <trkpt lat="43.36949" lon="-1.80964">
        <ele>98</ele>
        <time>2026-03-09T17:33:08.000Z</time>
      </trkpt>
      <trkpt lat="43.3696" lon="-1.80957">
        <ele>98</ele>
        <time>2026-03-09T17:33:10.000Z</time>
      </trkpt>
      <trkpt lat="43.36964" lon="-1.80956">
        <ele>98</ele>
        <time>2026-03-09T17:33:10.000Z</time>
      </trkpt>
      <trkpt lat="43.36967" lon="-1.80955">
        <ele>98</ele>
        <time>2026-03-09T17:33:11.000Z</time>
      </trkpt>
      <trkpt lat="43.36973" lon="-1.80955">
        <ele>99</ele>
        <time>2026-03-09T17:33:12.000Z</time>
      </trkpt>
      <trkpt lat="43.36978" lon="-1.80956">
        <ele>100</ele>
        <time>2026-03-09T17:33:13.000Z</time>
      </trkpt>
      <trkpt lat="43.36984" lon="-1.80959">
        <ele>102</ele>
        <time>2026-03-09T17:33:14.000Z</time>
      </trkpt>
      <trkpt lat="43.36991" lon="-1.80963">
        <ele>104</ele>
        <time>2026-03-09T17:33:15.000Z</time>
      </trkpt>
      <trkpt lat="43.36996" lon="-1.80966">
        <ele>106</ele>
        <time>2026-03-09T17:33:16.000Z</time>
      </trkpt>
      <trkpt lat="43.37001" lon="-1.80969">
        <ele>107</ele>
        <time>2026-03-09T17:33:17.000Z</time>
      </trkpt>
      <trkpt lat="43.37006" lon="-1.80971">
        <ele>108</ele>
        <time>2026-03-09T17:33:18.000Z</time>
      </trkpt>
      <trkpt lat="43.37012" lon="-1.80972">
        <ele>109</ele>
        <time>2026-03-09T17:33:19.000Z</time>
      </trkpt>
      <trkpt lat="43.37015" lon="-1.80972">
        <ele>109</ele>
        <time>2026-03-09T17:33:20.000Z</time>
      </trkpt>
      <trkpt lat="43.37019" lon="-1.80971">
        <ele>108</ele>
        <time>2026-03-09T17:33:21.000Z</time>
      </trkpt>
      <trkpt lat="43.37026" lon="-1.80968">
        <ele>108</ele>
        <time>2026-03-09T17:33:22.000Z</time>
      </trkpt>
      <trkpt lat="43.37035" lon="-1.80963">
        <ele>106</ele>
        <time>2026-03-09T17:33:24.000Z</time>
      </trkpt>
      <trkpt lat="43.37041" lon="-1.80961">
        <ele>106</ele>
        <time>2026-03-09T17:33:25.000Z</time>
      </trkpt>
      <trkpt lat="43.37043" lon="-1.8096">
        <ele>105</ele>
        <time>2026-03-09T17:33:25.000Z</time>
      </trkpt>
      <trkpt lat="43.37045" lon="-1.8096">
        <ele>105</ele>
        <time>2026-03-09T17:33:26.000Z</time>
      </trkpt>
      <trkpt lat="43.37048" lon="-1.8096">
        <ele>106</ele>
        <time>2026-03-09T17:33:26.000Z</time>
      </trkpt>
      <trkpt lat="43.3705" lon="-1.8096">
        <ele>106</ele>
        <time>2026-03-09T17:33:26.000Z</time>
      </trkpt>
      <trkpt lat="43.3705" lon="-1.80961">
        <ele>106</ele>
        <time>2026-03-09T17:33:27.000Z</time>
      </trkpt>
      <trkpt lat="43.37054" lon="-1.80963">
        <ele>107</ele>
        <time>2026-03-09T17:33:27.000Z</time>
      </trkpt>
      <trkpt lat="43.37061" lon="-1.80968">
        <ele>109</ele>
        <time>2026-03-09T17:33:29.000Z</time>
      </trkpt>
      <trkpt lat="43.37069" lon="-1.80972">
        <ele>110</ele>
        <time>2026-03-09T17:33:30.000Z</time>
      </trkpt>
      <trkpt lat="43.37077" lon="-1.80976">
        <ele>112</ele>
        <time>2026-03-09T17:33:32.000Z</time>
      </trkpt>
      <trkpt lat="43.37084" lon="-1.8098">
        <ele>113</ele>
        <time>2026-03-09T17:33:33.000Z</time>
      </trkpt>
      <trkpt lat="43.37091" lon="-1.80983">
        <ele>115</ele>
        <time>2026-03-09T17:33:34.000Z</time>
      </trkpt>
      <trkpt lat="43.37098" lon="-1.80985">
        <ele>116</ele>
        <time>2026-03-09T17:33:36.000Z</time>
      </trkpt>
      <trkpt lat="43.37105" lon="-1.80986">
        <ele>116</ele>
        <time>2026-03-09T17:33:37.000Z</time>
      </trkpt>
      <trkpt lat="43.37112" lon="-1.80986">
        <ele>116</ele>
        <time>2026-03-09T17:33:38.000Z</time>
      </trkpt>
      <trkpt lat="43.3713" lon="-1.80987">
        <ele>117</ele>
        <time>2026-03-09T17:33:41.000Z</time>
      </trkpt>
      <trkpt lat="43.37157" lon="-1.80986">
        <ele>118</ele>
        <time>2026-03-09T17:33:46.000Z</time>
      </trkpt>
      <trkpt lat="43.37173" lon="-1.80985">
        <ele>119</ele>
        <time>2026-03-09T17:33:49.000Z</time>
      </trkpt>
      <trkpt lat="43.37185" lon="-1.80983">
        <ele>119</ele>
        <time>2026-03-09T17:33:51.000Z</time>
      </trkpt>
      <trkpt lat="43.37215" lon="-1.80978">
        <ele>121</ele>
        <time>2026-03-09T17:33:57.000Z</time>
      </trkpt>
      <trkpt lat="43.37229" lon="-1.80976">
        <ele>122</ele>
        <time>2026-03-09T17:33:59.000Z</time>
      </trkpt>
      <trkpt lat="43.37232" lon="-1.80976">
        <ele>122</ele>
        <time>2026-03-09T17:34:00.000Z</time>
      </trkpt>
      <trkpt lat="43.37237" lon="-1.80977">
        <ele>123</ele>
        <time>2026-03-09T17:34:01.000Z</time>
      </trkpt>
      <trkpt lat="43.3724" lon="-1.80978">
        <ele>123</ele>
        <time>2026-03-09T17:34:01.000Z</time>
      </trkpt>
      <trkpt lat="43.37242" lon="-1.80979">
        <ele>123</ele>
        <time>2026-03-09T17:34:01.000Z</time>
      </trkpt>
      <trkpt lat="43.37244" lon="-1.80981">
        <ele>123</ele>
        <time>2026-03-09T17:34:02.000Z</time>
      </trkpt>
      <trkpt lat="43.37248" lon="-1.80986">
        <ele>124</ele>
        <time>2026-03-09T17:34:03.000Z</time>
      </trkpt>
      <trkpt lat="43.3725" lon="-1.80993">
        <ele>125</ele>
        <time>2026-03-09T17:34:04.000Z</time>
      </trkpt>
      <trkpt lat="43.37251" lon="-1.80996">
        <ele>125</ele>
        <time>2026-03-09T17:34:04.000Z</time>
      </trkpt>
      <trkpt lat="43.37251" lon="-1.80999">
        <ele>125</ele>
        <time>2026-03-09T17:34:05.000Z</time>
      </trkpt>
      <trkpt lat="43.37251" lon="-1.81004">
        <ele>126</ele>
        <time>2026-03-09T17:34:05.000Z</time>
      </trkpt>
      <trkpt lat="43.3725" lon="-1.81008">
        <ele>127</ele>
        <time>2026-03-09T17:34:06.000Z</time>
      </trkpt>
      <trkpt lat="43.3725" lon="-1.81011">
        <ele>127</ele>
        <time>2026-03-09T17:34:06.000Z</time>
      </trkpt>
      <trkpt lat="43.37249" lon="-1.81014">
        <ele>128</ele>
        <time>2026-03-09T17:34:07.000Z</time>
      </trkpt>
      <trkpt lat="43.37248" lon="-1.81016">
        <ele>128</ele>
        <time>2026-03-09T17:34:07.000Z</time>
      </trkpt>
      <trkpt lat="43.37247" lon="-1.8102">
        <ele>129</ele>
        <time>2026-03-09T17:34:08.000Z</time>
      </trkpt>
      <trkpt lat="43.37245" lon="-1.81022">
        <ele>129</ele>
        <time>2026-03-09T17:34:08.000Z</time>
      </trkpt>
      <trkpt lat="43.3724" lon="-1.81028">
        <ele>130</ele>
        <time>2026-03-09T17:34:09.000Z</time>
      </trkpt>
      <trkpt lat="43.37232" lon="-1.8104">
        <ele>133</ele>
        <time>2026-03-09T17:34:11.000Z</time>
      </trkpt>
      <trkpt lat="43.37223" lon="-1.81049">
        <ele>135</ele>
        <time>2026-03-09T17:34:13.000Z</time>
      </trkpt>
      <trkpt lat="43.37216" lon="-1.81056">
        <ele>136</ele>
        <time>2026-03-09T17:34:15.000Z</time>
      </trkpt>
      <trkpt lat="43.37213" lon="-1.81059">
        <ele>137</ele>
        <time>2026-03-09T17:34:15.000Z</time>
      </trkpt>
      <trkpt lat="43.37211" lon="-1.81061">
        <ele>138</ele>
        <time>2026-03-09T17:34:16.000Z</time>
      </trkpt>
      <trkpt lat="43.37209" lon="-1.81061">
        <ele>138</ele>
        <time>2026-03-09T17:34:16.000Z</time>
      </trkpt>
      <trkpt lat="43.37207" lon="-1.81062">
        <ele>138</ele>
        <time>2026-03-09T17:34:17.000Z</time>
      </trkpt>
      <trkpt lat="43.37203" lon="-1.81062">
        <ele>138</ele>
        <time>2026-03-09T17:34:17.000Z</time>
      </trkpt>
      <trkpt lat="43.372" lon="-1.81062">
        <ele>138</ele>
        <time>2026-03-09T17:34:18.000Z</time>
      </trkpt>
      <trkpt lat="43.37197" lon="-1.81062">
        <ele>138</ele>
        <time>2026-03-09T17:34:18.000Z</time>
      </trkpt>
      <trkpt lat="43.3719" lon="-1.8106">
        <ele>138</ele>
        <time>2026-03-09T17:34:20.000Z</time>
      </trkpt>
      <trkpt lat="43.37162" lon="-1.81048">
        <ele>135</ele>
        <time>2026-03-09T17:34:25.000Z</time>
      </trkpt>
      <trkpt lat="43.37156" lon="-1.81046">
        <ele>134</ele>
        <time>2026-03-09T17:34:26.000Z</time>
      </trkpt>
      <trkpt lat="43.37149" lon="-1.81045">
        <ele>134</ele>
        <time>2026-03-09T17:34:27.000Z</time>
      </trkpt>
      <trkpt lat="43.37142" lon="-1.81045">
        <ele>134</ele>
        <time>2026-03-09T17:34:28.000Z</time>
      </trkpt>
      <trkpt lat="43.37132" lon="-1.81046">
        <ele>135</ele>
        <time>2026-03-09T17:34:30.000Z</time>
      </trkpt>
      <trkpt lat="43.37122" lon="-1.81047">
        <ele>135</ele>
        <time>2026-03-09T17:34:32.000Z</time>
      </trkpt>
      <trkpt lat="43.37112" lon="-1.81049">
        <ele>136</ele>
        <time>2026-03-09T17:34:34.000Z</time>
      </trkpt>
      <trkpt lat="43.37101" lon="-1.8105">
        <ele>137</ele>
        <time>2026-03-09T17:34:36.000Z</time>
      </trkpt>
      <trkpt lat="43.3709" lon="-1.8105">
        <ele>137</ele>
        <time>2026-03-09T17:34:38.000Z</time>
      </trkpt>
      <trkpt lat="43.37079" lon="-1.81049">
        <ele>136</ele>
        <time>2026-03-09T17:34:40.000Z</time>
      </trkpt>
      <trkpt lat="43.37071" lon="-1.81048">
        <ele>136</ele>
        <time>2026-03-09T17:34:41.000Z</time>
      </trkpt>
      <trkpt lat="43.37063" lon="-1.81048">
        <ele>136</ele>
        <time>2026-03-09T17:34:43.000Z</time>
      </trkpt>
      <trkpt lat="43.37054" lon="-1.81049">
        <ele>136</ele>
        <time>2026-03-09T17:34:44.000Z</time>
      </trkpt>
      <trkpt lat="43.37044" lon="-1.81051">
        <ele>136</ele>
        <time>2026-03-09T17:34:46.000Z</time>
      </trkpt>
      <trkpt lat="43.37029" lon="-1.81056">
        <ele>138</ele>
        <time>2026-03-09T17:34:49.000Z</time>
      </trkpt>
      <trkpt lat="43.37021" lon="-1.8106">
        <ele>139</ele>
        <time>2026-03-09T17:34:50.000Z</time>
      </trkpt>
      <trkpt lat="43.37015" lon="-1.81064">
        <ele>140</ele>
        <time>2026-03-09T17:34:51.000Z</time>
      </trkpt>
      <trkpt lat="43.37004" lon="-1.81072">
        <ele>142</ele>
        <time>2026-03-09T17:34:54.000Z</time>
      </trkpt>
      <trkpt lat="43.36997" lon="-1.81078">
        <ele>144</ele>
        <time>2026-03-09T17:34:55.000Z</time>
      </trkpt>
      <trkpt lat="43.36991" lon="-1.81084">
        <ele>144</ele>
        <time>2026-03-09T17:34:56.000Z</time>
      </trkpt>
      <trkpt lat="43.36984" lon="-1.81095">
        <ele>145</ele>
        <time>2026-03-09T17:34:58.000Z</time>
      </trkpt>
      <trkpt lat="43.36978" lon="-1.81105">
        <ele>146</ele>
        <time>2026-03-09T17:35:00.000Z</time>
      </trkpt>
      <trkpt lat="43.36973" lon="-1.81113">
        <ele>147</ele>
        <time>2026-03-09T17:35:01.000Z</time>
      </trkpt>
      <trkpt lat="43.36968" lon="-1.81123">
        <ele>148</ele>
        <time>2026-03-09T17:35:03.000Z</time>
      </trkpt>
      <trkpt lat="43.36963" lon="-1.81133">
        <ele>150</ele>
        <time>2026-03-09T17:35:04.000Z</time>
      </trkpt>
      <trkpt lat="43.36958" lon="-1.81142">
        <ele>151</ele>
        <time>2026-03-09T17:35:06.000Z</time>
      </trkpt>
      <trkpt lat="43.36955" lon="-1.81145">
        <ele>151</ele>
        <time>2026-03-09T17:35:07.000Z</time>
      </trkpt>
      <trkpt lat="43.36951" lon="-1.8115">
        <ele>152</ele>
        <time>2026-03-09T17:35:08.000Z</time>
      </trkpt>
      <trkpt lat="43.36948" lon="-1.81152">
        <ele>152</ele>
        <time>2026-03-09T17:35:08.000Z</time>
      </trkpt>
      <trkpt lat="43.36944" lon="-1.81156">
        <ele>152</ele>
        <time>2026-03-09T17:35:09.000Z</time>
      </trkpt>
      <trkpt lat="43.36937" lon="-1.81161">
        <ele>152</ele>
        <time>2026-03-09T17:35:10.000Z</time>
      </trkpt>
      <trkpt lat="43.36928" lon="-1.81166">
        <ele>151</ele>
        <time>2026-03-09T17:35:12.000Z</time>
      </trkpt>
      <trkpt lat="43.36919" lon="-1.81172">
        <ele>150</ele>
        <time>2026-03-09T17:35:14.000Z</time>
      </trkpt>
      <trkpt lat="43.36912" lon="-1.81178">
        <ele>148</ele>
        <time>2026-03-09T17:35:15.000Z</time>
      </trkpt>
      <trkpt lat="43.36906" lon="-1.81185">
        <ele>146</ele>
        <time>2026-03-09T17:35:17.000Z</time>
      </trkpt>
      <trkpt lat="43.36905" lon="-1.81187">
        <ele>146</ele>
        <time>2026-03-09T17:35:17.000Z</time>
      </trkpt>
      <trkpt lat="43.36903" lon="-1.81191">
        <ele>145</ele>
        <time>2026-03-09T17:35:18.000Z</time>
      </trkpt>
      <trkpt lat="43.36901" lon="-1.81198">
        <ele>145</ele>
        <time>2026-03-09T17:35:19.000Z</time>
      </trkpt>
      <trkpt lat="43.369" lon="-1.81204">
        <ele>144</ele>
        <time>2026-03-09T17:35:20.000Z</time>
      </trkpt>
      <trkpt lat="43.36899" lon="-1.81211">
        <ele>144</ele>
        <time>2026-03-09T17:35:20.000Z</time>
      </trkpt>
      <trkpt lat="43.36899" lon="-1.81219">
        <ele>144</ele>
        <time>2026-03-09T17:35:21.000Z</time>
      </trkpt>
      <trkpt lat="43.369" lon="-1.81228">
        <ele>145</ele>
        <time>2026-03-09T17:35:23.000Z</time>
      </trkpt>
      <trkpt lat="43.36902" lon="-1.81238">
        <ele>145</ele>
        <time>2026-03-09T17:35:24.000Z</time>
      </trkpt>
      <trkpt lat="43.36905" lon="-1.81253">
        <ele>146</ele>
        <time>2026-03-09T17:35:26.000Z</time>
      </trkpt>
      <trkpt lat="43.36911" lon="-1.81276">
        <ele>147</ele>
        <time>2026-03-09T17:35:29.000Z</time>
      </trkpt>
      <trkpt lat="43.36914" lon="-1.81287">
        <ele>147</ele>
        <time>2026-03-09T17:35:31.000Z</time>
      </trkpt>
      <trkpt lat="43.36919" lon="-1.81303">
        <ele>148</ele>
        <time>2026-03-09T17:35:33.000Z</time>
      </trkpt>
      <trkpt lat="43.36922" lon="-1.81311">
        <ele>148</ele>
        <time>2026-03-09T17:35:34.000Z</time>
      </trkpt>
      <trkpt lat="43.36928" lon="-1.81323">
        <ele>149</ele>
        <time>2026-03-09T17:35:36.000Z</time>
      </trkpt>
      <trkpt lat="43.36937" lon="-1.81339">
        <ele>150</ele>
        <time>2026-03-09T17:35:39.000Z</time>
      </trkpt>
      <trkpt lat="43.36947" lon="-1.81358">
        <ele>151</ele>
        <time>2026-03-09T17:35:42.000Z</time>
      </trkpt>
      <trkpt lat="43.36955" lon="-1.81371">
        <ele>152</ele>
        <time>2026-03-09T17:35:44.000Z</time>
      </trkpt>
      <trkpt lat="43.36961" lon="-1.8138">
        <ele>153</ele>
        <time>2026-03-09T17:35:45.000Z</time>
      </trkpt>
      <trkpt lat="43.36966" lon="-1.81386">
        <ele>154</ele>
        <time>2026-03-09T17:35:47.000Z</time>
      </trkpt>
      <trkpt lat="43.36972" lon="-1.81392">
        <ele>155</ele>
        <time>2026-03-09T17:35:48.000Z</time>
      </trkpt>
      <trkpt lat="43.3698" lon="-1.81396">
        <ele>157</ele>
        <time>2026-03-09T17:35:49.000Z</time>
      </trkpt>
      <trkpt lat="43.36987" lon="-1.81399">
        <ele>158</ele>
        <time>2026-03-09T17:35:51.000Z</time>
      </trkpt>
      <trkpt lat="43.36993" lon="-1.81404">
        <ele>160</ele>
        <time>2026-03-09T17:35:52.000Z</time>
      </trkpt>
      <trkpt lat="43.36998" lon="-1.81408">
        <ele>161</ele>
        <time>2026-03-09T17:35:53.000Z</time>
      </trkpt>
      <trkpt lat="43.37004" lon="-1.81415">
        <ele>162</ele>
        <time>2026-03-09T17:35:54.000Z</time>
      </trkpt>
      <trkpt lat="43.37008" lon="-1.81423">
        <ele>162</ele>
        <time>2026-03-09T17:35:56.000Z</time>
      </trkpt>
      <trkpt lat="43.37012" lon="-1.81435">
        <ele>163</ele>
        <time>2026-03-09T17:35:57.000Z</time>
      </trkpt>
      <trkpt lat="43.37013" lon="-1.81442">
        <ele>163</ele>
        <time>2026-03-09T17:35:58.000Z</time>
      </trkpt>
      <trkpt lat="43.37013" lon="-1.81452">
        <ele>163</ele>
        <time>2026-03-09T17:36:00.000Z</time>
      </trkpt>
      <trkpt lat="43.37012" lon="-1.81463">
        <ele>163</ele>
        <time>2026-03-09T17:36:01.000Z</time>
      </trkpt>
      <trkpt lat="43.37006" lon="-1.81493">
        <ele>163</ele>
        <time>2026-03-09T17:36:05.000Z</time>
      </trkpt>
      <trkpt lat="43.37001" lon="-1.81515">
        <ele>165</ele>
        <time>2026-03-09T17:36:08.000Z</time>
      </trkpt>
      <trkpt lat="43.36995" lon="-1.81533">
        <ele>166</ele>
        <time>2026-03-09T17:36:11.000Z</time>
      </trkpt>
      <trkpt lat="43.36991" lon="-1.81544">
        <ele>167</ele>
        <time>2026-03-09T17:36:12.000Z</time>
      </trkpt>
      <trkpt lat="43.36986" lon="-1.81555">
        <ele>168</ele>
        <time>2026-03-09T17:36:14.000Z</time>
      </trkpt>
      <trkpt lat="43.36979" lon="-1.81567">
        <ele>168</ele>
        <time>2026-03-09T17:36:16.000Z</time>
      </trkpt>
      <trkpt lat="43.36966" lon="-1.81585">
        <ele>167</ele>
        <time>2026-03-09T17:36:19.000Z</time>
      </trkpt>
      <trkpt lat="43.36957" lon="-1.81599">
        <ele>166</ele>
        <time>2026-03-09T17:36:22.000Z</time>
      </trkpt>
      <trkpt lat="43.36949" lon="-1.81614">
        <ele>166</ele>
        <time>2026-03-09T17:36:24.000Z</time>
      </trkpt>
      <trkpt lat="43.36943" lon="-1.81623">
        <ele>165</ele>
        <time>2026-03-09T17:36:26.000Z</time>
      </trkpt>
      <trkpt lat="43.3694" lon="-1.81629">
        <ele>165</ele>
        <time>2026-03-09T17:36:26.000Z</time>
      </trkpt>
      <trkpt lat="43.36935" lon="-1.81641">
        <ele>166</ele>
        <time>2026-03-09T17:36:28.000Z</time>
      </trkpt>
      <trkpt lat="43.36934" lon="-1.81646">
        <ele>166</ele>
        <time>2026-03-09T17:36:29.000Z</time>
      </trkpt>
      <trkpt lat="43.36933" lon="-1.81651">
        <ele>167</ele>
        <time>2026-03-09T17:36:30.000Z</time>
      </trkpt>
      <trkpt lat="43.36932" lon="-1.81656">
        <ele>168</ele>
        <time>2026-03-09T17:36:30.000Z</time>
      </trkpt>
      <trkpt lat="43.36932" lon="-1.81661">
        <ele>168</ele>
        <time>2026-03-09T17:36:31.000Z</time>
      </trkpt>
      <trkpt lat="43.36932" lon="-1.81667">
        <ele>169</ele>
        <time>2026-03-09T17:36:32.000Z</time>
      </trkpt>
      <trkpt lat="43.36933" lon="-1.81676">
        <ele>171</ele>
        <time>2026-03-09T17:36:33.000Z</time>
      </trkpt>
      <trkpt lat="43.36935" lon="-1.81681">
        <ele>172</ele>
        <time>2026-03-09T17:36:34.000Z</time>
      </trkpt>
      <trkpt lat="43.36937" lon="-1.81686">
        <ele>173</ele>
        <time>2026-03-09T17:36:34.000Z</time>
      </trkpt>
      <trkpt lat="43.36939" lon="-1.81693">
        <ele>174</ele>
        <time>2026-03-09T17:36:35.000Z</time>
      </trkpt>
      <trkpt lat="43.36945" lon="-1.81704">
        <ele>177</ele>
        <time>2026-03-09T17:36:37.000Z</time>
      </trkpt>
      <trkpt lat="43.36953" lon="-1.81721">
        <ele>180</ele>
        <time>2026-03-09T17:36:40.000Z</time>
      </trkpt>
      <trkpt lat="43.36954" lon="-1.81725">
        <ele>181</ele>
        <time>2026-03-09T17:36:40.000Z</time>
      </trkpt>
      <trkpt lat="43.36955" lon="-1.8173">
        <ele>181</ele>
        <time>2026-03-09T17:36:41.000Z</time>
      </trkpt>
      <trkpt lat="43.36956" lon="-1.81732">
        <ele>182</ele>
        <time>2026-03-09T17:36:41.000Z</time>
      </trkpt>
      <trkpt lat="43.36956" lon="-1.81736">
        <ele>182</ele>
        <time>2026-03-09T17:36:42.000Z</time>
      </trkpt>
      <trkpt lat="43.36957" lon="-1.81743">
        <ele>183</ele>
        <time>2026-03-09T17:36:43.000Z</time>
      </trkpt>
      <trkpt lat="43.36956" lon="-1.81749">
        <ele>183</ele>
        <time>2026-03-09T17:36:44.000Z</time>
      </trkpt>
      <trkpt lat="43.36954" lon="-1.81756">
        <ele>184</ele>
        <time>2026-03-09T17:36:44.000Z</time>
      </trkpt>
      <trkpt lat="43.36951" lon="-1.81763">
        <ele>185</ele>
        <time>2026-03-09T17:36:46.000Z</time>
      </trkpt>
      <trkpt lat="43.36948" lon="-1.81769">
        <ele>185</ele>
        <time>2026-03-09T17:36:46.000Z</time>
      </trkpt>
      <trkpt lat="43.36945" lon="-1.81773">
        <ele>185</ele>
        <time>2026-03-09T17:36:47.000Z</time>
      </trkpt>
      <trkpt lat="43.36942" lon="-1.81776">
        <ele>185</ele>
        <time>2026-03-09T17:36:48.000Z</time>
      </trkpt>
      <trkpt lat="43.3693" lon="-1.81785">
        <ele>185</ele>
        <time>2026-03-09T17:36:50.000Z</time>
      </trkpt>
      <trkpt lat="43.36917" lon="-1.81793">
        <ele>185</ele>
        <time>2026-03-09T17:36:53.000Z</time>
      </trkpt>
      <trkpt lat="43.36902" lon="-1.81803">
        <ele>184</ele>
        <time>2026-03-09T17:36:56.000Z</time>
      </trkpt>
      <trkpt lat="43.36887" lon="-1.81812">
        <ele>184</ele>
        <time>2026-03-09T17:36:59.000Z</time>
      </trkpt>
      <trkpt lat="43.36876" lon="-1.81819">
        <ele>184</ele>
        <time>2026-03-09T17:37:01.000Z</time>
      </trkpt>
      <trkpt lat="43.36865" lon="-1.81827">
        <ele>184</ele>
        <time>2026-03-09T17:37:03.000Z</time>
      </trkpt>
      <trkpt lat="43.36855" lon="-1.81834">
        <ele>185</ele>
        <time>2026-03-09T17:37:05.000Z</time>
      </trkpt>
      <trkpt lat="43.36839" lon="-1.81847">
        <ele>185</ele>
        <time>2026-03-09T17:37:08.000Z</time>
      </trkpt>
      <trkpt lat="43.36826" lon="-1.81855">
        <ele>185</ele>
        <time>2026-03-09T17:37:11.000Z</time>
      </trkpt>
      <trkpt lat="43.36811" lon="-1.81866">
        <ele>186</ele>
        <time>2026-03-09T17:37:14.000Z</time>
      </trkpt>
      <trkpt lat="43.36799" lon="-1.81873">
        <ele>186</ele>
        <time>2026-03-09T17:37:16.000Z</time>
      </trkpt>
      <trkpt lat="43.36787" lon="-1.81879">
        <ele>186</ele>
        <time>2026-03-09T17:37:19.000Z</time>
      </trkpt>
      <trkpt lat="43.36777" lon="-1.81883">
        <ele>186</ele>
        <time>2026-03-09T17:37:20.000Z</time>
      </trkpt>
      <trkpt lat="43.36759" lon="-1.81889">
        <ele>185</ele>
        <time>2026-03-09T17:37:24.000Z</time>
      </trkpt>
      <trkpt lat="43.36743" lon="-1.81894">
        <ele>184</ele>
        <time>2026-03-09T17:37:27.000Z</time>
      </trkpt>
      <trkpt lat="43.36735" lon="-1.81898">
        <ele>182</ele>
        <time>2026-03-09T17:37:28.000Z</time>
      </trkpt>
      <trkpt lat="43.36731" lon="-1.81902">
        <ele>182</ele>
        <time>2026-03-09T17:37:29.000Z</time>
      </trkpt>
      <trkpt lat="43.36726" lon="-1.81906">
        <ele>181</ele>
        <time>2026-03-09T17:37:30.000Z</time>
      </trkpt>
      <trkpt lat="43.36723" lon="-1.8191">
        <ele>181</ele>
        <time>2026-03-09T17:37:31.000Z</time>
      </trkpt>
      <trkpt lat="43.36721" lon="-1.81914">
        <ele>181</ele>
        <time>2026-03-09T17:37:31.000Z</time>
      </trkpt>
      <trkpt lat="43.36718" lon="-1.81925">
        <ele>181</ele>
        <time>2026-03-09T17:37:33.000Z</time>
      </trkpt>
      <trkpt lat="43.36715" lon="-1.81934">
        <ele>181</ele>
        <time>2026-03-09T17:37:34.000Z</time>
      </trkpt>
      <trkpt lat="43.36714" lon="-1.81942">
        <ele>182</ele>
        <time>2026-03-09T17:37:35.000Z</time>
      </trkpt>
      <trkpt lat="43.36713" lon="-1.81951">
        <ele>182</ele>
        <time>2026-03-09T17:37:36.000Z</time>
      </trkpt>
      <trkpt lat="43.36713" lon="-1.81961">
        <ele>183</ele>
        <time>2026-03-09T17:37:38.000Z</time>
      </trkpt>
      <trkpt lat="43.36712" lon="-1.81982">
        <ele>185</ele>
        <time>2026-03-09T17:37:40.000Z</time>
      </trkpt>
      <trkpt lat="43.36711" lon="-1.81994">
        <ele>186</ele>
        <time>2026-03-09T17:37:42.000Z</time>
      </trkpt>
      <trkpt lat="43.3671" lon="-1.82005">
        <ele>186</ele>
        <time>2026-03-09T17:37:43.000Z</time>
      </trkpt>
      <trkpt lat="43.36702" lon="-1.82038">
        <ele>186</ele>
        <time>2026-03-09T17:37:48.000Z</time>
      </trkpt>
      <trkpt lat="43.3669" lon="-1.82077">
        <ele>187</ele>
        <time>2026-03-09T17:37:53.000Z</time>
      </trkpt>
      <trkpt lat="43.36683" lon="-1.82102">
        <ele>189</ele>
        <time>2026-03-09T17:37:57.000Z</time>
      </trkpt>
      <trkpt lat="43.36681" lon="-1.82108">
        <ele>189</ele>
        <time>2026-03-09T17:37:58.000Z</time>
      </trkpt>
      <trkpt lat="43.3668" lon="-1.82116">
        <ele>190</ele>
        <time>2026-03-09T17:37:59.000Z</time>
      </trkpt>
      <trkpt lat="43.3668" lon="-1.82124">
        <ele>191</ele>
        <time>2026-03-09T17:38:00.000Z</time>
      </trkpt>
      <trkpt lat="43.3668" lon="-1.82134">
        <ele>192</ele>
        <time>2026-03-09T17:38:01.000Z</time>
      </trkpt>
      <trkpt lat="43.36681" lon="-1.82139">
        <ele>193</ele>
        <time>2026-03-09T17:38:02.000Z</time>
      </trkpt>
      <trkpt lat="43.36683" lon="-1.82143">
        <ele>193</ele>
        <time>2026-03-09T17:38:02.000Z</time>
      </trkpt>
      <trkpt lat="43.36686" lon="-1.82148">
        <ele>194</ele>
        <time>2026-03-09T17:38:03.000Z</time>
      </trkpt>
      <trkpt lat="43.36689" lon="-1.82153">
        <ele>194</ele>
        <time>2026-03-09T17:38:04.000Z</time>
      </trkpt>
      <trkpt lat="43.36693" lon="-1.82158">
        <ele>195</ele>
        <time>2026-03-09T17:38:05.000Z</time>
      </trkpt>
      <trkpt lat="43.36698" lon="-1.82161">
        <ele>195</ele>
        <time>2026-03-09T17:38:06.000Z</time>
      </trkpt>
      <trkpt lat="43.36704" lon="-1.82165">
        <ele>195</ele>
        <time>2026-03-09T17:38:07.000Z</time>
      </trkpt>
      <trkpt lat="43.36712" lon="-1.82173">
        <ele>195</ele>
        <time>2026-03-09T17:38:09.000Z</time>
      </trkpt>
      <trkpt lat="43.36717" lon="-1.82183">
        <ele>195</ele>
        <time>2026-03-09T17:38:11.000Z</time>
      </trkpt>
      <trkpt lat="43.36716" lon="-1.82194">
        <ele>195</ele>
        <time>2026-03-09T17:38:12.000Z</time>
      </trkpt>
      <trkpt lat="43.36715" lon="-1.82208">
        <ele>195</ele>
        <time>2026-03-09T17:38:14.000Z</time>
      </trkpt>
      <trkpt lat="43.36714" lon="-1.82226">
        <ele>195</ele>
        <time>2026-03-09T17:38:16.000Z</time>
      </trkpt>
      <trkpt lat="43.36713" lon="-1.82247">
        <ele>195</ele>
        <time>2026-03-09T17:38:19.000Z</time>
      </trkpt>
      <trkpt lat="43.36708" lon="-1.82338">
        <ele>194</ele>
        <time>2026-03-09T17:38:31.000Z</time>
      </trkpt>
      <trkpt lat="43.36705" lon="-1.8237">
        <ele>193</ele>
        <time>2026-03-09T17:38:35.000Z</time>
      </trkpt>
      <trkpt lat="43.36703" lon="-1.82383">
        <ele>192</ele>
        <time>2026-03-09T17:38:37.000Z</time>
      </trkpt>
      <trkpt lat="43.36701" lon="-1.82396">
        <ele>192</ele>
        <time>2026-03-09T17:38:38.000Z</time>
      </trkpt>
      <trkpt lat="43.36697" lon="-1.82411">
        <ele>192</ele>
        <time>2026-03-09T17:38:40.000Z</time>
      </trkpt>
      <trkpt lat="43.36687" lon="-1.82447">
        <ele>192</ele>
        <time>2026-03-09T17:38:45.000Z</time>
      </trkpt>
      <trkpt lat="43.3668" lon="-1.82477">
        <ele>193</ele>
        <time>2026-03-09T17:38:49.000Z</time>
      </trkpt>
      <trkpt lat="43.36677" lon="-1.82494">
        <ele>193</ele>
        <time>2026-03-09T17:38:52.000Z</time>
      </trkpt>
      <trkpt lat="43.36675" lon="-1.8251">
        <ele>193</ele>
        <time>2026-03-09T17:38:54.000Z</time>
      </trkpt>
      <trkpt lat="43.36673" lon="-1.82532">
        <ele>193</ele>
        <time>2026-03-09T17:38:57.000Z</time>
      </trkpt>
      <trkpt lat="43.36669" lon="-1.82572">
        <ele>193</ele>
        <time>2026-03-09T17:39:02.000Z</time>
      </trkpt>
      <trkpt lat="43.36668" lon="-1.82592">
        <ele>193</ele>
        <time>2026-03-09T17:39:04.000Z</time>
      </trkpt>
      <trkpt lat="43.36667" lon="-1.82603">
        <ele>195</ele>
        <time>2026-03-09T17:39:06.000Z</time>
      </trkpt>
      <trkpt lat="43.36668" lon="-1.82611">
        <ele>195</ele>
        <time>2026-03-09T17:39:07.000Z</time>
      </trkpt>
      <trkpt lat="43.3667" lon="-1.82617">
        <ele>195</ele>
        <time>2026-03-09T17:39:08.000Z</time>
      </trkpt>
      <trkpt lat="43.36673" lon="-1.82623">
        <ele>195</ele>
        <time>2026-03-09T17:39:09.000Z</time>
      </trkpt>
      <trkpt lat="43.36677" lon="-1.82628">
        <ele>194</ele>
        <time>2026-03-09T17:39:10.000Z</time>
      </trkpt>
      <trkpt lat="43.36681" lon="-1.82634">
        <ele>194</ele>
        <time>2026-03-09T17:39:11.000Z</time>
      </trkpt>
      <trkpt lat="43.36688" lon="-1.82643">
        <ele>192</ele>
        <time>2026-03-09T17:39:12.000Z</time>
      </trkpt>
      <trkpt lat="43.36697" lon="-1.82654">
        <ele>190</ele>
        <time>2026-03-09T17:39:15.000Z</time>
      </trkpt>
      <trkpt lat="43.36703" lon="-1.82662">
        <ele>189</ele>
        <time>2026-03-09T17:39:16.000Z</time>
      </trkpt>
      <trkpt lat="43.36707" lon="-1.8267">
        <ele>189</ele>
        <time>2026-03-09T17:39:17.000Z</time>
      </trkpt>
      <trkpt lat="43.36714" lon="-1.82684">
        <ele>189</ele>
        <time>2026-03-09T17:39:20.000Z</time>
      </trkpt>
      <trkpt lat="43.36723" lon="-1.82701">
        <ele>190</ele>
        <time>2026-03-09T17:39:22.000Z</time>
      </trkpt>
      <trkpt lat="43.36732" lon="-1.82722">
        <ele>191</ele>
        <time>2026-03-09T17:39:25.000Z</time>
      </trkpt>
      <trkpt lat="43.36737" lon="-1.82731">
        <ele>191</ele>
        <time>2026-03-09T17:39:27.000Z</time>
      </trkpt>
      <trkpt lat="43.36741" lon="-1.82738">
        <ele>191</ele>
        <time>2026-03-09T17:39:28.000Z</time>
      </trkpt>
      <trkpt lat="43.36747" lon="-1.82746">
        <ele>191</ele>
        <time>2026-03-09T17:39:30.000Z</time>
      </trkpt>
      <trkpt lat="43.36751" lon="-1.8275">
        <ele>191</ele>
        <time>2026-03-09T17:39:30.000Z</time>
      </trkpt>
      <trkpt lat="43.36756" lon="-1.82752">
        <ele>192</ele>
        <time>2026-03-09T17:39:31.000Z</time>
      </trkpt>
      <trkpt lat="43.36763" lon="-1.82754">
        <ele>192</ele>
        <time>2026-03-09T17:39:33.000Z</time>
      </trkpt>
      <trkpt lat="43.36767" lon="-1.82754">
        <ele>192</ele>
        <time>2026-03-09T17:39:33.000Z</time>
      </trkpt>
      <trkpt lat="43.36771" lon="-1.82753">
        <ele>192</ele>
        <time>2026-03-09T17:39:34.000Z</time>
      </trkpt>
      <trkpt lat="43.36774" lon="-1.8275">
        <ele>191</ele>
        <time>2026-03-09T17:39:35.000Z</time>
      </trkpt>
      <trkpt lat="43.3678" lon="-1.82746">
        <ele>190</ele>
        <time>2026-03-09T17:39:36.000Z</time>
      </trkpt>
      <trkpt lat="43.3679" lon="-1.82736">
        <ele>187</ele>
        <time>2026-03-09T17:39:38.000Z</time>
      </trkpt>
      <trkpt lat="43.36803" lon="-1.82727">
        <ele>184</ele>
        <time>2026-03-09T17:39:41.000Z</time>
      </trkpt>
      <trkpt lat="43.36813" lon="-1.82723">
        <ele>182</ele>
        <time>2026-03-09T17:39:43.000Z</time>
      </trkpt>
      <trkpt lat="43.36817" lon="-1.82721">
        <ele>181</ele>
        <time>2026-03-09T17:39:43.000Z</time>
      </trkpt>
      <trkpt lat="43.36821" lon="-1.8272">
        <ele>181</ele>
        <time>2026-03-09T17:39:44.000Z</time>
      </trkpt>
      <trkpt lat="43.36826" lon="-1.82719">
        <ele>180</ele>
        <time>2026-03-09T17:39:45.000Z</time>
      </trkpt>
      <trkpt lat="43.36831" lon="-1.82719">
        <ele>180</ele>
        <time>2026-03-09T17:39:46.000Z</time>
      </trkpt>
      <trkpt lat="43.36838" lon="-1.82718">
        <ele>179</ele>
        <time>2026-03-09T17:39:47.000Z</time>
      </trkpt>
      <trkpt lat="43.36848" lon="-1.8272">
        <ele>178</ele>
        <time>2026-03-09T17:39:49.000Z</time>
      </trkpt>
      <trkpt lat="43.3686" lon="-1.82722">
        <ele>177</ele>
        <time>2026-03-09T17:39:51.000Z</time>
      </trkpt>
      <trkpt lat="43.36883" lon="-1.82727">
        <ele>175</ele>
        <time>2026-03-09T17:39:55.000Z</time>
      </trkpt>
      <trkpt lat="43.36896" lon="-1.82731">
        <ele>174</ele>
        <time>2026-03-09T17:39:57.000Z</time>
      </trkpt>
      <trkpt lat="43.36905" lon="-1.82734">
        <ele>174</ele>
        <time>2026-03-09T17:39:59.000Z</time>
      </trkpt>
      <trkpt lat="43.36909" lon="-1.82736">
        <ele>173</ele>
        <time>2026-03-09T17:40:00.000Z</time>
      </trkpt>
      <trkpt lat="43.36913" lon="-1.82739">
        <ele>174</ele>
        <time>2026-03-09T17:40:01.000Z</time>
      </trkpt>
      <trkpt lat="43.36916" lon="-1.82742">
        <ele>174</ele>
        <time>2026-03-09T17:40:01.000Z</time>
      </trkpt>
      <trkpt lat="43.36918" lon="-1.82745">
        <ele>174</ele>
        <time>2026-03-09T17:40:02.000Z</time>
      </trkpt>
      <trkpt lat="43.3692" lon="-1.82747">
        <ele>174</ele>
        <time>2026-03-09T17:40:02.000Z</time>
      </trkpt>
      <trkpt lat="43.36922" lon="-1.82751">
        <ele>175</ele>
        <time>2026-03-09T17:40:03.000Z</time>
      </trkpt>
      <trkpt lat="43.36925" lon="-1.82759">
        <ele>174</ele>
        <time>2026-03-09T17:40:04.000Z</time>
      </trkpt>
      <trkpt lat="43.36927" lon="-1.82764">
        <ele>174</ele>
        <time>2026-03-09T17:40:05.000Z</time>
      </trkpt>
      <trkpt lat="43.36928" lon="-1.8277">
        <ele>174</ele>
        <time>2026-03-09T17:40:06.000Z</time>
      </trkpt>
      <trkpt lat="43.36929" lon="-1.8278">
        <ele>175</ele>
        <time>2026-03-09T17:40:07.000Z</time>
      </trkpt>
      <trkpt lat="43.3693" lon="-1.82808">
        <ele>176</ele>
        <time>2026-03-09T17:40:11.000Z</time>
      </trkpt>
      <trkpt lat="43.36931" lon="-1.8283">
        <ele>177</ele>
        <time>2026-03-09T17:40:13.000Z</time>
      </trkpt>
      <trkpt lat="43.36934" lon="-1.82881">
        <ele>180</ele>
        <time>2026-03-09T17:40:20.000Z</time>
      </trkpt>
      <trkpt lat="43.36935" lon="-1.82894">
        <ele>181</ele>
        <time>2026-03-09T17:40:22.000Z</time>
      </trkpt>
      <trkpt lat="43.36936" lon="-1.82907">
        <ele>181</ele>
        <time>2026-03-09T17:40:23.000Z</time>
      </trkpt>
      <trkpt lat="43.36939" lon="-1.82919">
        <ele>181</ele>
        <time>2026-03-09T17:40:25.000Z</time>
      </trkpt>
      <trkpt lat="43.36943" lon="-1.82931">
        <ele>181</ele>
        <time>2026-03-09T17:40:27.000Z</time>
      </trkpt>
      <trkpt lat="43.36946" lon="-1.82939">
        <ele>181</ele>
        <time>2026-03-09T17:40:28.000Z</time>
      </trkpt>
      <trkpt lat="43.3695" lon="-1.82946">
        <ele>180</ele>
        <time>2026-03-09T17:40:29.000Z</time>
      </trkpt>
      <trkpt lat="43.36954" lon="-1.82952">
        <ele>179</ele>
        <time>2026-03-09T17:40:30.000Z</time>
      </trkpt>
      <trkpt lat="43.36957" lon="-1.82956">
        <ele>178</ele>
        <time>2026-03-09T17:40:31.000Z</time>
      </trkpt>
      <trkpt lat="43.36961" lon="-1.8296">
        <ele>177</ele>
        <time>2026-03-09T17:40:32.000Z</time>
      </trkpt>
      <trkpt lat="43.36972" lon="-1.82968">
        <ele>174</ele>
        <time>2026-03-09T17:40:34.000Z</time>
      </trkpt>
      <trkpt lat="43.36981" lon="-1.82975">
        <ele>172</ele>
        <time>2026-03-09T17:40:36.000Z</time>
      </trkpt>
      <trkpt lat="43.36985" lon="-1.82979">
        <ele>171</ele>
        <time>2026-03-09T17:40:37.000Z</time>
      </trkpt>
      <trkpt lat="43.36989" lon="-1.82983">
        <ele>170</ele>
        <time>2026-03-09T17:40:38.000Z</time>
      </trkpt>
      <trkpt lat="43.36991" lon="-1.82987">
        <ele>170</ele>
        <time>2026-03-09T17:40:38.000Z</time>
      </trkpt>
      <trkpt lat="43.36993" lon="-1.82993">
        <ele>170</ele>
        <time>2026-03-09T17:40:39.000Z</time>
      </trkpt>
      <trkpt lat="43.36994" lon="-1.82998">
        <ele>170</ele>
        <time>2026-03-09T17:40:40.000Z</time>
      </trkpt>
      <trkpt lat="43.36992" lon="-1.83121">
        <ele>180</ele>
        <time>2026-03-09T17:40:56.000Z</time>
      </trkpt>
      <trkpt lat="43.36991" lon="-1.83136">
        <ele>180</ele>
        <time>2026-03-09T17:40:58.000Z</time>
      </trkpt>
      <trkpt lat="43.36987" lon="-1.83208">
        <ele>183</ele>
        <time>2026-03-09T17:41:07.000Z</time>
      </trkpt>
      <trkpt lat="43.36986" lon="-1.83224">
        <ele>184</ele>
        <time>2026-03-09T17:41:09.000Z</time>
      </trkpt>
      <trkpt lat="43.36985" lon="-1.83235">
        <ele>184</ele>
        <time>2026-03-09T17:41:10.000Z</time>
      </trkpt>
      <trkpt lat="43.36985" lon="-1.83238">
        <ele>184</ele>
        <time>2026-03-09T17:41:11.000Z</time>
      </trkpt>
      <trkpt lat="43.36984" lon="-1.83241">
        <ele>184</ele>
        <time>2026-03-09T17:41:11.000Z</time>
      </trkpt>
      <trkpt lat="43.36983" lon="-1.83245">
        <ele>184</ele>
        <time>2026-03-09T17:41:12.000Z</time>
      </trkpt>
      <trkpt lat="43.36982" lon="-1.83249">
        <ele>185</ele>
        <time>2026-03-09T17:41:12.000Z</time>
      </trkpt>
      <trkpt lat="43.36981" lon="-1.83251">
        <ele>185</ele>
        <time>2026-03-09T17:41:13.000Z</time>
      </trkpt>
      <trkpt lat="43.3698" lon="-1.83253">
        <ele>185</ele>
        <time>2026-03-09T17:41:13.000Z</time>
      </trkpt>
      <trkpt lat="43.36979" lon="-1.83255">
        <ele>185</ele>
        <time>2026-03-09T17:41:13.000Z</time>
      </trkpt>
      <trkpt lat="43.36977" lon="-1.83258">
        <ele>185</ele>
        <time>2026-03-09T17:41:14.000Z</time>
      </trkpt>
      <trkpt lat="43.36974" lon="-1.83261">
        <ele>185</ele>
        <time>2026-03-09T17:41:14.000Z</time>
      </trkpt>
      <trkpt lat="43.36973" lon="-1.83263">
        <ele>184</ele>
        <time>2026-03-09T17:41:15.000Z</time>
      </trkpt>
      <trkpt lat="43.36972" lon="-1.83263">
        <ele>185</ele>
        <time>2026-03-09T17:41:15.000Z</time>
      </trkpt>
      <trkpt lat="43.36969" lon="-1.83265">
        <ele>185</ele>
        <time>2026-03-09T17:41:16.000Z</time>
      </trkpt>
      <trkpt lat="43.36966" lon="-1.83267">
        <ele>185</ele>
        <time>2026-03-09T17:41:16.000Z</time>
      </trkpt>
      <trkpt lat="43.36964" lon="-1.83268">
        <ele>185</ele>
        <time>2026-03-09T17:41:17.000Z</time>
      </trkpt>
      <trkpt lat="43.36962" lon="-1.83269">
        <ele>185</ele>
        <time>2026-03-09T17:41:17.000Z</time>
      </trkpt>
      <trkpt lat="43.36961" lon="-1.83269">
        <ele>185</ele>
        <time>2026-03-09T17:41:17.000Z</time>
      </trkpt>
      <trkpt lat="43.36958" lon="-1.83269">
        <ele>185</ele>
        <time>2026-03-09T17:41:18.000Z</time>
      </trkpt>
      <trkpt lat="43.36955" lon="-1.83269">
        <ele>185</ele>
        <time>2026-03-09T17:41:18.000Z</time>
      </trkpt>
      <trkpt lat="43.36953" lon="-1.83269">
        <ele>185</ele>
        <time>2026-03-09T17:41:19.000Z</time>
      </trkpt>
      <trkpt lat="43.36951" lon="-1.83269">
        <ele>185</ele>
        <time>2026-03-09T17:41:19.000Z</time>
      </trkpt>
      <trkpt lat="43.36949" lon="-1.83268">
        <ele>186</ele>
        <time>2026-03-09T17:41:19.000Z</time>
      </trkpt>
      <trkpt lat="43.36947" lon="-1.83268">
        <ele>186</ele>
        <time>2026-03-09T17:41:20.000Z</time>
      </trkpt>
      <trkpt lat="43.36944" lon="-1.83266">
        <ele>186</ele>
        <time>2026-03-09T17:41:20.000Z</time>
      </trkpt>
      <trkpt lat="43.36941" lon="-1.83264">
        <ele>187</ele>
        <time>2026-03-09T17:41:21.000Z</time>
      </trkpt>
      <trkpt lat="43.36931" lon="-1.83257">
        <ele>188</ele>
        <time>2026-03-09T17:41:23.000Z</time>
      </trkpt>
      <trkpt lat="43.36893" lon="-1.83233">
        <ele>192</ele>
        <time>2026-03-09T17:41:30.000Z</time>
      </trkpt>
      <trkpt lat="43.36844" lon="-1.83197">
        <ele>199</ele>
        <time>2026-03-09T17:41:40.000Z</time>
      </trkpt>
      <trkpt lat="43.36817" lon="-1.83177">
        <ele>204</ele>
        <time>2026-03-09T17:41:46.000Z</time>
      </trkpt>
      <trkpt lat="43.36792" lon="-1.83158">
        <ele>207</ele>
        <time>2026-03-09T17:41:51.000Z</time>
      </trkpt>
      <trkpt lat="43.36767" lon="-1.8314">
        <ele>210</ele>
        <time>2026-03-09T17:41:56.000Z</time>
      </trkpt>
      <trkpt lat="43.36739" lon="-1.83119">
        <ele>215</ele>
        <time>2026-03-09T17:42:01.000Z</time>
      </trkpt>
      <trkpt lat="43.36719" lon="-1.83104">
        <ele>218</ele>
        <time>2026-03-09T17:42:05.000Z</time>
      </trkpt>
      <trkpt lat="43.36692" lon="-1.83084">
        <ele>222</ele>
        <time>2026-03-09T17:42:11.000Z</time>
      </trkpt>
      <trkpt lat="43.36677" lon="-1.83073">
        <ele>224</ele>
        <time>2026-03-09T17:42:14.000Z</time>
      </trkpt>
      <trkpt lat="43.36671" lon="-1.8307">
        <ele>225</ele>
        <time>2026-03-09T17:42:15.000Z</time>
      </trkpt>
      <trkpt lat="43.36666" lon="-1.83068">
        <ele>226</ele>
        <time>2026-03-09T17:42:16.000Z</time>
      </trkpt>
      <trkpt lat="43.3666" lon="-1.83068">
        <ele>227</ele>
        <time>2026-03-09T17:42:17.000Z</time>
      </trkpt>
      <trkpt lat="43.36656" lon="-1.83069">
        <ele>227</ele>
        <time>2026-03-09T17:42:18.000Z</time>
      </trkpt>
      <trkpt lat="43.36653" lon="-1.83071">
        <ele>227</ele>
        <time>2026-03-09T17:42:18.000Z</time>
      </trkpt>
      <trkpt lat="43.3665" lon="-1.83073">
        <ele>227</ele>
        <time>2026-03-09T17:42:19.000Z</time>
      </trkpt>
      <trkpt lat="43.36648" lon="-1.83076">
        <ele>227</ele>
        <time>2026-03-09T17:42:19.000Z</time>
      </trkpt>
      <trkpt lat="43.36646" lon="-1.83079">
        <ele>227</ele>
        <time>2026-03-09T17:42:20.000Z</time>
      </trkpt>
      <trkpt lat="43.36644" lon="-1.83083">
        <ele>227</ele>
        <time>2026-03-09T17:42:21.000Z</time>
      </trkpt>
      <trkpt lat="43.36643" lon="-1.83089">
        <ele>226</ele>
        <time>2026-03-09T17:42:21.000Z</time>
      </trkpt>
      <trkpt lat="43.36642" lon="-1.83101">
        <ele>226</ele>
        <time>2026-03-09T17:42:23.000Z</time>
      </trkpt>
      <trkpt lat="43.36642" lon="-1.83113">
        <ele>225</ele>
        <time>2026-03-09T17:42:25.000Z</time>
      </trkpt>
      <trkpt lat="43.36642" lon="-1.8312">
        <ele>225</ele>
        <time>2026-03-09T17:42:25.000Z</time>
      </trkpt>
      <trkpt lat="43.36642" lon="-1.83126">
        <ele>225</ele>
        <time>2026-03-09T17:42:26.000Z</time>
      </trkpt>
      <trkpt lat="43.3664" lon="-1.83132">
        <ele>225</ele>
        <time>2026-03-09T17:42:27.000Z</time>
      </trkpt>
      <trkpt lat="43.36637" lon="-1.83139">
        <ele>225</ele>
        <time>2026-03-09T17:42:28.000Z</time>
      </trkpt>
      <trkpt lat="43.36633" lon="-1.83144">
        <ele>225</ele>
        <time>2026-03-09T17:42:29.000Z</time>
      </trkpt>
      <trkpt lat="43.36629" lon="-1.83147">
        <ele>226</ele>
        <time>2026-03-09T17:42:30.000Z</time>
      </trkpt>
      <trkpt lat="43.36624" lon="-1.83148">
        <ele>227</ele>
        <time>2026-03-09T17:42:31.000Z</time>
      </trkpt>
      <trkpt lat="43.36619" lon="-1.83148">
        <ele>228</ele>
        <time>2026-03-09T17:42:32.000Z</time>
      </trkpt>
      <trkpt lat="43.3661" lon="-1.83144">
        <ele>230</ele>
        <time>2026-03-09T17:42:33.000Z</time>
      </trkpt>
      <trkpt lat="43.36595" lon="-1.83135">
        <ele>233</ele>
        <time>2026-03-09T17:42:36.000Z</time>
      </trkpt>
      <trkpt lat="43.36583" lon="-1.83126">
        <ele>235</ele>
        <time>2026-03-09T17:42:39.000Z</time>
      </trkpt>
      <trkpt lat="43.36575" lon="-1.83119">
        <ele>237</ele>
        <time>2026-03-09T17:42:40.000Z</time>
      </trkpt>
      <trkpt lat="43.3657" lon="-1.83113">
        <ele>239</ele>
        <time>2026-03-09T17:42:42.000Z</time>
      </trkpt>
      <trkpt lat="43.36567" lon="-1.83107">
        <ele>240</ele>
        <time>2026-03-09T17:42:43.000Z</time>
      </trkpt>
      <trkpt lat="43.36564" lon="-1.83102">
        <ele>241</ele>
        <time>2026-03-09T17:42:43.000Z</time>
      </trkpt>
      <trkpt lat="43.36563" lon="-1.83097">
        <ele>241</ele>
        <time>2026-03-09T17:42:44.000Z</time>
      </trkpt>
      <trkpt lat="43.36562" lon="-1.83093">
        <ele>242</ele>
        <time>2026-03-09T17:42:45.000Z</time>
      </trkpt>
      <trkpt lat="43.36561" lon="-1.83089">
        <ele>242</ele>
        <time>2026-03-09T17:42:45.000Z</time>
      </trkpt>
      <trkpt lat="43.3656" lon="-1.83085">
        <ele>242</ele>
        <time>2026-03-09T17:42:46.000Z</time>
      </trkpt>
      <trkpt lat="43.36558" lon="-1.83068">
        <ele>245</ele>
        <time>2026-03-09T17:42:48.000Z</time>
      </trkpt>
      <trkpt lat="43.36557" lon="-1.83048">
        <ele>247</ele>
        <time>2026-03-09T17:42:50.000Z</time>
      </trkpt>
      <trkpt lat="43.36554" lon="-1.83014">
        <ele>251</ele>
        <time>2026-03-09T17:42:55.000Z</time>
      </trkpt>
      <trkpt lat="43.36552" lon="-1.82982">
        <ele>255</ele>
        <time>2026-03-09T17:42:59.000Z</time>
      </trkpt>
      <trkpt lat="43.36551" lon="-1.82966">
        <ele>256</ele>
        <time>2026-03-09T17:43:01.000Z</time>
      </trkpt>
      <trkpt lat="43.3655" lon="-1.82956">
        <ele>258</ele>
        <time>2026-03-09T17:43:02.000Z</time>
      </trkpt>
      <trkpt lat="43.36549" lon="-1.82952">
        <ele>258</ele>
        <time>2026-03-09T17:43:03.000Z</time>
      </trkpt>
      <trkpt lat="43.36548" lon="-1.82949">
        <ele>259</ele>
        <time>2026-03-09T17:43:03.000Z</time>
      </trkpt>
      <trkpt lat="43.36547" lon="-1.82946">
        <ele>259</ele>
        <time>2026-03-09T17:43:04.000Z</time>
      </trkpt>
      <trkpt lat="43.36545" lon="-1.82943">
        <ele>260</ele>
        <time>2026-03-09T17:43:04.000Z</time>
      </trkpt>
      <trkpt lat="43.36542" lon="-1.8294">
        <ele>260</ele>
        <time>2026-03-09T17:43:05.000Z</time>
      </trkpt>
      <trkpt lat="43.3654" lon="-1.82938">
        <ele>261</ele>
        <time>2026-03-09T17:43:05.000Z</time>
      </trkpt>
      <trkpt lat="43.36537" lon="-1.82937">
        <ele>261</ele>
        <time>2026-03-09T17:43:06.000Z</time>
      </trkpt>
      <trkpt lat="43.36533" lon="-1.82936">
        <ele>262</ele>
        <time>2026-03-09T17:43:07.000Z</time>
      </trkpt>
      <trkpt lat="43.36531" lon="-1.82936">
        <ele>262</ele>
        <time>2026-03-09T17:43:07.000Z</time>
      </trkpt>
      <trkpt lat="43.36527" lon="-1.82935">
        <ele>263</ele>
        <time>2026-03-09T17:43:08.000Z</time>
      </trkpt>
      <trkpt lat="43.36525" lon="-1.82936">
        <ele>263</ele>
        <time>2026-03-09T17:43:08.000Z</time>
      </trkpt>
      <trkpt lat="43.36521" lon="-1.82938">
        <ele>264</ele>
        <time>2026-03-09T17:43:09.000Z</time>
      </trkpt>
      <trkpt lat="43.36518" lon="-1.8294">
        <ele>264</ele>
        <time>2026-03-09T17:43:10.000Z</time>
      </trkpt>
      <trkpt lat="43.36514" lon="-1.82945">
        <ele>264</ele>
        <time>2026-03-09T17:43:11.000Z</time>
      </trkpt>
      <trkpt lat="43.36512" lon="-1.82949">
        <ele>264</ele>
        <time>2026-03-09T17:43:11.000Z</time>
      </trkpt>
      <trkpt lat="43.3651" lon="-1.82954">
        <ele>265</ele>
        <time>2026-03-09T17:43:12.000Z</time>
      </trkpt>
      <trkpt lat="43.36508" lon="-1.8296">
        <ele>265</ele>
        <time>2026-03-09T17:43:13.000Z</time>
      </trkpt>
      <trkpt lat="43.36499" lon="-1.83">
        <ele>264</ele>
        <time>2026-03-09T17:43:18.000Z</time>
      </trkpt>
      <trkpt lat="43.36493" lon="-1.83034">
        <ele>264</ele>
        <time>2026-03-09T17:43:23.000Z</time>
      </trkpt>
      <trkpt lat="43.36489" lon="-1.8305">
        <ele>264</ele>
        <time>2026-03-09T17:43:25.000Z</time>
      </trkpt>
      <trkpt lat="43.36487" lon="-1.83055">
        <ele>264</ele>
        <time>2026-03-09T17:43:26.000Z</time>
      </trkpt>
      <trkpt lat="43.36484" lon="-1.83063">
        <ele>264</ele>
        <time>2026-03-09T17:43:27.000Z</time>
      </trkpt>
      <trkpt lat="43.36479" lon="-1.8307">
        <ele>265</ele>
        <time>2026-03-09T17:43:28.000Z</time>
      </trkpt>
      <trkpt lat="43.36475" lon="-1.83074">
        <ele>266</ele>
        <time>2026-03-09T17:43:29.000Z</time>
      </trkpt>
      <trkpt lat="43.36457" lon="-1.83092">
        <ele>269</ele>
        <time>2026-03-09T17:43:33.000Z</time>
      </trkpt>
      <trkpt lat="43.36432" lon="-1.83115">
        <ele>273</ele>
        <time>2026-03-09T17:43:38.000Z</time>
      </trkpt>
      <trkpt lat="43.36421" lon="-1.83128">
        <ele>275</ele>
        <time>2026-03-09T17:43:41.000Z</time>
      </trkpt>
      <trkpt lat="43.36408" lon="-1.83148">
        <ele>276</ele>
        <time>2026-03-09T17:43:44.000Z</time>
      </trkpt>
      <trkpt lat="43.36401" lon="-1.83158">
        <ele>277</ele>
        <time>2026-03-09T17:43:46.000Z</time>
      </trkpt>
      <trkpt lat="43.36392" lon="-1.83174">
        <ele>279</ele>
        <time>2026-03-09T17:43:49.000Z</time>
      </trkpt>
      <trkpt lat="43.36385" lon="-1.83185">
        <ele>280</ele>
        <time>2026-03-09T17:43:51.000Z</time>
      </trkpt>
      <trkpt lat="43.36379" lon="-1.83195">
        <ele>281</ele>
        <time>2026-03-09T17:43:52.000Z</time>
      </trkpt>
      <trkpt lat="43.36368" lon="-1.83214">
        <ele>284</ele>
        <time>2026-03-09T17:43:55.000Z</time>
      </trkpt>
      <trkpt lat="43.36356" lon="-1.83234">
        <ele>286</ele>
        <time>2026-03-09T17:43:59.000Z</time>
      </trkpt>
      <trkpt lat="43.36354" lon="-1.83239">
        <ele>286</ele>
        <time>2026-03-09T17:44:00.000Z</time>
      </trkpt>
      <trkpt lat="43.36353" lon="-1.83242">
        <ele>287</ele>
        <time>2026-03-09T17:44:00.000Z</time>
      </trkpt>
      <trkpt lat="43.36351" lon="-1.83247">
        <ele>287</ele>
        <time>2026-03-09T17:44:01.000Z</time>
      </trkpt>
      <trkpt lat="43.3635" lon="-1.83249">
        <ele>287</ele>
        <time>2026-03-09T17:44:01.000Z</time>
      </trkpt>
      <trkpt lat="43.36349" lon="-1.83252">
        <ele>287</ele>
        <time>2026-03-09T17:44:01.000Z</time>
      </trkpt>
      <trkpt lat="43.36348" lon="-1.83256">
        <ele>288</ele>
        <time>2026-03-09T17:44:02.000Z</time>
      </trkpt>
      <trkpt lat="43.36347" lon="-1.83259">
        <ele>289</ele>
        <time>2026-03-09T17:44:02.000Z</time>
      </trkpt>
      <trkpt lat="43.36347" lon="-1.83263">
        <ele>289</ele>
        <time>2026-03-09T17:44:03.000Z</time>
      </trkpt>
      <trkpt lat="43.36346" lon="-1.83266">
        <ele>290</ele>
        <time>2026-03-09T17:44:03.000Z</time>
      </trkpt>
      <trkpt lat="43.36346" lon="-1.8327">
        <ele>290</ele>
        <time>2026-03-09T17:44:04.000Z</time>
      </trkpt>
      <trkpt lat="43.36346" lon="-1.83273">
        <ele>290</ele>
        <time>2026-03-09T17:44:04.000Z</time>
      </trkpt>
      <trkpt lat="43.36346" lon="-1.83276">
        <ele>290</ele>
        <time>2026-03-09T17:44:05.000Z</time>
      </trkpt>
      <trkpt lat="43.36346" lon="-1.8328">
        <ele>291</ele>
        <time>2026-03-09T17:44:05.000Z</time>
      </trkpt>
      <trkpt lat="43.36346" lon="-1.83283">
        <ele>291</ele>
        <time>2026-03-09T17:44:06.000Z</time>
      </trkpt>
      <trkpt lat="43.36347" lon="-1.83288">
        <ele>291</ele>
        <time>2026-03-09T17:44:06.000Z</time>
      </trkpt>
      <trkpt lat="43.36348" lon="-1.83293">
        <ele>291</ele>
        <time>2026-03-09T17:44:07.000Z</time>
      </trkpt>
      <trkpt lat="43.3635" lon="-1.83299">
        <ele>291</ele>
        <time>2026-03-09T17:44:08.000Z</time>
      </trkpt>
      <trkpt lat="43.36354" lon="-1.8331">
        <ele>291</ele>
        <time>2026-03-09T17:44:09.000Z</time>
      </trkpt>
      <trkpt lat="43.36362" lon="-1.83323">
        <ele>289</ele>
        <time>2026-03-09T17:44:12.000Z</time>
      </trkpt>
      <trkpt lat="43.3637" lon="-1.83339">
        <ele>288</ele>
        <time>2026-03-09T17:44:14.000Z</time>
      </trkpt>
      <trkpt lat="43.36378" lon="-1.83353">
        <ele>286</ele>
        <time>2026-03-09T17:44:16.000Z</time>
      </trkpt>
      <trkpt lat="43.36383" lon="-1.83364">
        <ele>286</ele>
        <time>2026-03-09T17:44:18.000Z</time>
      </trkpt>
      <trkpt lat="43.36387" lon="-1.83378">
        <ele>286</ele>
        <time>2026-03-09T17:44:20.000Z</time>
      </trkpt>
      <trkpt lat="43.36389" lon="-1.83389">
        <ele>286</ele>
        <time>2026-03-09T17:44:21.000Z</time>
      </trkpt>
      <trkpt lat="43.36389" lon="-1.83396">
        <ele>287</ele>
        <time>2026-03-09T17:44:22.000Z</time>
      </trkpt>
      <trkpt lat="43.36389" lon="-1.83404">
        <ele>287</ele>
        <time>2026-03-09T17:44:23.000Z</time>
      </trkpt>
      <trkpt lat="43.36389" lon="-1.83409">
        <ele>288</ele>
        <time>2026-03-09T17:44:24.000Z</time>
      </trkpt>
      <trkpt lat="43.36388" lon="-1.83413">
        <ele>288</ele>
        <time>2026-03-09T17:44:25.000Z</time>
      </trkpt>
      <trkpt lat="43.36388" lon="-1.83417">
        <ele>288</ele>
        <time>2026-03-09T17:44:25.000Z</time>
      </trkpt>
      <trkpt lat="43.36387" lon="-1.83421">
        <ele>288</ele>
        <time>2026-03-09T17:44:26.000Z</time>
      </trkpt>
      <trkpt lat="43.36385" lon="-1.83428">
        <ele>288</ele>
        <time>2026-03-09T17:44:27.000Z</time>
      </trkpt>
      <trkpt lat="43.36384" lon="-1.83433">
        <ele>288</ele>
        <time>2026-03-09T17:44:27.000Z</time>
      </trkpt>
      <trkpt lat="43.36382" lon="-1.83438">
        <ele>288</ele>
        <time>2026-03-09T17:44:28.000Z</time>
      </trkpt>
      <trkpt lat="43.36377" lon="-1.83447">
        <ele>288</ele>
        <time>2026-03-09T17:44:29.000Z</time>
      </trkpt>
      <trkpt lat="43.36374" lon="-1.83451">
        <ele>288</ele>
        <time>2026-03-09T17:44:30.000Z</time>
      </trkpt>
      <trkpt lat="43.36372" lon="-1.83454">
        <ele>289</ele>
        <time>2026-03-09T17:44:31.000Z</time>
      </trkpt>
      <trkpt lat="43.36368" lon="-1.83458">
        <ele>289</ele>
        <time>2026-03-09T17:44:32.000Z</time>
      </trkpt>
      <trkpt lat="43.36365" lon="-1.83461">
        <ele>289</ele>
        <time>2026-03-09T17:44:32.000Z</time>
      </trkpt>
      <trkpt lat="43.3636" lon="-1.83464">
        <ele>290</ele>
        <time>2026-03-09T17:44:33.000Z</time>
      </trkpt>
      <trkpt lat="43.36357" lon="-1.83465">
        <ele>290</ele>
        <time>2026-03-09T17:44:34.000Z</time>
      </trkpt>
      <trkpt lat="43.36354" lon="-1.83466">
        <ele>290</ele>
        <time>2026-03-09T17:44:34.000Z</time>
      </trkpt>
      <trkpt lat="43.3635" lon="-1.83468">
        <ele>291</ele>
        <time>2026-03-09T17:44:35.000Z</time>
      </trkpt>
      <trkpt lat="43.36345" lon="-1.83469">
        <ele>292</ele>
        <time>2026-03-09T17:44:36.000Z</time>
      </trkpt>
      <trkpt lat="43.36342" lon="-1.83469">
        <ele>292</ele>
        <time>2026-03-09T17:44:37.000Z</time>
      </trkpt>
      <trkpt lat="43.36339" lon="-1.83469">
        <ele>292</ele>
        <time>2026-03-09T17:44:37.000Z</time>
      </trkpt>
      <trkpt lat="43.36336" lon="-1.83469">
        <ele>293</ele>
        <time>2026-03-09T17:44:38.000Z</time>
      </trkpt>
      <trkpt lat="43.36334" lon="-1.83468">
        <ele>293</ele>
        <time>2026-03-09T17:44:38.000Z</time>
      </trkpt>
      <trkpt lat="43.36317" lon="-1.83465">
        <ele>295</ele>
        <time>2026-03-09T17:44:41.000Z</time>
      </trkpt>
      <trkpt lat="43.36306" lon="-1.83461">
        <ele>296</ele>
        <time>2026-03-09T17:44:43.000Z</time>
      </trkpt>
      <trkpt lat="43.36287" lon="-1.83457">
        <ele>299</ele>
        <time>2026-03-09T17:44:46.000Z</time>
      </trkpt>
      <trkpt lat="43.36272" lon="-1.83454">
        <ele>300</ele>
        <time>2026-03-09T17:44:49.000Z</time>
      </trkpt>
      <trkpt lat="43.36258" lon="-1.83451">
        <ele>302</ele>
        <time>2026-03-09T17:44:52.000Z</time>
      </trkpt>
      <trkpt lat="43.36251" lon="-1.8345">
        <ele>303</ele>
        <time>2026-03-09T17:44:53.000Z</time>
      </trkpt>
      <trkpt lat="43.36242" lon="-1.83448">
        <ele>304</ele>
        <time>2026-03-09T17:44:55.000Z</time>
      </trkpt>
      <trkpt lat="43.36236" lon="-1.83448">
        <ele>305</ele>
        <time>2026-03-09T17:44:56.000Z</time>
      </trkpt>
      <trkpt lat="43.36231" lon="-1.83448">
        <ele>305</ele>
        <time>2026-03-09T17:44:57.000Z</time>
      </trkpt>
      <trkpt lat="43.36227" lon="-1.83448">
        <ele>306</ele>
        <time>2026-03-09T17:44:57.000Z</time>
      </trkpt>
      <trkpt lat="43.36223" lon="-1.83448">
        <ele>306</ele>
        <time>2026-03-09T17:44:58.000Z</time>
      </trkpt>
      <trkpt lat="43.36207" lon="-1.8345">
        <ele>308</ele>
        <time>2026-03-09T17:45:01.000Z</time>
      </trkpt>
      <trkpt lat="43.362" lon="-1.83451">
        <ele>309</ele>
        <time>2026-03-09T17:45:02.000Z</time>
      </trkpt>
      <trkpt lat="43.36189" lon="-1.83455">
        <ele>309</ele>
        <time>2026-03-09T17:45:04.000Z</time>
      </trkpt>
      <trkpt lat="43.36176" lon="-1.8346">
        <ele>310</ele>
        <time>2026-03-09T17:45:06.000Z</time>
      </trkpt>
      <trkpt lat="43.36165" lon="-1.83464">
        <ele>311</ele>
        <time>2026-03-09T17:45:09.000Z</time>
      </trkpt>
      <trkpt lat="43.36156" lon="-1.83467">
        <ele>312</ele>
        <time>2026-03-09T17:45:10.000Z</time>
      </trkpt>
      <trkpt lat="43.36145" lon="-1.83472">
        <ele>314</ele>
        <time>2026-03-09T17:45:12.000Z</time>
      </trkpt>
      <trkpt lat="43.36133" lon="-1.83478">
        <ele>315</ele>
        <time>2026-03-09T17:45:14.000Z</time>
      </trkpt>
      <trkpt lat="43.36123" lon="-1.83484">
        <ele>316</ele>
        <time>2026-03-09T17:45:16.000Z</time>
      </trkpt>
      <trkpt lat="43.36111" lon="-1.83491">
        <ele>317</ele>
        <time>2026-03-09T17:45:19.000Z</time>
      </trkpt>
      <trkpt lat="43.36099" lon="-1.83501">
        <ele>318</ele>
        <time>2026-03-09T17:45:21.000Z</time>
      </trkpt>
      <trkpt lat="43.3609" lon="-1.83511">
        <ele>319</ele>
        <time>2026-03-09T17:45:23.000Z</time>
      </trkpt>
      <trkpt lat="43.36082" lon="-1.8352">
        <ele>319</ele>
        <time>2026-03-09T17:45:25.000Z</time>
      </trkpt>
      <trkpt lat="43.36072" lon="-1.83535">
        <ele>321</ele>
        <time>2026-03-09T17:45:28.000Z</time>
      </trkpt>
      <trkpt lat="43.36064" lon="-1.83546">
        <ele>322</ele>
        <time>2026-03-09T17:45:30.000Z</time>
      </trkpt>
      <trkpt lat="43.36056" lon="-1.83559">
        <ele>323</ele>
        <time>2026-03-09T17:45:32.000Z</time>
      </trkpt>
      <trkpt lat="43.36043" lon="-1.8358">
        <ele>326</ele>
        <time>2026-03-09T17:45:36.000Z</time>
      </trkpt>
      <trkpt lat="43.35986" lon="-1.83672">
        <ele>333</ele>
        <time>2026-03-09T17:45:51.000Z</time>
      </trkpt>
      <trkpt lat="43.35983" lon="-1.83679">
        <ele>334</ele>
        <time>2026-03-09T17:45:52.000Z</time>
      </trkpt>
      <trkpt lat="43.35981" lon="-1.83684">
        <ele>334</ele>
        <time>2026-03-09T17:45:53.000Z</time>
      </trkpt>
      <trkpt lat="43.35978" lon="-1.83694">
        <ele>335</ele>
        <time>2026-03-09T17:45:54.000Z</time>
      </trkpt>
      <trkpt lat="43.35977" lon="-1.83703">
        <ele>335</ele>
        <time>2026-03-09T17:45:56.000Z</time>
      </trkpt>
      <trkpt lat="43.35976" lon="-1.83711">
        <ele>335</ele>
        <time>2026-03-09T17:45:57.000Z</time>
      </trkpt>
      <trkpt lat="43.35977" lon="-1.83721">
        <ele>335</ele>
        <time>2026-03-09T17:45:58.000Z</time>
      </trkpt>
      <trkpt lat="43.35982" lon="-1.83746">
        <ele>333</ele>
        <time>2026-03-09T17:46:01.000Z</time>
      </trkpt>
      <trkpt lat="43.35983" lon="-1.83755">
        <ele>333</ele>
        <time>2026-03-09T17:46:02.000Z</time>
      </trkpt>
      <trkpt lat="43.35984" lon="-1.83763">
        <ele>333</ele>
        <time>2026-03-09T17:46:04.000Z</time>
      </trkpt>
      <trkpt lat="43.35984" lon="-1.83768">
        <ele>333</ele>
        <time>2026-03-09T17:46:04.000Z</time>
      </trkpt>
      <trkpt lat="43.35984" lon="-1.83772">
        <ele>333</ele>
        <time>2026-03-09T17:46:05.000Z</time>
      </trkpt>
      <trkpt lat="43.35983" lon="-1.83779">
        <ele>333</ele>
        <time>2026-03-09T17:46:06.000Z</time>
      </trkpt>
      <trkpt lat="43.35982" lon="-1.83785">
        <ele>334</ele>
        <time>2026-03-09T17:46:06.000Z</time>
      </trkpt>
      <trkpt lat="43.3598" lon="-1.83789">
        <ele>335</ele>
        <time>2026-03-09T17:46:07.000Z</time>
      </trkpt>
      <trkpt lat="43.35979" lon="-1.83793">
        <ele>335</ele>
        <time>2026-03-09T17:46:08.000Z</time>
      </trkpt>
      <trkpt lat="43.35977" lon="-1.83799">
        <ele>336</ele>
        <time>2026-03-09T17:46:08.000Z</time>
      </trkpt>
      <trkpt lat="43.35963" lon="-1.83824">
        <ele>341</ele>
        <time>2026-03-09T17:46:12.000Z</time>
      </trkpt>
      <trkpt lat="43.35956" lon="-1.83837">
        <ele>343</ele>
        <time>2026-03-09T17:46:15.000Z</time>
      </trkpt>
      <trkpt lat="43.35951" lon="-1.83846">
        <ele>344</ele>
        <time>2026-03-09T17:46:16.000Z</time>
      </trkpt>
      <trkpt lat="43.35945" lon="-1.83858">
        <ele>345</ele>
        <time>2026-03-09T17:46:18.000Z</time>
      </trkpt>
      <trkpt lat="43.35942" lon="-1.83868">
        <ele>346</ele>
        <time>2026-03-09T17:46:19.000Z</time>
      </trkpt>
      <trkpt lat="43.35941" lon="-1.83874">
        <ele>346</ele>
        <time>2026-03-09T17:46:20.000Z</time>
      </trkpt>
      <trkpt lat="43.35937" lon="-1.83887">
        <ele>347</ele>
        <time>2026-03-09T17:46:22.000Z</time>
      </trkpt>
      <trkpt lat="43.35936" lon="-1.83896">
        <ele>347</ele>
        <time>2026-03-09T17:46:23.000Z</time>
      </trkpt>
      <trkpt lat="43.35934" lon="-1.83904">
        <ele>348</ele>
        <time>2026-03-09T17:46:24.000Z</time>
      </trkpt>
      <trkpt lat="43.35933" lon="-1.83911">
        <ele>348</ele>
        <time>2026-03-09T17:46:25.000Z</time>
      </trkpt>
      <trkpt lat="43.35932" lon="-1.83921">
        <ele>348</ele>
        <time>2026-03-09T17:46:26.000Z</time>
      </trkpt>
      <trkpt lat="43.3593" lon="-1.83928">
        <ele>348</ele>
        <time>2026-03-09T17:46:27.000Z</time>
      </trkpt>
      <trkpt lat="43.35929" lon="-1.83933">
        <ele>348</ele>
        <time>2026-03-09T17:46:28.000Z</time>
      </trkpt>
      <trkpt lat="43.35927" lon="-1.83938">
        <ele>348</ele>
        <time>2026-03-09T17:46:29.000Z</time>
      </trkpt>
      <trkpt lat="43.35925" lon="-1.83943">
        <ele>348</ele>
        <time>2026-03-09T17:46:30.000Z</time>
      </trkpt>
      <trkpt lat="43.35922" lon="-1.83947">
        <ele>349</ele>
        <time>2026-03-09T17:46:30.000Z</time>
      </trkpt>
      <trkpt lat="43.3592" lon="-1.83951">
        <ele>349</ele>
        <time>2026-03-09T17:46:31.000Z</time>
      </trkpt>
      <trkpt lat="43.35917" lon="-1.83956">
        <ele>349</ele>
        <time>2026-03-09T17:46:32.000Z</time>
      </trkpt>
      <trkpt lat="43.35912" lon="-1.83959">
        <ele>350</ele>
        <time>2026-03-09T17:46:33.000Z</time>
      </trkpt>
      <trkpt lat="43.35904" lon="-1.83965">
        <ele>350</ele>
        <time>2026-03-09T17:46:34.000Z</time>
      </trkpt>
      <trkpt lat="43.35895" lon="-1.83969">
        <ele>351</ele>
        <time>2026-03-09T17:46:36.000Z</time>
      </trkpt>
      <trkpt lat="43.35873" lon="-1.8398">
        <ele>353</ele>
        <time>2026-03-09T17:46:40.000Z</time>
      </trkpt>
      <trkpt lat="43.35843" lon="-1.83993">
        <ele>356</ele>
        <time>2026-03-09T17:46:46.000Z</time>
      </trkpt>
      <trkpt lat="43.35809" lon="-1.84008">
        <ele>359</ele>
        <time>2026-03-09T17:46:52.000Z</time>
      </trkpt>
      <trkpt lat="43.35784" lon="-1.8402">
        <ele>362</ele>
        <time>2026-03-09T17:46:57.000Z</time>
      </trkpt>
      <trkpt lat="43.35711" lon="-1.84055">
        <ele>365</ele>
        <time>2026-03-09T17:47:11.000Z</time>
      </trkpt>
      <trkpt lat="43.35696" lon="-1.84062">
        <ele>366</ele>
        <time>2026-03-09T17:47:13.000Z</time>
      </trkpt>
      <trkpt lat="43.35689" lon="-1.84066">
        <ele>366</ele>
        <time>2026-03-09T17:47:15.000Z</time>
      </trkpt>
      <trkpt lat="43.35679" lon="-1.8407">
        <ele>367</ele>
        <time>2026-03-09T17:47:17.000Z</time>
      </trkpt>
      <trkpt lat="43.35669" lon="-1.84073">
        <ele>368</ele>
        <time>2026-03-09T17:47:18.000Z</time>
      </trkpt>
      <trkpt lat="43.35661" lon="-1.84075">
        <ele>369</ele>
        <time>2026-03-09T17:47:20.000Z</time>
      </trkpt>
      <trkpt lat="43.35651" lon="-1.84077">
        <ele>370</ele>
        <time>2026-03-09T17:47:22.000Z</time>
      </trkpt>
      <trkpt lat="43.35639" lon="-1.84079">
        <ele>371</ele>
        <time>2026-03-09T17:47:24.000Z</time>
      </trkpt>
      <trkpt lat="43.35633" lon="-1.84079">
        <ele>371</ele>
        <time>2026-03-09T17:47:25.000Z</time>
      </trkpt>
      <trkpt lat="43.35629" lon="-1.8408">
        <ele>372</ele>
        <time>2026-03-09T17:47:26.000Z</time>
      </trkpt>
      <trkpt lat="43.35618" lon="-1.84084">
        <ele>373</ele>
        <time>2026-03-09T17:47:28.000Z</time>
      </trkpt>
      <trkpt lat="43.35609" lon="-1.84087">
        <ele>373</ele>
        <time>2026-03-09T17:47:29.000Z</time>
      </trkpt>
      <trkpt lat="43.35599" lon="-1.84091">
        <ele>374</ele>
        <time>2026-03-09T17:47:31.000Z</time>
      </trkpt>
      <trkpt lat="43.35595" lon="-1.84094">
        <ele>374</ele>
        <time>2026-03-09T17:47:32.000Z</time>
      </trkpt>
      <trkpt lat="43.35514" lon="-1.84139">
        <ele>382</ele>
        <time>2026-03-09T17:47:48.000Z</time>
      </trkpt>
      <trkpt lat="43.35482" lon="-1.84158">
        <ele>384</ele>
        <time>2026-03-09T17:47:54.000Z</time>
      </trkpt>
      <trkpt lat="43.3547" lon="-1.84165">
        <ele>384</ele>
        <time>2026-03-09T17:47:56.000Z</time>
      </trkpt>
      <trkpt lat="43.35453" lon="-1.84177">
        <ele>386</ele>
        <time>2026-03-09T17:47:59.000Z</time>
      </trkpt>
      <trkpt lat="43.35443" lon="-1.84184">
        <ele>387</ele>
        <time>2026-03-09T17:48:01.000Z</time>
      </trkpt>
      <trkpt lat="43.35433" lon="-1.84192">
        <ele>388</ele>
        <time>2026-03-09T17:48:04.000Z</time>
      </trkpt>
      <trkpt lat="43.35419" lon="-1.84204">
        <ele>389</ele>
        <time>2026-03-09T17:48:06.000Z</time>
      </trkpt>
      <trkpt lat="43.35403" lon="-1.84218">
        <ele>391</ele>
        <time>2026-03-09T17:48:10.000Z</time>
      </trkpt>
      <trkpt lat="43.35381" lon="-1.84236">
        <ele>392</ele>
        <time>2026-03-09T17:48:14.000Z</time>
      </trkpt>
      <trkpt lat="43.35345" lon="-1.84267">
        <ele>396</ele>
        <time>2026-03-09T17:48:22.000Z</time>
      </trkpt>
      <trkpt lat="43.35261" lon="-1.84336">
        <ele>399</ele>
        <time>2026-03-09T17:48:39.000Z</time>
      </trkpt>
      <trkpt lat="43.35233" lon="-1.84365">
        <ele>399</ele>
        <time>2026-03-09T17:48:46.000Z</time>
      </trkpt>
      <trkpt lat="43.35211" lon="-1.84421">
        <ele>399</ele>
        <time>2026-03-09T17:48:54.000Z</time>
      </trkpt>
      <trkpt lat="43.35198" lon="-1.84452">
        <ele>402</ele>
        <time>2026-03-09T17:48:58.000Z</time>
      </trkpt>
      <trkpt lat="43.35187" lon="-1.84479">
        <ele>404</ele>
        <time>2026-03-09T17:49:02.000Z</time>
      </trkpt>
      <trkpt lat="43.3518" lon="-1.84491">
        <ele>406</ele>
        <time>2026-03-09T17:49:04.000Z</time>
      </trkpt>
      <trkpt lat="43.35176" lon="-1.84498">
        <ele>407</ele>
        <time>2026-03-09T17:49:06.000Z</time>
      </trkpt>
      <trkpt lat="43.35171" lon="-1.84504">
        <ele>409</ele>
        <time>2026-03-09T17:49:07.000Z</time>
      </trkpt>
      <trkpt lat="43.35155" lon="-1.84521">
        <ele>411</ele>
        <time>2026-03-09T17:49:10.000Z</time>
      </trkpt>
      <trkpt lat="43.35134" lon="-1.84541">
        <ele>414</ele>
        <time>2026-03-09T17:49:15.000Z</time>
      </trkpt>
      <trkpt lat="43.35077" lon="-1.84593">
        <ele>420</ele>
        <time>2026-03-09T17:49:27.000Z</time>
      </trkpt>
      <trkpt lat="43.35046" lon="-1.84622">
        <ele>423</ele>
        <time>2026-03-09T17:49:34.000Z</time>
      </trkpt>
      <trkpt lat="43.3504" lon="-1.84627">
        <ele>423</ele>
        <time>2026-03-09T17:49:35.000Z</time>
      </trkpt>
      <trkpt lat="43.35036" lon="-1.84633">
        <ele>424</ele>
        <time>2026-03-09T17:49:36.000Z</time>
      </trkpt>
      <trkpt lat="43.35034" lon="-1.84636">
        <ele>424</ele>
        <time>2026-03-09T17:49:37.000Z</time>
      </trkpt>
      <trkpt lat="43.35031" lon="-1.84642">
        <ele>425</ele>
        <time>2026-03-09T17:49:38.000Z</time>
      </trkpt>
      <trkpt lat="43.35029" lon="-1.84649">
        <ele>426</ele>
        <time>2026-03-09T17:49:39.000Z</time>
      </trkpt>
      <trkpt lat="43.35028" lon="-1.84667">
        <ele>427</ele>
        <time>2026-03-09T17:49:41.000Z</time>
      </trkpt>
      <trkpt lat="43.35029" lon="-1.84697">
        <ele>430</ele>
        <time>2026-03-09T17:49:45.000Z</time>
      </trkpt>
      <trkpt lat="43.35031" lon="-1.84734">
        <ele>432</ele>
        <time>2026-03-09T17:49:50.000Z</time>
      </trkpt>
      <trkpt lat="43.35032" lon="-1.84743">
        <ele>433</ele>
        <time>2026-03-09T17:49:51.000Z</time>
      </trkpt>
      <trkpt lat="43.35032" lon="-1.84749">
        <ele>433</ele>
        <time>2026-03-09T17:49:51.000Z</time>
      </trkpt>
      <trkpt lat="43.35031" lon="-1.84757">
        <ele>433</ele>
        <time>2026-03-09T17:49:53.000Z</time>
      </trkpt>
      <trkpt lat="43.3503" lon="-1.84763">
        <ele>433</ele>
        <time>2026-03-09T17:49:53.000Z</time>
      </trkpt>
      <trkpt lat="43.35029" lon="-1.84769">
        <ele>433</ele>
        <time>2026-03-09T17:49:54.000Z</time>
      </trkpt>
      <trkpt lat="43.35027" lon="-1.84776">
        <ele>434</ele>
        <time>2026-03-09T17:49:55.000Z</time>
      </trkpt>
      <trkpt lat="43.35022" lon="-1.84786">
        <ele>434</ele>
        <time>2026-03-09T17:49:57.000Z</time>
      </trkpt>
      <trkpt lat="43.35016" lon="-1.848">
        <ele>435</ele>
        <time>2026-03-09T17:49:59.000Z</time>
      </trkpt>
      <trkpt lat="43.35005" lon="-1.8482">
        <ele>437</ele>
        <time>2026-03-09T17:50:02.000Z</time>
      </trkpt>
      <trkpt lat="43.34997" lon="-1.84835">
        <ele>439</ele>
        <time>2026-03-09T17:50:04.000Z</time>
      </trkpt>
      <trkpt lat="43.34993" lon="-1.8484">
        <ele>440</ele>
        <time>2026-03-09T17:50:05.000Z</time>
      </trkpt>
      <trkpt lat="43.34989" lon="-1.84853">
        <ele>442</ele>
        <time>2026-03-09T17:50:07.000Z</time>
      </trkpt>
      <trkpt lat="43.34987" lon="-1.84862">
        <ele>444</ele>
        <time>2026-03-09T17:50:08.000Z</time>
      </trkpt>
      <trkpt lat="43.34986" lon="-1.8487">
        <ele>445</ele>
        <time>2026-03-09T17:50:09.000Z</time>
      </trkpt>
      <trkpt lat="43.34987" lon="-1.84878">
        <ele>446</ele>
        <time>2026-03-09T17:50:11.000Z</time>
      </trkpt>
      <trkpt lat="43.34988" lon="-1.84889">
        <ele>447</ele>
        <time>2026-03-09T17:50:12.000Z</time>
      </trkpt>
      <trkpt lat="43.3499" lon="-1.84897">
        <ele>448</ele>
        <time>2026-03-09T17:50:13.000Z</time>
      </trkpt>
      <trkpt lat="43.34993" lon="-1.84905">
        <ele>448</ele>
        <time>2026-03-09T17:50:14.000Z</time>
      </trkpt>
      <trkpt lat="43.34998" lon="-1.84914">
        <ele>448</ele>
        <time>2026-03-09T17:50:16.000Z</time>
      </trkpt>
      <trkpt lat="43.35007" lon="-1.84924">
        <ele>448</ele>
        <time>2026-03-09T17:50:18.000Z</time>
      </trkpt>
      <trkpt lat="43.35061" lon="-1.84985">
        <ele>446</ele>
        <time>2026-03-09T17:50:30.000Z</time>
      </trkpt>
      <trkpt lat="43.35064" lon="-1.84988">
        <ele>446</ele>
        <time>2026-03-09T17:50:31.000Z</time>
      </trkpt>
      <trkpt lat="43.35066" lon="-1.84991">
        <ele>446</ele>
        <time>2026-03-09T17:50:31.000Z</time>
      </trkpt>
      <trkpt lat="43.35068" lon="-1.84994">
        <ele>446</ele>
        <time>2026-03-09T17:50:32.000Z</time>
      </trkpt>
      <trkpt lat="43.35069" lon="-1.84998">
        <ele>447</ele>
        <time>2026-03-09T17:50:32.000Z</time>
      </trkpt>
      <trkpt lat="43.3507" lon="-1.85002">
        <ele>447</ele>
        <time>2026-03-09T17:50:33.000Z</time>
      </trkpt>
      <trkpt lat="43.35071" lon="-1.85005">
        <ele>447</ele>
        <time>2026-03-09T17:50:33.000Z</time>
      </trkpt>
      <trkpt lat="43.35071" lon="-1.8501">
        <ele>447</ele>
        <time>2026-03-09T17:50:34.000Z</time>
      </trkpt>
      <trkpt lat="43.35072" lon="-1.85014">
        <ele>447</ele>
        <time>2026-03-09T17:50:35.000Z</time>
      </trkpt>
      <trkpt lat="43.35072" lon="-1.85017">
        <ele>448</ele>
        <time>2026-03-09T17:50:35.000Z</time>
      </trkpt>
      <trkpt lat="43.35074" lon="-1.85085">
        <ele>451</ele>
        <time>2026-03-09T17:50:44.000Z</time>
      </trkpt>
      <trkpt lat="43.35075" lon="-1.85132">
        <ele>451</ele>
        <time>2026-03-09T17:50:50.000Z</time>
      </trkpt>
      <trkpt lat="43.35075" lon="-1.85137">
        <ele>451</ele>
        <time>2026-03-09T17:50:51.000Z</time>
      </trkpt>
      <trkpt lat="43.35074" lon="-1.85141">
        <ele>452</ele>
        <time>2026-03-09T17:50:51.000Z</time>
      </trkpt>
      <trkpt lat="43.35074" lon="-1.85143">
        <ele>452</ele>
        <time>2026-03-09T17:50:51.000Z</time>
      </trkpt>
      <trkpt lat="43.35072" lon="-1.8515">
        <ele>452</ele>
        <time>2026-03-09T17:50:52.000Z</time>
      </trkpt>
      <trkpt lat="43.35071" lon="-1.85156">
        <ele>452</ele>
        <time>2026-03-09T17:50:53.000Z</time>
      </trkpt>
      <trkpt lat="43.35069" lon="-1.85162">
        <ele>452</ele>
        <time>2026-03-09T17:50:54.000Z</time>
      </trkpt>
      <trkpt lat="43.35067" lon="-1.85166">
        <ele>452</ele>
        <time>2026-03-09T17:50:55.000Z</time>
      </trkpt>
      <trkpt lat="43.35064" lon="-1.8517">
        <ele>452</ele>
        <time>2026-03-09T17:50:55.000Z</time>
      </trkpt>
      <trkpt lat="43.35062" lon="-1.85174">
        <ele>452</ele>
        <time>2026-03-09T17:50:56.000Z</time>
      </trkpt>
      <trkpt lat="43.35058" lon="-1.85178">
        <ele>452</ele>
        <time>2026-03-09T17:50:57.000Z</time>
      </trkpt>
      <trkpt lat="43.35055" lon="-1.85181">
        <ele>451</ele>
        <time>2026-03-09T17:50:58.000Z</time>
      </trkpt>
      <trkpt lat="43.35052" lon="-1.85184">
        <ele>451</ele>
        <time>2026-03-09T17:50:58.000Z</time>
      </trkpt>
      <trkpt lat="43.35026" lon="-1.85199">
        <ele>450</ele>
        <time>2026-03-09T17:51:03.000Z</time>
      </trkpt>
      <trkpt lat="43.35008" lon="-1.85209">
        <ele>449</ele>
        <time>2026-03-09T17:51:07.000Z</time>
      </trkpt>
      <trkpt lat="43.34995" lon="-1.85217">
        <ele>449</ele>
        <time>2026-03-09T17:51:09.000Z</time>
      </trkpt>
      <trkpt lat="43.3499" lon="-1.85221">
        <ele>450</ele>
        <time>2026-03-09T17:51:10.000Z</time>
      </trkpt>
      <trkpt lat="43.34984" lon="-1.85225">
        <ele>450</ele>
        <time>2026-03-09T17:51:11.000Z</time>
      </trkpt>
      <trkpt lat="43.3498" lon="-1.85231">
        <ele>450</ele>
        <time>2026-03-09T17:51:12.000Z</time>
      </trkpt>
      <trkpt lat="43.34974" lon="-1.85239">
        <ele>451</ele>
        <time>2026-03-09T17:51:14.000Z</time>
      </trkpt>
      <trkpt lat="43.34964" lon="-1.85253">
        <ele>451</ele>
        <time>2026-03-09T17:51:16.000Z</time>
      </trkpt>
      <trkpt lat="43.34953" lon="-1.85272">
        <ele>450</ele>
        <time>2026-03-09T17:51:20.000Z</time>
      </trkpt>
      <trkpt lat="43.3489" lon="-1.85368">
        <ele>446</ele>
        <time>2026-03-09T17:51:36.000Z</time>
      </trkpt>
      <trkpt lat="43.34869" lon="-1.85399">
        <ele>445</ele>
        <time>2026-03-09T17:51:42.000Z</time>
      </trkpt>
      <trkpt lat="43.34861" lon="-1.85412">
        <ele>444</ele>
        <time>2026-03-09T17:51:44.000Z</time>
      </trkpt>
      <trkpt lat="43.34853" lon="-1.85425">
        <ele>444</ele>
        <time>2026-03-09T17:51:46.000Z</time>
      </trkpt>
      <trkpt lat="43.34845" lon="-1.85442">
        <ele>444</ele>
        <time>2026-03-09T17:51:49.000Z</time>
      </trkpt>
      <trkpt lat="43.34834" lon="-1.85466">
        <ele>444</ele>
        <time>2026-03-09T17:51:53.000Z</time>
      </trkpt>
      <trkpt lat="43.34802" lon="-1.85535">
        <ele>446</ele>
        <time>2026-03-09T17:52:03.000Z</time>
      </trkpt>
      <trkpt lat="43.34768" lon="-1.85609">
        <ele>447</ele>
        <time>2026-03-09T17:52:14.000Z</time>
      </trkpt>
      <trkpt lat="43.34754" lon="-1.85638">
        <ele>449</ele>
        <time>2026-03-09T17:52:19.000Z</time>
      </trkpt>
      <trkpt lat="43.34746" lon="-1.85657">
        <ele>450</ele>
        <time>2026-03-09T17:52:22.000Z</time>
      </trkpt>
      <trkpt lat="43.3474" lon="-1.85677">
        <ele>452</ele>
        <time>2026-03-09T17:52:25.000Z</time>
      </trkpt>
      <trkpt lat="43.34729" lon="-1.85722">
        <ele>455</ele>
        <time>2026-03-09T17:52:31.000Z</time>
      </trkpt>
      <trkpt lat="43.34726" lon="-1.85737">
        <ele>456</ele>
        <time>2026-03-09T17:52:33.000Z</time>
      </trkpt>
      <trkpt lat="43.34725" lon="-1.85741">
        <ele>456</ele>
        <time>2026-03-09T17:52:33.000Z</time>
      </trkpt>
      <trkpt lat="43.34724" lon="-1.85745">
        <ele>456</ele>
        <time>2026-03-09T17:52:34.000Z</time>
      </trkpt>
      <trkpt lat="43.34723" lon="-1.85749">
        <ele>456</ele>
        <time>2026-03-09T17:52:34.000Z</time>
      </trkpt>
      <trkpt lat="43.34723" lon="-1.85753">
        <ele>456</ele>
        <time>2026-03-09T17:52:35.000Z</time>
      </trkpt>
      <trkpt lat="43.34723" lon="-1.85757">
        <ele>456</ele>
        <time>2026-03-09T17:52:35.000Z</time>
      </trkpt>
      <trkpt lat="43.34723" lon="-1.8576">
        <ele>455</ele>
        <time>2026-03-09T17:52:36.000Z</time>
      </trkpt>
      <trkpt lat="43.34723" lon="-1.85763">
        <ele>455</ele>
        <time>2026-03-09T17:52:36.000Z</time>
      </trkpt>
      <trkpt lat="43.34724" lon="-1.85766">
        <ele>455</ele>
        <time>2026-03-09T17:52:37.000Z</time>
      </trkpt>
      <trkpt lat="43.34725" lon="-1.85769">
        <ele>454</ele>
        <time>2026-03-09T17:52:37.000Z</time>
      </trkpt>
      <trkpt lat="43.34726" lon="-1.85771">
        <ele>454</ele>
        <time>2026-03-09T17:52:37.000Z</time>
      </trkpt>
      <trkpt lat="43.34727" lon="-1.85774">
        <ele>453</ele>
        <time>2026-03-09T17:52:38.000Z</time>
      </trkpt>
      <trkpt lat="43.34728" lon="-1.85777">
        <ele>453</ele>
        <time>2026-03-09T17:52:38.000Z</time>
      </trkpt>
      <trkpt lat="43.34733" lon="-1.85784">
        <ele>451</ele>
        <time>2026-03-09T17:52:39.000Z</time>
      </trkpt>
      <trkpt lat="43.34738" lon="-1.8579">
        <ele>449</ele>
        <time>2026-03-09T17:52:41.000Z</time>
      </trkpt>
      <trkpt lat="43.3475" lon="-1.85804">
        <ele>446</ele>
        <time>2026-03-09T17:52:43.000Z</time>
      </trkpt>
      <trkpt lat="43.34753" lon="-1.85808">
        <ele>445</ele>
        <time>2026-03-09T17:52:44.000Z</time>
      </trkpt>
      <trkpt lat="43.3476" lon="-1.85817">
        <ele>443</ele>
        <time>2026-03-09T17:52:46.000Z</time>
      </trkpt>
      <trkpt lat="43.34766" lon="-1.85826">
        <ele>442</ele>
        <time>2026-03-09T17:52:47.000Z</time>
      </trkpt>
      <trkpt lat="43.34767" lon="-1.8583">
        <ele>442</ele>
        <time>2026-03-09T17:52:48.000Z</time>
      </trkpt>
      <trkpt lat="43.34768" lon="-1.85835">
        <ele>442</ele>
        <time>2026-03-09T17:52:49.000Z</time>
      </trkpt>
      <trkpt lat="43.34768" lon="-1.85839">
        <ele>441</ele>
        <time>2026-03-09T17:52:49.000Z</time>
      </trkpt>
      <trkpt lat="43.34768" lon="-1.85843">
        <ele>440</ele>
        <time>2026-03-09T17:52:50.000Z</time>
      </trkpt>
      <trkpt lat="43.34766" lon="-1.85848">
        <ele>440</ele>
        <time>2026-03-09T17:52:50.000Z</time>
      </trkpt>
      <trkpt lat="43.34765" lon="-1.85851">
        <ele>440</ele>
        <time>2026-03-09T17:52:51.000Z</time>
      </trkpt>
      <trkpt lat="43.34764" lon="-1.85852">
        <ele>440</ele>
        <time>2026-03-09T17:52:51.000Z</time>
      </trkpt>
      <trkpt lat="43.34762" lon="-1.85857">
        <ele>439</ele>
        <time>2026-03-09T17:52:52.000Z</time>
      </trkpt>
      <trkpt lat="43.34759" lon="-1.85859">
        <ele>439</ele>
        <time>2026-03-09T17:52:52.000Z</time>
      </trkpt>
      <trkpt lat="43.34757" lon="-1.85861">
        <ele>439</ele>
        <time>2026-03-09T17:52:53.000Z</time>
      </trkpt>
      <trkpt lat="43.34754" lon="-1.85862">
        <ele>439</ele>
        <time>2026-03-09T17:52:53.000Z</time>
      </trkpt>
      <trkpt lat="43.34747" lon="-1.85864">
        <ele>440</ele>
        <time>2026-03-09T17:52:55.000Z</time>
      </trkpt>
      <trkpt lat="43.34734" lon="-1.85865">
        <ele>443</ele>
        <time>2026-03-09T17:52:57.000Z</time>
      </trkpt>
      <trkpt lat="43.34729" lon="-1.85866">
        <ele>444</ele>
        <time>2026-03-09T17:52:58.000Z</time>
      </trkpt>
      <trkpt lat="43.34726" lon="-1.85867">
        <ele>444</ele>
        <time>2026-03-09T17:52:58.000Z</time>
      </trkpt>
      <trkpt lat="43.34722" lon="-1.85869">
        <ele>444</ele>
        <time>2026-03-09T17:52:59.000Z</time>
      </trkpt>
      <trkpt lat="43.34719" lon="-1.85871">
        <ele>445</ele>
        <time>2026-03-09T17:53:00.000Z</time>
      </trkpt>
      <trkpt lat="43.34713" lon="-1.85875">
        <ele>445</ele>
        <time>2026-03-09T17:53:01.000Z</time>
      </trkpt>
      <trkpt lat="43.34706" lon="-1.8588">
        <ele>446</ele>
        <time>2026-03-09T17:53:02.000Z</time>
      </trkpt>
      <trkpt lat="43.34698" lon="-1.85887">
        <ele>446</ele>
        <time>2026-03-09T17:53:04.000Z</time>
      </trkpt>
      <trkpt lat="43.3469" lon="-1.85895">
        <ele>446</ele>
        <time>2026-03-09T17:53:06.000Z</time>
      </trkpt>
      <trkpt lat="43.34684" lon="-1.85901">
        <ele>446</ele>
        <time>2026-03-09T17:53:07.000Z</time>
      </trkpt>
      <trkpt lat="43.34678" lon="-1.85908">
        <ele>446</ele>
        <time>2026-03-09T17:53:09.000Z</time>
      </trkpt>
      <trkpt lat="43.34661" lon="-1.8593">
        <ele>445</ele>
        <time>2026-03-09T17:53:13.000Z</time>
      </trkpt>
      <trkpt lat="43.3465" lon="-1.85945">
        <ele>445</ele>
        <time>2026-03-09T17:53:16.000Z</time>
      </trkpt>
      <trkpt lat="43.34638" lon="-1.85963">
        <ele>445</ele>
        <time>2026-03-09T17:53:19.000Z</time>
      </trkpt>
      <trkpt lat="43.34631" lon="-1.85976">
        <ele>444</ele>
        <time>2026-03-09T17:53:21.000Z</time>
      </trkpt>
      <trkpt lat="43.34624" lon="-1.85989">
        <ele>444</ele>
        <time>2026-03-09T17:53:23.000Z</time>
      </trkpt>
      <trkpt lat="43.34596" lon="-1.86039">
        <ele>442</ele>
        <time>2026-03-09T17:53:31.000Z</time>
      </trkpt>
      <trkpt lat="43.34583" lon="-1.86069">
        <ele>440</ele>
        <time>2026-03-09T17:53:36.000Z</time>
      </trkpt>
      <trkpt lat="43.34565" lon="-1.86111">
        <ele>435</ele>
        <time>2026-03-09T17:53:42.000Z</time>
      </trkpt>
      <trkpt lat="43.34536" lon="-1.8618">
        <ele>428</ele>
        <time>2026-03-09T17:53:52.000Z</time>
      </trkpt>
      <trkpt lat="43.34525" lon="-1.86207">
        <ele>427</ele>
        <time>2026-03-09T17:53:56.000Z</time>
      </trkpt>
      <trkpt lat="43.34524" lon="-1.86211">
        <ele>426</ele>
        <time>2026-03-09T17:53:57.000Z</time>
      </trkpt>
      <trkpt lat="43.34522" lon="-1.86214">
        <ele>426</ele>
        <time>2026-03-09T17:53:57.000Z</time>
      </trkpt>
      <trkpt lat="43.3452" lon="-1.86218">
        <ele>426</ele>
        <time>2026-03-09T17:53:58.000Z</time>
      </trkpt>
      <trkpt lat="43.34517" lon="-1.8622">
        <ele>427</ele>
        <time>2026-03-09T17:53:58.000Z</time>
      </trkpt>
      <trkpt lat="43.34515" lon="-1.86221">
        <ele>427</ele>
        <time>2026-03-09T17:53:59.000Z</time>
      </trkpt>
      <trkpt lat="43.34512" lon="-1.86222">
        <ele>428</ele>
        <time>2026-03-09T17:53:59.000Z</time>
      </trkpt>
      <trkpt lat="43.3451" lon="-1.86222">
        <ele>429</ele>
        <time>2026-03-09T17:54:00.000Z</time>
      </trkpt>
      <trkpt lat="43.34507" lon="-1.86221">
        <ele>430</ele>
        <time>2026-03-09T17:54:00.000Z</time>
      </trkpt>
      <trkpt lat="43.34502" lon="-1.86218">
        <ele>432</ele>
        <time>2026-03-09T17:54:01.000Z</time>
      </trkpt>
      <trkpt lat="43.34493" lon="-1.86214">
        <ele>435</ele>
        <time>2026-03-09T17:54:03.000Z</time>
      </trkpt>
      <trkpt lat="43.3449" lon="-1.86213">
        <ele>435</ele>
        <time>2026-03-09T17:54:03.000Z</time>
      </trkpt>
      <trkpt lat="43.34488" lon="-1.86213">
        <ele>436</ele>
        <time>2026-03-09T17:54:04.000Z</time>
      </trkpt>
      <trkpt lat="43.34484" lon="-1.86213">
        <ele>436</ele>
        <time>2026-03-09T17:54:05.000Z</time>
      </trkpt>
      <trkpt lat="43.34481" lon="-1.86214">
        <ele>437</ele>
        <time>2026-03-09T17:54:05.000Z</time>
      </trkpt>
      <trkpt lat="43.34478" lon="-1.86215">
        <ele>437</ele>
        <time>2026-03-09T17:54:06.000Z</time>
      </trkpt>
      <trkpt lat="43.34475" lon="-1.86217">
        <ele>437</ele>
        <time>2026-03-09T17:54:06.000Z</time>
      </trkpt>
      <trkpt lat="43.34473" lon="-1.86219">
        <ele>437</ele>
        <time>2026-03-09T17:54:07.000Z</time>
      </trkpt>
      <trkpt lat="43.34471" lon="-1.86221">
        <ele>437</ele>
        <time>2026-03-09T17:54:07.000Z</time>
      </trkpt>
      <trkpt lat="43.34469" lon="-1.86224">
        <ele>437</ele>
        <time>2026-03-09T17:54:08.000Z</time>
      </trkpt>
      <trkpt lat="43.34467" lon="-1.86226">
        <ele>437</ele>
        <time>2026-03-09T17:54:08.000Z</time>
      </trkpt>
      <trkpt lat="43.34465" lon="-1.8623">
        <ele>437</ele>
        <time>2026-03-09T17:54:09.000Z</time>
      </trkpt>
      <trkpt lat="43.34463" lon="-1.86237">
        <ele>436</ele>
        <time>2026-03-09T17:54:10.000Z</time>
      </trkpt>
      <trkpt lat="43.34462" lon="-1.86245">
        <ele>435</ele>
        <time>2026-03-09T17:54:11.000Z</time>
      </trkpt>
      <trkpt lat="43.3446" lon="-1.86267">
        <ele>433</ele>
        <time>2026-03-09T17:54:14.000Z</time>
      </trkpt>
      <trkpt lat="43.3446" lon="-1.86283">
        <ele>431</ele>
        <time>2026-03-09T17:54:16.000Z</time>
      </trkpt>
      <trkpt lat="43.34459" lon="-1.86293">
        <ele>430</ele>
        <time>2026-03-09T17:54:17.000Z</time>
      </trkpt>
      <trkpt lat="43.34458" lon="-1.86302">
        <ele>429</ele>
        <time>2026-03-09T17:54:18.000Z</time>
      </trkpt>
      <trkpt lat="43.34456" lon="-1.86311">
        <ele>429</ele>
        <time>2026-03-09T17:54:19.000Z</time>
      </trkpt>
      <trkpt lat="43.34449" lon="-1.86333">
        <ele>427</ele>
        <time>2026-03-09T17:54:23.000Z</time>
      </trkpt>
      <trkpt lat="43.34442" lon="-1.86348">
        <ele>425</ele>
        <time>2026-03-09T17:54:25.000Z</time>
      </trkpt>
      <trkpt lat="43.34436" lon="-1.86362">
        <ele>424</ele>
        <time>2026-03-09T17:54:27.000Z</time>
      </trkpt>
      <trkpt lat="43.34432" lon="-1.86371">
        <ele>423</ele>
        <time>2026-03-09T17:54:28.000Z</time>
      </trkpt>
      <trkpt lat="43.3443" lon="-1.86374">
        <ele>422</ele>
        <time>2026-03-09T17:54:29.000Z</time>
      </trkpt>
      <trkpt lat="43.34427" lon="-1.86377">
        <ele>422</ele>
        <time>2026-03-09T17:54:29.000Z</time>
      </trkpt>
      <trkpt lat="43.34422" lon="-1.86382">
        <ele>422</ele>
        <time>2026-03-09T17:54:31.000Z</time>
      </trkpt>
      <trkpt lat="43.34418" lon="-1.86386">
        <ele>421</ele>
        <time>2026-03-09T17:54:31.000Z</time>
      </trkpt>
      <trkpt lat="43.34415" lon="-1.86387">
        <ele>421</ele>
        <time>2026-03-09T17:54:32.000Z</time>
      </trkpt>
      <trkpt lat="43.34412" lon="-1.86388">
        <ele>421</ele>
        <time>2026-03-09T17:54:33.000Z</time>
      </trkpt>
      <trkpt lat="43.34408" lon="-1.86389">
        <ele>422</ele>
        <time>2026-03-09T17:54:33.000Z</time>
      </trkpt>
      <trkpt lat="43.34405" lon="-1.86389">
        <ele>422</ele>
        <time>2026-03-09T17:54:34.000Z</time>
      </trkpt>
      <trkpt lat="43.344" lon="-1.86388">
        <ele>423</ele>
        <time>2026-03-09T17:54:35.000Z</time>
      </trkpt>
      <trkpt lat="43.34392" lon="-1.86386">
        <ele>424</ele>
        <time>2026-03-09T17:54:36.000Z</time>
      </trkpt>
      <trkpt lat="43.34387" lon="-1.86385">
        <ele>425</ele>
        <time>2026-03-09T17:54:37.000Z</time>
      </trkpt>
      <trkpt lat="43.34383" lon="-1.86384">
        <ele>425</ele>
        <time>2026-03-09T17:54:38.000Z</time>
      </trkpt>
      <trkpt lat="43.34379" lon="-1.86384">
        <ele>426</ele>
        <time>2026-03-09T17:54:38.000Z</time>
      </trkpt>
      <trkpt lat="43.34376" lon="-1.86384">
        <ele>426</ele>
        <time>2026-03-09T17:54:39.000Z</time>
      </trkpt>
      <trkpt lat="43.34371" lon="-1.86385">
        <ele>426</ele>
        <time>2026-03-09T17:54:40.000Z</time>
      </trkpt>
      <trkpt lat="43.34366" lon="-1.86387">
        <ele>427</ele>
        <time>2026-03-09T17:54:41.000Z</time>
      </trkpt>
      <trkpt lat="43.34358" lon="-1.86393">
        <ele>426</ele>
        <time>2026-03-09T17:54:42.000Z</time>
      </trkpt>
      <trkpt lat="43.34345" lon="-1.86404">
        <ele>425</ele>
        <time>2026-03-09T17:54:45.000Z</time>
      </trkpt>
      <trkpt lat="43.34329" lon="-1.86418">
        <ele>424</ele>
        <time>2026-03-09T17:54:49.000Z</time>
      </trkpt>
      <trkpt lat="43.34321" lon="-1.86424">
        <ele>423</ele>
        <time>2026-03-09T17:54:50.000Z</time>
      </trkpt>
      <trkpt lat="43.34313" lon="-1.8643">
        <ele>422</ele>
        <time>2026-03-09T17:54:52.000Z</time>
      </trkpt>
      <trkpt lat="43.34306" lon="-1.86435">
        <ele>421</ele>
        <time>2026-03-09T17:54:53.000Z</time>
      </trkpt>
      <trkpt lat="43.34294" lon="-1.8644">
        <ele>421</ele>
        <time>2026-03-09T17:54:55.000Z</time>
      </trkpt>
      <trkpt lat="43.34283" lon="-1.86445">
        <ele>421</ele>
        <time>2026-03-09T17:54:57.000Z</time>
      </trkpt>
      <trkpt lat="43.34272" lon="-1.86451">
        <ele>420</ele>
        <time>2026-03-09T17:55:00.000Z</time>
      </trkpt>
      <trkpt lat="43.34265" lon="-1.86455">
        <ele>420</ele>
        <time>2026-03-09T17:55:01.000Z</time>
      </trkpt>
      <trkpt lat="43.34259" lon="-1.8646">
        <ele>420</ele>
        <time>2026-03-09T17:55:02.000Z</time>
      </trkpt>
      <trkpt lat="43.34255" lon="-1.86464">
        <ele>419</ele>
        <time>2026-03-09T17:55:03.000Z</time>
      </trkpt>
      <trkpt lat="43.34246" lon="-1.86474">
        <ele>418</ele>
        <time>2026-03-09T17:55:05.000Z</time>
      </trkpt>
      <trkpt lat="43.34238" lon="-1.86485">
        <ele>418</ele>
        <time>2026-03-09T17:55:07.000Z</time>
      </trkpt>
      <trkpt lat="43.34233" lon="-1.86493">
        <ele>417</ele>
        <time>2026-03-09T17:55:09.000Z</time>
      </trkpt>
      <trkpt lat="43.34229" lon="-1.865">
        <ele>417</ele>
        <time>2026-03-09T17:55:10.000Z</time>
      </trkpt>
      <trkpt lat="43.34226" lon="-1.86507">
        <ele>416</ele>
        <time>2026-03-09T17:55:11.000Z</time>
      </trkpt>
      <trkpt lat="43.34215" lon="-1.86532">
        <ele>413</ele>
        <time>2026-03-09T17:55:14.000Z</time>
      </trkpt>
      <trkpt lat="43.34207" lon="-1.86549">
        <ele>411</ele>
        <time>2026-03-09T17:55:17.000Z</time>
      </trkpt>
      <trkpt lat="43.34202" lon="-1.86562">
        <ele>410</ele>
        <time>2026-03-09T17:55:19.000Z</time>
      </trkpt>
      <trkpt lat="43.34197" lon="-1.86574">
        <ele>409</ele>
        <time>2026-03-09T17:55:21.000Z</time>
      </trkpt>
      <trkpt lat="43.34192" lon="-1.86582">
        <ele>408</ele>
        <time>2026-03-09T17:55:22.000Z</time>
      </trkpt>
      <trkpt lat="43.34188" lon="-1.86589">
        <ele>408</ele>
        <time>2026-03-09T17:55:23.000Z</time>
      </trkpt>
      <trkpt lat="43.34183" lon="-1.86595">
        <ele>408</ele>
        <time>2026-03-09T17:55:25.000Z</time>
      </trkpt>
      <trkpt lat="43.34177" lon="-1.86602">
        <ele>409</ele>
        <time>2026-03-09T17:55:26.000Z</time>
      </trkpt>
      <trkpt lat="43.34166" lon="-1.86614">
        <ele>410</ele>
        <time>2026-03-09T17:55:28.000Z</time>
      </trkpt>
      <trkpt lat="43.34161" lon="-1.8662">
        <ele>410</ele>
        <time>2026-03-09T17:55:30.000Z</time>
      </trkpt>
      <trkpt lat="43.34157" lon="-1.86626">
        <ele>410</ele>
        <time>2026-03-09T17:55:31.000Z</time>
      </trkpt>
      <trkpt lat="43.34153" lon="-1.86632">
        <ele>410</ele>
        <time>2026-03-09T17:55:32.000Z</time>
      </trkpt>
      <trkpt lat="43.34147" lon="-1.86643">
        <ele>409</ele>
        <time>2026-03-09T17:55:33.000Z</time>
      </trkpt>
      <trkpt lat="43.34139" lon="-1.8666">
        <ele>408</ele>
        <time>2026-03-09T17:55:36.000Z</time>
      </trkpt>
      <trkpt lat="43.34122" lon="-1.86698">
        <ele>405</ele>
        <time>2026-03-09T17:55:42.000Z</time>
      </trkpt>
      <trkpt lat="43.34117" lon="-1.86709">
        <ele>404</ele>
        <time>2026-03-09T17:55:44.000Z</time>
      </trkpt>
      <trkpt lat="43.3411" lon="-1.86725">
        <ele>402</ele>
        <time>2026-03-09T17:55:46.000Z</time>
      </trkpt>
      <trkpt lat="43.3409" lon="-1.86765">
        <ele>401</ele>
        <time>2026-03-09T17:55:52.000Z</time>
      </trkpt>
      <trkpt lat="43.34083" lon="-1.8678">
        <ele>401</ele>
        <time>2026-03-09T17:55:55.000Z</time>
      </trkpt>
      <trkpt lat="43.34078" lon="-1.86791">
        <ele>400</ele>
        <time>2026-03-09T17:55:56.000Z</time>
      </trkpt>
      <trkpt lat="43.34076" lon="-1.86795">
        <ele>400</ele>
        <time>2026-03-09T17:55:57.000Z</time>
      </trkpt>
      <trkpt lat="43.34075" lon="-1.86799">
        <ele>400</ele>
        <time>2026-03-09T17:55:57.000Z</time>
      </trkpt>
      <trkpt lat="43.34073" lon="-1.86805">
        <ele>400</ele>
        <time>2026-03-09T17:55:58.000Z</time>
      </trkpt>
      <trkpt lat="43.3407" lon="-1.86817">
        <ele>399</ele>
        <time>2026-03-09T17:56:00.000Z</time>
      </trkpt>
      <trkpt lat="43.34058" lon="-1.86862">
        <ele>395</ele>
        <time>2026-03-09T17:56:06.000Z</time>
      </trkpt>
      <trkpt lat="43.34054" lon="-1.86877">
        <ele>394</ele>
        <time>2026-03-09T17:56:08.000Z</time>
      </trkpt>
      <trkpt lat="43.34052" lon="-1.86883">
        <ele>394</ele>
        <time>2026-03-09T17:56:09.000Z</time>
      </trkpt>
      <trkpt lat="43.34046" lon="-1.86904">
        <ele>394</ele>
        <time>2026-03-09T17:56:12.000Z</time>
      </trkpt>
      <trkpt lat="43.34045" lon="-1.8691">
        <ele>393</ele>
        <time>2026-03-09T17:56:13.000Z</time>
      </trkpt>
      <trkpt lat="43.34044" lon="-1.86914">
        <ele>393</ele>
        <time>2026-03-09T17:56:13.000Z</time>
      </trkpt>
      <trkpt lat="43.34043" lon="-1.8692">
        <ele>393</ele>
        <time>2026-03-09T17:56:14.000Z</time>
      </trkpt>
      <trkpt lat="43.34042" lon="-1.86925">
        <ele>392</ele>
        <time>2026-03-09T17:56:15.000Z</time>
      </trkpt>
      <trkpt lat="43.34042" lon="-1.8693">
        <ele>392</ele>
        <time>2026-03-09T17:56:15.000Z</time>
      </trkpt>
      <trkpt lat="43.34042" lon="-1.86937">
        <ele>391</ele>
        <time>2026-03-09T17:56:16.000Z</time>
      </trkpt>
      <trkpt lat="43.34043" lon="-1.86943">
        <ele>389</ele>
        <time>2026-03-09T17:56:17.000Z</time>
      </trkpt>
      <trkpt lat="43.34043" lon="-1.86947">
        <ele>389</ele>
        <time>2026-03-09T17:56:18.000Z</time>
      </trkpt>
      <trkpt lat="43.34044" lon="-1.86951">
        <ele>388</ele>
        <time>2026-03-09T17:56:18.000Z</time>
      </trkpt>
      <trkpt lat="43.34044" lon="-1.86956">
        <ele>387</ele>
        <time>2026-03-09T17:56:19.000Z</time>
      </trkpt>
      <trkpt lat="43.34044" lon="-1.86959">
        <ele>387</ele>
        <time>2026-03-09T17:56:19.000Z</time>
      </trkpt>
      <trkpt lat="43.34044" lon="-1.86962">
        <ele>387</ele>
        <time>2026-03-09T17:56:20.000Z</time>
      </trkpt>
      <trkpt lat="43.34044" lon="-1.86965">
        <ele>386</ele>
        <time>2026-03-09T17:56:20.000Z</time>
      </trkpt>
      <trkpt lat="43.34044" lon="-1.86967">
        <ele>386</ele>
        <time>2026-03-09T17:56:20.000Z</time>
      </trkpt>
      <trkpt lat="43.34043" lon="-1.86969">
        <ele>386</ele>
        <time>2026-03-09T17:56:21.000Z</time>
      </trkpt>
      <trkpt lat="43.34043" lon="-1.86971">
        <ele>386</ele>
        <time>2026-03-09T17:56:21.000Z</time>
      </trkpt>
      <trkpt lat="43.34042" lon="-1.86973">
        <ele>386</ele>
        <time>2026-03-09T17:56:21.000Z</time>
      </trkpt>
      <trkpt lat="43.3404" lon="-1.86978">
        <ele>386</ele>
        <time>2026-03-09T17:56:22.000Z</time>
      </trkpt>
      <trkpt lat="43.34039" lon="-1.86982">
        <ele>386</ele>
        <time>2026-03-09T17:56:22.000Z</time>
      </trkpt>
      <trkpt lat="43.34037" lon="-1.86986">
        <ele>386</ele>
        <time>2026-03-09T17:56:23.000Z</time>
      </trkpt>
      <trkpt lat="43.34031" lon="-1.86997">
        <ele>387</ele>
        <time>2026-03-09T17:56:25.000Z</time>
      </trkpt>
      <trkpt lat="43.34002" lon="-1.87047">
        <ele>388</ele>
        <time>2026-03-09T17:56:33.000Z</time>
      </trkpt>
      <trkpt lat="43.33986" lon="-1.87076">
        <ele>384</ele>
        <time>2026-03-09T17:56:38.000Z</time>
      </trkpt>
      <trkpt lat="43.33982" lon="-1.87084">
        <ele>383</ele>
        <time>2026-03-09T17:56:39.000Z</time>
      </trkpt>
      <trkpt lat="43.33976" lon="-1.87093">
        <ele>383</ele>
        <time>2026-03-09T17:56:41.000Z</time>
      </trkpt>
      <trkpt lat="43.33973" lon="-1.87097">
        <ele>382</ele>
        <time>2026-03-09T17:56:41.000Z</time>
      </trkpt>
      <trkpt lat="43.3397" lon="-1.87101">
        <ele>382</ele>
        <time>2026-03-09T17:56:42.000Z</time>
      </trkpt>
      <trkpt lat="43.33966" lon="-1.87107">
        <ele>382</ele>
        <time>2026-03-09T17:56:43.000Z</time>
      </trkpt>
      <trkpt lat="43.33963" lon="-1.87109">
        <ele>382</ele>
        <time>2026-03-09T17:56:44.000Z</time>
      </trkpt>
      <trkpt lat="43.33958" lon="-1.87114">
        <ele>382</ele>
        <time>2026-03-09T17:56:45.000Z</time>
      </trkpt>
      <trkpt lat="43.33951" lon="-1.87119">
        <ele>382</ele>
        <time>2026-03-09T17:56:46.000Z</time>
      </trkpt>
      <trkpt lat="43.33945" lon="-1.87122">
        <ele>382</ele>
        <time>2026-03-09T17:56:47.000Z</time>
      </trkpt>
      <trkpt lat="43.33936" lon="-1.87127">
        <ele>383</ele>
        <time>2026-03-09T17:56:49.000Z</time>
      </trkpt>
      <trkpt lat="43.33914" lon="-1.87138">
        <ele>384</ele>
        <time>2026-03-09T17:56:53.000Z</time>
      </trkpt>
      <trkpt lat="43.33881" lon="-1.87152">
        <ele>382</ele>
        <time>2026-03-09T17:56:59.000Z</time>
      </trkpt>
      <trkpt lat="43.33878" lon="-1.87153">
        <ele>382</ele>
        <time>2026-03-09T17:57:00.000Z</time>
      </trkpt>
      <trkpt lat="43.33873" lon="-1.87156">
        <ele>382</ele>
        <time>2026-03-09T17:57:01.000Z</time>
      </trkpt>
      <trkpt lat="43.33869" lon="-1.87159">
        <ele>382</ele>
        <time>2026-03-09T17:57:02.000Z</time>
      </trkpt>
      <trkpt lat="43.33867" lon="-1.87161">
        <ele>382</ele>
        <time>2026-03-09T17:57:02.000Z</time>
      </trkpt>
      <trkpt lat="43.33866" lon="-1.87163">
        <ele>381</ele>
        <time>2026-03-09T17:57:03.000Z</time>
      </trkpt>
      <trkpt lat="43.33865" lon="-1.87164">
        <ele>381</ele>
        <time>2026-03-09T17:57:03.000Z</time>
      </trkpt>
      <trkpt lat="43.33863" lon="-1.87165">
        <ele>381</ele>
        <time>2026-03-09T17:57:03.000Z</time>
      </trkpt>
      <trkpt lat="43.33862" lon="-1.87167">
        <ele>381</ele>
        <time>2026-03-09T17:57:03.000Z</time>
      </trkpt>
      <trkpt lat="43.33861" lon="-1.8717">
        <ele>381</ele>
        <time>2026-03-09T17:57:04.000Z</time>
      </trkpt>
      <trkpt lat="43.33859" lon="-1.87172">
        <ele>381</ele>
        <time>2026-03-09T17:57:04.000Z</time>
      </trkpt>
      <trkpt lat="43.33857" lon="-1.87176">
        <ele>381</ele>
        <time>2026-03-09T17:57:05.000Z</time>
      </trkpt>
      <trkpt lat="43.33856" lon="-1.87179">
        <ele>380</ele>
        <time>2026-03-09T17:57:05.000Z</time>
      </trkpt>
      <trkpt lat="43.33855" lon="-1.87182">
        <ele>380</ele>
        <time>2026-03-09T17:57:06.000Z</time>
      </trkpt>
      <trkpt lat="43.33851" lon="-1.87195">
        <ele>379</ele>
        <time>2026-03-09T17:57:08.000Z</time>
      </trkpt>
      <trkpt lat="43.33846" lon="-1.87214">
        <ele>378</ele>
        <time>2026-03-09T17:57:10.000Z</time>
      </trkpt>
      <trkpt lat="43.33838" lon="-1.87246">
        <ele>377</ele>
        <time>2026-03-09T17:57:15.000Z</time>
      </trkpt>
      <trkpt lat="43.33828" lon="-1.87282">
        <ele>374</ele>
        <time>2026-03-09T17:57:20.000Z</time>
      </trkpt>
      <trkpt lat="43.33813" lon="-1.87337">
        <ele>371</ele>
        <time>2026-03-09T17:57:27.000Z</time>
      </trkpt>
      <trkpt lat="43.33811" lon="-1.87342">
        <ele>370</ele>
        <time>2026-03-09T17:57:28.000Z</time>
      </trkpt>
      <trkpt lat="43.33809" lon="-1.87348">
        <ele>370</ele>
        <time>2026-03-09T17:57:29.000Z</time>
      </trkpt>
      <trkpt lat="43.33802" lon="-1.8737">
        <ele>368</ele>
        <time>2026-03-09T17:57:32.000Z</time>
      </trkpt>
      <trkpt lat="43.33778" lon="-1.87438">
        <ele>364</ele>
        <time>2026-03-09T17:57:42.000Z</time>
      </trkpt>
      <trkpt lat="43.33773" lon="-1.87452">
        <ele>364</ele>
        <time>2026-03-09T17:57:44.000Z</time>
      </trkpt>
      <trkpt lat="43.3377" lon="-1.87463">
        <ele>364</ele>
        <time>2026-03-09T17:57:45.000Z</time>
      </trkpt>
      <trkpt lat="43.33768" lon="-1.87473">
        <ele>363</ele>
        <time>2026-03-09T17:57:47.000Z</time>
      </trkpt>
      <trkpt lat="43.33766" lon="-1.87481">
        <ele>363</ele>
        <time>2026-03-09T17:57:48.000Z</time>
      </trkpt>
      <trkpt lat="43.33765" lon="-1.8749">
        <ele>362</ele>
        <time>2026-03-09T17:57:49.000Z</time>
      </trkpt>
      <trkpt lat="43.33759" lon="-1.87528">
        <ele>360</ele>
        <time>2026-03-09T17:57:54.000Z</time>
      </trkpt>
      <trkpt lat="43.33755" lon="-1.87552">
        <ele>359</ele>
        <time>2026-03-09T17:57:57.000Z</time>
      </trkpt>
      <trkpt lat="43.33754" lon="-1.87559">
        <ele>358</ele>
        <time>2026-03-09T17:57:58.000Z</time>
      </trkpt>
      <trkpt lat="43.33753" lon="-1.87567">
        <ele>358</ele>
        <time>2026-03-09T17:57:59.000Z</time>
      </trkpt>
      <trkpt lat="43.33753" lon="-1.87573">
        <ele>357</ele>
        <time>2026-03-09T17:58:00.000Z</time>
      </trkpt>
      <trkpt lat="43.33752" lon="-1.87579">
        <ele>357</ele>
        <time>2026-03-09T17:58:01.000Z</time>
      </trkpt>
      <trkpt lat="43.33752" lon="-1.87586">
        <ele>356</ele>
        <time>2026-03-09T17:58:02.000Z</time>
      </trkpt>
      <trkpt lat="43.33753" lon="-1.87593">
        <ele>355</ele>
        <time>2026-03-09T17:58:02.000Z</time>
      </trkpt>
      <trkpt lat="43.33754" lon="-1.87602">
        <ele>354</ele>
        <time>2026-03-09T17:58:04.000Z</time>
      </trkpt>
      <trkpt lat="43.33759" lon="-1.87633">
        <ele>349</ele>
        <time>2026-03-09T17:58:08.000Z</time>
      </trkpt>
      <trkpt lat="43.3376" lon="-1.87637">
        <ele>348</ele>
        <time>2026-03-09T17:58:08.000Z</time>
      </trkpt>
      <trkpt lat="43.3376" lon="-1.87641">
        <ele>348</ele>
        <time>2026-03-09T17:58:09.000Z</time>
      </trkpt>
      <trkpt lat="43.3376" lon="-1.87643">
        <ele>348</ele>
        <time>2026-03-09T17:58:09.000Z</time>
      </trkpt>
      <trkpt lat="43.3376" lon="-1.87649">
        <ele>347</ele>
        <time>2026-03-09T17:58:10.000Z</time>
      </trkpt>
      <trkpt lat="43.3376" lon="-1.8765">
        <ele>347</ele>
        <time>2026-03-09T17:58:10.000Z</time>
      </trkpt>
      <trkpt lat="43.33759" lon="-1.87656">
        <ele>347</ele>
        <time>2026-03-09T17:58:11.000Z</time>
      </trkpt>
      <trkpt lat="43.33759" lon="-1.87662">
        <ele>346</ele>
        <time>2026-03-09T17:58:12.000Z</time>
      </trkpt>
      <trkpt lat="43.33756" lon="-1.87684">
        <ele>344</ele>
        <time>2026-03-09T17:58:14.000Z</time>
      </trkpt>
      <trkpt lat="43.33752" lon="-1.87708">
        <ele>342</ele>
        <time>2026-03-09T17:58:18.000Z</time>
      </trkpt>
      <trkpt lat="43.33749" lon="-1.8773">
        <ele>341</ele>
        <time>2026-03-09T17:58:20.000Z</time>
      </trkpt>
      <trkpt lat="43.33747" lon="-1.87749">
        <ele>339</ele>
        <time>2026-03-09T17:58:23.000Z</time>
      </trkpt>
      <trkpt lat="43.33746" lon="-1.87755">
        <ele>338</ele>
        <time>2026-03-09T17:58:24.000Z</time>
      </trkpt>
      <trkpt lat="43.33745" lon="-1.87758">
        <ele>338</ele>
        <time>2026-03-09T17:58:24.000Z</time>
      </trkpt>
      <trkpt lat="43.33744" lon="-1.87761">
        <ele>338</ele>
        <time>2026-03-09T17:58:25.000Z</time>
      </trkpt>
      <trkpt lat="43.33743" lon="-1.87764">
        <ele>337</ele>
        <time>2026-03-09T17:58:25.000Z</time>
      </trkpt>
      <trkpt lat="43.33737" lon="-1.87779">
        <ele>336</ele>
        <time>2026-03-09T17:58:27.000Z</time>
      </trkpt>
      <trkpt lat="43.33723" lon="-1.8781">
        <ele>335</ele>
        <time>2026-03-09T17:58:32.000Z</time>
      </trkpt>
      <trkpt lat="43.33717" lon="-1.87823">
        <ele>335</ele>
        <time>2026-03-09T17:58:34.000Z</time>
      </trkpt>
      <trkpt lat="43.33706" lon="-1.87847">
        <ele>333</ele>
        <time>2026-03-09T17:58:38.000Z</time>
      </trkpt>
      <trkpt lat="43.33702" lon="-1.87857">
        <ele>332</ele>
        <time>2026-03-09T17:58:39.000Z</time>
      </trkpt>
      <trkpt lat="43.33699" lon="-1.87862">
        <ele>331</ele>
        <time>2026-03-09T17:58:40.000Z</time>
      </trkpt>
      <trkpt lat="43.33698" lon="-1.87864">
        <ele>331</ele>
        <time>2026-03-09T17:58:40.000Z</time>
      </trkpt>
      <trkpt lat="43.33697" lon="-1.87865">
        <ele>331</ele>
        <time>2026-03-09T17:58:41.000Z</time>
      </trkpt>
      <trkpt lat="43.33695" lon="-1.87868">
        <ele>331</ele>
        <time>2026-03-09T17:58:41.000Z</time>
      </trkpt>
      <trkpt lat="43.33693" lon="-1.8787">
        <ele>331</ele>
        <time>2026-03-09T17:58:41.000Z</time>
      </trkpt>
      <trkpt lat="43.33689" lon="-1.87873">
        <ele>331</ele>
        <time>2026-03-09T17:58:42.000Z</time>
      </trkpt>
      <trkpt lat="43.33687" lon="-1.87874">
        <ele>331</ele>
        <time>2026-03-09T17:58:43.000Z</time>
      </trkpt>
      <trkpt lat="43.33685" lon="-1.87875">
        <ele>331</ele>
        <time>2026-03-09T17:58:43.000Z</time>
      </trkpt>
      <trkpt lat="43.33684" lon="-1.87875">
        <ele>331</ele>
        <time>2026-03-09T17:58:43.000Z</time>
      </trkpt>
      <trkpt lat="43.33682" lon="-1.87876">
        <ele>331</ele>
        <time>2026-03-09T17:58:44.000Z</time>
      </trkpt>
      <trkpt lat="43.3368" lon="-1.87876">
        <ele>331</ele>
        <time>2026-03-09T17:58:44.000Z</time>
      </trkpt>
      <trkpt lat="43.33678" lon="-1.87877">
        <ele>331</ele>
        <time>2026-03-09T17:58:44.000Z</time>
      </trkpt>
      <trkpt lat="43.33675" lon="-1.87877">
        <ele>332</ele>
        <time>2026-03-09T17:58:45.000Z</time>
      </trkpt>
      <trkpt lat="43.33668" lon="-1.87879">
        <ele>332</ele>
        <time>2026-03-09T17:58:46.000Z</time>
      </trkpt>
      <trkpt lat="43.33661" lon="-1.87879">
        <ele>333</ele>
        <time>2026-03-09T17:58:47.000Z</time>
      </trkpt>
      <trkpt lat="43.33657" lon="-1.8788">
        <ele>333</ele>
        <time>2026-03-09T17:58:48.000Z</time>
      </trkpt>
      <trkpt lat="43.33654" lon="-1.87881">
        <ele>333</ele>
        <time>2026-03-09T17:58:49.000Z</time>
      </trkpt>
      <trkpt lat="43.33653" lon="-1.87882">
        <ele>333</ele>
        <time>2026-03-09T17:58:49.000Z</time>
      </trkpt>
      <trkpt lat="43.33651" lon="-1.87883">
        <ele>333</ele>
        <time>2026-03-09T17:58:49.000Z</time>
      </trkpt>
      <trkpt lat="43.33649" lon="-1.87884">
        <ele>333</ele>
        <time>2026-03-09T17:58:50.000Z</time>
      </trkpt>
      <trkpt lat="43.33647" lon="-1.87885">
        <ele>333</ele>
        <time>2026-03-09T17:58:50.000Z</time>
      </trkpt>
      <trkpt lat="43.33646" lon="-1.87887">
        <ele>333</ele>
        <time>2026-03-09T17:58:50.000Z</time>
      </trkpt>
      <trkpt lat="43.33644" lon="-1.87888">
        <ele>333</ele>
        <time>2026-03-09T17:58:51.000Z</time>
      </trkpt>
      <trkpt lat="43.33642" lon="-1.87891">
        <ele>333</ele>
        <time>2026-03-09T17:58:51.000Z</time>
      </trkpt>
      <trkpt lat="43.3364" lon="-1.87893">
        <ele>333</ele>
        <time>2026-03-09T17:58:52.000Z</time>
      </trkpt>
      <trkpt lat="43.33639" lon="-1.87896">
        <ele>332</ele>
        <time>2026-03-09T17:58:52.000Z</time>
      </trkpt>
      <trkpt lat="43.33636" lon="-1.87902">
        <ele>332</ele>
        <time>2026-03-09T17:58:53.000Z</time>
      </trkpt>
      <trkpt lat="43.33632" lon="-1.87912">
        <ele>331</ele>
        <time>2026-03-09T17:58:55.000Z</time>
      </trkpt>
      <trkpt lat="43.33622" lon="-1.87938">
        <ele>329</ele>
        <time>2026-03-09T17:58:58.000Z</time>
      </trkpt>
      <trkpt lat="43.33609" lon="-1.87972">
        <ele>329</ele>
        <time>2026-03-09T17:59:03.000Z</time>
      </trkpt>
      <trkpt lat="43.33606" lon="-1.8798">
        <ele>328</ele>
        <time>2026-03-09T17:59:04.000Z</time>
      </trkpt>
      <trkpt lat="43.33604" lon="-1.87991">
        <ele>328</ele>
        <time>2026-03-09T17:59:06.000Z</time>
      </trkpt>
      <trkpt lat="43.33603" lon="-1.87998">
        <ele>328</ele>
        <time>2026-03-09T17:59:07.000Z</time>
      </trkpt>
      <trkpt lat="43.33602" lon="-1.88006">
        <ele>327</ele>
        <time>2026-03-09T17:59:08.000Z</time>
      </trkpt>
      <trkpt lat="43.33602" lon="-1.88019">
        <ele>326</ele>
        <time>2026-03-09T17:59:10.000Z</time>
      </trkpt>
      <trkpt lat="43.336" lon="-1.88071">
        <ele>322</ele>
        <time>2026-03-09T17:59:16.000Z</time>
      </trkpt>
      <trkpt lat="43.33599" lon="-1.8815">
        <ele>315</ele>
        <time>2026-03-09T17:59:27.000Z</time>
      </trkpt>
      <trkpt lat="43.33599" lon="-1.88164">
        <ele>314</ele>
        <time>2026-03-09T17:59:28.000Z</time>
      </trkpt>
      <trkpt lat="43.33598" lon="-1.88177">
        <ele>313</ele>
        <time>2026-03-09T17:59:30.000Z</time>
      </trkpt>
      <trkpt lat="43.33597" lon="-1.88183">
        <ele>313</ele>
        <time>2026-03-09T17:59:31.000Z</time>
      </trkpt>
      <trkpt lat="43.33596" lon="-1.88188">
        <ele>313</ele>
        <time>2026-03-09T17:59:32.000Z</time>
      </trkpt>
      <trkpt lat="43.33595" lon="-1.88195">
        <ele>313</ele>
        <time>2026-03-09T17:59:32.000Z</time>
      </trkpt>
      <trkpt lat="43.33593" lon="-1.88203">
        <ele>314</ele>
        <time>2026-03-09T17:59:34.000Z</time>
      </trkpt>
      <trkpt lat="43.3359" lon="-1.88212">
        <ele>314</ele>
        <time>2026-03-09T17:59:35.000Z</time>
      </trkpt>
      <trkpt lat="43.33584" lon="-1.88229">
        <ele>314</ele>
        <time>2026-03-09T17:59:37.000Z</time>
      </trkpt>
      <trkpt lat="43.33552" lon="-1.88318">
        <ele>308</ele>
        <time>2026-03-09T17:59:50.000Z</time>
      </trkpt>
      <trkpt lat="43.33505" lon="-1.88445">
        <ele>302</ele>
        <time>2026-03-09T18:00:09.000Z</time>
      </trkpt>
      <trkpt lat="43.33504" lon="-1.8845">
        <ele>302</ele>
        <time>2026-03-09T18:00:09.000Z</time>
      </trkpt>
      <trkpt lat="43.33503" lon="-1.88457">
        <ele>302</ele>
        <time>2026-03-09T18:00:10.000Z</time>
      </trkpt>
      <trkpt lat="43.33502" lon="-1.88462">
        <ele>302</ele>
        <time>2026-03-09T18:00:11.000Z</time>
      </trkpt>
      <trkpt lat="43.33502" lon="-1.88467">
        <ele>302</ele>
        <time>2026-03-09T18:00:11.000Z</time>
      </trkpt>
      <trkpt lat="43.33503" lon="-1.88471">
        <ele>302</ele>
        <time>2026-03-09T18:00:12.000Z</time>
      </trkpt>
      <trkpt lat="43.33504" lon="-1.88476">
        <ele>301</ele>
        <time>2026-03-09T18:00:13.000Z</time>
      </trkpt>
      <trkpt lat="43.33507" lon="-1.88482">
        <ele>301</ele>
        <time>2026-03-09T18:00:14.000Z</time>
      </trkpt>
      <trkpt lat="43.33509" lon="-1.88486">
        <ele>300</ele>
        <time>2026-03-09T18:00:14.000Z</time>
      </trkpt>
      <trkpt lat="43.3351" lon="-1.88487">
        <ele>300</ele>
        <time>2026-03-09T18:00:14.000Z</time>
      </trkpt>
      <trkpt lat="43.33515" lon="-1.88494">
        <ele>299</ele>
        <time>2026-03-09T18:00:16.000Z</time>
      </trkpt>
      <trkpt lat="43.33518" lon="-1.88496">
        <ele>299</ele>
        <time>2026-03-09T18:00:16.000Z</time>
      </trkpt>
      <trkpt lat="43.33521" lon="-1.88498">
        <ele>298</ele>
        <time>2026-03-09T18:00:17.000Z</time>
      </trkpt>
      <trkpt lat="43.33524" lon="-1.88499">
        <ele>298</ele>
        <time>2026-03-09T18:00:17.000Z</time>
      </trkpt>
      <trkpt lat="43.33527" lon="-1.88499">
        <ele>297</ele>
        <time>2026-03-09T18:00:18.000Z</time>
      </trkpt>
      <trkpt lat="43.3353" lon="-1.88499">
        <ele>297</ele>
        <time>2026-03-09T18:00:19.000Z</time>
      </trkpt>
      <trkpt lat="43.33533" lon="-1.88499">
        <ele>296</ele>
        <time>2026-03-09T18:00:19.000Z</time>
      </trkpt>
      <trkpt lat="43.33541" lon="-1.88497">
        <ele>295</ele>
        <time>2026-03-09T18:00:21.000Z</time>
      </trkpt>
      <trkpt lat="43.33549" lon="-1.88495">
        <ele>294</ele>
        <time>2026-03-09T18:00:22.000Z</time>
      </trkpt>
      <trkpt lat="43.33556" lon="-1.88492">
        <ele>293</ele>
        <time>2026-03-09T18:00:23.000Z</time>
      </trkpt>
      <trkpt lat="43.33561" lon="-1.88492">
        <ele>292</ele>
        <time>2026-03-09T18:00:24.000Z</time>
      </trkpt>
      <trkpt lat="43.33565" lon="-1.88491">
        <ele>292</ele>
        <time>2026-03-09T18:00:25.000Z</time>
      </trkpt>
      <trkpt lat="43.3357" lon="-1.88492">
        <ele>291</ele>
        <time>2026-03-09T18:00:26.000Z</time>
      </trkpt>
      <trkpt lat="43.33576" lon="-1.88493">
        <ele>290</ele>
        <time>2026-03-09T18:00:27.000Z</time>
      </trkpt>
      <trkpt lat="43.33581" lon="-1.88495">
        <ele>289</ele>
        <time>2026-03-09T18:00:28.000Z</time>
      </trkpt>
      <trkpt lat="43.33584" lon="-1.88497">
        <ele>289</ele>
        <time>2026-03-09T18:00:28.000Z</time>
      </trkpt>
      <trkpt lat="43.33587" lon="-1.885">
        <ele>288</ele>
        <time>2026-03-09T18:00:29.000Z</time>
      </trkpt>
      <trkpt lat="43.33591" lon="-1.88503">
        <ele>287</ele>
        <time>2026-03-09T18:00:30.000Z</time>
      </trkpt>
      <trkpt lat="43.33593" lon="-1.88506">
        <ele>287</ele>
        <time>2026-03-09T18:00:30.000Z</time>
      </trkpt>
      <trkpt lat="43.33597" lon="-1.8851">
        <ele>286</ele>
        <time>2026-03-09T18:00:31.000Z</time>
      </trkpt>
      <trkpt lat="43.336" lon="-1.88517">
        <ele>285</ele>
        <time>2026-03-09T18:00:32.000Z</time>
      </trkpt>
      <trkpt lat="43.33603" lon="-1.88523">
        <ele>284</ele>
        <time>2026-03-09T18:00:33.000Z</time>
      </trkpt>
      <trkpt lat="43.33604" lon="-1.88527">
        <ele>284</ele>
        <time>2026-03-09T18:00:34.000Z</time>
      </trkpt>
      <trkpt lat="43.33605" lon="-1.88532">
        <ele>283</ele>
        <time>2026-03-09T18:00:34.000Z</time>
      </trkpt>
      <trkpt lat="43.33606" lon="-1.88538">
        <ele>283</ele>
        <time>2026-03-09T18:00:35.000Z</time>
      </trkpt>
      <trkpt lat="43.33607" lon="-1.88543">
        <ele>283</ele>
        <time>2026-03-09T18:00:36.000Z</time>
      </trkpt>
      <trkpt lat="43.33607" lon="-1.88548">
        <ele>283</ele>
        <time>2026-03-09T18:00:37.000Z</time>
      </trkpt>
      <trkpt lat="43.33607" lon="-1.88553">
        <ele>283</ele>
        <time>2026-03-09T18:00:37.000Z</time>
      </trkpt>
      <trkpt lat="43.33606" lon="-1.88559">
        <ele>283</ele>
        <time>2026-03-09T18:00:38.000Z</time>
      </trkpt>
      <trkpt lat="43.33606" lon="-1.88562">
        <ele>283</ele>
        <time>2026-03-09T18:00:38.000Z</time>
      </trkpt>
      <trkpt lat="43.33605" lon="-1.88566">
        <ele>283</ele>
        <time>2026-03-09T18:00:39.000Z</time>
      </trkpt>
      <trkpt lat="43.33603" lon="-1.88572">
        <ele>283</ele>
        <time>2026-03-09T18:00:40.000Z</time>
      </trkpt>
      <trkpt lat="43.336" lon="-1.88582">
        <ele>284</ele>
        <time>2026-03-09T18:00:41.000Z</time>
      </trkpt>
      <trkpt lat="43.33591" lon="-1.88606">
        <ele>283</ele>
        <time>2026-03-09T18:00:45.000Z</time>
      </trkpt>
      <trkpt lat="43.33583" lon="-1.88631">
        <ele>282</ele>
        <time>2026-03-09T18:00:48.000Z</time>
      </trkpt>
      <trkpt lat="43.33575" lon="-1.88653">
        <ele>281</ele>
        <time>2026-03-09T18:00:51.000Z</time>
      </trkpt>
      <trkpt lat="43.33573" lon="-1.8866">
        <ele>281</ele>
        <time>2026-03-09T18:00:52.000Z</time>
      </trkpt>
      <trkpt lat="43.33573" lon="-1.88662">
        <ele>281</ele>
        <time>2026-03-09T18:00:53.000Z</time>
      </trkpt>
      <trkpt lat="43.33572" lon="-1.88665">
        <ele>281</ele>
        <time>2026-03-09T18:00:53.000Z</time>
      </trkpt>
      <trkpt lat="43.33572" lon="-1.88668">
        <ele>281</ele>
        <time>2026-03-09T18:00:53.000Z</time>
      </trkpt>
      <trkpt lat="43.33571" lon="-1.88673">
        <ele>281</ele>
        <time>2026-03-09T18:00:54.000Z</time>
      </trkpt>
      <trkpt lat="43.33571" lon="-1.88678">
        <ele>280</ele>
        <time>2026-03-09T18:00:55.000Z</time>
      </trkpt>
      <trkpt lat="43.33571" lon="-1.88683">
        <ele>280</ele>
        <time>2026-03-09T18:00:55.000Z</time>
      </trkpt>
      <trkpt lat="43.33572" lon="-1.88689">
        <ele>279</ele>
        <time>2026-03-09T18:00:56.000Z</time>
      </trkpt>
      <trkpt lat="43.33572" lon="-1.88695">
        <ele>279</ele>
        <time>2026-03-09T18:00:57.000Z</time>
      </trkpt>
      <trkpt lat="43.33573" lon="-1.887">
        <ele>278</ele>
        <time>2026-03-09T18:00:58.000Z</time>
      </trkpt>
      <trkpt lat="43.33579" lon="-1.88732">
        <ele>274</ele>
        <time>2026-03-09T18:01:02.000Z</time>
      </trkpt>
      <trkpt lat="43.33586" lon="-1.8877">
        <ele>271</ele>
        <time>2026-03-09T18:01:07.000Z</time>
      </trkpt>
      <trkpt lat="43.33593" lon="-1.88811">
        <ele>270</ele>
        <time>2026-03-09T18:01:12.000Z</time>
      </trkpt>
      <trkpt lat="43.33596" lon="-1.88826">
        <ele>269</ele>
        <time>2026-03-09T18:01:15.000Z</time>
      </trkpt>
      <trkpt lat="43.33598" lon="-1.88841">
        <ele>268</ele>
        <time>2026-03-09T18:01:16.000Z</time>
      </trkpt>
      <trkpt lat="43.33598" lon="-1.88849">
        <ele>268</ele>
        <time>2026-03-09T18:01:18.000Z</time>
      </trkpt>
      <trkpt lat="43.33598" lon="-1.88858">
        <ele>268</ele>
        <time>2026-03-09T18:01:19.000Z</time>
      </trkpt>
      <trkpt lat="43.33598" lon="-1.88863">
        <ele>268</ele>
        <time>2026-03-09T18:01:19.000Z</time>
      </trkpt>
      <trkpt lat="43.33597" lon="-1.88868">
        <ele>268</ele>
        <time>2026-03-09T18:01:20.000Z</time>
      </trkpt>
      <trkpt lat="43.33596" lon="-1.88874">
        <ele>267</ele>
        <time>2026-03-09T18:01:21.000Z</time>
      </trkpt>
      <trkpt lat="43.33595" lon="-1.8888">
        <ele>267</ele>
        <time>2026-03-09T18:01:22.000Z</time>
      </trkpt>
      <trkpt lat="43.33592" lon="-1.88892">
        <ele>267</ele>
        <time>2026-03-09T18:01:23.000Z</time>
      </trkpt>
      <trkpt lat="43.33589" lon="-1.88905">
        <ele>267</ele>
        <time>2026-03-09T18:01:25.000Z</time>
      </trkpt>
      <trkpt lat="43.33585" lon="-1.88921">
        <ele>267</ele>
        <time>2026-03-09T18:01:27.000Z</time>
      </trkpt>
      <trkpt lat="43.33567" lon="-1.88994">
        <ele>262</ele>
        <time>2026-03-09T18:01:37.000Z</time>
      </trkpt>
      <trkpt lat="43.33548" lon="-1.89078">
        <ele>256</ele>
        <time>2026-03-09T18:01:49.000Z</time>
      </trkpt>
      <trkpt lat="43.33545" lon="-1.89094">
        <ele>255</ele>
        <time>2026-03-09T18:01:51.000Z</time>
      </trkpt>
      <trkpt lat="43.33542" lon="-1.89104">
        <ele>254</ele>
        <time>2026-03-09T18:01:52.000Z</time>
      </trkpt>
      <trkpt lat="43.3354" lon="-1.89113">
        <ele>253</ele>
        <time>2026-03-09T18:01:53.000Z</time>
      </trkpt>
      <trkpt lat="43.33534" lon="-1.8913">
        <ele>252</ele>
        <time>2026-03-09T18:01:56.000Z</time>
      </trkpt>
      <trkpt lat="43.33526" lon="-1.89151">
        <ele>251</ele>
        <time>2026-03-09T18:01:59.000Z</time>
      </trkpt>
      <trkpt lat="43.33521" lon="-1.89165">
        <ele>250</ele>
        <time>2026-03-09T18:02:01.000Z</time>
      </trkpt>
      <trkpt lat="43.33516" lon="-1.89175">
        <ele>250</ele>
        <time>2026-03-09T18:02:02.000Z</time>
      </trkpt>
      <trkpt lat="43.33507" lon="-1.89195">
        <ele>251</ele>
        <time>2026-03-09T18:02:05.000Z</time>
      </trkpt>
      <trkpt lat="43.33498" lon="-1.89217">
        <ele>253</ele>
        <time>2026-03-09T18:02:09.000Z</time>
      </trkpt>
      <trkpt lat="43.33486" lon="-1.89243">
        <ele>256</ele>
        <time>2026-03-09T18:02:13.000Z</time>
      </trkpt>
      <trkpt lat="43.33474" lon="-1.89269">
        <ele>259</ele>
        <time>2026-03-09T18:02:17.000Z</time>
      </trkpt>
      <trkpt lat="43.33454" lon="-1.8931">
        <ele>263</ele>
        <time>2026-03-09T18:02:23.000Z</time>
      </trkpt>
      <trkpt lat="43.33438" lon="-1.89344">
        <ele>265</ele>
        <time>2026-03-09T18:02:28.000Z</time>
      </trkpt>
      <trkpt lat="43.3343" lon="-1.8936">
        <ele>265</ele>
        <time>2026-03-09T18:02:31.000Z</time>
      </trkpt>
      <trkpt lat="43.33429" lon="-1.89363">
        <ele>265</ele>
        <time>2026-03-09T18:02:31.000Z</time>
      </trkpt>
      <trkpt lat="43.33428" lon="-1.89367">
        <ele>265</ele>
        <time>2026-03-09T18:02:32.000Z</time>
      </trkpt>
      <trkpt lat="43.33425" lon="-1.89379">
        <ele>265</ele>
        <time>2026-03-09T18:02:33.000Z</time>
      </trkpt>
      <trkpt lat="43.33424" lon="-1.89386">
        <ele>265</ele>
        <time>2026-03-09T18:02:34.000Z</time>
      </trkpt>
      <trkpt lat="43.33424" lon="-1.89392">
        <ele>265</ele>
        <time>2026-03-09T18:02:35.000Z</time>
      </trkpt>
      <trkpt lat="43.33424" lon="-1.89401">
        <ele>265</ele>
        <time>2026-03-09T18:02:36.000Z</time>
      </trkpt>
      <trkpt lat="43.33423" lon="-1.89409">
        <ele>265</ele>
        <time>2026-03-09T18:02:37.000Z</time>
      </trkpt>
      <trkpt lat="43.33424" lon="-1.89419">
        <ele>265</ele>
        <time>2026-03-09T18:02:39.000Z</time>
      </trkpt>
      <trkpt lat="43.33424" lon="-1.89459">
        <ele>262</ele>
        <time>2026-03-09T18:02:44.000Z</time>
      </trkpt>
      <trkpt lat="43.33425" lon="-1.89513">
        <ele>258</ele>
        <time>2026-03-09T18:02:51.000Z</time>
      </trkpt>
      <trkpt lat="43.33425" lon="-1.89524">
        <ele>257</ele>
        <time>2026-03-09T18:02:52.000Z</time>
      </trkpt>
      <trkpt lat="43.33424" lon="-1.89535">
        <ele>256</ele>
        <time>2026-03-09T18:02:54.000Z</time>
      </trkpt>
      <trkpt lat="43.33422" lon="-1.89546">
        <ele>256</ele>
        <time>2026-03-09T18:02:55.000Z</time>
      </trkpt>
      <trkpt lat="43.3342" lon="-1.89561">
        <ele>255</ele>
        <time>2026-03-09T18:02:57.000Z</time>
      </trkpt>
      <trkpt lat="43.33416" lon="-1.89579">
        <ele>254</ele>
        <time>2026-03-09T18:03:00.000Z</time>
      </trkpt>
      <trkpt lat="43.33411" lon="-1.89599">
        <ele>253</ele>
        <time>2026-03-09T18:03:02.000Z</time>
      </trkpt>
      <trkpt lat="43.33407" lon="-1.89616">
        <ele>253</ele>
        <time>2026-03-09T18:03:05.000Z</time>
      </trkpt>
      <trkpt lat="43.33398" lon="-1.89653">
        <ele>251</ele>
        <time>2026-03-09T18:03:10.000Z</time>
      </trkpt>
      <trkpt lat="43.33395" lon="-1.89663">
        <ele>251</ele>
        <time>2026-03-09T18:03:11.000Z</time>
      </trkpt>
      <trkpt lat="43.33392" lon="-1.89678">
        <ele>250</ele>
        <time>2026-03-09T18:03:13.000Z</time>
      </trkpt>
      <trkpt lat="43.33389" lon="-1.89695">
        <ele>249</ele>
        <time>2026-03-09T18:03:15.000Z</time>
      </trkpt>
      <trkpt lat="43.33381" lon="-1.89746">
        <ele>247</ele>
        <time>2026-03-09T18:03:22.000Z</time>
      </trkpt>
      <trkpt lat="43.33377" lon="-1.89774">
        <ele>245</ele>
        <time>2026-03-09T18:03:26.000Z</time>
      </trkpt>
      <trkpt lat="43.33376" lon="-1.89783">
        <ele>244</ele>
        <time>2026-03-09T18:03:27.000Z</time>
      </trkpt>
      <trkpt lat="43.33375" lon="-1.89792">
        <ele>243</ele>
        <time>2026-03-09T18:03:28.000Z</time>
      </trkpt>
      <trkpt lat="43.33375" lon="-1.89793">
        <ele>243</ele>
        <time>2026-03-09T18:03:28.000Z</time>
      </trkpt>
      <trkpt lat="43.33373" lon="-1.89804">
        <ele>242</ele>
        <time>2026-03-09T18:03:30.000Z</time>
      </trkpt>
      <trkpt lat="43.3337" lon="-1.8982">
        <ele>241</ele>
        <time>2026-03-09T18:03:32.000Z</time>
      </trkpt>
      <trkpt lat="43.33368" lon="-1.8983">
        <ele>240</ele>
        <time>2026-03-09T18:03:33.000Z</time>
      </trkpt>
      <trkpt lat="43.33366" lon="-1.89839">
        <ele>240</ele>
        <time>2026-03-09T18:03:34.000Z</time>
      </trkpt>
      <trkpt lat="43.33358" lon="-1.89865">
        <ele>240</ele>
        <time>2026-03-09T18:03:38.000Z</time>
      </trkpt>
      <trkpt lat="43.33348" lon="-1.89896">
        <ele>240</ele>
        <time>2026-03-09T18:03:42.000Z</time>
      </trkpt>
      <trkpt lat="43.33344" lon="-1.89909">
        <ele>240</ele>
        <time>2026-03-09T18:03:44.000Z</time>
      </trkpt>
      <trkpt lat="43.33343" lon="-1.89916">
        <ele>240</ele>
        <time>2026-03-09T18:03:45.000Z</time>
      </trkpt>
      <trkpt lat="43.33342" lon="-1.89921">
        <ele>240</ele>
        <time>2026-03-09T18:03:46.000Z</time>
      </trkpt>
      <trkpt lat="43.33341" lon="-1.89927">
        <ele>240</ele>
        <time>2026-03-09T18:03:47.000Z</time>
      </trkpt>
      <trkpt lat="43.33341" lon="-1.89933">
        <ele>241</ele>
        <time>2026-03-09T18:03:47.000Z</time>
      </trkpt>
      <trkpt lat="43.33341" lon="-1.8994">
        <ele>241</ele>
        <time>2026-03-09T18:03:48.000Z</time>
      </trkpt>
      <trkpt lat="43.33341" lon="-1.89946">
        <ele>241</ele>
        <time>2026-03-09T18:03:49.000Z</time>
      </trkpt>
      <trkpt lat="43.33341" lon="-1.89953">
        <ele>242</ele>
        <time>2026-03-09T18:03:50.000Z</time>
      </trkpt>
      <trkpt lat="43.33341" lon="-1.89957">
        <ele>242</ele>
        <time>2026-03-09T18:03:51.000Z</time>
      </trkpt>
      <trkpt lat="43.33341" lon="-1.89963">
        <ele>242</ele>
        <time>2026-03-09T18:03:51.000Z</time>
      </trkpt>
      <trkpt lat="43.33342" lon="-1.89966">
        <ele>243</ele>
        <time>2026-03-09T18:03:52.000Z</time>
      </trkpt>
      <trkpt lat="43.33342" lon="-1.8997">
        <ele>243</ele>
        <time>2026-03-09T18:03:52.000Z</time>
      </trkpt>
      <trkpt lat="43.33342" lon="-1.89975">
        <ele>243</ele>
        <time>2026-03-09T18:03:53.000Z</time>
      </trkpt>
      <trkpt lat="43.33341" lon="-1.89979">
        <ele>243</ele>
        <time>2026-03-09T18:03:53.000Z</time>
      </trkpt>
      <trkpt lat="43.33341" lon="-1.89984">
        <ele>243</ele>
        <time>2026-03-09T18:03:54.000Z</time>
      </trkpt>
      <trkpt lat="43.3334" lon="-1.89991">
        <ele>244</ele>
        <time>2026-03-09T18:03:55.000Z</time>
      </trkpt>
      <trkpt lat="43.33338" lon="-1.89999">
        <ele>244</ele>
        <time>2026-03-09T18:03:56.000Z</time>
      </trkpt>
      <trkpt lat="43.33336" lon="-1.90006">
        <ele>244</ele>
        <time>2026-03-09T18:03:57.000Z</time>
      </trkpt>
      <trkpt lat="43.33335" lon="-1.90008">
        <ele>244</ele>
        <time>2026-03-09T18:03:57.000Z</time>
      </trkpt>
      <trkpt lat="43.33334" lon="-1.90011">
        <ele>244</ele>
        <time>2026-03-09T18:03:58.000Z</time>
      </trkpt>
      <trkpt lat="43.33333" lon="-1.90013">
        <ele>244</ele>
        <time>2026-03-09T18:03:58.000Z</time>
      </trkpt>
      <trkpt lat="43.33332" lon="-1.90015">
        <ele>244</ele>
        <time>2026-03-09T18:03:59.000Z</time>
      </trkpt>
      <trkpt lat="43.3333" lon="-1.90019">
        <ele>244</ele>
        <time>2026-03-09T18:03:59.000Z</time>
      </trkpt>
      <trkpt lat="43.33325" lon="-1.90024">
        <ele>243</ele>
        <time>2026-03-09T18:04:00.000Z</time>
      </trkpt>
      <trkpt lat="43.33316" lon="-1.90036">
        <ele>242</ele>
        <time>2026-03-09T18:04:02.000Z</time>
      </trkpt>
      <trkpt lat="43.33302" lon="-1.90054">
        <ele>241</ele>
        <time>2026-03-09T18:04:06.000Z</time>
      </trkpt>
      <trkpt lat="43.33294" lon="-1.90064">
        <ele>241</ele>
        <time>2026-03-09T18:04:08.000Z</time>
      </trkpt>
      <trkpt lat="43.3329" lon="-1.9007">
        <ele>242</ele>
        <time>2026-03-09T18:04:09.000Z</time>
      </trkpt>
      <trkpt lat="43.33288" lon="-1.90075">
        <ele>242</ele>
        <time>2026-03-09T18:04:10.000Z</time>
      </trkpt>
      <trkpt lat="43.33286" lon="-1.90079">
        <ele>243</ele>
        <time>2026-03-09T18:04:10.000Z</time>
      </trkpt>
      <trkpt lat="43.33285" lon="-1.90084">
        <ele>243</ele>
        <time>2026-03-09T18:04:11.000Z</time>
      </trkpt>
      <trkpt lat="43.33284" lon="-1.90088">
        <ele>243</ele>
        <time>2026-03-09T18:04:11.000Z</time>
      </trkpt>
      <trkpt lat="43.33284" lon="-1.90092">
        <ele>243</ele>
        <time>2026-03-09T18:04:12.000Z</time>
      </trkpt>
      <trkpt lat="43.33284" lon="-1.90095">
        <ele>243</ele>
        <time>2026-03-09T18:04:12.000Z</time>
      </trkpt>
      <trkpt lat="43.33285" lon="-1.90098">
        <ele>243</ele>
        <time>2026-03-09T18:04:13.000Z</time>
      </trkpt>
      <trkpt lat="43.33285" lon="-1.90102">
        <ele>243</ele>
        <time>2026-03-09T18:04:13.000Z</time>
      </trkpt>
      <trkpt lat="43.33287" lon="-1.90114">
        <ele>243</ele>
        <time>2026-03-09T18:04:15.000Z</time>
      </trkpt>
      <trkpt lat="43.33289" lon="-1.90125">
        <ele>243</ele>
        <time>2026-03-09T18:04:16.000Z</time>
      </trkpt>
      <trkpt lat="43.33292" lon="-1.90146">
        <ele>243</ele>
        <time>2026-03-09T18:04:19.000Z</time>
      </trkpt>
      <trkpt lat="43.33292" lon="-1.90151">
        <ele>243</ele>
        <time>2026-03-09T18:04:20.000Z</time>
      </trkpt>
      <trkpt lat="43.33292" lon="-1.90154">
        <ele>243</ele>
        <time>2026-03-09T18:04:20.000Z</time>
      </trkpt>
      <trkpt lat="43.33292" lon="-1.90157">
        <ele>243</ele>
        <time>2026-03-09T18:04:21.000Z</time>
      </trkpt>
      <trkpt lat="43.33292" lon="-1.9016">
        <ele>243</ele>
        <time>2026-03-09T18:04:21.000Z</time>
      </trkpt>
      <trkpt lat="43.33292" lon="-1.90164">
        <ele>243</ele>
        <time>2026-03-09T18:04:21.000Z</time>
      </trkpt>
      <trkpt lat="43.33291" lon="-1.90168">
        <ele>242</ele>
        <time>2026-03-09T18:04:22.000Z</time>
      </trkpt>
      <trkpt lat="43.33286" lon="-1.90188">
        <ele>241</ele>
        <time>2026-03-09T18:04:25.000Z</time>
      </trkpt>
      <trkpt lat="43.33283" lon="-1.90201">
        <ele>240</ele>
        <time>2026-03-09T18:04:26.000Z</time>
      </trkpt>
      <trkpt lat="43.33281" lon="-1.90209">
        <ele>239</ele>
        <time>2026-03-09T18:04:28.000Z</time>
      </trkpt>
      <trkpt lat="43.33281" lon="-1.90213">
        <ele>239</ele>
        <time>2026-03-09T18:04:28.000Z</time>
      </trkpt>
      <trkpt lat="43.3328" lon="-1.90219">
        <ele>239</ele>
        <time>2026-03-09T18:04:29.000Z</time>
      </trkpt>
      <trkpt lat="43.33279" lon="-1.90224">
        <ele>238</ele>
        <time>2026-03-09T18:04:30.000Z</time>
      </trkpt>
      <trkpt lat="43.33279" lon="-1.90234">
        <ele>238</ele>
        <time>2026-03-09T18:04:31.000Z</time>
      </trkpt>
      <trkpt lat="43.33279" lon="-1.90262">
        <ele>237</ele>
        <time>2026-03-09T18:04:34.000Z</time>
      </trkpt>
      <trkpt lat="43.33279" lon="-1.90298">
        <ele>234</ele>
        <time>2026-03-09T18:04:39.000Z</time>
      </trkpt>
      <trkpt lat="43.33278" lon="-1.90328">
        <ele>231</ele>
        <time>2026-03-09T18:04:43.000Z</time>
      </trkpt>
      <trkpt lat="43.33277" lon="-1.90336">
        <ele>230</ele>
        <time>2026-03-09T18:04:44.000Z</time>
      </trkpt>
      <trkpt lat="43.33275" lon="-1.90375">
        <ele>226</ele>
        <time>2026-03-09T18:04:49.000Z</time>
      </trkpt>
      <trkpt lat="43.33274" lon="-1.90392">
        <ele>224</ele>
        <time>2026-03-09T18:04:51.000Z</time>
      </trkpt>
      <trkpt lat="43.33272" lon="-1.90399">
        <ele>223</ele>
        <time>2026-03-09T18:04:52.000Z</time>
      </trkpt>
      <trkpt lat="43.33272" lon="-1.90402">
        <ele>223</ele>
        <time>2026-03-09T18:04:53.000Z</time>
      </trkpt>
      <trkpt lat="43.33271" lon="-1.90404">
        <ele>222</ele>
        <time>2026-03-09T18:04:53.000Z</time>
      </trkpt>
      <trkpt lat="43.33269" lon="-1.90406">
        <ele>222</ele>
        <time>2026-03-09T18:04:53.000Z</time>
      </trkpt>
      <trkpt lat="43.33269" lon="-1.90407">
        <ele>221</ele>
        <time>2026-03-09T18:04:54.000Z</time>
      </trkpt>
      <trkpt lat="43.33267" lon="-1.90409">
        <ele>221</ele>
        <time>2026-03-09T18:04:54.000Z</time>
      </trkpt>
      <trkpt lat="43.33266" lon="-1.9041">
        <ele>220</ele>
        <time>2026-03-09T18:04:54.000Z</time>
      </trkpt>
      <trkpt lat="43.33265" lon="-1.9041">
        <ele>220</ele>
        <time>2026-03-09T18:04:54.000Z</time>
      </trkpt>
      <trkpt lat="43.33262" lon="-1.90412">
        <ele>219</ele>
        <time>2026-03-09T18:04:55.000Z</time>
      </trkpt>
      <trkpt lat="43.33259" lon="-1.90412">
        <ele>219</ele>
        <time>2026-03-09T18:04:56.000Z</time>
      </trkpt>
      <trkpt lat="43.33256" lon="-1.90411">
        <ele>218</ele>
        <time>2026-03-09T18:04:56.000Z</time>
      </trkpt>
      <trkpt lat="43.33253" lon="-1.9041">
        <ele>217</ele>
        <time>2026-03-09T18:04:57.000Z</time>
      </trkpt>
      <trkpt lat="43.3325" lon="-1.90408">
        <ele>217</ele>
        <time>2026-03-09T18:04:57.000Z</time>
      </trkpt>
      <trkpt lat="43.33248" lon="-1.90405">
        <ele>217</ele>
        <time>2026-03-09T18:04:58.000Z</time>
      </trkpt>
      <trkpt lat="43.33245" lon="-1.90402">
        <ele>216</ele>
        <time>2026-03-09T18:04:58.000Z</time>
      </trkpt>
      <trkpt lat="43.33244" lon="-1.90398">
        <ele>217</ele>
        <time>2026-03-09T18:04:59.000Z</time>
      </trkpt>
      <trkpt lat="43.33242" lon="-1.90394">
        <ele>217</ele>
        <time>2026-03-09T18:05:00.000Z</time>
      </trkpt>
      <trkpt lat="43.3324" lon="-1.90389">
        <ele>217</ele>
        <time>2026-03-09T18:05:00.000Z</time>
      </trkpt>
      <trkpt lat="43.33226" lon="-1.90349">
        <ele>218</ele>
        <time>2026-03-09T18:05:06.000Z</time>
      </trkpt>
      <trkpt lat="43.33216" lon="-1.90317">
        <ele>218</ele>
        <time>2026-03-09T18:05:11.000Z</time>
      </trkpt>
      <trkpt lat="43.33215" lon="-1.9031">
        <ele>218</ele>
        <time>2026-03-09T18:05:12.000Z</time>
      </trkpt>
      <trkpt lat="43.33213" lon="-1.90301">
        <ele>218</ele>
        <time>2026-03-09T18:05:13.000Z</time>
      </trkpt>
      <trkpt lat="43.33212" lon="-1.90288">
        <ele>219</ele>
        <time>2026-03-09T18:05:14.000Z</time>
      </trkpt>
      <trkpt lat="43.33212" lon="-1.90269">
        <ele>220</ele>
        <time>2026-03-09T18:05:17.000Z</time>
      </trkpt>
      <trkpt lat="43.33212" lon="-1.90256">
        <ele>221</ele>
        <time>2026-03-09T18:05:19.000Z</time>
      </trkpt>
      <trkpt lat="43.33212" lon="-1.9025">
        <ele>221</ele>
        <time>2026-03-09T18:05:19.000Z</time>
      </trkpt>
      <trkpt lat="43.33212" lon="-1.90245">
        <ele>221</ele>
        <time>2026-03-09T18:05:20.000Z</time>
      </trkpt>
      <trkpt lat="43.3321" lon="-1.90241">
        <ele>221</ele>
        <time>2026-03-09T18:05:21.000Z</time>
      </trkpt>
      <trkpt lat="43.33209" lon="-1.90238">
        <ele>221</ele>
        <time>2026-03-09T18:05:21.000Z</time>
      </trkpt>
      <trkpt lat="43.33203" lon="-1.90229">
        <ele>219</ele>
        <time>2026-03-09T18:05:23.000Z</time>
      </trkpt>
      <trkpt lat="43.33198" lon="-1.90222">
        <ele>218</ele>
        <time>2026-03-09T18:05:24.000Z</time>
      </trkpt>
      <trkpt lat="43.3319" lon="-1.90211">
        <ele>216</ele>
        <time>2026-03-09T18:05:26.000Z</time>
      </trkpt>
      <trkpt lat="43.3318" lon="-1.902">
        <ele>214</ele>
        <time>2026-03-09T18:05:28.000Z</time>
      </trkpt>
      <trkpt lat="43.33175" lon="-1.90192">
        <ele>212</ele>
        <time>2026-03-09T18:05:30.000Z</time>
      </trkpt>
      <trkpt lat="43.33172" lon="-1.90186">
        <ele>211</ele>
        <time>2026-03-09T18:05:31.000Z</time>
      </trkpt>
      <trkpt lat="43.3317" lon="-1.90183">
        <ele>211</ele>
        <time>2026-03-09T18:05:31.000Z</time>
      </trkpt>
      <trkpt lat="43.33168" lon="-1.90177">
        <ele>210</ele>
        <time>2026-03-09T18:05:32.000Z</time>
      </trkpt>
      <trkpt lat="43.33164" lon="-1.90166">
        <ele>209</ele>
        <time>2026-03-09T18:05:33.000Z</time>
      </trkpt>
      <trkpt lat="43.33162" lon="-1.90153">
        <ele>207</ele>
        <time>2026-03-09T18:05:35.000Z</time>
      </trkpt>
      <trkpt lat="43.33161" lon="-1.90139">
        <ele>204</ele>
        <time>2026-03-09T18:05:37.000Z</time>
      </trkpt>
      <trkpt lat="43.33161" lon="-1.90129">
        <ele>203</ele>
        <time>2026-03-09T18:05:38.000Z</time>
      </trkpt>
      <trkpt lat="43.33163" lon="-1.90112">
        <ele>202</ele>
        <time>2026-03-09T18:05:41.000Z</time>
      </trkpt>
      <trkpt lat="43.33165" lon="-1.90104">
        <ele>202</ele>
        <time>2026-03-09T18:05:42.000Z</time>
      </trkpt>
      <trkpt lat="43.33167" lon="-1.90094">
        <ele>202</ele>
        <time>2026-03-09T18:05:43.000Z</time>
      </trkpt>
      <trkpt lat="43.3317" lon="-1.90085">
        <ele>203</ele>
        <time>2026-03-09T18:05:44.000Z</time>
      </trkpt>
      <trkpt lat="43.33175" lon="-1.90073">
        <ele>202</ele>
        <time>2026-03-09T18:05:46.000Z</time>
      </trkpt>
      <trkpt lat="43.33181" lon="-1.90059">
        <ele>201</ele>
        <time>2026-03-09T18:05:48.000Z</time>
      </trkpt>
      <trkpt lat="43.33187" lon="-1.90047">
        <ele>200</ele>
        <time>2026-03-09T18:05:50.000Z</time>
      </trkpt>
      <trkpt lat="43.33192" lon="-1.90037">
        <ele>199</ele>
        <time>2026-03-09T18:05:52.000Z</time>
      </trkpt>
      <trkpt lat="43.33198" lon="-1.90028">
        <ele>199</ele>
        <time>2026-03-09T18:05:53.000Z</time>
      </trkpt>
      <trkpt lat="43.33204" lon="-1.90019">
        <ele>199</ele>
        <time>2026-03-09T18:05:55.000Z</time>
      </trkpt>
      <trkpt lat="43.33212" lon="-1.9001">
        <ele>200</ele>
        <time>2026-03-09T18:05:57.000Z</time>
      </trkpt>
      <trkpt lat="43.33228" lon="-1.89995">
        <ele>203</ele>
        <time>2026-03-09T18:06:00.000Z</time>
      </trkpt>
      <trkpt lat="43.33248" lon="-1.89978">
        <ele>210</ele>
        <time>2026-03-09T18:06:04.000Z</time>
      </trkpt>
      <trkpt lat="43.33252" lon="-1.89974">
        <ele>211</ele>
        <time>2026-03-09T18:06:05.000Z</time>
      </trkpt>
      <trkpt lat="43.33254" lon="-1.89971">
        <ele>211</ele>
        <time>2026-03-09T18:06:06.000Z</time>
      </trkpt>
      <trkpt lat="43.33256" lon="-1.89968">
        <ele>211</ele>
        <time>2026-03-09T18:06:06.000Z</time>
      </trkpt>
      <trkpt lat="43.33256" lon="-1.89966">
        <ele>211</ele>
        <time>2026-03-09T18:06:06.000Z</time>
      </trkpt>
      <trkpt lat="43.33257" lon="-1.89964">
        <ele>211</ele>
        <time>2026-03-09T18:06:07.000Z</time>
      </trkpt>
      <trkpt lat="43.33258" lon="-1.89962">
        <ele>212</ele>
        <time>2026-03-09T18:06:07.000Z</time>
      </trkpt>
      <trkpt lat="43.33258" lon="-1.89961">
        <ele>211</ele>
        <time>2026-03-09T18:06:07.000Z</time>
      </trkpt>
      <trkpt lat="43.33258" lon="-1.89959">
        <ele>211</ele>
        <time>2026-03-09T18:06:07.000Z</time>
      </trkpt>
      <trkpt lat="43.33258" lon="-1.89957">
        <ele>211</ele>
        <time>2026-03-09T18:06:08.000Z</time>
      </trkpt>
      <trkpt lat="43.33258" lon="-1.89954">
        <ele>211</ele>
        <time>2026-03-09T18:06:08.000Z</time>
      </trkpt>
      <trkpt lat="43.33258" lon="-1.8995">
        <ele>210</ele>
        <time>2026-03-09T18:06:09.000Z</time>
      </trkpt>
      <trkpt lat="43.33258" lon="-1.89948">
        <ele>210</ele>
        <time>2026-03-09T18:06:09.000Z</time>
      </trkpt>
      <trkpt lat="43.33257" lon="-1.89946">
        <ele>209</ele>
        <time>2026-03-09T18:06:09.000Z</time>
      </trkpt>
      <trkpt lat="43.33256" lon="-1.89943">
        <ele>209</ele>
        <time>2026-03-09T18:06:10.000Z</time>
      </trkpt>
      <trkpt lat="43.33254" lon="-1.8994">
        <ele>207</ele>
        <time>2026-03-09T18:06:10.000Z</time>
      </trkpt>
      <trkpt lat="43.33249" lon="-1.89937">
        <ele>205</ele>
        <time>2026-03-09T18:06:11.000Z</time>
      </trkpt>
      <trkpt lat="43.33243" lon="-1.89934">
        <ele>202</ele>
        <time>2026-03-09T18:06:12.000Z</time>
      </trkpt>
      <trkpt lat="43.33232" lon="-1.8993">
        <ele>198</ele>
        <time>2026-03-09T18:06:14.000Z</time>
      </trkpt>
      <trkpt lat="43.33214" lon="-1.89921">
        <ele>190</ele>
        <time>2026-03-09T18:06:18.000Z</time>
      </trkpt>
      <trkpt lat="43.33199" lon="-1.89913">
        <ele>185</ele>
        <time>2026-03-09T18:06:21.000Z</time>
      </trkpt>
      <trkpt lat="43.33179" lon="-1.899">
        <ele>182</ele>
        <time>2026-03-09T18:06:24.000Z</time>
      </trkpt>
      <trkpt lat="43.33175" lon="-1.89896">
        <ele>182</ele>
        <time>2026-03-09T18:06:25.000Z</time>
      </trkpt>
      <trkpt lat="43.3317" lon="-1.89893">
        <ele>181</ele>
        <time>2026-03-09T18:06:26.000Z</time>
      </trkpt>
      <trkpt lat="43.33154" lon="-1.89876">
        <ele>181</ele>
        <time>2026-03-09T18:06:30.000Z</time>
      </trkpt>
      <trkpt lat="43.33149" lon="-1.89872">
        <ele>181</ele>
        <time>2026-03-09T18:06:31.000Z</time>
      </trkpt>
      <trkpt lat="43.33143" lon="-1.89869">
        <ele>181</ele>
        <time>2026-03-09T18:06:32.000Z</time>
      </trkpt>
      <trkpt lat="43.33137" lon="-1.89865">
        <ele>180</ele>
        <time>2026-03-09T18:06:33.000Z</time>
      </trkpt>
      <trkpt lat="43.33129" lon="-1.89863">
        <ele>179</ele>
        <time>2026-03-09T18:06:35.000Z</time>
      </trkpt>
      <trkpt lat="43.33071" lon="-1.89843">
        <ele>171</ele>
        <time>2026-03-09T18:06:45.000Z</time>
      </trkpt>
      <trkpt lat="43.33036" lon="-1.89832">
        <ele>166</ele>
        <time>2026-03-09T18:06:52.000Z</time>
      </trkpt>
      <trkpt lat="43.33029" lon="-1.89829">
        <ele>165</ele>
        <time>2026-03-09T18:06:53.000Z</time>
      </trkpt>
      <trkpt lat="43.33023" lon="-1.89826">
        <ele>164</ele>
        <time>2026-03-09T18:06:54.000Z</time>
      </trkpt>
      <trkpt lat="43.33017" lon="-1.89822">
        <ele>163</ele>
        <time>2026-03-09T18:06:55.000Z</time>
      </trkpt>
      <trkpt lat="43.33013" lon="-1.8982">
        <ele>163</ele>
        <time>2026-03-09T18:06:56.000Z</time>
      </trkpt>
      <trkpt lat="43.3301" lon="-1.8982">
        <ele>162</ele>
        <time>2026-03-09T18:06:57.000Z</time>
      </trkpt>
      <trkpt lat="43.33007" lon="-1.89821">
        <ele>161</ele>
        <time>2026-03-09T18:06:57.000Z</time>
      </trkpt>
      <trkpt lat="43.33005" lon="-1.89823">
        <ele>160</ele>
        <time>2026-03-09T18:06:58.000Z</time>
      </trkpt>
      <trkpt lat="43.33002" lon="-1.89825">
        <ele>159</ele>
        <time>2026-03-09T18:06:58.000Z</time>
      </trkpt>
      <trkpt lat="43.33001" lon="-1.89829">
        <ele>158</ele>
        <time>2026-03-09T18:06:59.000Z</time>
      </trkpt>
      <trkpt lat="43.33" lon="-1.89833">
        <ele>157</ele>
        <time>2026-03-09T18:06:59.000Z</time>
      </trkpt>
      <trkpt lat="43.33" lon="-1.89837">
        <ele>156</ele>
        <time>2026-03-09T18:07:00.000Z</time>
      </trkpt>
      <trkpt lat="43.33001" lon="-1.89841">
        <ele>155</ele>
        <time>2026-03-09T18:07:00.000Z</time>
      </trkpt>
      <trkpt lat="43.33002" lon="-1.89844">
        <ele>154</ele>
        <time>2026-03-09T18:07:01.000Z</time>
      </trkpt>
      <trkpt lat="43.33004" lon="-1.89848">
        <ele>153</ele>
        <time>2026-03-09T18:07:01.000Z</time>
      </trkpt>
      <trkpt lat="43.33007" lon="-1.89851">
        <ele>153</ele>
        <time>2026-03-09T18:07:02.000Z</time>
      </trkpt>
      <trkpt lat="43.3301" lon="-1.89853">
        <ele>153</ele>
        <time>2026-03-09T18:07:03.000Z</time>
      </trkpt>
      <trkpt lat="43.33014" lon="-1.89856">
        <ele>152</ele>
        <time>2026-03-09T18:07:04.000Z</time>
      </trkpt>
      <trkpt lat="43.33022" lon="-1.8986">
        <ele>153</ele>
        <time>2026-03-09T18:07:05.000Z</time>
      </trkpt>
      <trkpt lat="43.33029" lon="-1.89862">
        <ele>154</ele>
        <time>2026-03-09T18:07:06.000Z</time>
      </trkpt>
      <trkpt lat="43.33038" lon="-1.89864">
        <ele>155</ele>
        <time>2026-03-09T18:07:08.000Z</time>
      </trkpt>
      <trkpt lat="43.33047" lon="-1.89865">
        <ele>157</ele>
        <time>2026-03-09T18:07:10.000Z</time>
      </trkpt>
      <trkpt lat="43.33054" lon="-1.89866">
        <ele>158</ele>
        <time>2026-03-09T18:07:11.000Z</time>
      </trkpt>
      <trkpt lat="43.33058" lon="-1.89867">
        <ele>158</ele>
        <time>2026-03-09T18:07:12.000Z</time>
      </trkpt>
      <trkpt lat="43.33061" lon="-1.89868">
        <ele>158</ele>
        <time>2026-03-09T18:07:12.000Z</time>
      </trkpt>
      <trkpt lat="43.33064" lon="-1.89868">
        <ele>159</ele>
        <time>2026-03-09T18:07:13.000Z</time>
      </trkpt>
      <trkpt lat="43.33066" lon="-1.89869">
        <ele>159</ele>
        <time>2026-03-09T18:07:13.000Z</time>
      </trkpt>
      <trkpt lat="43.33069" lon="-1.8987">
        <ele>159</ele>
        <time>2026-03-09T18:07:14.000Z</time>
      </trkpt>
      <trkpt lat="43.33081" lon="-1.89876">
        <ele>160</ele>
        <time>2026-03-09T18:07:16.000Z</time>
      </trkpt>
      <trkpt lat="43.33088" lon="-1.89881">
        <ele>159</ele>
        <time>2026-03-09T18:07:17.000Z</time>
      </trkpt>
      <trkpt lat="43.33101" lon="-1.8989">
        <ele>160</ele>
        <time>2026-03-09T18:07:20.000Z</time>
      </trkpt>
      <trkpt lat="43.33106" lon="-1.89895">
        <ele>159</ele>
        <time>2026-03-09T18:07:21.000Z</time>
      </trkpt>
      <trkpt lat="43.33123" lon="-1.89912">
        <ele>159</ele>
        <time>2026-03-09T18:07:25.000Z</time>
      </trkpt>
      <trkpt lat="43.33136" lon="-1.89928">
        <ele>161</ele>
        <time>2026-03-09T18:07:28.000Z</time>
      </trkpt>
      <trkpt lat="43.33146" lon="-1.8994">
        <ele>165</ele>
        <time>2026-03-09T18:07:30.000Z</time>
      </trkpt>
      <trkpt lat="43.33149" lon="-1.89944">
        <ele>167</ele>
        <time>2026-03-09T18:07:31.000Z</time>
      </trkpt>
      <trkpt lat="43.33153" lon="-1.89949">
        <ele>169</ele>
        <time>2026-03-09T18:07:32.000Z</time>
      </trkpt>
      <trkpt lat="43.33156" lon="-1.89954">
        <ele>170</ele>
        <time>2026-03-09T18:07:33.000Z</time>
      </trkpt>
      <trkpt lat="43.33156" lon="-1.89958">
        <ele>170</ele>
        <time>2026-03-09T18:07:33.000Z</time>
      </trkpt>
      <trkpt lat="43.33156" lon="-1.89963">
        <ele>171</ele>
        <time>2026-03-09T18:07:34.000Z</time>
      </trkpt>
      <trkpt lat="43.33156" lon="-1.89967">
        <ele>171</ele>
        <time>2026-03-09T18:07:34.000Z</time>
      </trkpt>
      <trkpt lat="43.33155" lon="-1.89972">
        <ele>171</ele>
        <time>2026-03-09T18:07:35.000Z</time>
      </trkpt>
      <trkpt lat="43.33152" lon="-1.89976">
        <ele>169</ele>
        <time>2026-03-09T18:07:36.000Z</time>
      </trkpt>
      <trkpt lat="43.3314" lon="-1.89993">
        <ele>163</ele>
        <time>2026-03-09T18:07:39.000Z</time>
      </trkpt>
      <trkpt lat="43.33091" lon="-1.90055">
        <ele>147</ele>
        <time>2026-03-09T18:07:51.000Z</time>
      </trkpt>
      <trkpt lat="43.33078" lon="-1.90073">
        <ele>145</ele>
        <time>2026-03-09T18:07:54.000Z</time>
      </trkpt>
      <trkpt lat="43.33071" lon="-1.90084">
        <ele>144</ele>
        <time>2026-03-09T18:07:56.000Z</time>
      </trkpt>
      <trkpt lat="43.33067" lon="-1.90092">
        <ele>145</ele>
        <time>2026-03-09T18:07:57.000Z</time>
      </trkpt>
      <trkpt lat="43.33066" lon="-1.90096">
        <ele>146</ele>
        <time>2026-03-09T18:07:58.000Z</time>
      </trkpt>
      <trkpt lat="43.33064" lon="-1.90104">
        <ele>148</ele>
        <time>2026-03-09T18:07:59.000Z</time>
      </trkpt>
      <trkpt lat="43.33058" lon="-1.90119">
        <ele>150</ele>
        <time>2026-03-09T18:08:01.000Z</time>
      </trkpt>
      <trkpt lat="43.33057" lon="-1.90122">
        <ele>150</ele>
        <time>2026-03-09T18:08:01.000Z</time>
      </trkpt>
      <trkpt lat="43.33054" lon="-1.90124">
        <ele>150</ele>
        <time>2026-03-09T18:08:02.000Z</time>
      </trkpt>
      <trkpt lat="43.33051" lon="-1.90125">
        <ele>149</ele>
        <time>2026-03-09T18:08:03.000Z</time>
      </trkpt>
      <trkpt lat="43.33049" lon="-1.90125">
        <ele>148</ele>
        <time>2026-03-09T18:08:03.000Z</time>
      </trkpt>
      <trkpt lat="43.33047" lon="-1.90125">
        <ele>147</ele>
        <time>2026-03-09T18:08:03.000Z</time>
      </trkpt>
      <trkpt lat="43.33044" lon="-1.90122">
        <ele>145</ele>
        <time>2026-03-09T18:08:04.000Z</time>
      </trkpt>
      <trkpt lat="43.33043" lon="-1.90118">
        <ele>143</ele>
        <time>2026-03-09T18:08:04.000Z</time>
      </trkpt>
      <trkpt lat="43.33043" lon="-1.90112">
        <ele>141</ele>
        <time>2026-03-09T18:08:05.000Z</time>
      </trkpt>
      <trkpt lat="43.33045" lon="-1.90102">
        <ele>138</ele>
        <time>2026-03-09T18:08:07.000Z</time>
      </trkpt>
      <trkpt lat="43.33052" lon="-1.90088">
        <ele>137</ele>
        <time>2026-03-09T18:08:09.000Z</time>
      </trkpt>
      <trkpt lat="43.33074" lon="-1.90046">
        <ele>136</ele>
        <time>2026-03-09T18:08:15.000Z</time>
      </trkpt>
      <trkpt lat="43.33102" lon="-1.9">
        <ele>139</ele>
        <time>2026-03-09T18:08:23.000Z</time>
      </trkpt>
      <trkpt lat="43.33107" lon="-1.89991">
        <ele>143</ele>
        <time>2026-03-09T18:08:25.000Z</time>
      </trkpt>
      <trkpt lat="43.3311" lon="-1.89985">
        <ele>146</ele>
        <time>2026-03-09T18:08:26.000Z</time>
      </trkpt>
      <trkpt lat="43.33113" lon="-1.89978">
        <ele>148</ele>
        <time>2026-03-09T18:08:27.000Z</time>
      </trkpt>
      <trkpt lat="43.33114" lon="-1.89971">
        <ele>149</ele>
        <time>2026-03-09T18:08:28.000Z</time>
      </trkpt>
      <trkpt lat="43.33113" lon="-1.8996">
        <ele>150</ele>
        <time>2026-03-09T18:08:29.000Z</time>
      </trkpt>
      <trkpt lat="43.33112" lon="-1.89956">
        <ele>149</ele>
        <time>2026-03-09T18:08:30.000Z</time>
      </trkpt>
      <trkpt lat="43.33108" lon="-1.89949">
        <ele>148</ele>
        <time>2026-03-09T18:08:31.000Z</time>
      </trkpt>
      <trkpt lat="43.33105" lon="-1.89944">
        <ele>147</ele>
        <time>2026-03-09T18:08:32.000Z</time>
      </trkpt>
      <trkpt lat="43.33101" lon="-1.89942">
        <ele>146</ele>
        <time>2026-03-09T18:08:32.000Z</time>
      </trkpt>
      <trkpt lat="43.33096" lon="-1.89938">
        <ele>144</ele>
        <time>2026-03-09T18:08:33.000Z</time>
      </trkpt>
      <trkpt lat="43.33086" lon="-1.89936">
        <ele>141</ele>
        <time>2026-03-09T18:08:35.000Z</time>
      </trkpt>
      <trkpt lat="43.33076" lon="-1.89934">
        <ele>138</ele>
        <time>2026-03-09T18:08:37.000Z</time>
      </trkpt>
      <trkpt lat="43.3307" lon="-1.89932">
        <ele>137</ele>
        <time>2026-03-09T18:08:38.000Z</time>
      </trkpt>
      <trkpt lat="43.33065" lon="-1.89931">
        <ele>137</ele>
        <time>2026-03-09T18:08:39.000Z</time>
      </trkpt>
      <trkpt lat="43.33059" lon="-1.89931">
        <ele>135</ele>
        <time>2026-03-09T18:08:40.000Z</time>
      </trkpt>
      <trkpt lat="43.33053" lon="-1.89931">
        <ele>134</ele>
        <time>2026-03-09T18:08:41.000Z</time>
      </trkpt>
      <trkpt lat="43.33044" lon="-1.89932">
        <ele>132</ele>
        <time>2026-03-09T18:08:43.000Z</time>
      </trkpt>
      <trkpt lat="43.33036" lon="-1.89934">
        <ele>130</ele>
        <time>2026-03-09T18:08:44.000Z</time>
      </trkpt>
      <trkpt lat="43.33025" lon="-1.89937">
        <ele>126</ele>
        <time>2026-03-09T18:08:46.000Z</time>
      </trkpt>
      <trkpt lat="43.33001" lon="-1.89943">
        <ele>119</ele>
        <time>2026-03-09T18:08:50.000Z</time>
      </trkpt>
      <trkpt lat="43.32989" lon="-1.89943">
        <ele>117</ele>
        <time>2026-03-09T18:08:53.000Z</time>
      </trkpt>
      <trkpt lat="43.32972" lon="-1.8994">
        <ele>116</ele>
        <time>2026-03-09T18:08:56.000Z</time>
      </trkpt>
      <trkpt lat="43.32963" lon="-1.89938">
        <ele>115</ele>
        <time>2026-03-09T18:08:57.000Z</time>
      </trkpt>
      <trkpt lat="43.32955" lon="-1.89935">
        <ele>115</ele>
        <time>2026-03-09T18:08:59.000Z</time>
      </trkpt>
      <trkpt lat="43.32948" lon="-1.89933">
        <ele>115</ele>
        <time>2026-03-09T18:09:00.000Z</time>
      </trkpt>
      <trkpt lat="43.32937" lon="-1.89927">
        <ele>115</ele>
        <time>2026-03-09T18:09:02.000Z</time>
      </trkpt>
      <trkpt lat="43.32928" lon="-1.89921">
        <ele>116</ele>
        <time>2026-03-09T18:09:04.000Z</time>
      </trkpt>
      <trkpt lat="43.32917" lon="-1.89914">
        <ele>116</ele>
        <time>2026-03-09T18:09:06.000Z</time>
      </trkpt>
      <trkpt lat="43.32911" lon="-1.89911">
        <ele>117</ele>
        <time>2026-03-09T18:09:07.000Z</time>
      </trkpt>
      <trkpt lat="43.32905" lon="-1.89909">
        <ele>118</ele>
        <time>2026-03-09T18:09:08.000Z</time>
      </trkpt>
      <trkpt lat="43.32901" lon="-1.89909">
        <ele>119</ele>
        <time>2026-03-09T18:09:09.000Z</time>
      </trkpt>
      <trkpt lat="43.32897" lon="-1.89911">
        <ele>119</ele>
        <time>2026-03-09T18:09:10.000Z</time>
      </trkpt>
      <trkpt lat="43.32894" lon="-1.89913">
        <ele>119</ele>
        <time>2026-03-09T18:09:10.000Z</time>
      </trkpt>
      <trkpt lat="43.32891" lon="-1.89916">
        <ele>119</ele>
        <time>2026-03-09T18:09:11.000Z</time>
      </trkpt>
      <trkpt lat="43.32889" lon="-1.89919">
        <ele>119</ele>
        <time>2026-03-09T18:09:12.000Z</time>
      </trkpt>
      <trkpt lat="43.32887" lon="-1.89928">
        <ele>117</ele>
        <time>2026-03-09T18:09:13.000Z</time>
      </trkpt>
      <trkpt lat="43.32884" lon="-1.89952">
        <ele>112</ele>
        <time>2026-03-09T18:09:16.000Z</time>
      </trkpt>
      <trkpt lat="43.3288" lon="-1.89982">
        <ele>106</ele>
        <time>2026-03-09T18:09:20.000Z</time>
      </trkpt>
      <trkpt lat="43.32877" lon="-1.89997">
        <ele>103</ele>
        <time>2026-03-09T18:09:22.000Z</time>
      </trkpt>
      <trkpt lat="43.32876" lon="-1.90002">
        <ele>102</ele>
        <time>2026-03-09T18:09:23.000Z</time>
      </trkpt>
      <trkpt lat="43.32876" lon="-1.90004">
        <ele>102</ele>
        <time>2026-03-09T18:09:23.000Z</time>
      </trkpt>
      <trkpt lat="43.32875" lon="-1.90007">
        <ele>102</ele>
        <time>2026-03-09T18:09:23.000Z</time>
      </trkpt>
      <trkpt lat="43.32873" lon="-1.9001">
        <ele>102</ele>
        <time>2026-03-09T18:09:24.000Z</time>
      </trkpt>
      <trkpt lat="43.32871" lon="-1.90014">
        <ele>102</ele>
        <time>2026-03-09T18:09:24.000Z</time>
      </trkpt>
      <trkpt lat="43.32869" lon="-1.90018">
        <ele>102</ele>
        <time>2026-03-09T18:09:25.000Z</time>
      </trkpt>
      <trkpt lat="43.32866" lon="-1.90021">
        <ele>102</ele>
        <time>2026-03-09T18:09:26.000Z</time>
      </trkpt>
      <trkpt lat="43.32864" lon="-1.90023">
        <ele>102</ele>
        <time>2026-03-09T18:09:26.000Z</time>
      </trkpt>
      <trkpt lat="43.32842" lon="-1.90037">
        <ele>104</ele>
        <time>2026-03-09T18:09:30.000Z</time>
      </trkpt>
      <trkpt lat="43.32824" lon="-1.90048">
        <ele>106</ele>
        <time>2026-03-09T18:09:34.000Z</time>
      </trkpt>
      <trkpt lat="43.3282" lon="-1.90051">
        <ele>107</ele>
        <time>2026-03-09T18:09:35.000Z</time>
      </trkpt>
      <trkpt lat="43.32818" lon="-1.90053">
        <ele>107</ele>
        <time>2026-03-09T18:09:35.000Z</time>
      </trkpt>
      <trkpt lat="43.32816" lon="-1.90056">
        <ele>107</ele>
        <time>2026-03-09T18:09:36.000Z</time>
      </trkpt>
      <trkpt lat="43.32814" lon="-1.9006">
        <ele>107</ele>
        <time>2026-03-09T18:09:36.000Z</time>
      </trkpt>
      <trkpt lat="43.32813" lon="-1.90064">
        <ele>107</ele>
        <time>2026-03-09T18:09:37.000Z</time>
      </trkpt>
      <trkpt lat="43.3281" lon="-1.9007">
        <ele>107</ele>
        <time>2026-03-09T18:09:38.000Z</time>
      </trkpt>
      <trkpt lat="43.32809" lon="-1.90075">
        <ele>106</ele>
        <time>2026-03-09T18:09:39.000Z</time>
      </trkpt>
      <trkpt lat="43.32791" lon="-1.90164">
        <ele>101</ele>
        <time>2026-03-09T18:09:50.000Z</time>
      </trkpt>
      <trkpt lat="43.32787" lon="-1.90178">
        <ele>101</ele>
        <time>2026-03-09T18:09:52.000Z</time>
      </trkpt>
      <trkpt lat="43.32784" lon="-1.9019">
        <ele>100</ele>
        <time>2026-03-09T18:09:54.000Z</time>
      </trkpt>
      <trkpt lat="43.32782" lon="-1.90202">
        <ele>100</ele>
        <time>2026-03-09T18:09:56.000Z</time>
      </trkpt>
      <trkpt lat="43.3278" lon="-1.90215">
        <ele>99</ele>
        <time>2026-03-09T18:09:57.000Z</time>
      </trkpt>
      <trkpt lat="43.32779" lon="-1.90255">
        <ele>95</ele>
        <time>2026-03-09T18:10:03.000Z</time>
      </trkpt>
      <trkpt lat="43.32777" lon="-1.90357">
        <ele>91</ele>
        <time>2026-03-09T18:10:16.000Z</time>
      </trkpt>
      <trkpt lat="43.32777" lon="-1.90381">
        <ele>91</ele>
        <time>2026-03-09T18:10:19.000Z</time>
      </trkpt>
      <trkpt lat="43.32778" lon="-1.90398">
        <ele>91</ele>
        <time>2026-03-09T18:10:21.000Z</time>
      </trkpt>
      <trkpt lat="43.32783" lon="-1.90436">
        <ele>91</ele>
        <time>2026-03-09T18:10:26.000Z</time>
      </trkpt>
      <trkpt lat="43.32789" lon="-1.90484">
        <ele>90</ele>
        <time>2026-03-09T18:10:32.000Z</time>
      </trkpt>
      <trkpt lat="43.32793" lon="-1.90524">
        <ele>87</ele>
        <time>2026-03-09T18:10:38.000Z</time>
      </trkpt>
      <trkpt lat="43.32795" lon="-1.90559">
        <ele>84</ele>
        <time>2026-03-09T18:10:42.000Z</time>
      </trkpt>
      <trkpt lat="43.32798" lon="-1.90614">
        <ele>77</ele>
        <time>2026-03-09T18:10:49.000Z</time>
      </trkpt>
      <trkpt lat="43.32801" lon="-1.90659">
        <ele>71</ele>
        <time>2026-03-09T18:10:55.000Z</time>
      </trkpt>
      <trkpt lat="43.32802" lon="-1.90677">
        <ele>70</ele>
        <time>2026-03-09T18:10:57.000Z</time>
      </trkpt>
      <trkpt lat="43.32801" lon="-1.90689">
        <ele>71</ele>
        <time>2026-03-09T18:10:59.000Z</time>
      </trkpt>
      <trkpt lat="43.32799" lon="-1.90701">
        <ele>72</ele>
        <time>2026-03-09T18:11:01.000Z</time>
      </trkpt>
      <trkpt lat="43.32798" lon="-1.90708">
        <ele>72</ele>
        <time>2026-03-09T18:11:02.000Z</time>
      </trkpt>
      <trkpt lat="43.32795" lon="-1.90717">
        <ele>73</ele>
        <time>2026-03-09T18:11:03.000Z</time>
      </trkpt>
      <trkpt lat="43.32786" lon="-1.90754">
        <ele>75</ele>
        <time>2026-03-09T18:11:08.000Z</time>
      </trkpt>
      <trkpt lat="43.32775" lon="-1.90817">
        <ele>74</ele>
        <time>2026-03-09T18:11:16.000Z</time>
      </trkpt>
      <trkpt lat="43.32768" lon="-1.90851">
        <ele>71</ele>
        <time>2026-03-09T18:11:21.000Z</time>
      </trkpt>
      <trkpt lat="43.32765" lon="-1.90865">
        <ele>68</ele>
        <time>2026-03-09T18:11:23.000Z</time>
      </trkpt>
      <trkpt lat="43.32759" lon="-1.90893">
        <ele>63</ele>
        <time>2026-03-09T18:11:27.000Z</time>
      </trkpt>
      <trkpt lat="43.3275" lon="-1.90929">
        <ele>57</ele>
        <time>2026-03-09T18:11:31.000Z</time>
      </trkpt>
      <trkpt lat="43.32747" lon="-1.90936">
        <ele>56</ele>
        <time>2026-03-09T18:11:32.000Z</time>
      </trkpt>
      <trkpt lat="43.32744" lon="-1.90943">
        <ele>56</ele>
        <time>2026-03-09T18:11:34.000Z</time>
      </trkpt>
      <trkpt lat="43.32739" lon="-1.90951">
        <ele>55</ele>
        <time>2026-03-09T18:11:35.000Z</time>
      </trkpt>
      <trkpt lat="43.32733" lon="-1.90956">
        <ele>54</ele>
        <time>2026-03-09T18:11:36.000Z</time>
      </trkpt>
      <trkpt lat="43.32728" lon="-1.90959">
        <ele>53</ele>
        <time>2026-03-09T18:11:37.000Z</time>
      </trkpt>
      <trkpt lat="43.32723" lon="-1.90961">
        <ele>52</ele>
        <time>2026-03-09T18:11:38.000Z</time>
      </trkpt>
      <trkpt lat="43.32716" lon="-1.90963">
        <ele>51</ele>
        <time>2026-03-09T18:11:39.000Z</time>
      </trkpt>
      <trkpt lat="43.32708" lon="-1.90965">
        <ele>50</ele>
        <time>2026-03-09T18:11:41.000Z</time>
      </trkpt>
      <trkpt lat="43.3268" lon="-1.90968">
        <ele>45</ele>
        <time>2026-03-09T18:11:46.000Z</time>
      </trkpt>
      <trkpt lat="43.32658" lon="-1.90969">
        <ele>42</ele>
        <time>2026-03-09T18:11:50.000Z</time>
      </trkpt>
      <trkpt lat="43.32644" lon="-1.90969">
        <ele>41</ele>
        <time>2026-03-09T18:11:52.000Z</time>
      </trkpt>
      <trkpt lat="43.32636" lon="-1.9097">
        <ele>40</ele>
        <time>2026-03-09T18:11:54.000Z</time>
      </trkpt>
      <trkpt lat="43.32628" lon="-1.90973">
        <ele>38</ele>
        <time>2026-03-09T18:11:55.000Z</time>
      </trkpt>
      <trkpt lat="43.32621" lon="-1.90975">
        <ele>37</ele>
        <time>2026-03-09T18:11:56.000Z</time>
      </trkpt>
      <trkpt lat="43.32611" lon="-1.90977">
        <ele>36</ele>
        <time>2026-03-09T18:11:58.000Z</time>
      </trkpt>
      <trkpt lat="43.32588" lon="-1.90984">
        <ele>32</ele>
        <time>2026-03-09T18:12:02.000Z</time>
      </trkpt>
      <trkpt lat="43.32573" lon="-1.90986">
        <ele>30</ele>
        <time>2026-03-09T18:12:05.000Z</time>
      </trkpt>
      <trkpt lat="43.32559" lon="-1.90988">
        <ele>27</ele>
        <time>2026-03-09T18:12:08.000Z</time>
      </trkpt>
      <trkpt lat="43.32548" lon="-1.90987">
        <ele>26</ele>
        <time>2026-03-09T18:12:09.000Z</time>
      </trkpt>
      <trkpt lat="43.32512" lon="-1.90983">
        <ele>21</ele>
        <time>2026-03-09T18:12:16.000Z</time>
      </trkpt>
      <trkpt lat="43.32446" lon="-1.90973">
        <ele>13</ele>
        <time>2026-03-09T18:12:28.000Z</time>
      </trkpt>
      <trkpt lat="43.32424" lon="-1.90907">
        <ele>14</ele>
        <time>2026-03-09T18:12:37.000Z</time>
      </trkpt>
      <trkpt lat="43.32418" lon="-1.90891">
        <ele>13</ele>
        <time>2026-03-09T18:12:39.000Z</time>
      </trkpt>
      <trkpt lat="43.32415" lon="-1.90878">
        <ele>13</ele>
        <time>2026-03-09T18:12:41.000Z</time>
      </trkpt>
      <trkpt lat="43.32413" lon="-1.90867">
        <ele>13</ele>
        <time>2026-03-09T18:12:43.000Z</time>
      </trkpt>
      <trkpt lat="43.32411" lon="-1.90856">
        <ele>14</ele>
        <time>2026-03-09T18:12:44.000Z</time>
      </trkpt>
      <trkpt lat="43.3241" lon="-1.90847">
        <ele>14</ele>
        <time>2026-03-09T18:12:45.000Z</time>
      </trkpt>
      <trkpt lat="43.32409" lon="-1.90838">
        <ele>14</ele>
        <time>2026-03-09T18:12:47.000Z</time>
      </trkpt>
      <trkpt lat="43.32408" lon="-1.90829">
        <ele>14</ele>
        <time>2026-03-09T18:12:48.000Z</time>
      </trkpt>
      <trkpt lat="43.32408" lon="-1.90817">
        <ele>14</ele>
        <time>2026-03-09T18:12:49.000Z</time>
      </trkpt>
      <trkpt lat="43.32409" lon="-1.90805">
        <ele>15</ele>
        <time>2026-03-09T18:12:51.000Z</time>
      </trkpt>
      <trkpt lat="43.32414" lon="-1.90771">
        <ele>16</ele>
        <time>2026-03-09T18:12:55.000Z</time>
      </trkpt>
      <trkpt lat="43.32421" lon="-1.90722">
        <ele>17</ele>
        <time>2026-03-09T18:13:02.000Z</time>
      </trkpt>
      <trkpt lat="43.3243" lon="-1.90673">
        <ele>19</ele>
        <time>2026-03-09T18:13:08.000Z</time>
      </trkpt>
      <trkpt lat="43.32437" lon="-1.90633">
        <ele>22</ele>
        <time>2026-03-09T18:13:14.000Z</time>
      </trkpt>
      <trkpt lat="43.32447" lon="-1.90555">
        <ele>26</ele>
        <time>2026-03-09T18:13:24.000Z</time>
      </trkpt>
      <trkpt lat="43.32462" lon="-1.90461">
        <ele>29</ele>
        <time>2026-03-09T18:13:36.000Z</time>
      </trkpt>
      <trkpt lat="43.32465" lon="-1.90437">
        <ele>29</ele>
        <time>2026-03-09T18:13:39.000Z</time>
      </trkpt>
      <trkpt lat="43.32466" lon="-1.90422">
        <ele>29</ele>
        <time>2026-03-09T18:13:41.000Z</time>
      </trkpt>
      <trkpt lat="43.32466" lon="-1.90406">
        <ele>29</ele>
        <time>2026-03-09T18:13:44.000Z</time>
      </trkpt>
      <trkpt lat="43.32466" lon="-1.90396">
        <ele>30</ele>
        <time>2026-03-09T18:13:45.000Z</time>
      </trkpt>
      <trkpt lat="43.32465" lon="-1.90384">
        <ele>30</ele>
        <time>2026-03-09T18:13:46.000Z</time>
      </trkpt>
      <trkpt lat="43.32464" lon="-1.90372">
        <ele>30</ele>
        <time>2026-03-09T18:13:48.000Z</time>
      </trkpt>
      <trkpt lat="43.32462" lon="-1.9036">
        <ele>29</ele>
        <time>2026-03-09T18:13:50.000Z</time>
      </trkpt>
      <trkpt lat="43.32458" lon="-1.90339">
        <ele>28</ele>
        <time>2026-03-09T18:13:52.000Z</time>
      </trkpt>
      <trkpt lat="43.32456" lon="-1.90319">
        <ele>28</ele>
        <time>2026-03-09T18:13:55.000Z</time>
      </trkpt>
      <trkpt lat="43.32454" lon="-1.90277">
        <ele>28</ele>
        <time>2026-03-09T18:14:00.000Z</time>
      </trkpt>
      <trkpt lat="43.32451" lon="-1.90248">
        <ele>27</ele>
        <time>2026-03-09T18:14:04.000Z</time>
      </trkpt>
      <trkpt lat="43.3245" lon="-1.90241">
        <ele>27</ele>
        <time>2026-03-09T18:14:05.000Z</time>
      </trkpt>
      <trkpt lat="43.32447" lon="-1.90223">
        <ele>26</ele>
        <time>2026-03-09T18:14:08.000Z</time>
      </trkpt>
      <trkpt lat="43.32444" lon="-1.90209">
        <ele>25</ele>
        <time>2026-03-09T18:14:09.000Z</time>
      </trkpt>
      <trkpt lat="43.3244" lon="-1.90195">
        <ele>23</ele>
        <time>2026-03-09T18:14:11.000Z</time>
      </trkpt>
      <trkpt lat="43.32437" lon="-1.90184">
        <ele>22</ele>
        <time>2026-03-09T18:14:13.000Z</time>
      </trkpt>
      <trkpt lat="43.3243" lon="-1.90163">
        <ele>19</ele>
        <time>2026-03-09T18:14:16.000Z</time>
      </trkpt>
      <trkpt lat="43.32423" lon="-1.90149">
        <ele>18</ele>
        <time>2026-03-09T18:14:18.000Z</time>
      </trkpt>
      <trkpt lat="43.32414" lon="-1.90134">
        <ele>18</ele>
        <time>2026-03-09T18:14:21.000Z</time>
      </trkpt>
      <trkpt lat="43.32404" lon="-1.90121">
        <ele>19</ele>
        <time>2026-03-09T18:14:23.000Z</time>
      </trkpt>
      <trkpt lat="43.32391" lon="-1.90105">
        <ele>20</ele>
        <time>2026-03-09T18:14:26.000Z</time>
      </trkpt>
      <trkpt lat="43.32385" lon="-1.901">
        <ele>20</ele>
        <time>2026-03-09T18:14:27.000Z</time>
      </trkpt>
      <trkpt lat="43.32378" lon="-1.90095">
        <ele>20</ele>
        <time>2026-03-09T18:14:29.000Z</time>
      </trkpt>
      <trkpt lat="43.32364" lon="-1.90085">
        <ele>20</ele>
        <time>2026-03-09T18:14:32.000Z</time>
      </trkpt>
      <trkpt lat="43.32353" lon="-1.9008">
        <ele>19</ele>
        <time>2026-03-09T18:14:34.000Z</time>
      </trkpt>
      <trkpt lat="43.3234" lon="-1.90075">
        <ele>19</ele>
        <time>2026-03-09T18:14:36.000Z</time>
      </trkpt>
      <trkpt lat="43.32327" lon="-1.90071">
        <ele>18</ele>
        <time>2026-03-09T18:14:38.000Z</time>
      </trkpt>
      <trkpt lat="43.3232" lon="-1.90068">
        <ele>18</ele>
        <time>2026-03-09T18:14:40.000Z</time>
      </trkpt>
      <trkpt lat="43.32288" lon="-1.90055">
        <ele>18</ele>
        <time>2026-03-09T18:14:46.000Z</time>
      </trkpt>
      <trkpt lat="43.32283" lon="-1.90052">
        <ele>19</ele>
        <time>2026-03-09T18:14:47.000Z</time>
      </trkpt>
      <trkpt lat="43.32281" lon="-1.90051">
        <ele>19</ele>
        <time>2026-03-09T18:14:47.000Z</time>
      </trkpt>
      <trkpt lat="43.32279" lon="-1.9005">
        <ele>19</ele>
        <time>2026-03-09T18:14:47.000Z</time>
      </trkpt>
      <trkpt lat="43.32277" lon="-1.90048">
        <ele>19</ele>
        <time>2026-03-09T18:14:48.000Z</time>
      </trkpt>
      <trkpt lat="43.32275" lon="-1.90047">
        <ele>19</ele>
        <time>2026-03-09T18:14:48.000Z</time>
      </trkpt>
      <trkpt lat="43.32273" lon="-1.90045">
        <ele>19</ele>
        <time>2026-03-09T18:14:49.000Z</time>
      </trkpt>
      <trkpt lat="43.32271" lon="-1.90043">
        <ele>19</ele>
        <time>2026-03-09T18:14:49.000Z</time>
      </trkpt>
      <trkpt lat="43.32267" lon="-1.90039">
        <ele>19</ele>
        <time>2026-03-09T18:14:50.000Z</time>
      </trkpt>
      <trkpt lat="43.32265" lon="-1.90037">
        <ele>20</ele>
        <time>2026-03-09T18:14:50.000Z</time>
      </trkpt>
      <trkpt lat="43.32264" lon="-1.90035">
        <ele>20</ele>
        <time>2026-03-09T18:14:51.000Z</time>
      </trkpt>
      <trkpt lat="43.32262" lon="-1.90033">
        <ele>20</ele>
        <time>2026-03-09T18:14:51.000Z</time>
      </trkpt>
      <trkpt lat="43.32259" lon="-1.90029">
        <ele>20</ele>
        <time>2026-03-09T18:14:52.000Z</time>
      </trkpt>
      <trkpt lat="43.32248" lon="-1.90009">
        <ele>22</ele>
        <time>2026-03-09T18:14:55.000Z</time>
      </trkpt>
      <trkpt lat="43.32236" lon="-1.8998">
        <ele>23</ele>
        <time>2026-03-09T18:14:59.000Z</time>
      </trkpt>
      <trkpt lat="43.3223" lon="-1.89965">
        <ele>22</ele>
        <time>2026-03-09T18:15:02.000Z</time>
      </trkpt>
      <trkpt lat="43.32204" lon="-1.899">
        <ele>21</ele>
        <time>2026-03-09T18:15:11.000Z</time>
      </trkpt>
      <trkpt lat="43.3219" lon="-1.89869">
        <ele>19</ele>
        <time>2026-03-09T18:15:16.000Z</time>
      </trkpt>
      <trkpt lat="43.32182" lon="-1.89846">
        <ele>18</ele>
        <time>2026-03-09T18:15:19.000Z</time>
      </trkpt>
      <trkpt lat="43.32174" lon="-1.89828">
        <ele>17</ele>
        <time>2026-03-09T18:15:22.000Z</time>
      </trkpt>
      <trkpt lat="43.3216" lon="-1.89794">
        <ele>15</ele>
        <time>2026-03-09T18:15:27.000Z</time>
      </trkpt>
      <trkpt lat="43.32152" lon="-1.89776">
        <ele>14</ele>
        <time>2026-03-09T18:15:30.000Z</time>
      </trkpt>
      <trkpt lat="43.32136" lon="-1.89737">
        <ele>13</ele>
        <time>2026-03-09T18:15:36.000Z</time>
      </trkpt>
      <trkpt lat="43.3213" lon="-1.89723">
        <ele>12</ele>
        <time>2026-03-09T18:15:38.000Z</time>
      </trkpt>
      <trkpt lat="43.32125" lon="-1.89715">
        <ele>12</ele>
        <time>2026-03-09T18:15:39.000Z</time>
      </trkpt>
      <trkpt lat="43.32125" lon="-1.89715">
        <ele>12</ele>
        <time>2026-03-09T18:15:39.000Z</time>
      </trkpt>
      <trkpt lat="43.32126" lon="-1.89708">
        <ele>12</ele>
        <time>2026-03-09T18:15:40.000Z</time>
      </trkpt>
      <trkpt lat="43.32127" lon="-1.89703">
        <ele>12</ele>
        <time>2026-03-09T18:15:41.000Z</time>
      </trkpt>
      <trkpt lat="43.32127" lon="-1.89695">
        <ele>11</ele>
        <time>2026-03-09T18:15:42.000Z</time>
      </trkpt>
      <trkpt lat="43.32127" lon="-1.89688">
        <ele>11</ele>
        <time>2026-03-09T18:15:43.000Z</time>
      </trkpt>
      <trkpt lat="43.32127" lon="-1.89681">
        <ele>11</ele>
        <time>2026-03-09T18:15:44.000Z</time>
      </trkpt>
      <trkpt lat="43.32126" lon="-1.89675">
        <ele>10</ele>
        <time>2026-03-09T18:15:44.000Z</time>
      </trkpt>
      <trkpt lat="43.32125" lon="-1.89664">
        <ele>10</ele>
        <time>2026-03-09T18:15:46.000Z</time>
      </trkpt>
      <trkpt lat="43.32124" lon="-1.89658">
        <ele>10</ele>
        <time>2026-03-09T18:15:47.000Z</time>
      </trkpt>
      <trkpt lat="43.32122" lon="-1.89629">
        <ele>11</ele>
        <time>2026-03-09T18:15:50.000Z</time>
      </trkpt>
      <trkpt lat="43.32121" lon="-1.89617">
        <ele>11</ele>
        <time>2026-03-09T18:15:52.000Z</time>
      </trkpt>
      <trkpt lat="43.3212" lon="-1.89611">
        <ele>12</ele>
        <time>2026-03-09T18:15:53.000Z</time>
      </trkpt>
      <trkpt lat="43.32119" lon="-1.89607">
        <ele>12</ele>
        <time>2026-03-09T18:15:53.000Z</time>
      </trkpt>
      <trkpt lat="43.32118" lon="-1.89603">
        <ele>12</ele>
        <time>2026-03-09T18:15:54.000Z</time>
      </trkpt>
      <trkpt lat="43.32116" lon="-1.896">
        <ele>12</ele>
        <time>2026-03-09T18:15:54.000Z</time>
      </trkpt>
      <trkpt lat="43.32114" lon="-1.89596">
        <ele>12</ele>
        <time>2026-03-09T18:15:55.000Z</time>
      </trkpt>
      <trkpt lat="43.32114" lon="-1.89596">
        <ele>12</ele>
        <time>2026-03-09T18:15:55.000Z</time>
      </trkpt>
      <trkpt lat="43.32127" lon="-1.89407">
        <ele>12</ele>
        <time>2026-03-09T18:16:20.000Z</time>
      </trkpt>
      <trkpt lat="43.32127" lon="-1.89407">
        <ele>12</ele>
        <time>2026-03-09T18:16:20.000Z</time>
      </trkpt>
      <trkpt lat="43.3212" lon="-1.89407">
        <ele>12</ele>
        <time>2026-03-09T18:16:21.000Z</time>
      </trkpt>
      <trkpt lat="43.3212" lon="-1.89407">
        <ele>12</ele>
        <time>2026-03-09T18:16:21.000Z</time>
      </trkpt>
      <trkpt lat="43.3211" lon="-1.89414">
        <ele>12</ele>
        <time>2026-03-09T18:16:23.000Z</time>
      </trkpt>
      <trkpt lat="43.3211" lon="-1.89415">
        <ele>12</ele>
        <time>2026-03-09T18:16:23.000Z</time>
      </trkpt>
      <trkpt lat="43.3211" lon="-1.89416">
        <ele>12</ele>
        <time>2026-03-09T18:16:23.000Z</time>
      </trkpt>
      <trkpt lat="43.3211" lon="-1.89417">
        <ele>12</ele>
        <time>2026-03-09T18:16:23.000Z</time>
      </trkpt>
      <trkpt lat="43.3211" lon="-1.89418">
        <ele>12</ele>
        <time>2026-03-09T18:16:23.000Z</time>
      </trkpt>
      <trkpt lat="43.32109" lon="-1.89418">
        <ele>12</ele>
        <time>2026-03-09T18:16:23.000Z</time>
      </trkpt>
      <trkpt lat="43.32109" lon="-1.89419">
        <ele>12</ele>
        <time>2026-03-09T18:16:24.000Z</time>
      </trkpt>
      <trkpt lat="43.32109" lon="-1.8942">
        <ele>12</ele>
        <time>2026-03-09T18:16:24.000Z</time>
      </trkpt>
      <trkpt lat="43.32108" lon="-1.8942">
        <ele>12</ele>
        <time>2026-03-09T18:16:24.000Z</time>
      </trkpt>
      <trkpt lat="43.32108" lon="-1.89421">
        <ele>12</ele>
        <time>2026-03-09T18:16:24.000Z</time>
      </trkpt>
      <trkpt lat="43.32107" lon="-1.89421">
        <ele>12</ele>
        <time>2026-03-09T18:16:24.000Z</time>
      </trkpt>
      <trkpt lat="43.32107" lon="-1.89422">
        <ele>12</ele>
        <time>2026-03-09T18:16:24.000Z</time>
      </trkpt>
      <trkpt lat="43.32106" lon="-1.89422">
        <ele>12</ele>
        <time>2026-03-09T18:16:25.000Z</time>
      </trkpt>
      <trkpt lat="43.32105" lon="-1.89422">
        <ele>12</ele>
        <time>2026-03-09T18:16:25.000Z</time>
      </trkpt>
      <trkpt lat="43.32103" lon="-1.89423">
        <ele>12</ele>
        <time>2026-03-09T18:16:25.000Z</time>
      </trkpt>
      <trkpt lat="43.32102" lon="-1.89423">
        <ele>12</ele>
        <time>2026-03-09T18:16:25.000Z</time>
      </trkpt>
      <trkpt lat="43.32101" lon="-1.89423">
        <ele>12</ele>
        <time>2026-03-09T18:16:25.000Z</time>
      </trkpt>
      <trkpt lat="43.32101" lon="-1.89423">
        <ele>12</ele>
        <time>2026-03-09T18:16:25.000Z</time>
      </trkpt>
      <trkpt lat="43.32101" lon="-1.89413">
        <ele>12</ele>
        <time>2026-03-09T18:16:27.000Z</time>
      </trkpt>
      <trkpt lat="43.32101" lon="-1.89409">
        <ele>12</ele>
        <time>2026-03-09T18:16:27.000Z</time>
      </trkpt>
      <trkpt lat="43.32102" lon="-1.89398">
        <ele>12</ele>
        <time>2026-03-09T18:16:29.000Z</time>
      </trkpt>
      <trkpt lat="43.32103" lon="-1.89345">
        <ele>10</ele>
        <time>2026-03-09T18:16:36.000Z</time>
      </trkpt>
      <trkpt lat="43.32102" lon="-1.89332">
        <ele>10</ele>
        <time>2026-03-09T18:16:37.000Z</time>
      </trkpt>
      <trkpt lat="43.32104" lon="-1.89283">
        <ele>11</ele>
        <time>2026-03-09T18:16:44.000Z</time>
      </trkpt>
      <trkpt lat="43.32106" lon="-1.89203">
        <ele>15</ele>
        <time>2026-03-09T18:16:54.000Z</time>
      </trkpt>
      <trkpt lat="43.32106" lon="-1.89201">
        <ele>15</ele>
        <time>2026-03-09T18:16:54.000Z</time>
      </trkpt>
      <trkpt lat="43.32106" lon="-1.89184">
        <ele>16</ele>
        <time>2026-03-09T18:16:56.000Z</time>
      </trkpt>
      <trkpt lat="43.32108" lon="-1.89148">
        <ele>19</ele>
        <time>2026-03-09T18:17:01.000Z</time>
      </trkpt>
      <trkpt lat="43.32109" lon="-1.89103">
        <ele>22</ele>
        <time>2026-03-09T18:17:07.000Z</time>
      </trkpt>
      <trkpt lat="43.32109" lon="-1.89071">
        <ele>25</ele>
        <time>2026-03-09T18:17:11.000Z</time>
      </trkpt>
      <trkpt lat="43.32111" lon="-1.8904">
        <ele>27</ele>
        <time>2026-03-09T18:17:15.000Z</time>
      </trkpt>
      <trkpt lat="43.32112" lon="-1.89023">
        <ele>28</ele>
        <time>2026-03-09T18:17:17.000Z</time>
      </trkpt>
      <trkpt lat="43.32113" lon="-1.88994">
        <ele>29</ele>
        <time>2026-03-09T18:17:21.000Z</time>
      </trkpt>
      <trkpt lat="43.32114" lon="-1.88973">
        <ele>30</ele>
        <time>2026-03-09T18:17:24.000Z</time>
      </trkpt>
      <trkpt lat="43.32116" lon="-1.88945">
        <ele>31</ele>
        <time>2026-03-09T18:17:27.000Z</time>
      </trkpt>
      <trkpt lat="43.32127" lon="-1.88839">
        <ele>35</ele>
        <time>2026-03-09T18:17:41.000Z</time>
      </trkpt>
      <trkpt lat="43.32138" lon="-1.88727">
        <ele>37</ele>
        <time>2026-03-09T18:17:56.000Z</time>
      </trkpt>
      <trkpt lat="43.32141" lon="-1.88705">
        <ele>38</ele>
        <time>2026-03-09T18:17:59.000Z</time>
      </trkpt>
      <trkpt lat="43.32143" lon="-1.88692">
        <ele>38</ele>
        <time>2026-03-09T18:18:00.000Z</time>
      </trkpt>
      <trkpt lat="43.32144" lon="-1.88679">
        <ele>39</ele>
        <time>2026-03-09T18:18:02.000Z</time>
      </trkpt>
      <trkpt lat="43.32149" lon="-1.88659">
        <ele>40</ele>
        <time>2026-03-09T18:18:05.000Z</time>
      </trkpt>
      <trkpt lat="43.32158" lon="-1.88625">
        <ele>41</ele>
        <time>2026-03-09T18:18:10.000Z</time>
      </trkpt>
      <trkpt lat="43.32163" lon="-1.88611">
        <ele>41</ele>
        <time>2026-03-09T18:18:12.000Z</time>
      </trkpt>
      <trkpt lat="43.32168" lon="-1.88597">
        <ele>42</ele>
        <time>2026-03-09T18:18:14.000Z</time>
      </trkpt>
      <trkpt lat="43.32205" lon="-1.88499">
        <ele>51</ele>
        <time>2026-03-09T18:18:28.000Z</time>
      </trkpt>
      <trkpt lat="43.3221" lon="-1.88487">
        <ele>51</ele>
        <time>2026-03-09T18:18:30.000Z</time>
      </trkpt>
      <trkpt lat="43.32216" lon="-1.88472">
        <ele>51</ele>
        <time>2026-03-09T18:18:32.000Z</time>
      </trkpt>
      <trkpt lat="43.32226" lon="-1.88452">
        <ele>51</ele>
        <time>2026-03-09T18:18:35.000Z</time>
      </trkpt>
      <trkpt lat="43.32228" lon="-1.88446">
        <ele>51</ele>
        <time>2026-03-09T18:18:36.000Z</time>
      </trkpt>
      <trkpt lat="43.3224" lon="-1.88422">
        <ele>50</ele>
        <time>2026-03-09T18:18:40.000Z</time>
      </trkpt>
      <trkpt lat="43.3227" lon="-1.88361">
        <ele>48</ele>
        <time>2026-03-09T18:18:49.000Z</time>
      </trkpt>
      <trkpt lat="43.32287" lon="-1.88328">
        <ele>47</ele>
        <time>2026-03-09T18:18:54.000Z</time>
      </trkpt>
      <trkpt lat="43.32304" lon="-1.883">
        <ele>47</ele>
        <time>2026-03-09T18:18:59.000Z</time>
      </trkpt>
      <trkpt lat="43.32308" lon="-1.88292">
        <ele>46</ele>
        <time>2026-03-09T18:19:00.000Z</time>
      </trkpt>
      <trkpt lat="43.32314" lon="-1.88282">
        <ele>46</ele>
        <time>2026-03-09T18:19:02.000Z</time>
      </trkpt>
      <trkpt lat="43.32326" lon="-1.88265">
        <ele>46</ele>
        <time>2026-03-09T18:19:05.000Z</time>
      </trkpt>
      <trkpt lat="43.32384" lon="-1.88191">
        <ele>49</ele>
        <time>2026-03-09T18:19:19.000Z</time>
      </trkpt>
      <trkpt lat="43.32409" lon="-1.88157">
        <ele>50</ele>
        <time>2026-03-09T18:19:26.000Z</time>
      </trkpt>
      <trkpt lat="43.32426" lon="-1.88133">
        <ele>51</ele>
        <time>2026-03-09T18:19:30.000Z</time>
      </trkpt>
      <trkpt lat="43.32431" lon="-1.88125">
        <ele>51</ele>
        <time>2026-03-09T18:19:31.000Z</time>
      </trkpt>
      <trkpt lat="43.32438" lon="-1.88111">
        <ele>52</ele>
        <time>2026-03-09T18:19:33.000Z</time>
      </trkpt>
      <trkpt lat="43.32442" lon="-1.88099">
        <ele>52</ele>
        <time>2026-03-09T18:19:35.000Z</time>
      </trkpt>
      <trkpt lat="43.32447" lon="-1.88086">
        <ele>53</ele>
        <time>2026-03-09T18:19:37.000Z</time>
      </trkpt>
      <trkpt lat="43.3245" lon="-1.88074">
        <ele>53</ele>
        <time>2026-03-09T18:19:39.000Z</time>
      </trkpt>
      <trkpt lat="43.32457" lon="-1.88046">
        <ele>55</ele>
        <time>2026-03-09T18:19:43.000Z</time>
      </trkpt>
      <trkpt lat="43.32485" lon="-1.87908">
        <ele>59</ele>
        <time>2026-03-09T18:20:01.000Z</time>
      </trkpt>
      <trkpt lat="43.32489" lon="-1.87891">
        <ele>59</ele>
        <time>2026-03-09T18:20:03.000Z</time>
      </trkpt>
      <trkpt lat="43.3251" lon="-1.87804">
        <ele>57</ele>
        <time>2026-03-09T18:20:15.000Z</time>
      </trkpt>
      <trkpt lat="43.32535" lon="-1.8771">
        <ele>53</ele>
        <time>2026-03-09T18:20:28.000Z</time>
      </trkpt>
      <trkpt lat="43.32561" lon="-1.87613">
        <ele>50</ele>
        <time>2026-03-09T18:20:42.000Z</time>
      </trkpt>
      <trkpt lat="43.3257" lon="-1.87583">
        <ele>48</ele>
        <time>2026-03-09T18:20:46.000Z</time>
      </trkpt>
      <trkpt lat="43.3257" lon="-1.87583">
        <ele>48</ele>
        <time>2026-03-09T18:20:46.000Z</time>
      </trkpt>
      <trkpt lat="43.32568" lon="-1.87582">
        <ele>48</ele>
        <time>2026-03-09T18:20:46.000Z</time>
      </trkpt>
      <trkpt lat="43.32567" lon="-1.87581">
        <ele>48</ele>
        <time>2026-03-09T18:20:46.000Z</time>
      </trkpt>
      <trkpt lat="43.32566" lon="-1.8758">
        <ele>48</ele>
        <time>2026-03-09T18:20:47.000Z</time>
      </trkpt>
      <trkpt lat="43.32566" lon="-1.87579">
        <ele>48</ele>
        <time>2026-03-09T18:20:47.000Z</time>
      </trkpt>
      <trkpt lat="43.32565" lon="-1.87578">
        <ele>48</ele>
        <time>2026-03-09T18:20:47.000Z</time>
      </trkpt>
      <trkpt lat="43.32564" lon="-1.87576">
        <ele>48</ele>
        <time>2026-03-09T18:20:47.000Z</time>
      </trkpt>
      <trkpt lat="43.32563" lon="-1.87575">
        <ele>48</ele>
        <time>2026-03-09T18:20:47.000Z</time>
      </trkpt>
      <trkpt lat="43.32563" lon="-1.87574">
        <ele>48</ele>
        <time>2026-03-09T18:20:48.000Z</time>
      </trkpt>
      <trkpt lat="43.32562" lon="-1.87572">
        <ele>48</ele>
        <time>2026-03-09T18:20:48.000Z</time>
      </trkpt>
      <trkpt lat="43.32562" lon="-1.87571">
        <ele>48</ele>
        <time>2026-03-09T18:20:48.000Z</time>
      </trkpt>
      <trkpt lat="43.32562" lon="-1.87569">
        <ele>48</ele>
        <time>2026-03-09T18:20:48.000Z</time>
      </trkpt>
      <trkpt lat="43.32561" lon="-1.87568">
        <ele>48</ele>
        <time>2026-03-09T18:20:49.000Z</time>
      </trkpt>
      <trkpt lat="43.32561" lon="-1.87566">
        <ele>48</ele>
        <time>2026-03-09T18:20:49.000Z</time>
      </trkpt>
      <trkpt lat="43.32561" lon="-1.87565">
        <ele>48</ele>
        <time>2026-03-09T18:20:49.000Z</time>
      </trkpt>
      <trkpt lat="43.32561" lon="-1.87563">
        <ele>48</ele>
        <time>2026-03-09T18:20:49.000Z</time>
      </trkpt>
      <trkpt lat="43.32561" lon="-1.87561">
        <ele>48</ele>
        <time>2026-03-09T18:20:49.000Z</time>
      </trkpt>
      <trkpt lat="43.32561" lon="-1.8756">
        <ele>48</ele>
        <time>2026-03-09T18:20:50.000Z</time>
      </trkpt>
      <trkpt lat="43.32561" lon="-1.87558">
        <ele>48</ele>
        <time>2026-03-09T18:20:50.000Z</time>
      </trkpt>
      <trkpt lat="43.32562" lon="-1.87557">
        <ele>48</ele>
        <time>2026-03-09T18:20:50.000Z</time>
      </trkpt>
      <trkpt lat="43.32562" lon="-1.87555">
        <ele>48</ele>
        <time>2026-03-09T18:20:50.000Z</time>
      </trkpt>
      <trkpt lat="43.32563" lon="-1.87554">
        <ele>48</ele>
        <time>2026-03-09T18:20:51.000Z</time>
      </trkpt>
      <trkpt lat="43.32563" lon="-1.87552">
        <ele>48</ele>
        <time>2026-03-09T18:20:51.000Z</time>
      </trkpt>
      <trkpt lat="43.32564" lon="-1.87551">
        <ele>48</ele>
        <time>2026-03-09T18:20:51.000Z</time>
      </trkpt>
      <trkpt lat="43.32565" lon="-1.8755">
        <ele>48</ele>
        <time>2026-03-09T18:20:51.000Z</time>
      </trkpt>
      <trkpt lat="43.32565" lon="-1.87548">
        <ele>48</ele>
        <time>2026-03-09T18:20:51.000Z</time>
      </trkpt>
      <trkpt lat="43.32566" lon="-1.87547">
        <ele>48</ele>
        <time>2026-03-09T18:20:52.000Z</time>
      </trkpt>
      <trkpt lat="43.32567" lon="-1.87546">
        <ele>48</ele>
        <time>2026-03-09T18:20:52.000Z</time>
      </trkpt>
      <trkpt lat="43.32568" lon="-1.87545">
        <ele>48</ele>
        <time>2026-03-09T18:20:52.000Z</time>
      </trkpt>
      <trkpt lat="43.32569" lon="-1.87544">
        <ele>48</ele>
        <time>2026-03-09T18:20:52.000Z</time>
      </trkpt>
      <trkpt lat="43.3257" lon="-1.87543">
        <ele>48</ele>
        <time>2026-03-09T18:20:53.000Z</time>
      </trkpt>
      <trkpt lat="43.32571" lon="-1.87543">
        <ele>48</ele>
        <time>2026-03-09T18:20:53.000Z</time>
      </trkpt>
      <trkpt lat="43.32572" lon="-1.87542">
        <ele>48</ele>
        <time>2026-03-09T18:20:53.000Z</time>
      </trkpt>
      <trkpt lat="43.32574" lon="-1.87542">
        <ele>48</ele>
        <time>2026-03-09T18:20:53.000Z</time>
      </trkpt>
      <trkpt lat="43.32575" lon="-1.87542">
        <ele>48</ele>
        <time>2026-03-09T18:20:54.000Z</time>
      </trkpt>
      <trkpt lat="43.32576" lon="-1.87541">
        <ele>48</ele>
        <time>2026-03-09T18:20:54.000Z</time>
      </trkpt>
      <trkpt lat="43.32577" lon="-1.87541">
        <ele>48</ele>
        <time>2026-03-09T18:20:54.000Z</time>
      </trkpt>
      <trkpt lat="43.32578" lon="-1.87541">
        <ele>48</ele>
        <time>2026-03-09T18:20:54.000Z</time>
      </trkpt>
      <trkpt lat="43.32579" lon="-1.87541">
        <ele>48</ele>
        <time>2026-03-09T18:20:54.000Z</time>
      </trkpt>
      <trkpt lat="43.3258" lon="-1.87542">
        <ele>48</ele>
        <time>2026-03-09T18:20:55.000Z</time>
      </trkpt>
      <trkpt lat="43.32582" lon="-1.87542">
        <ele>48</ele>
        <time>2026-03-09T18:20:55.000Z</time>
      </trkpt>
      <trkpt lat="43.32583" lon="-1.87543">
        <ele>48</ele>
        <time>2026-03-09T18:20:55.000Z</time>
      </trkpt>
      <trkpt lat="43.32584" lon="-1.87543">
        <ele>48</ele>
        <time>2026-03-09T18:20:55.000Z</time>
      </trkpt>
      <trkpt lat="43.32585" lon="-1.87544">
        <ele>48</ele>
        <time>2026-03-09T18:20:55.000Z</time>
      </trkpt>
      <trkpt lat="43.32586" lon="-1.87545">
        <ele>48</ele>
        <time>2026-03-09T18:20:56.000Z</time>
      </trkpt>
      <trkpt lat="43.32595" lon="-1.87513">
        <ele>49</ele>
        <time>2026-03-09T18:21:00.000Z</time>
      </trkpt>
      <trkpt lat="43.32599" lon="-1.87497">
        <ele>49</ele>
        <time>2026-03-09T18:21:02.000Z</time>
      </trkpt>
      <trkpt lat="43.32636" lon="-1.87381">
        <ele>56</ele>
        <time>2026-03-09T18:21:19.000Z</time>
      </trkpt>
      <trkpt lat="43.32652" lon="-1.87331">
        <ele>60</ele>
        <time>2026-03-09T18:21:26.000Z</time>
      </trkpt>
      <trkpt lat="43.3267" lon="-1.87278">
        <ele>60</ele>
        <time>2026-03-09T18:21:33.000Z</time>
      </trkpt>
      <trkpt lat="43.32693" lon="-1.87209">
        <ele>59</ele>
        <time>2026-03-09T18:21:43.000Z</time>
      </trkpt>
      <trkpt lat="43.32704" lon="-1.87167">
        <ele>57</ele>
        <time>2026-03-09T18:21:49.000Z</time>
      </trkpt>
      <trkpt lat="43.32706" lon="-1.87155">
        <ele>57</ele>
        <time>2026-03-09T18:21:51.000Z</time>
      </trkpt>
      <trkpt lat="43.32707" lon="-1.8715">
        <ele>56</ele>
        <time>2026-03-09T18:21:51.000Z</time>
      </trkpt>
      <trkpt lat="43.32707" lon="-1.87147">
        <ele>56</ele>
        <time>2026-03-09T18:21:52.000Z</time>
      </trkpt>
      <trkpt lat="43.32712" lon="-1.87113">
        <ele>54</ele>
        <time>2026-03-09T18:21:56.000Z</time>
      </trkpt>
      <trkpt lat="43.32714" lon="-1.87092">
        <ele>52</ele>
        <time>2026-03-09T18:21:59.000Z</time>
      </trkpt>
      <trkpt lat="43.32714" lon="-1.87087">
        <ele>52</ele>
        <time>2026-03-09T18:21:59.000Z</time>
      </trkpt>
      <trkpt lat="43.3272" lon="-1.87008">
        <ele>55</ele>
        <time>2026-03-09T18:22:10.000Z</time>
      </trkpt>
      <trkpt lat="43.32724" lon="-1.86939">
        <ele>56</ele>
        <time>2026-03-09T18:22:19.000Z</time>
      </trkpt>
      <trkpt lat="43.32727" lon="-1.8688">
        <ele>55</ele>
        <time>2026-03-09T18:22:26.000Z</time>
      </trkpt>
      <trkpt lat="43.32728" lon="-1.8686">
        <ele>54</ele>
        <time>2026-03-09T18:22:29.000Z</time>
      </trkpt>
      <trkpt lat="43.32728" lon="-1.86844">
        <ele>54</ele>
        <time>2026-03-09T18:22:31.000Z</time>
      </trkpt>
      <trkpt lat="43.32729" lon="-1.86829">
        <ele>54</ele>
        <time>2026-03-09T18:22:33.000Z</time>
      </trkpt>
      <trkpt lat="43.3273" lon="-1.86769">
        <ele>55</ele>
        <time>2026-03-09T18:22:41.000Z</time>
      </trkpt>
      <trkpt lat="43.32732" lon="-1.86727">
        <ele>56</ele>
        <time>2026-03-09T18:22:46.000Z</time>
      </trkpt>
      <trkpt lat="43.32733" lon="-1.86712">
        <ele>56</ele>
        <time>2026-03-09T18:22:48.000Z</time>
      </trkpt>
      <trkpt lat="43.32734" lon="-1.86702">
        <ele>56</ele>
        <time>2026-03-09T18:22:49.000Z</time>
      </trkpt>
      <trkpt lat="43.32736" lon="-1.86689">
        <ele>57</ele>
        <time>2026-03-09T18:22:51.000Z</time>
      </trkpt>
      <trkpt lat="43.32737" lon="-1.86682">
        <ele>57</ele>
        <time>2026-03-09T18:22:52.000Z</time>
      </trkpt>
      <trkpt lat="43.32739" lon="-1.86672">
        <ele>57</ele>
        <time>2026-03-09T18:22:53.000Z</time>
      </trkpt>
      <trkpt lat="43.32744" lon="-1.86656">
        <ele>58</ele>
        <time>2026-03-09T18:22:56.000Z</time>
      </trkpt>
      <trkpt lat="43.3275" lon="-1.86636">
        <ele>59</ele>
        <time>2026-03-09T18:22:59.000Z</time>
      </trkpt>
      <trkpt lat="43.32754" lon="-1.86624">
        <ele>59</ele>
        <time>2026-03-09T18:23:00.000Z</time>
      </trkpt>
      <trkpt lat="43.32756" lon="-1.86621">
        <ele>60</ele>
        <time>2026-03-09T18:23:01.000Z</time>
      </trkpt>
      <trkpt lat="43.32757" lon="-1.86615">
        <ele>60</ele>
        <time>2026-03-09T18:23:02.000Z</time>
      </trkpt>
      <trkpt lat="43.32775" lon="-1.86564">
        <ele>62</ele>
        <time>2026-03-09T18:23:09.000Z</time>
      </trkpt>
      <trkpt lat="43.32784" lon="-1.86538">
        <ele>62</ele>
        <time>2026-03-09T18:23:13.000Z</time>
      </trkpt>
      <trkpt lat="43.32794" lon="-1.86502">
        <ele>63</ele>
        <time>2026-03-09T18:23:18.000Z</time>
      </trkpt>
      <trkpt lat="43.32796" lon="-1.86492">
        <ele>63</ele>
        <time>2026-03-09T18:23:19.000Z</time>
      </trkpt>
      <trkpt lat="43.32798" lon="-1.86486">
        <ele>63</ele>
        <time>2026-03-09T18:23:20.000Z</time>
      </trkpt>
      <trkpt lat="43.32802" lon="-1.86462">
        <ele>63</ele>
        <time>2026-03-09T18:23:23.000Z</time>
      </trkpt>
      <trkpt lat="43.32806" lon="-1.86443">
        <ele>63</ele>
        <time>2026-03-09T18:23:26.000Z</time>
      </trkpt>
      <trkpt lat="43.32809" lon="-1.86416">
        <ele>62</ele>
        <time>2026-03-09T18:23:29.000Z</time>
      </trkpt>
      <trkpt lat="43.32811" lon="-1.86404">
        <ele>63</ele>
        <time>2026-03-09T18:23:31.000Z</time>
      </trkpt>
      <trkpt lat="43.32811" lon="-1.86398">
        <ele>63</ele>
        <time>2026-03-09T18:23:31.000Z</time>
      </trkpt>
      <trkpt lat="43.32816" lon="-1.86344">
        <ele>66</ele>
        <time>2026-03-09T18:23:38.000Z</time>
      </trkpt>
      <trkpt lat="43.32821" lon="-1.86298">
        <ele>67</ele>
        <time>2026-03-09T18:23:45.000Z</time>
      </trkpt>
      <trkpt lat="43.32823" lon="-1.86277">
        <ele>67</ele>
        <time>2026-03-09T18:23:47.000Z</time>
      </trkpt>
      <trkpt lat="43.3283" lon="-1.8621">
        <ele>67</ele>
        <time>2026-03-09T18:23:56.000Z</time>
      </trkpt>
      <trkpt lat="43.32839" lon="-1.86133">
        <ele>68</ele>
        <time>2026-03-09T18:24:06.000Z</time>
      </trkpt>
      <trkpt lat="43.32851" lon="-1.86021">
        <ele>68</ele>
        <time>2026-03-09T18:24:21.000Z</time>
      </trkpt>
      <trkpt lat="43.32856" lon="-1.85976">
        <ele>68</ele>
        <time>2026-03-09T18:24:27.000Z</time>
      </trkpt>
      <trkpt lat="43.32856" lon="-1.85962">
        <ele>68</ele>
        <time>2026-03-09T18:24:28.000Z</time>
      </trkpt>
      <trkpt lat="43.32857" lon="-1.8593">
        <ele>69</ele>
        <time>2026-03-09T18:24:33.000Z</time>
      </trkpt>
      <trkpt lat="43.32858" lon="-1.85904">
        <ele>69</ele>
        <time>2026-03-09T18:24:36.000Z</time>
      </trkpt>
      <trkpt lat="43.32858" lon="-1.85886">
        <ele>69</ele>
        <time>2026-03-09T18:24:38.000Z</time>
      </trkpt>
      <trkpt lat="43.32857" lon="-1.85857">
        <ele>68</ele>
        <time>2026-03-09T18:24:42.000Z</time>
      </trkpt>
      <trkpt lat="43.32855" lon="-1.85803">
        <ele>68</ele>
        <time>2026-03-09T18:24:49.000Z</time>
      </trkpt>
      <trkpt lat="43.32853" lon="-1.85752">
        <ele>67</ele>
        <time>2026-03-09T18:24:56.000Z</time>
      </trkpt>
      <trkpt lat="43.32852" lon="-1.85737">
        <ele>67</ele>
        <time>2026-03-09T18:24:58.000Z</time>
      </trkpt>
      <trkpt lat="43.32852" lon="-1.85719">
        <ele>67</ele>
        <time>2026-03-09T18:25:00.000Z</time>
      </trkpt>
      <trkpt lat="43.32851" lon="-1.85698">
        <ele>66</ele>
        <time>2026-03-09T18:25:03.000Z</time>
      </trkpt>
      <trkpt lat="43.32852" lon="-1.85682">
        <ele>66</ele>
        <time>2026-03-09T18:25:05.000Z</time>
      </trkpt>
      <trkpt lat="43.32852" lon="-1.85675">
        <ele>66</ele>
        <time>2026-03-09T18:25:06.000Z</time>
      </trkpt>
      <trkpt lat="43.32853" lon="-1.85661">
        <ele>66</ele>
        <time>2026-03-09T18:25:07.000Z</time>
      </trkpt>
      <trkpt lat="43.32856" lon="-1.85629">
        <ele>65</ele>
        <time>2026-03-09T18:25:12.000Z</time>
      </trkpt>
      <trkpt lat="43.32859" lon="-1.85598">
        <ele>64</ele>
        <time>2026-03-09T18:25:16.000Z</time>
      </trkpt>
      <trkpt lat="43.32864" lon="-1.85568">
        <ele>63</ele>
        <time>2026-03-09T18:25:20.000Z</time>
      </trkpt>
      <trkpt lat="43.32869" lon="-1.8555">
        <ele>62</ele>
        <time>2026-03-09T18:25:22.000Z</time>
      </trkpt>
      <trkpt lat="43.32872" lon="-1.85539">
        <ele>62</ele>
        <time>2026-03-09T18:25:24.000Z</time>
      </trkpt>
      <trkpt lat="43.32876" lon="-1.85526">
        <ele>61</ele>
        <time>2026-03-09T18:25:26.000Z</time>
      </trkpt>
      <trkpt lat="43.32881" lon="-1.85515">
        <ele>61</ele>
        <time>2026-03-09T18:25:27.000Z</time>
      </trkpt>
      <trkpt lat="43.3289" lon="-1.85494">
        <ele>61</ele>
        <time>2026-03-09T18:25:30.000Z</time>
      </trkpt>
      <trkpt lat="43.32901" lon="-1.85473">
        <ele>61</ele>
        <time>2026-03-09T18:25:34.000Z</time>
      </trkpt>
      <trkpt lat="43.32914" lon="-1.85451">
        <ele>61</ele>
        <time>2026-03-09T18:25:37.000Z</time>
      </trkpt>
      <trkpt lat="43.32938" lon="-1.85416">
        <ele>62</ele>
        <time>2026-03-09T18:25:44.000Z</time>
      </trkpt>
      <trkpt lat="43.32957" lon="-1.85389">
        <ele>65</ele>
        <time>2026-03-09T18:25:48.000Z</time>
      </trkpt>
      <trkpt lat="43.32962" lon="-1.85381">
        <ele>66</ele>
        <time>2026-03-09T18:25:50.000Z</time>
      </trkpt>
      <trkpt lat="43.32967" lon="-1.85372">
        <ele>66</ele>
        <time>2026-03-09T18:25:51.000Z</time>
      </trkpt>
      <trkpt lat="43.32971" lon="-1.85363">
        <ele>67</ele>
        <time>2026-03-09T18:25:53.000Z</time>
      </trkpt>
      <trkpt lat="43.32974" lon="-1.85354">
        <ele>68</ele>
        <time>2026-03-09T18:25:54.000Z</time>
      </trkpt>
      <trkpt lat="43.32977" lon="-1.85344">
        <ele>69</ele>
        <time>2026-03-09T18:25:55.000Z</time>
      </trkpt>
      <trkpt lat="43.32979" lon="-1.85334">
        <ele>69</ele>
        <time>2026-03-09T18:25:57.000Z</time>
      </trkpt>
      <trkpt lat="43.32981" lon="-1.85324">
        <ele>70</ele>
        <time>2026-03-09T18:25:58.000Z</time>
      </trkpt>
      <trkpt lat="43.32981" lon="-1.85313">
        <ele>71</ele>
        <time>2026-03-09T18:25:59.000Z</time>
      </trkpt>
      <trkpt lat="43.32983" lon="-1.85247">
        <ele>78</ele>
        <time>2026-03-09T18:26:08.000Z</time>
      </trkpt>
      <trkpt lat="43.3298" lon="-1.85234">
        <ele>79</ele>
        <time>2026-03-09T18:26:10.000Z</time>
      </trkpt>
      <trkpt lat="43.32979" lon="-1.85226">
        <ele>80</ele>
        <time>2026-03-09T18:26:11.000Z</time>
      </trkpt>
      <trkpt lat="43.32978" lon="-1.8522">
        <ele>81</ele>
        <time>2026-03-09T18:26:12.000Z</time>
      </trkpt>
      <trkpt lat="43.32977" lon="-1.85215">
        <ele>81</ele>
        <time>2026-03-09T18:26:12.000Z</time>
      </trkpt>
      <trkpt lat="43.32975" lon="-1.8521">
        <ele>82</ele>
        <time>2026-03-09T18:26:13.000Z</time>
      </trkpt>
      <trkpt lat="43.32974" lon="-1.85208">
        <ele>82</ele>
        <time>2026-03-09T18:26:13.000Z</time>
      </trkpt>
      <trkpt lat="43.32972" lon="-1.85205">
        <ele>83</ele>
        <time>2026-03-09T18:26:14.000Z</time>
      </trkpt>
      <trkpt lat="43.32972" lon="-1.85205">
        <ele>83</ele>
        <time>2026-03-09T18:26:14.000Z</time>
      </trkpt>
      <trkpt lat="43.3297" lon="-1.85204">
        <ele>83</ele>
        <time>2026-03-09T18:26:14.000Z</time>
      </trkpt>
      <trkpt lat="43.32968" lon="-1.85203">
        <ele>84</ele>
        <time>2026-03-09T18:26:15.000Z</time>
      </trkpt>
      <trkpt lat="43.32966" lon="-1.85201">
        <ele>84</ele>
        <time>2026-03-09T18:26:15.000Z</time>
      </trkpt>
      <trkpt lat="43.32964" lon="-1.852">
        <ele>84</ele>
        <time>2026-03-09T18:26:15.000Z</time>
      </trkpt>
      <trkpt lat="43.32963" lon="-1.85199">
        <ele>85</ele>
        <time>2026-03-09T18:26:16.000Z</time>
      </trkpt>
      <trkpt lat="43.32961" lon="-1.85197">
        <ele>85</ele>
        <time>2026-03-09T18:26:16.000Z</time>
      </trkpt>
      <trkpt lat="43.32959" lon="-1.85195">
        <ele>86</ele>
        <time>2026-03-09T18:26:17.000Z</time>
      </trkpt>
      <trkpt lat="43.32958" lon="-1.85193">
        <ele>86</ele>
        <time>2026-03-09T18:26:17.000Z</time>
      </trkpt>
      <trkpt lat="43.32955" lon="-1.85189">
        <ele>87</ele>
        <time>2026-03-09T18:26:18.000Z</time>
      </trkpt>
      <trkpt lat="43.32952" lon="-1.85184">
        <ele>88</ele>
        <time>2026-03-09T18:26:18.000Z</time>
      </trkpt>
      <trkpt lat="43.3295" lon="-1.85179">
        <ele>89</ele>
        <time>2026-03-09T18:26:19.000Z</time>
      </trkpt>
      <trkpt lat="43.32949" lon="-1.85174">
        <ele>90</ele>
        <time>2026-03-09T18:26:20.000Z</time>
      </trkpt>
      <trkpt lat="43.32948" lon="-1.85168">
        <ele>91</ele>
        <time>2026-03-09T18:26:21.000Z</time>
      </trkpt>
      <trkpt lat="43.32947" lon="-1.85163">
        <ele>92</ele>
        <time>2026-03-09T18:26:21.000Z</time>
      </trkpt>
      <trkpt lat="43.32947" lon="-1.85157">
        <ele>92</ele>
        <time>2026-03-09T18:26:22.000Z</time>
      </trkpt>
      <trkpt lat="43.32947" lon="-1.85151">
        <ele>93</ele>
        <time>2026-03-09T18:26:23.000Z</time>
      </trkpt>
      <trkpt lat="43.32947" lon="-1.85149">
        <ele>93</ele>
        <time>2026-03-09T18:26:23.000Z</time>
      </trkpt>
      <trkpt lat="43.32948" lon="-1.85148">
        <ele>93</ele>
        <time>2026-03-09T18:26:23.000Z</time>
      </trkpt>
      <trkpt lat="43.32948" lon="-1.85146">
        <ele>94</ele>
        <time>2026-03-09T18:26:24.000Z</time>
      </trkpt>
      <trkpt lat="43.32949" lon="-1.85144">
        <ele>94</ele>
        <time>2026-03-09T18:26:24.000Z</time>
      </trkpt>
      <trkpt lat="43.32949" lon="-1.85142">
        <ele>94</ele>
        <time>2026-03-09T18:26:24.000Z</time>
      </trkpt>
      <trkpt lat="43.32949" lon="-1.85141">
        <ele>94</ele>
        <time>2026-03-09T18:26:24.000Z</time>
      </trkpt>
      <trkpt lat="43.3295" lon="-1.85139">
        <ele>94</ele>
        <time>2026-03-09T18:26:25.000Z</time>
      </trkpt>
      <trkpt lat="43.32951" lon="-1.85137">
        <ele>94</ele>
        <time>2026-03-09T18:26:25.000Z</time>
      </trkpt>
      <trkpt lat="43.32952" lon="-1.85134">
        <ele>94</ele>
        <time>2026-03-09T18:26:25.000Z</time>
      </trkpt>
      <trkpt lat="43.32953" lon="-1.85131">
        <ele>94</ele>
        <time>2026-03-09T18:26:26.000Z</time>
      </trkpt>
      <trkpt lat="43.32954" lon="-1.85129">
        <ele>95</ele>
        <time>2026-03-09T18:26:26.000Z</time>
      </trkpt>
      <trkpt lat="43.32956" lon="-1.85126">
        <ele>95</ele>
        <time>2026-03-09T18:26:27.000Z</time>
      </trkpt>
      <trkpt lat="43.32957" lon="-1.85124">
        <ele>95</ele>
        <time>2026-03-09T18:26:27.000Z</time>
      </trkpt>
      <trkpt lat="43.32959" lon="-1.85121">
        <ele>95</ele>
        <time>2026-03-09T18:26:27.000Z</time>
      </trkpt>
      <trkpt lat="43.32961" lon="-1.85119">
        <ele>94</ele>
        <time>2026-03-09T18:26:28.000Z</time>
      </trkpt>
      <trkpt lat="43.32962" lon="-1.85117">
        <ele>95</ele>
        <time>2026-03-09T18:26:28.000Z</time>
      </trkpt>
      <trkpt lat="43.32963" lon="-1.85116">
        <ele>94</ele>
        <time>2026-03-09T18:26:28.000Z</time>
      </trkpt>
      <trkpt lat="43.32964" lon="-1.85115">
        <ele>94</ele>
        <time>2026-03-09T18:26:29.000Z</time>
      </trkpt>
      <trkpt lat="43.32966" lon="-1.85114">
        <ele>94</ele>
        <time>2026-03-09T18:26:29.000Z</time>
      </trkpt>
      <trkpt lat="43.32967" lon="-1.85113">
        <ele>94</ele>
        <time>2026-03-09T18:26:29.000Z</time>
      </trkpt>
      <trkpt lat="43.32968" lon="-1.85112">
        <ele>94</ele>
        <time>2026-03-09T18:26:29.000Z</time>
      </trkpt>
      <trkpt lat="43.32969" lon="-1.85112">
        <ele>94</ele>
        <time>2026-03-09T18:26:30.000Z</time>
      </trkpt>
      <trkpt lat="43.3297" lon="-1.85111">
        <ele>94</ele>
        <time>2026-03-09T18:26:30.000Z</time>
      </trkpt>
      <trkpt lat="43.32971" lon="-1.8511">
        <ele>94</ele>
        <time>2026-03-09T18:26:30.000Z</time>
      </trkpt>
      <trkpt lat="43.32977" lon="-1.85096">
        <ele>94</ele>
        <time>2026-03-09T18:26:32.000Z</time>
      </trkpt>
      <trkpt lat="43.32979" lon="-1.85089">
        <ele>94</ele>
        <time>2026-03-09T18:26:33.000Z</time>
      </trkpt>
      <trkpt lat="43.32981" lon="-1.8508">
        <ele>95</ele>
        <time>2026-03-09T18:26:34.000Z</time>
      </trkpt>
      <trkpt lat="43.32983" lon="-1.85066">
        <ele>95</ele>
        <time>2026-03-09T18:26:36.000Z</time>
      </trkpt>
      <trkpt lat="43.32984" lon="-1.85048">
        <ele>96</ele>
        <time>2026-03-09T18:26:39.000Z</time>
      </trkpt>
      <trkpt lat="43.32986" lon="-1.8502">
        <ele>98</ele>
        <time>2026-03-09T18:26:42.000Z</time>
      </trkpt>
      <trkpt lat="43.32988" lon="-1.84994">
        <ele>99</ele>
        <time>2026-03-09T18:26:46.000Z</time>
      </trkpt>
      <trkpt lat="43.3299" lon="-1.84971">
        <ele>98</ele>
        <time>2026-03-09T18:26:49.000Z</time>
      </trkpt>
      <trkpt lat="43.32993" lon="-1.84949">
        <ele>97</ele>
        <time>2026-03-09T18:26:52.000Z</time>
      </trkpt>
      <trkpt lat="43.32997" lon="-1.8493">
        <ele>96</ele>
        <time>2026-03-09T18:26:54.000Z</time>
      </trkpt>
      <trkpt lat="43.33002" lon="-1.84913">
        <ele>95</ele>
        <time>2026-03-09T18:26:56.000Z</time>
      </trkpt>
      <trkpt lat="43.33006" lon="-1.84901">
        <ele>93</ele>
        <time>2026-03-09T18:26:58.000Z</time>
      </trkpt>
      <trkpt lat="43.3301" lon="-1.84891">
        <ele>92</ele>
        <time>2026-03-09T18:27:00.000Z</time>
      </trkpt>
      <trkpt lat="43.33026" lon="-1.84863">
        <ele>89</ele>
        <time>2026-03-09T18:27:04.000Z</time>
      </trkpt>
      <trkpt lat="43.33032" lon="-1.84853">
        <ele>87</ele>
        <time>2026-03-09T18:27:06.000Z</time>
      </trkpt>
      <trkpt lat="43.33039" lon="-1.84845">
        <ele>86</ele>
        <time>2026-03-09T18:27:08.000Z</time>
      </trkpt>
      <trkpt lat="43.33049" lon="-1.84833">
        <ele>84</ele>
        <time>2026-03-09T18:27:10.000Z</time>
      </trkpt>
      <trkpt lat="43.33058" lon="-1.84824">
        <ele>82</ele>
        <time>2026-03-09T18:27:12.000Z</time>
      </trkpt>
      <trkpt lat="43.33068" lon="-1.84817">
        <ele>80</ele>
        <time>2026-03-09T18:27:14.000Z</time>
      </trkpt>
      <trkpt lat="43.33076" lon="-1.84811">
        <ele>78</ele>
        <time>2026-03-09T18:27:15.000Z</time>
      </trkpt>
      <trkpt lat="43.33089" lon="-1.84802">
        <ele>76</ele>
        <time>2026-03-09T18:27:18.000Z</time>
      </trkpt>
      <trkpt lat="43.33098" lon="-1.84795">
        <ele>75</ele>
        <time>2026-03-09T18:27:20.000Z</time>
      </trkpt>
      <trkpt lat="43.3311" lon="-1.84787">
        <ele>74</ele>
        <time>2026-03-09T18:27:22.000Z</time>
      </trkpt>
      <trkpt lat="43.33119" lon="-1.8478">
        <ele>73</ele>
        <time>2026-03-09T18:27:24.000Z</time>
      </trkpt>
      <trkpt lat="43.33127" lon="-1.84773">
        <ele>72</ele>
        <time>2026-03-09T18:27:26.000Z</time>
      </trkpt>
      <trkpt lat="43.33136" lon="-1.84764">
        <ele>70</ele>
        <time>2026-03-09T18:27:28.000Z</time>
      </trkpt>
      <trkpt lat="43.33144" lon="-1.84756">
        <ele>69</ele>
        <time>2026-03-09T18:27:30.000Z</time>
      </trkpt>
      <trkpt lat="43.33153" lon="-1.84744">
        <ele>68</ele>
        <time>2026-03-09T18:27:32.000Z</time>
      </trkpt>
      <trkpt lat="43.3316" lon="-1.84733">
        <ele>67</ele>
        <time>2026-03-09T18:27:34.000Z</time>
      </trkpt>
      <trkpt lat="43.33168" lon="-1.84719">
        <ele>65</ele>
        <time>2026-03-09T18:27:36.000Z</time>
      </trkpt>
      <trkpt lat="43.33173" lon="-1.84707">
        <ele>65</ele>
        <time>2026-03-09T18:27:38.000Z</time>
      </trkpt>
      <trkpt lat="43.33179" lon="-1.84691">
        <ele>63</ele>
        <time>2026-03-09T18:27:40.000Z</time>
      </trkpt>
      <trkpt lat="43.33183" lon="-1.84678">
        <ele>63</ele>
        <time>2026-03-09T18:27:42.000Z</time>
      </trkpt>
      <trkpt lat="43.33188" lon="-1.8466">
        <ele>62</ele>
        <time>2026-03-09T18:27:44.000Z</time>
      </trkpt>
      <trkpt lat="43.3319" lon="-1.84648">
        <ele>62</ele>
        <time>2026-03-09T18:27:46.000Z</time>
      </trkpt>
      <trkpt lat="43.33191" lon="-1.8463">
        <ele>62</ele>
        <time>2026-03-09T18:27:48.000Z</time>
      </trkpt>
      <trkpt lat="43.33192" lon="-1.84615">
        <ele>61</ele>
        <time>2026-03-09T18:27:50.000Z</time>
      </trkpt>
      <trkpt lat="43.33192" lon="-1.84597">
        <ele>61</ele>
        <time>2026-03-09T18:27:53.000Z</time>
      </trkpt>
      <trkpt lat="43.3319" lon="-1.8458">
        <ele>60</ele>
        <time>2026-03-09T18:27:55.000Z</time>
      </trkpt>
      <trkpt lat="43.33187" lon="-1.84556">
        <ele>59</ele>
        <time>2026-03-09T18:27:58.000Z</time>
      </trkpt>
      <trkpt lat="43.33182" lon="-1.84524">
        <ele>57</ele>
        <time>2026-03-09T18:28:02.000Z</time>
      </trkpt>
      <trkpt lat="43.33178" lon="-1.84505">
        <ele>56</ele>
        <time>2026-03-09T18:28:05.000Z</time>
      </trkpt>
      <trkpt lat="43.33163" lon="-1.84418">
        <ele>53</ele>
        <time>2026-03-09T18:28:16.000Z</time>
      </trkpt>
      <trkpt lat="43.3316" lon="-1.84402">
        <ele>52</ele>
        <time>2026-03-09T18:28:19.000Z</time>
      </trkpt>
      <trkpt lat="43.33156" lon="-1.84376">
        <ele>51</ele>
        <time>2026-03-09T18:28:22.000Z</time>
      </trkpt>
      <trkpt lat="43.33152" lon="-1.84354">
        <ele>49</ele>
        <time>2026-03-09T18:28:25.000Z</time>
      </trkpt>
      <trkpt lat="43.33149" lon="-1.84325">
        <ele>48</ele>
        <time>2026-03-09T18:28:29.000Z</time>
      </trkpt>
      <trkpt lat="43.33148" lon="-1.84301">
        <ele>47</ele>
        <time>2026-03-09T18:28:32.000Z</time>
      </trkpt>
      <trkpt lat="43.33149" lon="-1.84279">
        <ele>47</ele>
        <time>2026-03-09T18:28:35.000Z</time>
      </trkpt>
      <trkpt lat="43.33153" lon="-1.84249">
        <ele>46</ele>
        <time>2026-03-09T18:28:39.000Z</time>
      </trkpt>
      <trkpt lat="43.33155" lon="-1.84212">
        <ele>43</ele>
        <time>2026-03-09T18:28:43.000Z</time>
      </trkpt>
      <trkpt lat="43.33159" lon="-1.84184">
        <ele>40</ele>
        <time>2026-03-09T18:28:47.000Z</time>
      </trkpt>
      <trkpt lat="43.33161" lon="-1.84152">
        <ele>38</ele>
        <time>2026-03-09T18:28:51.000Z</time>
      </trkpt>
      <trkpt lat="43.3316" lon="-1.84132">
        <ele>37</ele>
        <time>2026-03-09T18:28:54.000Z</time>
      </trkpt>
      <trkpt lat="43.33158" lon="-1.84102">
        <ele>35</ele>
        <time>2026-03-09T18:28:58.000Z</time>
      </trkpt>
      <trkpt lat="43.33154" lon="-1.84085">
        <ele>33</ele>
        <time>2026-03-09T18:29:00.000Z</time>
      </trkpt>
      <trkpt lat="43.33149" lon="-1.84063">
        <ele>34</ele>
        <time>2026-03-09T18:29:03.000Z</time>
      </trkpt>
      <trkpt lat="43.33142" lon="-1.84044">
        <ele>34</ele>
        <time>2026-03-09T18:29:06.000Z</time>
      </trkpt>
      <trkpt lat="43.33134" lon="-1.84025">
        <ele>34</ele>
        <time>2026-03-09T18:29:09.000Z</time>
      </trkpt>
      <trkpt lat="43.33113" lon="-1.8399">
        <ele>33</ele>
        <time>2026-03-09T18:29:15.000Z</time>
      </trkpt>
      <trkpt lat="43.33073" lon="-1.83926">
        <ele>34</ele>
        <time>2026-03-09T18:29:25.000Z</time>
      </trkpt>
      <trkpt lat="43.33067" lon="-1.83914">
        <ele>34</ele>
        <time>2026-03-09T18:29:27.000Z</time>
      </trkpt>
      <trkpt lat="43.33048" lon="-1.83878">
        <ele>33</ele>
        <time>2026-03-09T18:29:33.000Z</time>
      </trkpt>
      <trkpt lat="43.33035" lon="-1.83852">
        <ele>32</ele>
        <time>2026-03-09T18:29:37.000Z</time>
      </trkpt>
      <trkpt lat="43.3301" lon="-1.83796">
        <ele>30</ele>
        <time>2026-03-09T18:29:46.000Z</time>
      </trkpt>
      <trkpt lat="43.32994" lon="-1.83764">
        <ele>29</ele>
        <time>2026-03-09T18:29:51.000Z</time>
      </trkpt>
      <trkpt lat="43.32987" lon="-1.83749">
        <ele>29</ele>
        <time>2026-03-09T18:29:53.000Z</time>
      </trkpt>
      <trkpt lat="43.32987" lon="-1.83749">
        <ele>29</ele>
        <time>2026-03-09T18:29:53.000Z</time>
      </trkpt>
      <trkpt lat="43.32975" lon="-1.83722">
        <ele>28</ele>
        <time>2026-03-09T18:29:57.000Z</time>
      </trkpt>
      <trkpt lat="43.32964" lon="-1.83695">
        <ele>27</ele>
        <time>2026-03-09T18:30:01.000Z</time>
      </trkpt>
      <trkpt lat="43.32956" lon="-1.83674">
        <ele>27</ele>
        <time>2026-03-09T18:30:04.000Z</time>
      </trkpt>
      <trkpt lat="43.32945" lon="-1.83642">
        <ele>27</ele>
        <time>2026-03-09T18:30:09.000Z</time>
      </trkpt>
      <trkpt lat="43.32942" lon="-1.83634">
        <ele>27</ele>
        <time>2026-03-09T18:30:10.000Z</time>
      </trkpt>
      <trkpt lat="43.32934" lon="-1.83602">
        <ele>28</ele>
        <time>2026-03-09T18:30:14.000Z</time>
      </trkpt>
      <trkpt lat="43.32927" lon="-1.83573">
        <ele>29</ele>
        <time>2026-03-09T18:30:18.000Z</time>
      </trkpt>
      <trkpt lat="43.32922" lon="-1.83549">
        <ele>28</ele>
        <time>2026-03-09T18:30:21.000Z</time>
      </trkpt>
      <trkpt lat="43.32912" lon="-1.83484">
        <ele>26</ele>
        <time>2026-03-09T18:30:30.000Z</time>
      </trkpt>
      <trkpt lat="43.32905" lon="-1.83435">
        <ele>23</ele>
        <time>2026-03-09T18:30:37.000Z</time>
      </trkpt>
      <trkpt lat="43.32899" lon="-1.83403">
        <ele>22</ele>
        <time>2026-03-09T18:30:41.000Z</time>
      </trkpt>
      <trkpt lat="43.32888" lon="-1.83331">
        <ele>21</ele>
        <time>2026-03-09T18:30:50.000Z</time>
      </trkpt>
      <trkpt lat="43.32883" lon="-1.83296">
        <ele>21</ele>
        <time>2026-03-09T18:30:55.000Z</time>
      </trkpt>
      <trkpt lat="43.32878" lon="-1.83258">
        <ele>20</ele>
        <time>2026-03-09T18:31:00.000Z</time>
      </trkpt>
      <trkpt lat="43.32875" lon="-1.83219">
        <ele>21</ele>
        <time>2026-03-09T18:31:05.000Z</time>
      </trkpt>
      <trkpt lat="43.32873" lon="-1.83186">
        <ele>22</ele>
        <time>2026-03-09T18:31:09.000Z</time>
      </trkpt>
      <trkpt lat="43.32872" lon="-1.83165">
        <ele>23</ele>
        <time>2026-03-09T18:31:12.000Z</time>
      </trkpt>
      <trkpt lat="43.32876" lon="-1.83138">
        <ele>24</ele>
        <time>2026-03-09T18:31:16.000Z</time>
      </trkpt>
      <trkpt lat="43.32879" lon="-1.83103">
        <ele>26</ele>
        <time>2026-03-09T18:31:20.000Z</time>
      </trkpt>
      <trkpt lat="43.32881" lon="-1.83091">
        <ele>27</ele>
        <time>2026-03-09T18:31:22.000Z</time>
      </trkpt>
      <trkpt lat="43.32884" lon="-1.83078">
        <ele>28</ele>
        <time>2026-03-09T18:31:24.000Z</time>
      </trkpt>
      <trkpt lat="43.32885" lon="-1.83073">
        <ele>28</ele>
        <time>2026-03-09T18:31:24.000Z</time>
      </trkpt>
      <trkpt lat="43.32886" lon="-1.83069">
        <ele>28</ele>
        <time>2026-03-09T18:31:25.000Z</time>
      </trkpt>
      <trkpt lat="43.32894" lon="-1.83037">
        <ele>29</ele>
        <time>2026-03-09T18:31:29.000Z</time>
      </trkpt>
      <trkpt lat="43.32895" lon="-1.83033">
        <ele>29</ele>
        <time>2026-03-09T18:31:30.000Z</time>
      </trkpt>
      <trkpt lat="43.32911" lon="-1.82994">
        <ele>30</ele>
        <time>2026-03-09T18:31:35.000Z</time>
      </trkpt>
      <trkpt lat="43.32954" lon="-1.82913">
        <ele>26</ele>
        <time>2026-03-09T18:31:48.000Z</time>
      </trkpt>
      <trkpt lat="43.32959" lon="-1.82908">
        <ele>26</ele>
        <time>2026-03-09T18:31:50.000Z</time>
      </trkpt>
      <trkpt lat="43.32968" lon="-1.82888">
        <ele>24</ele>
        <time>2026-03-09T18:31:53.000Z</time>
      </trkpt>
      <trkpt lat="43.32978" lon="-1.82846">
        <ele>20</ele>
        <time>2026-03-09T18:31:58.000Z</time>
      </trkpt>
      <trkpt lat="43.3298" lon="-1.82831">
        <ele>19</ele>
        <time>2026-03-09T18:32:00.000Z</time>
      </trkpt>
      <trkpt lat="43.3298" lon="-1.8283">
        <ele>19</ele>
        <time>2026-03-09T18:32:00.000Z</time>
      </trkpt>
      <trkpt lat="43.32982" lon="-1.82814">
        <ele>18</ele>
        <time>2026-03-09T18:32:03.000Z</time>
      </trkpt>
      <trkpt lat="43.32997" lon="-1.82715">
        <ele>15</ele>
        <time>2026-03-09T18:32:16.000Z</time>
      </trkpt>
      <trkpt lat="43.33001" lon="-1.82694">
        <ele>15</ele>
        <time>2026-03-09T18:32:18.000Z</time>
      </trkpt>
      <trkpt lat="43.33009" lon="-1.82669">
        <ele>16</ele>
        <time>2026-03-09T18:32:22.000Z</time>
      </trkpt>
      <trkpt lat="43.3302" lon="-1.82642">
        <ele>16</ele>
        <time>2026-03-09T18:32:26.000Z</time>
      </trkpt>
      <trkpt lat="43.33036" lon="-1.82607">
        <ele>15</ele>
        <time>2026-03-09T18:32:31.000Z</time>
      </trkpt>
      <trkpt lat="43.33055" lon="-1.82581">
        <ele>14</ele>
        <time>2026-03-09T18:32:36.000Z</time>
      </trkpt>
      <trkpt lat="43.33071" lon="-1.82555">
        <ele>13</ele>
        <time>2026-03-09T18:32:40.000Z</time>
      </trkpt>
      <trkpt lat="43.33076" lon="-1.82546">
        <ele>12</ele>
        <time>2026-03-09T18:32:42.000Z</time>
      </trkpt>
      <trkpt lat="43.33088" lon="-1.82528">
        <ele>11</ele>
        <time>2026-03-09T18:32:45.000Z</time>
      </trkpt>
      <trkpt lat="43.33089" lon="-1.82527">
        <ele>11</ele>
        <time>2026-03-09T18:32:45.000Z</time>
      </trkpt>
      <trkpt lat="43.33101" lon="-1.82512">
        <ele>11</ele>
        <time>2026-03-09T18:32:48.000Z</time>
      </trkpt>
      <trkpt lat="43.33101" lon="-1.82512">
        <ele>11</ele>
        <time>2026-03-09T18:32:48.000Z</time>
      </trkpt>
      <trkpt lat="43.33126" lon="-1.82478">
        <ele>12</ele>
        <time>2026-03-09T18:32:54.000Z</time>
      </trkpt>
      <trkpt lat="43.33154" lon="-1.82443">
        <ele>13</ele>
        <time>2026-03-09T18:33:01.000Z</time>
      </trkpt>
      <trkpt lat="43.33199" lon="-1.82379">
        <ele>16</ele>
        <time>2026-03-09T18:33:13.000Z</time>
      </trkpt>
      <trkpt lat="43.33209" lon="-1.82366">
        <ele>16</ele>
        <time>2026-03-09T18:33:15.000Z</time>
      </trkpt>
      <trkpt lat="43.3321" lon="-1.82365">
        <ele>16</ele>
        <time>2026-03-09T18:33:15.000Z</time>
      </trkpt>
      <trkpt lat="43.33218" lon="-1.82354">
        <ele>16</ele>
        <time>2026-03-09T18:33:17.000Z</time>
      </trkpt>
      <trkpt lat="43.33225" lon="-1.82344">
        <ele>16</ele>
        <time>2026-03-09T18:33:19.000Z</time>
      </trkpt>
      <trkpt lat="43.33244" lon="-1.82317">
        <ele>16</ele>
        <time>2026-03-09T18:33:24.000Z</time>
      </trkpt>
      <trkpt lat="43.33261" lon="-1.82297">
        <ele>17</ele>
        <time>2026-03-09T18:33:28.000Z</time>
      </trkpt>
      <trkpt lat="43.33277" lon="-1.82279">
        <ele>18</ele>
        <time>2026-03-09T18:33:32.000Z</time>
      </trkpt>
      <trkpt lat="43.33282" lon="-1.82273">
        <ele>18</ele>
        <time>2026-03-09T18:33:33.000Z</time>
      </trkpt>
      <trkpt lat="43.33313" lon="-1.82242">
        <ele>18</ele>
        <time>2026-03-09T18:33:40.000Z</time>
      </trkpt>
      <trkpt lat="43.33336" lon="-1.82222">
        <ele>18</ele>
        <time>2026-03-09T18:33:45.000Z</time>
      </trkpt>
      <trkpt lat="43.33366" lon="-1.82199">
        <ele>17</ele>
        <time>2026-03-09T18:33:51.000Z</time>
      </trkpt>
      <trkpt lat="43.33405" lon="-1.82175">
        <ele>15</ele>
        <time>2026-03-09T18:33:58.000Z</time>
      </trkpt>
      <trkpt lat="43.33439" lon="-1.8216">
        <ele>14</ele>
        <time>2026-03-09T18:34:05.000Z</time>
      </trkpt>
      <trkpt lat="43.33454" lon="-1.82154">
        <ele>14</ele>
        <time>2026-03-09T18:34:07.000Z</time>
      </trkpt>
      <trkpt lat="43.3347" lon="-1.82149">
        <ele>13</ele>
        <time>2026-03-09T18:34:10.000Z</time>
      </trkpt>
      <trkpt lat="43.33485" lon="-1.82145">
        <ele>13</ele>
        <time>2026-03-09T18:34:13.000Z</time>
      </trkpt>
      <trkpt lat="43.33502" lon="-1.82141">
        <ele>12</ele>
        <time>2026-03-09T18:34:16.000Z</time>
      </trkpt>
      <trkpt lat="43.33517" lon="-1.82139">
        <ele>12</ele>
        <time>2026-03-09T18:34:19.000Z</time>
      </trkpt>
      <trkpt lat="43.33525" lon="-1.82138">
        <ele>12</ele>
        <time>2026-03-09T18:34:20.000Z</time>
      </trkpt>
      <trkpt lat="43.33537" lon="-1.82137">
        <ele>12</ele>
        <time>2026-03-09T18:34:22.000Z</time>
      </trkpt>
      <trkpt lat="43.33549" lon="-1.82136">
        <ele>12</ele>
        <time>2026-03-09T18:34:25.000Z</time>
      </trkpt>
      <trkpt lat="43.33559" lon="-1.82135">
        <ele>12</ele>
        <time>2026-03-09T18:34:26.000Z</time>
      </trkpt>
      <trkpt lat="43.33569" lon="-1.82135">
        <ele>12</ele>
        <time>2026-03-09T18:34:28.000Z</time>
      </trkpt>
      <trkpt lat="43.33581" lon="-1.82136">
        <ele>12</ele>
        <time>2026-03-09T18:34:30.000Z</time>
      </trkpt>
      <trkpt lat="43.33583" lon="-1.82136">
        <ele>12</ele>
        <time>2026-03-09T18:34:31.000Z</time>
      </trkpt>
      <trkpt lat="43.33594" lon="-1.82136">
        <ele>12</ele>
        <time>2026-03-09T18:34:33.000Z</time>
      </trkpt>
      <trkpt lat="43.33611" lon="-1.82137">
        <ele>11</ele>
        <time>2026-03-09T18:34:36.000Z</time>
      </trkpt>
      <trkpt lat="43.33628" lon="-1.82139">
        <ele>11</ele>
        <time>2026-03-09T18:34:39.000Z</time>
      </trkpt>
      <trkpt lat="43.33654" lon="-1.82142">
        <ele>11</ele>
        <time>2026-03-09T18:34:43.000Z</time>
      </trkpt>
      <trkpt lat="43.33688" lon="-1.82145">
        <ele>10</ele>
        <time>2026-03-09T18:34:49.000Z</time>
      </trkpt>
      <trkpt lat="43.33731" lon="-1.8215">
        <ele>9</ele>
        <time>2026-03-09T18:34:57.000Z</time>
      </trkpt>
      <trkpt lat="43.33758" lon="-1.82154">
        <ele>9</ele>
        <time>2026-03-09T18:35:02.000Z</time>
      </trkpt>
      <trkpt lat="43.33801" lon="-1.82158">
        <ele>9</ele>
        <time>2026-03-09T18:35:09.000Z</time>
      </trkpt>
      <trkpt lat="43.33814" lon="-1.82159">
        <ele>9</ele>
        <time>2026-03-09T18:35:12.000Z</time>
      </trkpt>
      <trkpt lat="43.33834" lon="-1.82161">
        <ele>9</ele>
        <time>2026-03-09T18:35:15.000Z</time>
      </trkpt>
      <trkpt lat="43.33842" lon="-1.82162">
        <ele>9</ele>
        <time>2026-03-09T18:35:17.000Z</time>
      </trkpt>
      <trkpt lat="43.33864" lon="-1.82165">
        <ele>9</ele>
        <time>2026-03-09T18:35:21.000Z</time>
      </trkpt>
      <trkpt lat="43.33881" lon="-1.82166">
        <ele>8</ele>
        <time>2026-03-09T18:35:24.000Z</time>
      </trkpt>
      <trkpt lat="43.33901" lon="-1.82167">
        <ele>8</ele>
        <time>2026-03-09T18:35:27.000Z</time>
      </trkpt>
      <trkpt lat="43.33914" lon="-1.82167">
        <ele>8</ele>
        <time>2026-03-09T18:35:30.000Z</time>
      </trkpt>
      <trkpt lat="43.33926" lon="-1.82166">
        <ele>8</ele>
        <time>2026-03-09T18:35:32.000Z</time>
      </trkpt>
      <trkpt lat="43.33937" lon="-1.82164">
        <ele>8</ele>
        <time>2026-03-09T18:35:34.000Z</time>
      </trkpt>
      <trkpt lat="43.33954" lon="-1.82162">
        <ele>8</ele>
        <time>2026-03-09T18:35:37.000Z</time>
      </trkpt>
      <trkpt lat="43.3398" lon="-1.8215">
        <ele>8</ele>
        <time>2026-03-09T18:35:42.000Z</time>
      </trkpt>
      <trkpt lat="43.33991" lon="-1.82145">
        <ele>8</ele>
        <time>2026-03-09T18:35:44.000Z</time>
      </trkpt>
      <trkpt lat="43.34003" lon="-1.8214">
        <ele>7</ele>
        <time>2026-03-09T18:35:46.000Z</time>
      </trkpt>
      <trkpt lat="43.34013" lon="-1.82135">
        <ele>7</ele>
        <time>2026-03-09T18:35:48.000Z</time>
      </trkpt>
      <trkpt lat="43.34025" lon="-1.82128">
        <ele>7</ele>
        <time>2026-03-09T18:35:50.000Z</time>
      </trkpt>
      <trkpt lat="43.34034" lon="-1.82123">
        <ele>7</ele>
        <time>2026-03-09T18:35:52.000Z</time>
      </trkpt>
      <trkpt lat="43.34047" lon="-1.82115">
        <ele>7</ele>
        <time>2026-03-09T18:35:54.000Z</time>
      </trkpt>
      <trkpt lat="43.34052" lon="-1.82111">
        <ele>7</ele>
        <time>2026-03-09T18:35:55.000Z</time>
      </trkpt>
      <trkpt lat="43.34057" lon="-1.82107">
        <ele>7</ele>
        <time>2026-03-09T18:35:56.000Z</time>
      </trkpt>
      <trkpt lat="43.34064" lon="-1.82101">
        <ele>7</ele>
        <time>2026-03-09T18:35:58.000Z</time>
      </trkpt>
      <trkpt lat="43.34072" lon="-1.82095">
        <ele>7</ele>
        <time>2026-03-09T18:36:00.000Z</time>
      </trkpt>
      <trkpt lat="43.34084" lon="-1.82084">
        <ele>7</ele>
        <time>2026-03-09T18:36:02.000Z</time>
      </trkpt>
      <trkpt lat="43.34088" lon="-1.8208">
        <ele>7</ele>
        <time>2026-03-09T18:36:03.000Z</time>
      </trkpt>
      <trkpt lat="43.34092" lon="-1.82075">
        <ele>7</ele>
        <time>2026-03-09T18:36:04.000Z</time>
      </trkpt>
      <trkpt lat="43.34097" lon="-1.8207">
        <ele>7</ele>
        <time>2026-03-09T18:36:05.000Z</time>
      </trkpt>
      <trkpt lat="43.34105" lon="-1.82062">
        <ele>6</ele>
        <time>2026-03-09T18:36:07.000Z</time>
      </trkpt>
      <trkpt lat="43.34134" lon="-1.8203">
        <ele>6</ele>
        <time>2026-03-09T18:36:13.000Z</time>
      </trkpt>
      <trkpt lat="43.34163" lon="-1.81991">
        <ele>5</ele>
        <time>2026-03-09T18:36:21.000Z</time>
      </trkpt>
      <trkpt lat="43.34191" lon="-1.81952">
        <ele>4</ele>
        <time>2026-03-09T18:36:28.000Z</time>
      </trkpt>
      <trkpt lat="43.342" lon="-1.81941">
        <ele>4</ele>
        <time>2026-03-09T18:36:30.000Z</time>
      </trkpt>
      <trkpt lat="43.34206" lon="-1.81934">
        <ele>4</ele>
        <time>2026-03-09T18:36:31.000Z</time>
      </trkpt>
      <trkpt lat="43.34209" lon="-1.81931">
        <ele>4</ele>
        <time>2026-03-09T18:36:32.000Z</time>
      </trkpt>
      <trkpt lat="43.34215" lon="-1.81923">
        <ele>3</ele>
        <time>2026-03-09T18:36:33.000Z</time>
      </trkpt>
      <trkpt lat="43.34222" lon="-1.81913">
        <ele>3</ele>
        <time>2026-03-09T18:36:35.000Z</time>
      </trkpt>
      <trkpt lat="43.34254" lon="-1.81872">
        <ele>3</ele>
        <time>2026-03-09T18:36:43.000Z</time>
      </trkpt>
      <trkpt lat="43.34265" lon="-1.81858">
        <ele>3</ele>
        <time>2026-03-09T18:36:46.000Z</time>
      </trkpt>
      <trkpt lat="43.34306" lon="-1.81808">
        <ele>3</ele>
        <time>2026-03-09T18:36:55.000Z</time>
      </trkpt>
      <trkpt lat="43.34309" lon="-1.81797">
        <ele>3</ele>
        <time>2026-03-09T18:36:57.000Z</time>
      </trkpt>
      <trkpt lat="43.34314" lon="-1.81784">
        <ele>3</ele>
        <time>2026-03-09T18:36:59.000Z</time>
      </trkpt>
      <trkpt lat="43.34318" lon="-1.81767">
        <ele>4</ele>
        <time>2026-03-09T18:37:01.000Z</time>
      </trkpt>
      <trkpt lat="43.34323" lon="-1.81744">
        <ele>4</ele>
        <time>2026-03-09T18:37:04.000Z</time>
      </trkpt>
      <trkpt lat="43.34323" lon="-1.81744">
        <ele>4</ele>
        <time>2026-03-09T18:37:04.000Z</time>
      </trkpt>
      <trkpt lat="43.34322" lon="-1.81741">
        <ele>5</ele>
        <time>2026-03-09T18:37:05.000Z</time>
      </trkpt>
      <trkpt lat="43.34321" lon="-1.81739">
        <ele>5</ele>
        <time>2026-03-09T18:37:05.000Z</time>
      </trkpt>
      <trkpt lat="43.3432" lon="-1.81736">
        <ele>5</ele>
        <time>2026-03-09T18:37:05.000Z</time>
      </trkpt>
      <trkpt lat="43.34319" lon="-1.81733">
        <ele>5</ele>
        <time>2026-03-09T18:37:06.000Z</time>
      </trkpt>
      <trkpt lat="43.34318" lon="-1.8173">
        <ele>5</ele>
        <time>2026-03-09T18:37:06.000Z</time>
      </trkpt>
      <trkpt lat="43.34318" lon="-1.81727">
        <ele>5</ele>
        <time>2026-03-09T18:37:07.000Z</time>
      </trkpt>
      <trkpt lat="43.34318" lon="-1.81724">
        <ele>5</ele>
        <time>2026-03-09T18:37:07.000Z</time>
      </trkpt>
      <trkpt lat="43.34318" lon="-1.81719">
        <ele>6</ele>
        <time>2026-03-09T18:37:08.000Z</time>
      </trkpt>
      <trkpt lat="43.34318" lon="-1.81716">
        <ele>6</ele>
        <time>2026-03-09T18:37:08.000Z</time>
      </trkpt>
      <trkpt lat="43.34319" lon="-1.81713">
        <ele>6</ele>
        <time>2026-03-09T18:37:09.000Z</time>
      </trkpt>
      <trkpt lat="43.34319" lon="-1.81711">
        <ele>6</ele>
        <time>2026-03-09T18:37:09.000Z</time>
      </trkpt>
      <trkpt lat="43.3432" lon="-1.81708">
        <ele>6</ele>
        <time>2026-03-09T18:37:09.000Z</time>
      </trkpt>
      <trkpt lat="43.34321" lon="-1.81706">
        <ele>6</ele>
        <time>2026-03-09T18:37:10.000Z</time>
      </trkpt>
      <trkpt lat="43.34323" lon="-1.81703">
        <ele>6</ele>
        <time>2026-03-09T18:37:10.000Z</time>
      </trkpt>
      <trkpt lat="43.34324" lon="-1.81701">
        <ele>6</ele>
        <time>2026-03-09T18:37:10.000Z</time>
      </trkpt>
      <trkpt lat="43.34326" lon="-1.81699">
        <ele>7</ele>
        <time>2026-03-09T18:37:11.000Z</time>
      </trkpt>
      <trkpt lat="43.34327" lon="-1.81697">
        <ele>7</ele>
        <time>2026-03-09T18:37:11.000Z</time>
      </trkpt>
      <trkpt lat="43.34329" lon="-1.81696">
        <ele>7</ele>
        <time>2026-03-09T18:37:12.000Z</time>
      </trkpt>
      <trkpt lat="43.34331" lon="-1.81694">
        <ele>7</ele>
        <time>2026-03-09T18:37:12.000Z</time>
      </trkpt>
      <trkpt lat="43.34334" lon="-1.81693">
        <ele>7</ele>
        <time>2026-03-09T18:37:13.000Z</time>
      </trkpt>
      <trkpt lat="43.34336" lon="-1.81692">
        <ele>7</ele>
        <time>2026-03-09T18:37:13.000Z</time>
      </trkpt>
      <trkpt lat="43.34338" lon="-1.81692">
        <ele>6</ele>
        <time>2026-03-09T18:37:13.000Z</time>
      </trkpt>
      <trkpt lat="43.3434" lon="-1.81692">
        <ele>6</ele>
        <time>2026-03-09T18:37:14.000Z</time>
      </trkpt>
      <trkpt lat="43.34343" lon="-1.81692">
        <ele>6</ele>
        <time>2026-03-09T18:37:14.000Z</time>
      </trkpt>
      <trkpt lat="43.34345" lon="-1.81692">
        <ele>6</ele>
        <time>2026-03-09T18:37:14.000Z</time>
      </trkpt>
      <trkpt lat="43.34347" lon="-1.81693">
        <ele>6</ele>
        <time>2026-03-09T18:37:15.000Z</time>
      </trkpt>
      <trkpt lat="43.34349" lon="-1.81694">
        <ele>6</ele>
        <time>2026-03-09T18:37:15.000Z</time>
      </trkpt>
      <trkpt lat="43.34351" lon="-1.81696">
        <ele>5</ele>
        <time>2026-03-09T18:37:16.000Z</time>
      </trkpt>
      <trkpt lat="43.34353" lon="-1.81697">
        <ele>5</ele>
        <time>2026-03-09T18:37:16.000Z</time>
      </trkpt>
      <trkpt lat="43.34356" lon="-1.81701">
        <ele>5</ele>
        <time>2026-03-09T18:37:17.000Z</time>
      </trkpt>
      <trkpt lat="43.34386" lon="-1.8169">
        <ele>3</ele>
        <time>2026-03-09T18:37:22.000Z</time>
      </trkpt>
      <trkpt lat="43.34393" lon="-1.8169">
        <ele>3</ele>
        <time>2026-03-09T18:37:24.000Z</time>
      </trkpt>
      <trkpt lat="43.34394" lon="-1.81688">
        <ele>3</ele>
        <time>2026-03-09T18:37:24.000Z</time>
      </trkpt>
      <trkpt lat="43.34409" lon="-1.81671">
        <ele>2</ele>
        <time>2026-03-09T18:37:27.000Z</time>
      </trkpt>
      <trkpt lat="43.34427" lon="-1.81645">
        <ele>1</ele>
        <time>2026-03-09T18:37:32.000Z</time>
      </trkpt>
      <trkpt lat="43.34473" lon="-1.81578">
        <ele>2</ele>
        <time>2026-03-09T18:37:44.000Z</time>
      </trkpt>
      <trkpt lat="43.34493" lon="-1.8155">
        <ele>2</ele>
        <time>2026-03-09T18:37:49.000Z</time>
      </trkpt>
      <trkpt lat="43.3451" lon="-1.81526">
        <ele>1</ele>
        <time>2026-03-09T18:37:53.000Z</time>
      </trkpt>
      <trkpt lat="43.34563" lon="-1.81447">
        <ele>2</ele>
        <time>2026-03-09T18:38:07.000Z</time>
      </trkpt>
      <trkpt lat="43.3459" lon="-1.8141">
        <ele>3</ele>
        <time>2026-03-09T18:38:14.000Z</time>
      </trkpt>
      <trkpt lat="43.34673" lon="-1.81299">
        <ele>7</ele>
        <time>2026-03-09T18:38:35.000Z</time>
      </trkpt>
      <trkpt lat="43.34705" lon="-1.81255">
        <ele>9</ele>
        <time>2026-03-09T18:38:43.000Z</time>
      </trkpt>
      <trkpt lat="43.34705" lon="-1.81255">
        <ele>9</ele>
        <time>2026-03-09T18:38:43.000Z</time>
      </trkpt>
      <trkpt lat="43.34712" lon="-1.81235">
        <ele>9</ele>
        <time>2026-03-09T18:38:46.000Z</time>
      </trkpt>
      <trkpt lat="43.34725" lon="-1.81199">
        <ele>10</ele>
        <time>2026-03-09T18:38:51.000Z</time>
      </trkpt>
      <trkpt lat="43.34733" lon="-1.81172">
        <ele>10</ele>
        <time>2026-03-09T18:38:55.000Z</time>
      </trkpt>
      <trkpt lat="43.34739" lon="-1.81149">
        <ele>10</ele>
        <time>2026-03-09T18:38:58.000Z</time>
      </trkpt>
      <trkpt lat="43.34745" lon="-1.81118">
        <ele>8</ele>
        <time>2026-03-09T18:39:02.000Z</time>
      </trkpt>
      <trkpt lat="43.34749" lon="-1.81084">
        <ele>7</ele>
        <time>2026-03-09T18:39:06.000Z</time>
      </trkpt>
      <trkpt lat="43.34752" lon="-1.81059">
        <ele>6</ele>
        <time>2026-03-09T18:39:10.000Z</time>
      </trkpt>
      <trkpt lat="43.34753" lon="-1.81042">
        <ele>5</ele>
        <time>2026-03-09T18:39:12.000Z</time>
      </trkpt>
      <trkpt lat="43.34753" lon="-1.81024">
        <ele>5</ele>
        <time>2026-03-09T18:39:14.000Z</time>
      </trkpt>
      <trkpt lat="43.34754" lon="-1.81009">
        <ele>4</ele>
        <time>2026-03-09T18:39:16.000Z</time>
      </trkpt>
      <trkpt lat="43.34753" lon="-1.80995">
        <ele>4</ele>
        <time>2026-03-09T18:39:18.000Z</time>
      </trkpt>
      <trkpt lat="43.34753" lon="-1.80982">
        <ele>3</ele>
        <time>2026-03-09T18:39:20.000Z</time>
      </trkpt>
      <trkpt lat="43.34751" lon="-1.80959">
        <ele>3</ele>
        <time>2026-03-09T18:39:23.000Z</time>
      </trkpt>
      <trkpt lat="43.34751" lon="-1.80951">
        <ele>2</ele>
        <time>2026-03-09T18:39:24.000Z</time>
      </trkpt>
      <trkpt lat="43.3475" lon="-1.80945">
        <ele>2</ele>
        <time>2026-03-09T18:39:24.000Z</time>
      </trkpt>
      <trkpt lat="43.34751" lon="-1.80935">
        <ele>2</ele>
        <time>2026-03-09T18:39:26.000Z</time>
      </trkpt>
      <trkpt lat="43.34751" lon="-1.80935">
        <ele>2</ele>
        <time>2026-03-09T18:39:26.000Z</time>
      </trkpt>
      <trkpt lat="43.34748" lon="-1.80892">
        <ele>1</ele>
        <time>2026-03-09T18:39:31.000Z</time>
      </trkpt>
      <trkpt lat="43.34736" lon="-1.80782">
        <ele>2</ele>
        <time>2026-03-09T18:39:46.000Z</time>
      </trkpt>
      <trkpt lat="43.34732" lon="-1.80755">
        <ele>2</ele>
        <time>2026-03-09T18:39:49.000Z</time>
      </trkpt>
      <trkpt lat="43.34732" lon="-1.80751">
        <ele>2</ele>
        <time>2026-03-09T18:39:50.000Z</time>
      </trkpt>
      <trkpt lat="43.34722" lon="-1.8066">
        <ele>4</ele>
        <time>2026-03-09T18:40:02.000Z</time>
      </trkpt>
      <trkpt lat="43.34719" lon="-1.80625">
        <ele>4</ele>
        <time>2026-03-09T18:40:06.000Z</time>
      </trkpt>
      <trkpt lat="43.34706" lon="-1.80513">
        <ele>4</ele>
        <time>2026-03-09T18:40:21.000Z</time>
      </trkpt>
      <trkpt lat="43.347" lon="-1.80459">
        <ele>4</ele>
        <time>2026-03-09T18:40:28.000Z</time>
      </trkpt>
      <trkpt lat="43.34698" lon="-1.80449">
        <ele>4</ele>
        <time>2026-03-09T18:40:29.000Z</time>
      </trkpt>
      <trkpt lat="43.34696" lon="-1.80439">
        <ele>4</ele>
        <time>2026-03-09T18:40:31.000Z</time>
      </trkpt>
      <trkpt lat="43.34692" lon="-1.80427">
        <ele>4</ele>
        <time>2026-03-09T18:40:32.000Z</time>
      </trkpt>
      <trkpt lat="43.34688" lon="-1.80415">
        <ele>5</ele>
        <time>2026-03-09T18:40:34.000Z</time>
      </trkpt>
      <trkpt lat="43.34683" lon="-1.80404">
        <ele>5</ele>
        <time>2026-03-09T18:40:36.000Z</time>
      </trkpt>
      <trkpt lat="43.34678" lon="-1.80395">
        <ele>5</ele>
        <time>2026-03-09T18:40:37.000Z</time>
      </trkpt>
      <trkpt lat="43.34673" lon="-1.80386">
        <ele>5</ele>
        <time>2026-03-09T18:40:39.000Z</time>
      </trkpt>
      <trkpt lat="43.34652" lon="-1.80355">
        <ele>5</ele>
        <time>2026-03-09T18:40:44.000Z</time>
      </trkpt>
      <trkpt lat="43.34643" lon="-1.80342">
        <ele>6</ele>
        <time>2026-03-09T18:40:46.000Z</time>
      </trkpt>
      <trkpt lat="43.34638" lon="-1.80335">
        <ele>6</ele>
        <time>2026-03-09T18:40:48.000Z</time>
      </trkpt>
      <trkpt lat="43.34633" lon="-1.80324">
        <ele>6</ele>
        <time>2026-03-09T18:40:49.000Z</time>
      </trkpt>
      <trkpt lat="43.34629" lon="-1.80313">
        <ele>6</ele>
        <time>2026-03-09T18:40:51.000Z</time>
      </trkpt>
      <trkpt lat="43.34625" lon="-1.80301">
        <ele>6</ele>
        <time>2026-03-09T18:40:53.000Z</time>
      </trkpt>
      <trkpt lat="43.34622" lon="-1.80291">
        <ele>6</ele>
        <time>2026-03-09T18:40:54.000Z</time>
      </trkpt>
      <trkpt lat="43.34605" lon="-1.80207">
        <ele>6</ele>
        <time>2026-03-09T18:41:05.000Z</time>
      </trkpt>
      <trkpt lat="43.34603" lon="-1.80195">
        <ele>6</ele>
        <time>2026-03-09T18:41:07.000Z</time>
      </trkpt>
      <trkpt lat="43.34601" lon="-1.80188">
        <ele>6</ele>
        <time>2026-03-09T18:41:08.000Z</time>
      </trkpt>
      <trkpt lat="43.34601" lon="-1.80186">
        <ele>6</ele>
        <time>2026-03-09T18:41:08.000Z</time>
      </trkpt>
      <trkpt lat="43.34599" lon="-1.80177">
        <ele>6</ele>
        <time>2026-03-09T18:41:09.000Z</time>
      </trkpt>
      <trkpt lat="43.3458" lon="-1.80079">
        <ele>4</ele>
        <time>2026-03-09T18:41:23.000Z</time>
      </trkpt>
      <trkpt lat="43.34578" lon="-1.80066">
        <ele>4</ele>
        <time>2026-03-09T18:41:24.000Z</time>
      </trkpt>
      <trkpt lat="43.34577" lon="-1.80062">
        <ele>4</ele>
        <time>2026-03-09T18:41:25.000Z</time>
      </trkpt>
      <trkpt lat="43.34575" lon="-1.80053">
        <ele>5</ele>
        <time>2026-03-09T18:41:26.000Z</time>
      </trkpt>
      <trkpt lat="43.34567" lon="-1.80011">
        <ele>5</ele>
        <time>2026-03-09T18:41:32.000Z</time>
      </trkpt>
      <trkpt lat="43.34559" lon="-1.79977">
        <ele>6</ele>
        <time>2026-03-09T18:41:36.000Z</time>
      </trkpt>
      <trkpt lat="43.34557" lon="-1.79966">
        <ele>6</ele>
        <time>2026-03-09T18:41:38.000Z</time>
      </trkpt>
      <trkpt lat="43.3455" lon="-1.7994">
        <ele>7</ele>
        <time>2026-03-09T18:41:41.000Z</time>
      </trkpt>
      <trkpt lat="43.34545" lon="-1.79925">
        <ele>8</ele>
        <time>2026-03-09T18:41:43.000Z</time>
      </trkpt>
      <trkpt lat="43.34544" lon="-1.7992">
        <ele>8</ele>
        <time>2026-03-09T18:41:44.000Z</time>
      </trkpt>
      <trkpt lat="43.34539" lon="-1.79909">
        <ele>8</ele>
        <time>2026-03-09T18:41:46.000Z</time>
      </trkpt>
      <trkpt lat="43.34535" lon="-1.79895">
        <ele>8</ele>
        <time>2026-03-09T18:41:48.000Z</time>
      </trkpt>
      <trkpt lat="43.34534" lon="-1.79893">
        <ele>8</ele>
        <time>2026-03-09T18:41:48.000Z</time>
      </trkpt>
      <trkpt lat="43.34529" lon="-1.79879">
        <ele>8</ele>
        <time>2026-03-09T18:41:50.000Z</time>
      </trkpt>
      <trkpt lat="43.34522" lon="-1.79861">
        <ele>8</ele>
        <time>2026-03-09T18:41:53.000Z</time>
      </trkpt>
      <trkpt lat="43.34517" lon="-1.79849">
        <ele>8</ele>
        <time>2026-03-09T18:41:55.000Z</time>
      </trkpt>
      <trkpt lat="43.34512" lon="-1.79835">
        <ele>8</ele>
        <time>2026-03-09T18:41:57.000Z</time>
      </trkpt>
      <trkpt lat="43.34509" lon="-1.79826">
        <ele>8</ele>
        <time>2026-03-09T18:41:58.000Z</time>
      </trkpt>
      <trkpt lat="43.34506" lon="-1.79816">
        <ele>8</ele>
        <time>2026-03-09T18:41:59.000Z</time>
      </trkpt>
      <trkpt lat="43.34503" lon="-1.79808">
        <ele>8</ele>
        <time>2026-03-09T18:42:00.000Z</time>
      </trkpt>
      <trkpt lat="43.34503" lon="-1.79806">
        <ele>8</ele>
        <time>2026-03-09T18:42:01.000Z</time>
      </trkpt>
      <trkpt lat="43.34501" lon="-1.79797">
        <ele>8</ele>
        <time>2026-03-09T18:42:02.000Z</time>
      </trkpt>
      <trkpt lat="43.34499" lon="-1.7979">
        <ele>8</ele>
        <time>2026-03-09T18:42:03.000Z</time>
      </trkpt>
      <trkpt lat="43.34496" lon="-1.79778">
        <ele>8</ele>
        <time>2026-03-09T18:42:04.000Z</time>
      </trkpt>
      <trkpt lat="43.34494" lon="-1.79765">
        <ele>8</ele>
        <time>2026-03-09T18:42:06.000Z</time>
      </trkpt>
      <trkpt lat="43.34493" lon="-1.79754">
        <ele>8</ele>
        <time>2026-03-09T18:42:08.000Z</time>
      </trkpt>
      <trkpt lat="43.34491" lon="-1.79743">
        <ele>8</ele>
        <time>2026-03-09T18:42:09.000Z</time>
      </trkpt>
      <trkpt lat="43.3449" lon="-1.79727">
        <ele>7</ele>
        <time>2026-03-09T18:42:11.000Z</time>
      </trkpt>
      <trkpt lat="43.34489" lon="-1.79723">
        <ele>7</ele>
        <time>2026-03-09T18:42:12.000Z</time>
      </trkpt>
      <trkpt lat="43.34489" lon="-1.79716">
        <ele>7</ele>
        <time>2026-03-09T18:42:13.000Z</time>
      </trkpt>
      <trkpt lat="43.34489" lon="-1.79705">
        <ele>7</ele>
        <time>2026-03-09T18:42:14.000Z</time>
      </trkpt>
      <trkpt lat="43.34489" lon="-1.79692">
        <ele>7</ele>
        <time>2026-03-09T18:42:16.000Z</time>
      </trkpt>
      <trkpt lat="43.34489" lon="-1.79682">
        <ele>7</ele>
        <time>2026-03-09T18:42:17.000Z</time>
      </trkpt>
      <trkpt lat="43.34491" lon="-1.79661">
        <ele>7</ele>
        <time>2026-03-09T18:42:20.000Z</time>
      </trkpt>
      <trkpt lat="43.34491" lon="-1.79651">
        <ele>7</ele>
        <time>2026-03-09T18:42:21.000Z</time>
      </trkpt>
      <trkpt lat="43.34493" lon="-1.79638">
        <ele>7</ele>
        <time>2026-03-09T18:42:23.000Z</time>
      </trkpt>
      <trkpt lat="43.34493" lon="-1.7963">
        <ele>7</ele>
        <time>2026-03-09T18:42:24.000Z</time>
      </trkpt>
      <trkpt lat="43.34495" lon="-1.79618">
        <ele>7</ele>
        <time>2026-03-09T18:42:25.000Z</time>
      </trkpt>
      <trkpt lat="43.34495" lon="-1.79617">
        <ele>7</ele>
        <time>2026-03-09T18:42:26.000Z</time>
      </trkpt>
      <trkpt lat="43.34497" lon="-1.79604">
        <ele>7</ele>
        <time>2026-03-09T18:42:27.000Z</time>
      </trkpt>
      <trkpt lat="43.34503" lon="-1.79551">
        <ele>9</ele>
        <time>2026-03-09T18:42:34.000Z</time>
      </trkpt>
      <trkpt lat="43.34505" lon="-1.79536">
        <ele>10</ele>
        <time>2026-03-09T18:42:36.000Z</time>
      </trkpt>
      <trkpt lat="43.3451" lon="-1.795">
        <ele>12</ele>
        <time>2026-03-09T18:42:41.000Z</time>
      </trkpt>
      <trkpt lat="43.34513" lon="-1.79481">
        <ele>11</ele>
        <time>2026-03-09T18:42:43.000Z</time>
      </trkpt>
      <trkpt lat="43.34514" lon="-1.79474">
        <ele>11</ele>
        <time>2026-03-09T18:42:44.000Z</time>
      </trkpt>
      <trkpt lat="43.34515" lon="-1.79461">
        <ele>11</ele>
        <time>2026-03-09T18:42:46.000Z</time>
      </trkpt>
      <trkpt lat="43.34515" lon="-1.79446">
        <ele>11</ele>
        <time>2026-03-09T18:42:48.000Z</time>
      </trkpt>
      <trkpt lat="43.34515" lon="-1.79431">
        <ele>10</ele>
        <time>2026-03-09T18:42:50.000Z</time>
      </trkpt>
      <trkpt lat="43.34515" lon="-1.79416">
        <ele>10</ele>
        <time>2026-03-09T18:42:52.000Z</time>
      </trkpt>
      <trkpt lat="43.34514" lon="-1.79405">
        <ele>10</ele>
        <time>2026-03-09T18:42:53.000Z</time>
      </trkpt>
      <trkpt lat="43.34512" lon="-1.79397">
        <ele>10</ele>
        <time>2026-03-09T18:42:54.000Z</time>
      </trkpt>
      <trkpt lat="43.34509" lon="-1.79384">
        <ele>10</ele>
        <time>2026-03-09T18:42:56.000Z</time>
      </trkpt>
      <trkpt lat="43.34506" lon="-1.79375">
        <ele>9</ele>
        <time>2026-03-09T18:42:57.000Z</time>
      </trkpt>
      <trkpt lat="43.34502" lon="-1.79368">
        <ele>9</ele>
        <time>2026-03-09T18:42:59.000Z</time>
      </trkpt>
      <trkpt lat="43.34498" lon="-1.79358">
        <ele>9</ele>
        <time>2026-03-09T18:43:00.000Z</time>
      </trkpt>
      <trkpt lat="43.34493" lon="-1.7935">
        <ele>9</ele>
        <time>2026-03-09T18:43:01.000Z</time>
      </trkpt>
      <trkpt lat="43.34482" lon="-1.79335">
        <ele>10</ele>
        <time>2026-03-09T18:43:04.000Z</time>
      </trkpt>
      <trkpt lat="43.34474" lon="-1.79325">
        <ele>11</ele>
        <time>2026-03-09T18:43:06.000Z</time>
      </trkpt>
      <trkpt lat="43.34464" lon="-1.79313">
        <ele>12</ele>
        <time>2026-03-09T18:43:09.000Z</time>
      </trkpt>
      <trkpt lat="43.34452" lon="-1.79297">
        <ele>14</ele>
        <time>2026-03-09T18:43:11.000Z</time>
      </trkpt>
      <trkpt lat="43.34443" lon="-1.79285">
        <ele>15</ele>
        <time>2026-03-09T18:43:14.000Z</time>
      </trkpt>
      <trkpt lat="43.34439" lon="-1.79276">
        <ele>16</ele>
        <time>2026-03-09T18:43:15.000Z</time>
      </trkpt>
      <trkpt lat="43.34434" lon="-1.79265">
        <ele>17</ele>
        <time>2026-03-09T18:43:17.000Z</time>
      </trkpt>
      <trkpt lat="43.34425" lon="-1.79241">
        <ele>18</ele>
        <time>2026-03-09T18:43:20.000Z</time>
      </trkpt>
      <trkpt lat="43.34422" lon="-1.79229">
        <ele>18</ele>
        <time>2026-03-09T18:43:22.000Z</time>
      </trkpt>
      <trkpt lat="43.34416" lon="-1.79208">
        <ele>18</ele>
        <time>2026-03-09T18:43:25.000Z</time>
      </trkpt>
      <trkpt lat="43.34413" lon="-1.79191">
        <ele>17</ele>
        <time>2026-03-09T18:43:27.000Z</time>
      </trkpt>
      <trkpt lat="43.34409" lon="-1.79177">
        <ele>17</ele>
        <time>2026-03-09T18:43:29.000Z</time>
      </trkpt>
      <trkpt lat="43.34409" lon="-1.79177">
        <ele>17</ele>
        <time>2026-03-09T18:43:29.000Z</time>
      </trkpt>
      <trkpt lat="43.34407" lon="-1.7917">
        <ele>17</ele>
        <time>2026-03-09T18:43:30.000Z</time>
      </trkpt>
      <trkpt lat="43.34405" lon="-1.79166">
        <ele>17</ele>
        <time>2026-03-09T18:43:31.000Z</time>
      </trkpt>
      <trkpt lat="43.34405" lon="-1.79162">
        <ele>17</ele>
        <time>2026-03-09T18:43:31.000Z</time>
      </trkpt>
      <trkpt lat="43.34403" lon="-1.79154">
        <ele>17</ele>
        <time>2026-03-09T18:43:32.000Z</time>
      </trkpt>
      <trkpt lat="43.34401" lon="-1.79138">
        <ele>17</ele>
        <time>2026-03-09T18:43:34.000Z</time>
      </trkpt>
      <trkpt lat="43.34394" lon="-1.79084">
        <ele>16</ele>
        <time>2026-03-09T18:43:41.000Z</time>
      </trkpt>
      <trkpt lat="43.3439" lon="-1.79055">
        <ele>15</ele>
        <time>2026-03-09T18:43:45.000Z</time>
      </trkpt>
      <trkpt lat="43.34386" lon="-1.79035">
        <ele>14</ele>
        <time>2026-03-09T18:43:48.000Z</time>
      </trkpt>
      <trkpt lat="43.34383" lon="-1.79015">
        <ele>13</ele>
        <time>2026-03-09T18:43:51.000Z</time>
      </trkpt>
      <trkpt lat="43.34382" lon="-1.79">
        <ele>13</ele>
        <time>2026-03-09T18:43:53.000Z</time>
      </trkpt>
      <trkpt lat="43.34381" lon="-1.78985">
        <ele>12</ele>
        <time>2026-03-09T18:43:54.000Z</time>
      </trkpt>
      <trkpt lat="43.3438" lon="-1.78969">
        <ele>11</ele>
        <time>2026-03-09T18:43:57.000Z</time>
      </trkpt>
      <trkpt lat="43.3438" lon="-1.78961">
        <ele>11</ele>
        <time>2026-03-09T18:43:58.000Z</time>
      </trkpt>
      <trkpt lat="43.3438" lon="-1.7896">
        <ele>11</ele>
        <time>2026-03-09T18:43:58.000Z</time>
      </trkpt>
      <trkpt lat="43.3438" lon="-1.78953">
        <ele>10</ele>
        <time>2026-03-09T18:43:59.000Z</time>
      </trkpt>
      <trkpt lat="43.34379" lon="-1.78948">
        <ele>10</ele>
        <time>2026-03-09T18:43:59.000Z</time>
      </trkpt>
      <trkpt lat="43.34379" lon="-1.78941">
        <ele>10</ele>
        <time>2026-03-09T18:44:00.000Z</time>
      </trkpt>
      <trkpt lat="43.34378" lon="-1.78936">
        <ele>10</ele>
        <time>2026-03-09T18:44:01.000Z</time>
      </trkpt>
      <trkpt lat="43.34376" lon="-1.7893">
        <ele>9</ele>
        <time>2026-03-09T18:44:02.000Z</time>
      </trkpt>
      <trkpt lat="43.34375" lon="-1.78925">
        <ele>9</ele>
        <time>2026-03-09T18:44:02.000Z</time>
      </trkpt>
      <trkpt lat="43.34373" lon="-1.78921">
        <ele>9</ele>
        <time>2026-03-09T18:44:03.000Z</time>
      </trkpt>
      <trkpt lat="43.3437" lon="-1.78916">
        <ele>8</ele>
        <time>2026-03-09T18:44:04.000Z</time>
      </trkpt>
      <trkpt lat="43.34368" lon="-1.78911">
        <ele>8</ele>
        <time>2026-03-09T18:44:05.000Z</time>
      </trkpt>
      <trkpt lat="43.34368" lon="-1.78911">
        <ele>8</ele>
        <time>2026-03-09T18:44:05.000Z</time>
      </trkpt>
      <trkpt lat="43.34366" lon="-1.78911">
        <ele>8</ele>
        <time>2026-03-09T18:44:05.000Z</time>
      </trkpt>
      <trkpt lat="43.34364" lon="-1.78911">
        <ele>8</ele>
        <time>2026-03-09T18:44:05.000Z</time>
      </trkpt>
      <trkpt lat="43.34363" lon="-1.78911">
        <ele>8</ele>
        <time>2026-03-09T18:44:05.000Z</time>
      </trkpt>
      <trkpt lat="43.34361" lon="-1.78911">
        <ele>8</ele>
        <time>2026-03-09T18:44:06.000Z</time>
      </trkpt>
      <trkpt lat="43.34359" lon="-1.78911">
        <ele>8</ele>
        <time>2026-03-09T18:44:06.000Z</time>
      </trkpt>
      <trkpt lat="43.34358" lon="-1.7891">
        <ele>8</ele>
        <time>2026-03-09T18:44:06.000Z</time>
      </trkpt>
      <trkpt lat="43.34356" lon="-1.78909">
        <ele>8</ele>
        <time>2026-03-09T18:44:07.000Z</time>
      </trkpt>
      <trkpt lat="43.34355" lon="-1.78908">
        <ele>8</ele>
        <time>2026-03-09T18:44:07.000Z</time>
      </trkpt>
      <trkpt lat="43.34353" lon="-1.78907">
        <ele>8</ele>
        <time>2026-03-09T18:44:07.000Z</time>
      </trkpt>
      <trkpt lat="43.34352" lon="-1.78905">
        <ele>8</ele>
        <time>2026-03-09T18:44:08.000Z</time>
      </trkpt>
      <trkpt lat="43.34351" lon="-1.78904">
        <ele>7</ele>
        <time>2026-03-09T18:44:08.000Z</time>
      </trkpt>
      <trkpt lat="43.3435" lon="-1.78902">
        <ele>7</ele>
        <time>2026-03-09T18:44:08.000Z</time>
      </trkpt>
      <trkpt lat="43.34348" lon="-1.78899">
        <ele>7</ele>
        <time>2026-03-09T18:44:09.000Z</time>
      </trkpt>
      <trkpt lat="43.34347" lon="-1.78897">
        <ele>7</ele>
        <time>2026-03-09T18:44:09.000Z</time>
      </trkpt>
      <trkpt lat="43.34347" lon="-1.78896">
        <ele>7</ele>
        <time>2026-03-09T18:44:09.000Z</time>
      </trkpt>
      <trkpt lat="43.34346" lon="-1.78894">
        <ele>7</ele>
        <time>2026-03-09T18:44:10.000Z</time>
      </trkpt>
      <trkpt lat="43.34346" lon="-1.78892">
        <ele>7</ele>
        <time>2026-03-09T18:44:10.000Z</time>
      </trkpt>
      <trkpt lat="43.34345" lon="-1.7889">
        <ele>7</ele>
        <time>2026-03-09T18:44:10.000Z</time>
      </trkpt>
      <trkpt lat="43.34345" lon="-1.78888">
        <ele>6</ele>
        <time>2026-03-09T18:44:10.000Z</time>
      </trkpt>
      <trkpt lat="43.34345" lon="-1.78887">
        <ele>6</ele>
        <time>2026-03-09T18:44:10.000Z</time>
      </trkpt>
      <trkpt lat="43.34345" lon="-1.78885">
        <ele>6</ele>
        <time>2026-03-09T18:44:11.000Z</time>
      </trkpt>
      <trkpt lat="43.34345" lon="-1.78882">
        <ele>6</ele>
        <time>2026-03-09T18:44:11.000Z</time>
      </trkpt>
      <trkpt lat="43.34345" lon="-1.7888">
        <ele>6</ele>
        <time>2026-03-09T18:44:11.000Z</time>
      </trkpt>
      <trkpt lat="43.34346" lon="-1.78878">
        <ele>6</ele>
        <time>2026-03-09T18:44:12.000Z</time>
      </trkpt>
      <trkpt lat="43.34346" lon="-1.78876">
        <ele>6</ele>
        <time>2026-03-09T18:44:12.000Z</time>
      </trkpt>
      <trkpt lat="43.34347" lon="-1.78874">
        <ele>6</ele>
        <time>2026-03-09T18:44:12.000Z</time>
      </trkpt>
      <trkpt lat="43.34348" lon="-1.78871">
        <ele>5</ele>
        <time>2026-03-09T18:44:13.000Z</time>
      </trkpt>
      <trkpt lat="43.34348" lon="-1.7887">
        <ele>5</ele>
        <time>2026-03-09T18:44:13.000Z</time>
      </trkpt>
      <trkpt lat="43.34349" lon="-1.78868">
        <ele>5</ele>
        <time>2026-03-09T18:44:13.000Z</time>
      </trkpt>
      <trkpt lat="43.34351" lon="-1.78866">
        <ele>5</ele>
        <time>2026-03-09T18:44:14.000Z</time>
      </trkpt>
      <trkpt lat="43.34352" lon="-1.78864">
        <ele>5</ele>
        <time>2026-03-09T18:44:14.000Z</time>
      </trkpt>
      <trkpt lat="43.34353" lon="-1.78863">
        <ele>5</ele>
        <time>2026-03-09T18:44:14.000Z</time>
      </trkpt>
      <trkpt lat="43.34354" lon="-1.78862">
        <ele>5</ele>
        <time>2026-03-09T18:44:14.000Z</time>
      </trkpt>
      <trkpt lat="43.34356" lon="-1.78861">
        <ele>5</ele>
        <time>2026-03-09T18:44:15.000Z</time>
      </trkpt>
      <trkpt lat="43.34357" lon="-1.7886">
        <ele>5</ele>
        <time>2026-03-09T18:44:15.000Z</time>
      </trkpt>
      <trkpt lat="43.34359" lon="-1.78859">
        <ele>5</ele>
        <time>2026-03-09T18:44:15.000Z</time>
      </trkpt>
      <trkpt lat="43.34361" lon="-1.78859">
        <ele>5</ele>
        <time>2026-03-09T18:44:16.000Z</time>
      </trkpt>
      <trkpt lat="43.34363" lon="-1.78858">
        <ele>5</ele>
        <time>2026-03-09T18:44:16.000Z</time>
      </trkpt>
      <trkpt lat="43.34366" lon="-1.78858">
        <ele>5</ele>
        <time>2026-03-09T18:44:17.000Z</time>
      </trkpt>
      <trkpt lat="43.34367" lon="-1.78858">
        <ele>5</ele>
        <time>2026-03-09T18:44:17.000Z</time>
      </trkpt>
      <trkpt lat="43.34369" lon="-1.78859">
        <ele>5</ele>
        <time>2026-03-09T18:44:17.000Z</time>
      </trkpt>
      <trkpt lat="43.3437" lon="-1.78859">
        <ele>5</ele>
        <time>2026-03-09T18:44:17.000Z</time>
      </trkpt>
      <trkpt lat="43.34372" lon="-1.7886">
        <ele>5</ele>
        <time>2026-03-09T18:44:18.000Z</time>
      </trkpt>
      <trkpt lat="43.34373" lon="-1.78861">
        <ele>5</ele>
        <time>2026-03-09T18:44:18.000Z</time>
      </trkpt>
      <trkpt lat="43.34375" lon="-1.78862">
        <ele>5</ele>
        <time>2026-03-09T18:44:18.000Z</time>
      </trkpt>
      <trkpt lat="43.34376" lon="-1.78864">
        <ele>5</ele>
        <time>2026-03-09T18:44:19.000Z</time>
      </trkpt>
      <trkpt lat="43.34378" lon="-1.78865">
        <ele>5</ele>
        <time>2026-03-09T18:44:19.000Z</time>
      </trkpt>
      <trkpt lat="43.34379" lon="-1.78867">
        <ele>6</ele>
        <time>2026-03-09T18:44:19.000Z</time>
      </trkpt>
      <trkpt lat="43.3438" lon="-1.78869">
        <ele>6</ele>
        <time>2026-03-09T18:44:20.000Z</time>
      </trkpt>
      <trkpt lat="43.34398" lon="-1.7886">
        <ele>5</ele>
        <time>2026-03-09T18:44:23.000Z</time>
      </trkpt>
      <trkpt lat="43.344" lon="-1.78859">
        <ele>5</ele>
        <time>2026-03-09T18:44:23.000Z</time>
      </trkpt>
      <trkpt lat="43.34415" lon="-1.78852">
        <ele>5</ele>
        <time>2026-03-09T18:44:26.000Z</time>
      </trkpt>
      <trkpt lat="43.34432" lon="-1.78849">
        <ele>5</ele>
        <time>2026-03-09T18:44:29.000Z</time>
      </trkpt>
      <trkpt lat="43.34452" lon="-1.78842">
        <ele>4</ele>
        <time>2026-03-09T18:44:33.000Z</time>
      </trkpt>
      <trkpt lat="43.34464" lon="-1.78837">
        <ele>4</ele>
        <time>2026-03-09T18:44:35.000Z</time>
      </trkpt>
      <trkpt lat="43.3447" lon="-1.78835">
        <ele>3</ele>
        <time>2026-03-09T18:44:36.000Z</time>
      </trkpt>
      <trkpt lat="43.34491" lon="-1.78824">
        <ele>3</ele>
        <time>2026-03-09T18:44:40.000Z</time>
      </trkpt>
      <trkpt lat="43.34515" lon="-1.78813">
        <ele>3</ele>
        <time>2026-03-09T18:44:45.000Z</time>
      </trkpt>
      <trkpt lat="43.34532" lon="-1.78796">
        <ele>3</ele>
        <time>2026-03-09T18:44:49.000Z</time>
      </trkpt>
      <trkpt lat="43.34532" lon="-1.78796">
        <ele>3</ele>
        <time>2026-03-09T18:44:49.000Z</time>
      </trkpt>
      <trkpt lat="43.34532" lon="-1.78794">
        <ele>3</ele>
        <time>2026-03-09T18:44:49.000Z</time>
      </trkpt>
      <trkpt lat="43.34532" lon="-1.78792">
        <ele>3</ele>
        <time>2026-03-09T18:44:49.000Z</time>
      </trkpt>
      <trkpt lat="43.34533" lon="-1.78789">
        <ele>3</ele>
        <time>2026-03-09T18:44:49.000Z</time>
      </trkpt>
      <trkpt lat="43.34533" lon="-1.78787">
        <ele>3</ele>
        <time>2026-03-09T18:44:50.000Z</time>
      </trkpt>
      <trkpt lat="43.34534" lon="-1.78785">
        <ele>3</ele>
        <time>2026-03-09T18:44:50.000Z</time>
      </trkpt>
      <trkpt lat="43.34534" lon="-1.78782">
        <ele>3</ele>
        <time>2026-03-09T18:44:50.000Z</time>
      </trkpt>
      <trkpt lat="43.34535" lon="-1.7878">
        <ele>3</ele>
        <time>2026-03-09T18:44:51.000Z</time>
      </trkpt>
      <trkpt lat="43.34536" lon="-1.78778">
        <ele>3</ele>
        <time>2026-03-09T18:44:51.000Z</time>
      </trkpt>
      <trkpt lat="43.34537" lon="-1.78776">
        <ele>3</ele>
        <time>2026-03-09T18:44:51.000Z</time>
      </trkpt>
      <trkpt lat="43.34538" lon="-1.78775">
        <ele>3</ele>
        <time>2026-03-09T18:44:52.000Z</time>
      </trkpt>
      <trkpt lat="43.3454" lon="-1.78773">
        <ele>3</ele>
        <time>2026-03-09T18:44:52.000Z</time>
      </trkpt>
      <trkpt lat="43.34541" lon="-1.78772">
        <ele>3</ele>
        <time>2026-03-09T18:44:52.000Z</time>
      </trkpt>
      <trkpt lat="43.34543" lon="-1.7877">
        <ele>3</ele>
        <time>2026-03-09T18:44:53.000Z</time>
      </trkpt>
      <trkpt lat="43.34544" lon="-1.78769">
        <ele>3</ele>
        <time>2026-03-09T18:44:53.000Z</time>
      </trkpt>
      <trkpt lat="43.34546" lon="-1.78768">
        <ele>3</ele>
        <time>2026-03-09T18:44:53.000Z</time>
      </trkpt>
      <trkpt lat="43.34548" lon="-1.78768">
        <ele>3</ele>
        <time>2026-03-09T18:44:54.000Z</time>
      </trkpt>
      <trkpt lat="43.34549" lon="-1.78767">
        <ele>3</ele>
        <time>2026-03-09T18:44:54.000Z</time>
      </trkpt>
      <trkpt lat="43.3455" lon="-1.78767">
        <ele>3</ele>
        <time>2026-03-09T18:44:54.000Z</time>
      </trkpt>
      <trkpt lat="43.34552" lon="-1.78767">
        <ele>3</ele>
        <time>2026-03-09T18:44:54.000Z</time>
      </trkpt>
      <trkpt lat="43.34553" lon="-1.78767">
        <ele>3</ele>
        <time>2026-03-09T18:44:55.000Z</time>
      </trkpt>
      <trkpt lat="43.34554" lon="-1.78767">
        <ele>3</ele>
        <time>2026-03-09T18:44:55.000Z</time>
      </trkpt>
      <trkpt lat="43.34555" lon="-1.78767">
        <ele>3</ele>
        <time>2026-03-09T18:44:55.000Z</time>
      </trkpt>
      <trkpt lat="43.34557" lon="-1.78768">
        <ele>3</ele>
        <time>2026-03-09T18:44:55.000Z</time>
      </trkpt>
      <trkpt lat="43.34558" lon="-1.78768">
        <ele>3</ele>
        <time>2026-03-09T18:44:55.000Z</time>
      </trkpt>
      <trkpt lat="43.34559" lon="-1.78769">
        <ele>3</ele>
        <time>2026-03-09T18:44:56.000Z</time>
      </trkpt>
      <trkpt lat="43.34561" lon="-1.7877">
        <ele>3</ele>
        <time>2026-03-09T18:44:56.000Z</time>
      </trkpt>
      <trkpt lat="43.34562" lon="-1.78771">
        <ele>3</ele>
        <time>2026-03-09T18:44:56.000Z</time>
      </trkpt>
      <trkpt lat="43.34564" lon="-1.78772">
        <ele>3</ele>
        <time>2026-03-09T18:44:57.000Z</time>
      </trkpt>
      <trkpt lat="43.34565" lon="-1.78773">
        <ele>3</ele>
        <time>2026-03-09T18:44:57.000Z</time>
      </trkpt>
      <trkpt lat="43.34566" lon="-1.78775">
        <ele>3</ele>
        <time>2026-03-09T18:44:57.000Z</time>
      </trkpt>
      <trkpt lat="43.34567" lon="-1.78777">
        <ele>3</ele>
        <time>2026-03-09T18:44:58.000Z</time>
      </trkpt>
      <trkpt lat="43.34568" lon="-1.78778">
        <ele>3</ele>
        <time>2026-03-09T18:44:58.000Z</time>
      </trkpt>
      <trkpt lat="43.34585" lon="-1.78773">
        <ele>3</ele>
        <time>2026-03-09T18:45:01.000Z</time>
      </trkpt>
      <trkpt lat="43.34594" lon="-1.78769">
        <ele>3</ele>
        <time>2026-03-09T18:45:03.000Z</time>
      </trkpt>
      <trkpt lat="43.34604" lon="-1.78765">
        <ele>3</ele>
        <time>2026-03-09T18:45:04.000Z</time>
      </trkpt>
      <trkpt lat="43.3465" lon="-1.78743">
        <ele>2</ele>
        <time>2026-03-09T18:45:13.000Z</time>
      </trkpt>
      <trkpt lat="43.34714" lon="-1.78712">
        <ele>3</ele>
        <time>2026-03-09T18:45:25.000Z</time>
      </trkpt>
      <trkpt lat="43.34719" lon="-1.7871">
        <ele>3</ele>
        <time>2026-03-09T18:45:26.000Z</time>
      </trkpt>
      <trkpt lat="43.34729" lon="-1.78705">
        <ele>3</ele>
        <time>2026-03-09T18:45:28.000Z</time>
      </trkpt>
      <trkpt lat="43.34734" lon="-1.78702">
        <ele>3</ele>
        <time>2026-03-09T18:45:29.000Z</time>
      </trkpt>
      <trkpt lat="43.34735" lon="-1.78702">
        <ele>3</ele>
        <time>2026-03-09T18:45:29.000Z</time>
      </trkpt>
      <trkpt lat="43.34738" lon="-1.78699">
        <ele>3</ele>
        <time>2026-03-09T18:45:30.000Z</time>
      </trkpt>
      <trkpt lat="43.34744" lon="-1.78694">
        <ele>4</ele>
        <time>2026-03-09T18:45:31.000Z</time>
      </trkpt>
      <trkpt lat="43.34749" lon="-1.78687">
        <ele>4</ele>
        <time>2026-03-09T18:45:32.000Z</time>
      </trkpt>
      <trkpt lat="43.34754" lon="-1.78682">
        <ele>4</ele>
        <time>2026-03-09T18:45:33.000Z</time>
      </trkpt>
      <trkpt lat="43.34754" lon="-1.78682">
        <ele>4</ele>
        <time>2026-03-09T18:45:33.000Z</time>
      </trkpt>
      <trkpt lat="43.34754" lon="-1.78679">
        <ele>4</ele>
        <time>2026-03-09T18:45:34.000Z</time>
      </trkpt>
      <trkpt lat="43.34754" lon="-1.78676">
        <ele>4</ele>
        <time>2026-03-09T18:45:34.000Z</time>
      </trkpt>
      <trkpt lat="43.34754" lon="-1.78674">
        <ele>4</ele>
        <time>2026-03-09T18:45:34.000Z</time>
      </trkpt>
      <trkpt lat="43.34754" lon="-1.78671">
        <ele>4</ele>
        <time>2026-03-09T18:45:35.000Z</time>
      </trkpt>
      <trkpt lat="43.34754" lon="-1.78669">
        <ele>4</ele>
        <time>2026-03-09T18:45:35.000Z</time>
      </trkpt>
      <trkpt lat="43.34755" lon="-1.78666">
        <ele>4</ele>
        <time>2026-03-09T18:45:35.000Z</time>
      </trkpt>
      <trkpt lat="43.34756" lon="-1.78664">
        <ele>4</ele>
        <time>2026-03-09T18:45:36.000Z</time>
      </trkpt>
      <trkpt lat="43.34756" lon="-1.78662">
        <ele>4</ele>
        <time>2026-03-09T18:45:36.000Z</time>
      </trkpt>
      <trkpt lat="43.34757" lon="-1.7866">
        <ele>4</ele>
        <time>2026-03-09T18:45:36.000Z</time>
      </trkpt>
      <trkpt lat="43.34759" lon="-1.78658">
        <ele>4</ele>
        <time>2026-03-09T18:45:37.000Z</time>
      </trkpt>
      <trkpt lat="43.3476" lon="-1.78656">
        <ele>4</ele>
        <time>2026-03-09T18:45:37.000Z</time>
      </trkpt>
      <trkpt lat="43.34761" lon="-1.78654">
        <ele>4</ele>
        <time>2026-03-09T18:45:37.000Z</time>
      </trkpt>
      <trkpt lat="43.34763" lon="-1.78653">
        <ele>4</ele>
        <time>2026-03-09T18:45:38.000Z</time>
      </trkpt>
      <trkpt lat="43.34764" lon="-1.78651">
        <ele>5</ele>
        <time>2026-03-09T18:45:38.000Z</time>
      </trkpt>
      <trkpt lat="43.34766" lon="-1.7865">
        <ele>5</ele>
        <time>2026-03-09T18:45:39.000Z</time>
      </trkpt>
      <trkpt lat="43.34768" lon="-1.78649">
        <ele>5</ele>
        <time>2026-03-09T18:45:39.000Z</time>
      </trkpt>
      <trkpt lat="43.3477" lon="-1.78649">
        <ele>5</ele>
        <time>2026-03-09T18:45:39.000Z</time>
      </trkpt>
      <trkpt lat="43.34771" lon="-1.78648">
        <ele>5</ele>
        <time>2026-03-09T18:45:39.000Z</time>
      </trkpt>
      <trkpt lat="43.34773" lon="-1.78648">
        <ele>5</ele>
        <time>2026-03-09T18:45:40.000Z</time>
      </trkpt>
      <trkpt lat="43.34775" lon="-1.78648">
        <ele>5</ele>
        <time>2026-03-09T18:45:40.000Z</time>
      </trkpt>
      <trkpt lat="43.34777" lon="-1.78648">
        <ele>5</ele>
        <time>2026-03-09T18:45:41.000Z</time>
      </trkpt>
      <trkpt lat="43.34779" lon="-1.78649">
        <ele>5</ele>
        <time>2026-03-09T18:45:41.000Z</time>
      </trkpt>
      <trkpt lat="43.3478" lon="-1.7865">
        <ele>5</ele>
        <time>2026-03-09T18:45:41.000Z</time>
      </trkpt>
      <trkpt lat="43.34782" lon="-1.7865">
        <ele>5</ele>
        <time>2026-03-09T18:45:41.000Z</time>
      </trkpt>
      <trkpt lat="43.34784" lon="-1.78652">
        <ele>5</ele>
        <time>2026-03-09T18:45:42.000Z</time>
      </trkpt>
      <trkpt lat="43.34785" lon="-1.78653">
        <ele>5</ele>
        <time>2026-03-09T18:45:42.000Z</time>
      </trkpt>
      <trkpt lat="43.34809" lon="-1.78623">
        <ele>6</ele>
        <time>2026-03-09T18:45:48.000Z</time>
      </trkpt>
      <trkpt lat="43.3493" lon="-1.78464">
        <ele>3</ele>
        <time>2026-03-09T18:46:18.000Z</time>
      </trkpt>
      <trkpt lat="43.3493" lon="-1.78464">
        <ele>3</ele>
        <time>2026-03-09T18:46:18.000Z</time>
      </trkpt>
      <trkpt lat="43.34957" lon="-1.7843">
        <ele>5</ele>
        <time>2026-03-09T18:46:24.000Z</time>
      </trkpt>
      <trkpt lat="43.34966" lon="-1.7842">
        <ele>6</ele>
        <time>2026-03-09T18:46:26.000Z</time>
      </trkpt>
      <trkpt lat="43.34978" lon="-1.78407">
        <ele>6</ele>
        <time>2026-03-09T18:46:29.000Z</time>
      </trkpt>
      <trkpt lat="43.34985" lon="-1.784">
        <ele>7</ele>
        <time>2026-03-09T18:46:31.000Z</time>
      </trkpt>
      <trkpt lat="43.35006" lon="-1.78371">
        <ele>9</ele>
        <time>2026-03-09T18:46:36.000Z</time>
      </trkpt>
      <trkpt lat="43.35014" lon="-1.78362">
        <ele>10</ele>
        <time>2026-03-09T18:46:38.000Z</time>
      </trkpt>
      <trkpt lat="43.35018" lon="-1.78358">
        <ele>10</ele>
        <time>2026-03-09T18:46:39.000Z</time>
      </trkpt>
      <trkpt lat="43.35037" lon="-1.78331">
        <ele>12</ele>
        <time>2026-03-09T18:46:43.000Z</time>
      </trkpt>
      <trkpt lat="43.35053" lon="-1.78305">
        <ele>14</ele>
        <time>2026-03-09T18:46:48.000Z</time>
      </trkpt>
      <trkpt lat="43.35062" lon="-1.78292">
        <ele>15</ele>
        <time>2026-03-09T18:46:50.000Z</time>
      </trkpt>
      <trkpt lat="43.35066" lon="-1.78286">
        <ele>15</ele>
        <time>2026-03-09T18:46:51.000Z</time>
      </trkpt>
      <trkpt lat="43.35068" lon="-1.78284">
        <ele>15</ele>
        <time>2026-03-09T18:46:52.000Z</time>
      </trkpt>
      <trkpt lat="43.3507" lon="-1.78283">
        <ele>15</ele>
        <time>2026-03-09T18:46:52.000Z</time>
      </trkpt>
      <trkpt lat="43.35071" lon="-1.78282">
        <ele>16</ele>
        <time>2026-03-09T18:46:52.000Z</time>
      </trkpt>
      <trkpt lat="43.35071" lon="-1.78282">
        <ele>16</ele>
        <time>2026-03-09T18:46:52.000Z</time>
      </trkpt>
      <trkpt lat="43.3507" lon="-1.78281">
        <ele>16</ele>
        <time>2026-03-09T18:46:52.000Z</time>
      </trkpt>
      <trkpt lat="43.35068" lon="-1.78278">
        <ele>16</ele>
        <time>2026-03-09T18:46:53.000Z</time>
      </trkpt>
      <trkpt lat="43.35064" lon="-1.7827">
        <ele>16</ele>
        <time>2026-03-09T18:46:54.000Z</time>
      </trkpt>
      <trkpt lat="43.35049" lon="-1.78247">
        <ele>15</ele>
        <time>2026-03-09T18:46:58.000Z</time>
      </trkpt>
      <trkpt lat="43.35032" lon="-1.78219">
        <ele>14</ele>
        <time>2026-03-09T18:47:03.000Z</time>
      </trkpt>
      <trkpt lat="43.3503" lon="-1.78215">
        <ele>14</ele>
        <time>2026-03-09T18:47:04.000Z</time>
      </trkpt>
      <trkpt lat="43.35028" lon="-1.78212">
        <ele>14</ele>
        <time>2026-03-09T18:47:04.000Z</time>
      </trkpt>
      <trkpt lat="43.35022" lon="-1.78199">
        <ele>13</ele>
        <time>2026-03-09T18:47:06.000Z</time>
      </trkpt>
      <trkpt lat="43.3502" lon="-1.78194">
        <ele>13</ele>
        <time>2026-03-09T18:47:07.000Z</time>
      </trkpt>
      <trkpt lat="43.35017" lon="-1.78188">
        <ele>13</ele>
        <time>2026-03-09T18:47:08.000Z</time>
      </trkpt>
      <trkpt lat="43.35013" lon="-1.78181">
        <ele>13</ele>
        <time>2026-03-09T18:47:09.000Z</time>
      </trkpt>
      <trkpt lat="43.35011" lon="-1.78173">
        <ele>13</ele>
        <time>2026-03-09T18:47:10.000Z</time>
      </trkpt>
      <trkpt lat="43.3501" lon="-1.78166">
        <ele>13</ele>
        <time>2026-03-09T18:47:11.000Z</time>
      </trkpt>
      <trkpt lat="43.3501" lon="-1.78161">
        <ele>13</ele>
        <time>2026-03-09T18:47:12.000Z</time>
      </trkpt>
      <trkpt lat="43.35009" lon="-1.7816">
        <ele>13</ele>
        <time>2026-03-09T18:47:12.000Z</time>
      </trkpt>
      <trkpt lat="43.35008" lon="-1.78159">
        <ele>13</ele>
        <time>2026-03-09T18:47:12.000Z</time>
      </trkpt>
      <trkpt lat="43.35008" lon="-1.78158">
        <ele>13</ele>
        <time>2026-03-09T18:47:12.000Z</time>
      </trkpt>
      <trkpt lat="43.35007" lon="-1.78158">
        <ele>13</ele>
        <time>2026-03-09T18:47:12.000Z</time>
      </trkpt>
      <trkpt lat="43.35007" lon="-1.78157">
        <ele>13</ele>
        <time>2026-03-09T18:47:12.000Z</time>
      </trkpt>
      <trkpt lat="43.35007" lon="-1.78156">
        <ele>13</ele>
        <time>2026-03-09T18:47:13.000Z</time>
      </trkpt>
      <trkpt lat="43.35006" lon="-1.78156">
        <ele>13</ele>
        <time>2026-03-09T18:47:13.000Z</time>
      </trkpt>
      <trkpt lat="43.35006" lon="-1.78155">
        <ele>13</ele>
        <time>2026-03-09T18:47:13.000Z</time>
      </trkpt>
      <trkpt lat="43.35006" lon="-1.78154">
        <ele>13</ele>
        <time>2026-03-09T18:47:13.000Z</time>
      </trkpt>
      <trkpt lat="43.35005" lon="-1.78154">
        <ele>13</ele>
        <time>2026-03-09T18:47:13.000Z</time>
      </trkpt>
      <trkpt lat="43.35005" lon="-1.78153">
        <ele>13</ele>
        <time>2026-03-09T18:47:13.000Z</time>
      </trkpt>
      <trkpt lat="43.35005" lon="-1.78152">
        <ele>13</ele>
        <time>2026-03-09T18:47:13.000Z</time>
      </trkpt>
      <trkpt lat="43.35004" lon="-1.78151">
        <ele>13</ele>
        <time>2026-03-09T18:47:14.000Z</time>
      </trkpt>
      <trkpt lat="43.35004" lon="-1.7815">
        <ele>13</ele>
        <time>2026-03-09T18:47:14.000Z</time>
      </trkpt>
      <trkpt lat="43.35004" lon="-1.78149">
        <ele>13</ele>
        <time>2026-03-09T18:47:14.000Z</time>
      </trkpt>
      <trkpt lat="43.35004" lon="-1.78148">
        <ele>13</ele>
        <time>2026-03-09T18:47:14.000Z</time>
      </trkpt>
      <trkpt lat="43.35004" lon="-1.78147">
        <ele>13</ele>
        <time>2026-03-09T18:47:14.000Z</time>
      </trkpt>
      <trkpt lat="43.35004" lon="-1.78146">
        <ele>13</ele>
        <time>2026-03-09T18:47:14.000Z</time>
      </trkpt>
      <trkpt lat="43.35004" lon="-1.78145">
        <ele>13</ele>
        <time>2026-03-09T18:47:14.000Z</time>
      </trkpt>
      <trkpt lat="43.35004" lon="-1.78144">
        <ele>13</ele>
        <time>2026-03-09T18:47:15.000Z</time>
      </trkpt>
      <trkpt lat="43.35005" lon="-1.78143">
        <ele>13</ele>
        <time>2026-03-09T18:47:15.000Z</time>
      </trkpt>
      <trkpt lat="43.35005" lon="-1.78142">
        <ele>13</ele>
        <time>2026-03-09T18:47:15.000Z</time>
      </trkpt>
      <trkpt lat="43.35005" lon="-1.78141">
        <ele>13</ele>
        <time>2026-03-09T18:47:15.000Z</time>
      </trkpt>
      <trkpt lat="43.35005" lon="-1.7814">
        <ele>13</ele>
        <time>2026-03-09T18:47:15.000Z</time>
      </trkpt>
      <trkpt lat="43.34996" lon="-1.78118">
        <ele>14</ele>
        <time>2026-03-09T18:47:18.000Z</time>
      </trkpt>
      <trkpt lat="43.34993" lon="-1.78108">
        <ele>14</ele>
        <time>2026-03-09T18:47:20.000Z</time>
      </trkpt>
      <trkpt lat="43.34991" lon="-1.78096">
        <ele>14</ele>
        <time>2026-03-09T18:47:21.000Z</time>
      </trkpt>
      <trkpt lat="43.34992" lon="-1.78087">
        <ele>14</ele>
        <time>2026-03-09T18:47:23.000Z</time>
      </trkpt>
      <trkpt lat="43.34991" lon="-1.78078">
        <ele>14</ele>
        <time>2026-03-09T18:47:24.000Z</time>
      </trkpt>
      <trkpt lat="43.34991" lon="-1.78051">
        <ele>15</ele>
        <time>2026-03-09T18:47:27.000Z</time>
      </trkpt>
      <trkpt lat="43.34992" lon="-1.77988">
        <ele>16</ele>
        <time>2026-03-09T18:47:35.000Z</time>
      </trkpt>
      <trkpt lat="43.34991" lon="-1.77983">
        <ele>16</ele>
        <time>2026-03-09T18:47:36.000Z</time>
      </trkpt>
      <trkpt lat="43.34991" lon="-1.77975">
        <ele>15</ele>
        <time>2026-03-09T18:47:37.000Z</time>
      </trkpt>
      <trkpt lat="43.34991" lon="-1.77965">
        <ele>15</ele>
        <time>2026-03-09T18:47:38.000Z</time>
      </trkpt>
      <trkpt lat="43.3499" lon="-1.77962">
        <ele>15</ele>
        <time>2026-03-09T18:47:39.000Z</time>
      </trkpt>
      <trkpt lat="43.34988" lon="-1.77941">
        <ele>14</ele>
        <time>2026-03-09T18:47:42.000Z</time>
      </trkpt>
      <trkpt lat="43.34982" lon="-1.77906">
        <ele>14</ele>
        <time>2026-03-09T18:47:46.000Z</time>
      </trkpt>
      <trkpt lat="43.34976" lon="-1.7787">
        <ele>14</ele>
        <time>2026-03-09T18:47:51.000Z</time>
      </trkpt>
      <trkpt lat="43.3497" lon="-1.77836">
        <ele>15</ele>
        <time>2026-03-09T18:47:56.000Z</time>
      </trkpt>
      <trkpt lat="43.34966" lon="-1.77814">
        <ele>15</ele>
        <time>2026-03-09T18:47:59.000Z</time>
      </trkpt>
      <trkpt lat="43.34964" lon="-1.77804">
        <ele>15</ele>
        <time>2026-03-09T18:48:00.000Z</time>
      </trkpt>
      <trkpt lat="43.34961" lon="-1.7778">
        <ele>15</ele>
        <time>2026-03-09T18:48:03.000Z</time>
      </trkpt>
      <trkpt lat="43.3496" lon="-1.77766">
        <ele>15</ele>
        <time>2026-03-09T18:48:05.000Z</time>
      </trkpt>
      <trkpt lat="43.3496" lon="-1.77753">
        <ele>16</ele>
        <time>2026-03-09T18:48:07.000Z</time>
      </trkpt>
      <trkpt lat="43.3496" lon="-1.77741">
        <ele>16</ele>
        <time>2026-03-09T18:48:08.000Z</time>
      </trkpt>
      <trkpt lat="43.3496" lon="-1.77737">
        <ele>16</ele>
        <time>2026-03-09T18:48:09.000Z</time>
      </trkpt>
      <trkpt lat="43.34959" lon="-1.77728">
        <ele>16</ele>
        <time>2026-03-09T18:48:10.000Z</time>
      </trkpt>
      <trkpt lat="43.34959" lon="-1.77717">
        <ele>16</ele>
        <time>2026-03-09T18:48:11.000Z</time>
      </trkpt>
      <trkpt lat="43.34958" lon="-1.77692">
        <ele>16</ele>
        <time>2026-03-09T18:48:14.000Z</time>
      </trkpt>
      <trkpt lat="43.34959" lon="-1.77657">
        <ele>16</ele>
        <time>2026-03-09T18:48:19.000Z</time>
      </trkpt>
      <trkpt lat="43.3496" lon="-1.77632">
        <ele>16</ele>
        <time>2026-03-09T18:48:22.000Z</time>
      </trkpt>
      <trkpt lat="43.34964" lon="-1.7757">
        <ele>15</ele>
        <time>2026-03-09T18:48:30.000Z</time>
      </trkpt>
      <trkpt lat="43.34965" lon="-1.7756">
        <ele>15</ele>
        <time>2026-03-09T18:48:32.000Z</time>
      </trkpt>
      <trkpt lat="43.34965" lon="-1.77543">
        <ele>15</ele>
        <time>2026-03-09T18:48:34.000Z</time>
      </trkpt>
      <trkpt lat="43.34965" lon="-1.7753">
        <ele>14</ele>
        <time>2026-03-09T18:48:35.000Z</time>
      </trkpt>
      <trkpt lat="43.34965" lon="-1.77522">
        <ele>14</ele>
        <time>2026-03-09T18:48:36.000Z</time>
      </trkpt>
      <trkpt lat="43.34964" lon="-1.77491">
        <ele>13</ele>
        <time>2026-03-09T18:48:40.000Z</time>
      </trkpt>
      <trkpt lat="43.34962" lon="-1.7749">
        <ele>13</ele>
        <time>2026-03-09T18:48:41.000Z</time>
      </trkpt>
      <trkpt lat="43.34961" lon="-1.77489">
        <ele>13</ele>
        <time>2026-03-09T18:48:41.000Z</time>
      </trkpt>
      <trkpt lat="43.34958" lon="-1.77487">
        <ele>12</ele>
        <time>2026-03-09T18:48:42.000Z</time>
      </trkpt>
      <trkpt lat="43.34956" lon="-1.77484">
        <ele>12</ele>
        <time>2026-03-09T18:48:42.000Z</time>
      </trkpt>
      <trkpt lat="43.34956" lon="-1.77481">
        <ele>12</ele>
        <time>2026-03-09T18:48:43.000Z</time>
      </trkpt>
      <trkpt lat="43.34955" lon="-1.77478">
        <ele>11</ele>
        <time>2026-03-09T18:48:43.000Z</time>
      </trkpt>
      <trkpt lat="43.34955" lon="-1.77473">
        <ele>11</ele>
        <time>2026-03-09T18:48:44.000Z</time>
      </trkpt>
      <trkpt lat="43.34956" lon="-1.7744">
        <ele>10</ele>
        <time>2026-03-09T18:48:48.000Z</time>
      </trkpt>
      <trkpt lat="43.34955" lon="-1.77428">
        <ele>10</ele>
        <time>2026-03-09T18:48:50.000Z</time>
      </trkpt>
      <trkpt lat="43.34955" lon="-1.77421">
        <ele>10</ele>
        <time>2026-03-09T18:48:50.000Z</time>
      </trkpt>
      <trkpt lat="43.34956" lon="-1.77418">
        <ele>10</ele>
        <time>2026-03-09T18:48:51.000Z</time>
      </trkpt>
      <trkpt lat="43.34957" lon="-1.77409">
        <ele>10</ele>
        <time>2026-03-09T18:48:52.000Z</time>
      </trkpt>
      <trkpt lat="43.3496" lon="-1.774">
        <ele>10</ele>
        <time>2026-03-09T18:48:53.000Z</time>
      </trkpt>
      <trkpt lat="43.34963" lon="-1.77392">
        <ele>10</ele>
        <time>2026-03-09T18:48:54.000Z</time>
      </trkpt>
      <trkpt lat="43.3497" lon="-1.77362">
        <ele>10</ele>
        <time>2026-03-09T18:48:59.000Z</time>
      </trkpt>
      <trkpt lat="43.34979" lon="-1.77318">
        <ele>9</ele>
        <time>2026-03-09T18:49:04.000Z</time>
      </trkpt>
      <trkpt lat="43.34981" lon="-1.77309">
        <ele>9</ele>
        <time>2026-03-09T18:49:06.000Z</time>
      </trkpt>
      <trkpt lat="43.34983" lon="-1.773">
        <ele>9</ele>
        <time>2026-03-09T18:49:07.000Z</time>
      </trkpt>
      <trkpt lat="43.34987" lon="-1.77283">
        <ele>9</ele>
        <time>2026-03-09T18:49:09.000Z</time>
      </trkpt>
      <trkpt lat="43.34987" lon="-1.77277">
        <ele>8</ele>
        <time>2026-03-09T18:49:10.000Z</time>
      </trkpt>
      <trkpt lat="43.34988" lon="-1.77274">
        <ele>8</ele>
        <time>2026-03-09T18:49:10.000Z</time>
      </trkpt>
      <trkpt lat="43.34988" lon="-1.77265">
        <ele>8</ele>
        <time>2026-03-09T18:49:12.000Z</time>
      </trkpt>
      <trkpt lat="43.34986" lon="-1.77243">
        <ele>8</ele>
        <time>2026-03-09T18:49:14.000Z</time>
      </trkpt>
      <trkpt lat="43.34983" lon="-1.77231">
        <ele>8</ele>
        <time>2026-03-09T18:49:16.000Z</time>
      </trkpt>
      <trkpt lat="43.34977" lon="-1.77215">
        <ele>8</ele>
        <time>2026-03-09T18:49:18.000Z</time>
      </trkpt>
      <trkpt lat="43.34967" lon="-1.7719">
        <ele>8</ele>
        <time>2026-03-09T18:49:22.000Z</time>
      </trkpt>
      <trkpt lat="43.34959" lon="-1.77172">
        <ele>7</ele>
        <time>2026-03-09T18:49:25.000Z</time>
      </trkpt>
      <trkpt lat="43.34956" lon="-1.77164">
        <ele>8</ele>
        <time>2026-03-09T18:49:26.000Z</time>
      </trkpt>
      <trkpt lat="43.34953" lon="-1.77158">
        <ele>8</ele>
        <time>2026-03-09T18:49:27.000Z</time>
      </trkpt>
      <trkpt lat="43.34948" lon="-1.77147">
        <ele>8</ele>
        <time>2026-03-09T18:49:29.000Z</time>
      </trkpt>
      <trkpt lat="43.34945" lon="-1.7714">
        <ele>8</ele>
        <time>2026-03-09T18:49:30.000Z</time>
      </trkpt>
      <trkpt lat="43.34938" lon="-1.77125">
        <ele>8</ele>
        <time>2026-03-09T18:49:32.000Z</time>
      </trkpt>
      <trkpt lat="43.34936" lon="-1.77121">
        <ele>8</ele>
        <time>2026-03-09T18:49:33.000Z</time>
      </trkpt>
      <trkpt lat="43.3493" lon="-1.77106">
        <ele>8</ele>
        <time>2026-03-09T18:49:35.000Z</time>
      </trkpt>
      <trkpt lat="43.34926" lon="-1.77092">
        <ele>8</ele>
        <time>2026-03-09T18:49:37.000Z</time>
      </trkpt>
      <trkpt lat="43.34923" lon="-1.77078">
        <ele>8</ele>
        <time>2026-03-09T18:49:39.000Z</time>
      </trkpt>
      <trkpt lat="43.3492" lon="-1.77067">
        <ele>8</ele>
        <time>2026-03-09T18:49:40.000Z</time>
      </trkpt>
      <trkpt lat="43.3492" lon="-1.77062">
        <ele>8</ele>
        <time>2026-03-09T18:49:41.000Z</time>
      </trkpt>
      <trkpt lat="43.34918" lon="-1.7705">
        <ele>8</ele>
        <time>2026-03-09T18:49:42.000Z</time>
      </trkpt>
      <trkpt lat="43.34916" lon="-1.77044">
        <ele>8</ele>
        <time>2026-03-09T18:49:43.000Z</time>
      </trkpt>
      <trkpt lat="43.34912" lon="-1.77034">
        <ele>8</ele>
        <time>2026-03-09T18:49:45.000Z</time>
      </trkpt>
      <trkpt lat="43.34912" lon="-1.77034">
        <ele>8</ele>
        <time>2026-03-09T18:49:45.000Z</time>
      </trkpt>
      <trkpt lat="43.34908" lon="-1.77032">
        <ele>8</ele>
        <time>2026-03-09T18:49:45.000Z</time>
      </trkpt>
      <trkpt lat="43.34906" lon="-1.77028">
        <ele>8</ele>
        <time>2026-03-09T18:49:46.000Z</time>
      </trkpt>
      <trkpt lat="43.34905" lon="-1.77024">
        <ele>8</ele>
        <time>2026-03-09T18:49:47.000Z</time>
      </trkpt>
      <trkpt lat="43.34905" lon="-1.7702">
        <ele>8</ele>
        <time>2026-03-09T18:49:47.000Z</time>
      </trkpt>
      <trkpt lat="43.34905" lon="-1.77016">
        <ele>8</ele>
        <time>2026-03-09T18:49:48.000Z</time>
      </trkpt>
      <trkpt lat="43.34907" lon="-1.77012">
        <ele>8</ele>
        <time>2026-03-09T18:49:48.000Z</time>
      </trkpt>
      <trkpt lat="43.3491" lon="-1.77008">
        <ele>8</ele>
        <time>2026-03-09T18:49:49.000Z</time>
      </trkpt>
      <trkpt lat="43.34914" lon="-1.77006">
        <ele>9</ele>
        <time>2026-03-09T18:49:50.000Z</time>
      </trkpt>
      <trkpt lat="43.34916" lon="-1.77001">
        <ele>9</ele>
        <time>2026-03-09T18:49:51.000Z</time>
      </trkpt>
      <trkpt lat="43.3492" lon="-1.76993">
        <ele>9</ele>
        <time>2026-03-09T18:49:52.000Z</time>
      </trkpt>
      <trkpt lat="43.34921" lon="-1.76987">
        <ele>9</ele>
        <time>2026-03-09T18:49:53.000Z</time>
      </trkpt>
      <trkpt lat="43.34922" lon="-1.76981">
        <ele>9</ele>
        <time>2026-03-09T18:49:53.000Z</time>
      </trkpt>
      <trkpt lat="43.34922" lon="-1.76976">
        <ele>9</ele>
        <time>2026-03-09T18:49:54.000Z</time>
      </trkpt>
      <trkpt lat="43.34922" lon="-1.76969">
        <ele>9</ele>
        <time>2026-03-09T18:49:55.000Z</time>
      </trkpt>
      <trkpt lat="43.34921" lon="-1.76955">
        <ele>9</ele>
        <time>2026-03-09T18:49:57.000Z</time>
      </trkpt>
      <trkpt lat="43.34919" lon="-1.76941">
        <ele>9</ele>
        <time>2026-03-09T18:49:59.000Z</time>
      </trkpt>
      <trkpt lat="43.34916" lon="-1.76917">
        <ele>9</ele>
        <time>2026-03-09T18:50:02.000Z</time>
      </trkpt>
      <trkpt lat="43.34914" lon="-1.76905">
        <ele>9</ele>
        <time>2026-03-09T18:50:03.000Z</time>
      </trkpt>
      <trkpt lat="43.34913" lon="-1.76905">
        <ele>9</ele>
        <time>2026-03-09T18:50:04.000Z</time>
      </trkpt>
      <trkpt lat="43.34913" lon="-1.76904">
        <ele>9</ele>
        <time>2026-03-09T18:50:04.000Z</time>
      </trkpt>
      <trkpt lat="43.34912" lon="-1.76904">
        <ele>9</ele>
        <time>2026-03-09T18:50:04.000Z</time>
      </trkpt>
      <trkpt lat="43.34911" lon="-1.76904">
        <ele>9</ele>
        <time>2026-03-09T18:50:04.000Z</time>
      </trkpt>
      <trkpt lat="43.34911" lon="-1.76903">
        <ele>9</ele>
        <time>2026-03-09T18:50:04.000Z</time>
      </trkpt>
      <trkpt lat="43.3491" lon="-1.76903">
        <ele>9</ele>
        <time>2026-03-09T18:50:04.000Z</time>
      </trkpt>
      <trkpt lat="43.3491" lon="-1.76902">
        <ele>9</ele>
        <time>2026-03-09T18:50:04.000Z</time>
      </trkpt>
      <trkpt lat="43.34909" lon="-1.76902">
        <ele>9</ele>
        <time>2026-03-09T18:50:05.000Z</time>
      </trkpt>
      <trkpt lat="43.34909" lon="-1.76901">
        <ele>9</ele>
        <time>2026-03-09T18:50:05.000Z</time>
      </trkpt>
      <trkpt lat="43.34908" lon="-1.769">
        <ele>9</ele>
        <time>2026-03-09T18:50:05.000Z</time>
      </trkpt>
      <trkpt lat="43.34908" lon="-1.76899">
        <ele>9</ele>
        <time>2026-03-09T18:50:05.000Z</time>
      </trkpt>
      <trkpt lat="43.34907" lon="-1.76898">
        <ele>9</ele>
        <time>2026-03-09T18:50:05.000Z</time>
      </trkpt>
      <trkpt lat="43.34907" lon="-1.76897">
        <ele>9</ele>
        <time>2026-03-09T18:50:05.000Z</time>
      </trkpt>
      <trkpt lat="43.34906" lon="-1.76896">
        <ele>9</ele>
        <time>2026-03-09T18:50:06.000Z</time>
      </trkpt>
      <trkpt lat="43.34906" lon="-1.76895">
        <ele>9</ele>
        <time>2026-03-09T18:50:06.000Z</time>
      </trkpt>
      <trkpt lat="43.34906" lon="-1.76894">
        <ele>9</ele>
        <time>2026-03-09T18:50:06.000Z</time>
      </trkpt>
      <trkpt lat="43.34906" lon="-1.76893">
        <ele>10</ele>
        <time>2026-03-09T18:50:06.000Z</time>
      </trkpt>
      <trkpt lat="43.34905" lon="-1.76892">
        <ele>9</ele>
        <time>2026-03-09T18:50:06.000Z</time>
      </trkpt>
      <trkpt lat="43.34905" lon="-1.76891">
        <ele>10</ele>
        <time>2026-03-09T18:50:06.000Z</time>
      </trkpt>
      <trkpt lat="43.34905" lon="-1.7689">
        <ele>10</ele>
        <time>2026-03-09T18:50:07.000Z</time>
      </trkpt>
      <trkpt lat="43.34905" lon="-1.76889">
        <ele>10</ele>
        <time>2026-03-09T18:50:07.000Z</time>
      </trkpt>
      <trkpt lat="43.34905" lon="-1.76888">
        <ele>10</ele>
        <time>2026-03-09T18:50:07.000Z</time>
      </trkpt>
      <trkpt lat="43.34905" lon="-1.76887">
        <ele>10</ele>
        <time>2026-03-09T18:50:07.000Z</time>
      </trkpt>
      <trkpt lat="43.34905" lon="-1.76886">
        <ele>10</ele>
        <time>2026-03-09T18:50:07.000Z</time>
      </trkpt>
      <trkpt lat="43.34906" lon="-1.76886">
        <ele>10</ele>
        <time>2026-03-09T18:50:07.000Z</time>
      </trkpt>
      <trkpt lat="43.34906" lon="-1.76885">
        <ele>10</ele>
        <time>2026-03-09T18:50:07.000Z</time>
      </trkpt>
      <trkpt lat="43.34906" lon="-1.76884">
        <ele>10</ele>
        <time>2026-03-09T18:50:08.000Z</time>
      </trkpt>
      <trkpt lat="43.34906" lon="-1.76883">
        <ele>10</ele>
        <time>2026-03-09T18:50:08.000Z</time>
      </trkpt>
      <trkpt lat="43.34906" lon="-1.76882">
        <ele>10</ele>
        <time>2026-03-09T18:50:08.000Z</time>
      </trkpt>
      <trkpt lat="43.34907" lon="-1.76882">
        <ele>10</ele>
        <time>2026-03-09T18:50:08.000Z</time>
      </trkpt>
      <trkpt lat="43.34907" lon="-1.76881">
        <ele>10</ele>
        <time>2026-03-09T18:50:08.000Z</time>
      </trkpt>
      <trkpt lat="43.34907" lon="-1.7688">
        <ele>10</ele>
        <time>2026-03-09T18:50:08.000Z</time>
      </trkpt>
      <trkpt lat="43.34908" lon="-1.76879">
        <ele>10</ele>
        <time>2026-03-09T18:50:08.000Z</time>
      </trkpt>
      <trkpt lat="43.34908" lon="-1.76878">
        <ele>10</ele>
        <time>2026-03-09T18:50:09.000Z</time>
      </trkpt>
      <trkpt lat="43.34909" lon="-1.76877">
        <ele>10</ele>
        <time>2026-03-09T18:50:09.000Z</time>
      </trkpt>
      <trkpt lat="43.34905" lon="-1.76866">
        <ele>11</ele>
        <time>2026-03-09T18:50:10.000Z</time>
      </trkpt>
      <trkpt lat="43.34903" lon="-1.76863">
        <ele>11</ele>
        <time>2026-03-09T18:50:11.000Z</time>
      </trkpt>
      <trkpt lat="43.34884" lon="-1.76826">
        <ele>10</ele>
        <time>2026-03-09T18:50:17.000Z</time>
      </trkpt>
      <trkpt lat="43.34874" lon="-1.7681">
        <ele>10</ele>
        <time>2026-03-09T18:50:19.000Z</time>
      </trkpt>
      <trkpt lat="43.3487" lon="-1.76801">
        <ele>9</ele>
        <time>2026-03-09T18:50:21.000Z</time>
      </trkpt>
      <trkpt lat="43.34869" lon="-1.76794">
        <ele>9</ele>
        <time>2026-03-09T18:50:22.000Z</time>
      </trkpt>
      <trkpt lat="43.34864" lon="-1.76786">
        <ele>9</ele>
        <time>2026-03-09T18:50:23.000Z</time>
      </trkpt>
      <trkpt lat="43.3486" lon="-1.7678">
        <ele>9</ele>
        <time>2026-03-09T18:50:24.000Z</time>
      </trkpt>
      <trkpt lat="43.34853" lon="-1.76766">
        <ele>8</ele>
        <time>2026-03-09T18:50:26.000Z</time>
      </trkpt>
      <trkpt lat="43.34845" lon="-1.76752">
        <ele>7</ele>
        <time>2026-03-09T18:50:29.000Z</time>
      </trkpt>
      <trkpt lat="43.34838" lon="-1.76738">
        <ele>7</ele>
        <time>2026-03-09T18:50:31.000Z</time>
      </trkpt>
      <trkpt lat="43.34833" lon="-1.7673">
        <ele>7</ele>
        <time>2026-03-09T18:50:32.000Z</time>
      </trkpt>
      <trkpt lat="43.3483" lon="-1.76725">
        <ele>7</ele>
        <time>2026-03-09T18:50:33.000Z</time>
      </trkpt>
      <trkpt lat="43.34826" lon="-1.76718">
        <ele>7</ele>
        <time>2026-03-09T18:50:34.000Z</time>
      </trkpt>
      <trkpt lat="43.34809" lon="-1.76697">
        <ele>7</ele>
        <time>2026-03-09T18:50:38.000Z</time>
      </trkpt>
      <trkpt lat="43.34799" lon="-1.76687">
        <ele>7</ele>
        <time>2026-03-09T18:50:41.000Z</time>
      </trkpt>
      <trkpt lat="43.34793" lon="-1.76681">
        <ele>7</ele>
        <time>2026-03-09T18:50:42.000Z</time>
      </trkpt>
      <trkpt lat="43.34772" lon="-1.76668">
        <ele>7</ele>
        <time>2026-03-09T18:50:46.000Z</time>
      </trkpt>
      <trkpt lat="43.34767" lon="-1.76665">
        <ele>7</ele>
        <time>2026-03-09T18:50:47.000Z</time>
      </trkpt>
      <trkpt lat="43.34748" lon="-1.76652">
        <ele>8</ele>
        <time>2026-03-09T18:50:51.000Z</time>
      </trkpt>
      <trkpt lat="43.34746" lon="-1.76651">
        <ele>8</ele>
        <time>2026-03-09T18:50:51.000Z</time>
      </trkpt>
      <trkpt lat="43.34744" lon="-1.76649">
        <ele>8</ele>
        <time>2026-03-09T18:50:52.000Z</time>
      </trkpt>
      <trkpt lat="43.34735" lon="-1.76642">
        <ele>8</ele>
        <time>2026-03-09T18:50:53.000Z</time>
      </trkpt>
      <trkpt lat="43.34732" lon="-1.76641">
        <ele>9</ele>
        <time>2026-03-09T18:50:54.000Z</time>
      </trkpt>
      <trkpt lat="43.34727" lon="-1.76637">
        <ele>9</ele>
        <time>2026-03-09T18:50:55.000Z</time>
      </trkpt>
      <trkpt lat="43.34722" lon="-1.76632">
        <ele>9</ele>
        <time>2026-03-09T18:50:56.000Z</time>
      </trkpt>
      <trkpt lat="43.34715" lon="-1.76627">
        <ele>9</ele>
        <time>2026-03-09T18:50:57.000Z</time>
      </trkpt>
      <trkpt lat="43.34703" lon="-1.76616">
        <ele>10</ele>
        <time>2026-03-09T18:51:00.000Z</time>
      </trkpt>
      <trkpt lat="43.34696" lon="-1.7661">
        <ele>10</ele>
        <time>2026-03-09T18:51:01.000Z</time>
      </trkpt>
      <trkpt lat="43.34692" lon="-1.76606">
        <ele>11</ele>
        <time>2026-03-09T18:51:02.000Z</time>
      </trkpt>
      <trkpt lat="43.34684" lon="-1.76598">
        <ele>11</ele>
        <time>2026-03-09T18:51:04.000Z</time>
      </trkpt>
      <trkpt lat="43.34671" lon="-1.76586">
        <ele>11</ele>
        <time>2026-03-09T18:51:07.000Z</time>
      </trkpt>
      <trkpt lat="43.34669" lon="-1.76584">
        <ele>11</ele>
        <time>2026-03-09T18:51:07.000Z</time>
      </trkpt>
      <trkpt lat="43.34653" lon="-1.76567">
        <ele>11</ele>
        <time>2026-03-09T18:51:11.000Z</time>
      </trkpt>
      <trkpt lat="43.34646" lon="-1.76555">
        <ele>11</ele>
        <time>2026-03-09T18:51:13.000Z</time>
      </trkpt>
      <trkpt lat="43.34645" lon="-1.76553">
        <ele>11</ele>
        <time>2026-03-09T18:51:13.000Z</time>
      </trkpt>
      <trkpt lat="43.34644" lon="-1.76551">
        <ele>11</ele>
        <time>2026-03-09T18:51:14.000Z</time>
      </trkpt>
      <trkpt lat="43.34639" lon="-1.76538">
        <ele>12</ele>
        <time>2026-03-09T18:51:15.000Z</time>
      </trkpt>
      <trkpt lat="43.34636" lon="-1.76531">
        <ele>12</ele>
        <time>2026-03-09T18:51:16.000Z</time>
      </trkpt>
      <trkpt lat="43.34632" lon="-1.76517">
        <ele>12</ele>
        <time>2026-03-09T18:51:18.000Z</time>
      </trkpt>
      <trkpt lat="43.34625" lon="-1.76491">
        <ele>12</ele>
        <time>2026-03-09T18:51:22.000Z</time>
      </trkpt>
      <trkpt lat="43.34625" lon="-1.76488">
        <ele>13</ele>
        <time>2026-03-09T18:51:22.000Z</time>
      </trkpt>
      <trkpt lat="43.3462" lon="-1.7647">
        <ele>13</ele>
        <time>2026-03-09T18:51:25.000Z</time>
      </trkpt>
      <trkpt lat="43.34611" lon="-1.76433">
        <ele>14</ele>
        <time>2026-03-09T18:51:30.000Z</time>
      </trkpt>
      <trkpt lat="43.34602" lon="-1.764">
        <ele>13</ele>
        <time>2026-03-09T18:51:35.000Z</time>
      </trkpt>
      <trkpt lat="43.34592" lon="-1.76356">
        <ele>10</ele>
        <time>2026-03-09T18:51:40.000Z</time>
      </trkpt>
      <trkpt lat="43.34587" lon="-1.76339">
        <ele>9</ele>
        <time>2026-03-09T18:51:43.000Z</time>
      </trkpt>
      <trkpt lat="43.34578" lon="-1.76298">
        <ele>7</ele>
        <time>2026-03-09T18:51:48.000Z</time>
      </trkpt>
      <trkpt lat="43.34574" lon="-1.76279">
        <ele>7</ele>
        <time>2026-03-09T18:51:51.000Z</time>
      </trkpt>
      <trkpt lat="43.34567" lon="-1.76262">
        <ele>7</ele>
        <time>2026-03-09T18:51:53.000Z</time>
      </trkpt>
      <trkpt lat="43.34567" lon="-1.76262">
        <ele>7</ele>
        <time>2026-03-09T18:51:53.000Z</time>
      </trkpt>
      <trkpt lat="43.34566" lon="-1.76263">
        <ele>7</ele>
        <time>2026-03-09T18:51:54.000Z</time>
      </trkpt>
      <trkpt lat="43.34565" lon="-1.76264">
        <ele>7</ele>
        <time>2026-03-09T18:51:54.000Z</time>
      </trkpt>
      <trkpt lat="43.34564" lon="-1.76264">
        <ele>6</ele>
        <time>2026-03-09T18:51:54.000Z</time>
      </trkpt>
      <trkpt lat="43.34564" lon="-1.76265">
        <ele>6</ele>
        <time>2026-03-09T18:51:54.000Z</time>
      </trkpt>
      <trkpt lat="43.34563" lon="-1.76265">
        <ele>6</ele>
        <time>2026-03-09T18:51:54.000Z</time>
      </trkpt>
      <trkpt lat="43.34562" lon="-1.76265">
        <ele>6</ele>
        <time>2026-03-09T18:51:55.000Z</time>
      </trkpt>
      <trkpt lat="43.34561" lon="-1.76266">
        <ele>6</ele>
        <time>2026-03-09T18:51:55.000Z</time>
      </trkpt>
      <trkpt lat="43.3456" lon="-1.76266">
        <ele>6</ele>
        <time>2026-03-09T18:51:55.000Z</time>
      </trkpt>
      <trkpt lat="43.34559" lon="-1.76266">
        <ele>6</ele>
        <time>2026-03-09T18:51:55.000Z</time>
      </trkpt>
      <trkpt lat="43.34558" lon="-1.76265">
        <ele>6</ele>
        <time>2026-03-09T18:51:55.000Z</time>
      </trkpt>
      <trkpt lat="43.34557" lon="-1.76265">
        <ele>6</ele>
        <time>2026-03-09T18:51:56.000Z</time>
      </trkpt>
      <trkpt lat="43.34556" lon="-1.76265">
        <ele>6</ele>
        <time>2026-03-09T18:51:56.000Z</time>
      </trkpt>
      <trkpt lat="43.34555" lon="-1.76264">
        <ele>6</ele>
        <time>2026-03-09T18:51:56.000Z</time>
      </trkpt>
      <trkpt lat="43.34554" lon="-1.76263">
        <ele>6</ele>
        <time>2026-03-09T18:51:56.000Z</time>
      </trkpt>
      <trkpt lat="43.34553" lon="-1.76263">
        <ele>6</ele>
        <time>2026-03-09T18:51:56.000Z</time>
      </trkpt>
      <trkpt lat="43.34553" lon="-1.76262">
        <ele>6</ele>
        <time>2026-03-09T18:51:56.000Z</time>
      </trkpt>
      <trkpt lat="43.34552" lon="-1.76262">
        <ele>6</ele>
        <time>2026-03-09T18:51:57.000Z</time>
      </trkpt>
      <trkpt lat="43.34552" lon="-1.76261">
        <ele>6</ele>
        <time>2026-03-09T18:51:57.000Z</time>
      </trkpt>
      <trkpt lat="43.34551" lon="-1.7626">
        <ele>6</ele>
        <time>2026-03-09T18:51:57.000Z</time>
      </trkpt>
      <trkpt lat="43.34551" lon="-1.76259">
        <ele>6</ele>
        <time>2026-03-09T18:51:57.000Z</time>
      </trkpt>
      <trkpt lat="43.3455" lon="-1.76258">
        <ele>6</ele>
        <time>2026-03-09T18:51:57.000Z</time>
      </trkpt>
      <trkpt lat="43.3455" lon="-1.76257">
        <ele>6</ele>
        <time>2026-03-09T18:51:57.000Z</time>
      </trkpt>
      <trkpt lat="43.34549" lon="-1.76256">
        <ele>6</ele>
        <time>2026-03-09T18:51:58.000Z</time>
      </trkpt>
      <trkpt lat="43.34549" lon="-1.76255">
        <ele>6</ele>
        <time>2026-03-09T18:51:58.000Z</time>
      </trkpt>
      <trkpt lat="43.34549" lon="-1.76254">
        <ele>6</ele>
        <time>2026-03-09T18:51:58.000Z</time>
      </trkpt>
      <trkpt lat="43.34549" lon="-1.76253">
        <ele>6</ele>
        <time>2026-03-09T18:51:58.000Z</time>
      </trkpt>
      <trkpt lat="43.34549" lon="-1.76252">
        <ele>6</ele>
        <time>2026-03-09T18:51:58.000Z</time>
      </trkpt>
      <trkpt lat="43.34548" lon="-1.76252">
        <ele>6</ele>
        <time>2026-03-09T18:51:58.000Z</time>
      </trkpt>
      <trkpt lat="43.34548" lon="-1.76251">
        <ele>6</ele>
        <time>2026-03-09T18:51:59.000Z</time>
      </trkpt>
      <trkpt lat="43.34548" lon="-1.7625">
        <ele>6</ele>
        <time>2026-03-09T18:51:59.000Z</time>
      </trkpt>
      <trkpt lat="43.34549" lon="-1.76249">
        <ele>6</ele>
        <time>2026-03-09T18:51:59.000Z</time>
      </trkpt>
      <trkpt lat="43.34549" lon="-1.76248">
        <ele>6</ele>
        <time>2026-03-09T18:51:59.000Z</time>
      </trkpt>
      <trkpt lat="43.34549" lon="-1.76247">
        <ele>6</ele>
        <time>2026-03-09T18:51:59.000Z</time>
      </trkpt>
      <trkpt lat="43.34549" lon="-1.76246">
        <ele>6</ele>
        <time>2026-03-09T18:51:59.000Z</time>
      </trkpt>
      <trkpt lat="43.34549" lon="-1.76245">
        <ele>6</ele>
        <time>2026-03-09T18:51:59.000Z</time>
      </trkpt>
      <trkpt lat="43.3455" lon="-1.76244">
        <ele>6</ele>
        <time>2026-03-09T18:52:00.000Z</time>
      </trkpt>
      <trkpt lat="43.3455" lon="-1.76243">
        <ele>6</ele>
        <time>2026-03-09T18:52:00.000Z</time>
      </trkpt>
      <trkpt lat="43.3455" lon="-1.76242">
        <ele>6</ele>
        <time>2026-03-09T18:52:00.000Z</time>
      </trkpt>
      <trkpt lat="43.34551" lon="-1.76242">
        <ele>6</ele>
        <time>2026-03-09T18:52:00.000Z</time>
      </trkpt>
      <trkpt lat="43.34551" lon="-1.76241">
        <ele>7</ele>
        <time>2026-03-09T18:52:00.000Z</time>
      </trkpt>
      <trkpt lat="43.34552" lon="-1.7624">
        <ele>7</ele>
        <time>2026-03-09T18:52:00.000Z</time>
      </trkpt>
      <trkpt lat="43.34552" lon="-1.76239">
        <ele>7</ele>
        <time>2026-03-09T18:52:01.000Z</time>
      </trkpt>
      <trkpt lat="43.34553" lon="-1.76239">
        <ele>7</ele>
        <time>2026-03-09T18:52:01.000Z</time>
      </trkpt>
      <trkpt lat="43.34554" lon="-1.76238">
        <ele>7</ele>
        <time>2026-03-09T18:52:01.000Z</time>
      </trkpt>
      <trkpt lat="43.34555" lon="-1.76238">
        <ele>7</ele>
        <time>2026-03-09T18:52:01.000Z</time>
      </trkpt>
      <trkpt lat="43.34555" lon="-1.76237">
        <ele>7</ele>
        <time>2026-03-09T18:52:01.000Z</time>
      </trkpt>
      <trkpt lat="43.34556" lon="-1.76237">
        <ele>7</ele>
        <time>2026-03-09T18:52:01.000Z</time>
      </trkpt>
      <trkpt lat="43.34557" lon="-1.76237">
        <ele>7</ele>
        <time>2026-03-09T18:52:02.000Z</time>
      </trkpt>
      <trkpt lat="43.34557" lon="-1.76236">
        <ele>7</ele>
        <time>2026-03-09T18:52:02.000Z</time>
      </trkpt>
      <trkpt lat="43.34558" lon="-1.76236">
        <ele>7</ele>
        <time>2026-03-09T18:52:02.000Z</time>
      </trkpt>
      <trkpt lat="43.34559" lon="-1.76236">
        <ele>7</ele>
        <time>2026-03-09T18:52:02.000Z</time>
      </trkpt>
      <trkpt lat="43.3456" lon="-1.76236">
        <ele>7</ele>
        <time>2026-03-09T18:52:02.000Z</time>
      </trkpt>
      <trkpt lat="43.34561" lon="-1.76236">
        <ele>7</ele>
        <time>2026-03-09T18:52:02.000Z</time>
      </trkpt>
      <trkpt lat="43.34562" lon="-1.76236">
        <ele>7</ele>
        <time>2026-03-09T18:52:03.000Z</time>
      </trkpt>
      <trkpt lat="43.34562" lon="-1.76237">
        <ele>7</ele>
        <time>2026-03-09T18:52:03.000Z</time>
      </trkpt>
      <trkpt lat="43.34563" lon="-1.76237">
        <ele>7</ele>
        <time>2026-03-09T18:52:03.000Z</time>
      </trkpt>
      <trkpt lat="43.34564" lon="-1.76237">
        <ele>7</ele>
        <time>2026-03-09T18:52:03.000Z</time>
      </trkpt>
      <trkpt lat="43.34564" lon="-1.76238">
        <ele>7</ele>
        <time>2026-03-09T18:52:03.000Z</time>
      </trkpt>
      <trkpt lat="43.34565" lon="-1.76238">
        <ele>7</ele>
        <time>2026-03-09T18:52:03.000Z</time>
      </trkpt>
      <trkpt lat="43.34566" lon="-1.76239">
        <ele>7</ele>
        <time>2026-03-09T18:52:04.000Z</time>
      </trkpt>
      <trkpt lat="43.34567" lon="-1.7624">
        <ele>7</ele>
        <time>2026-03-09T18:52:04.000Z</time>
      </trkpt>
      <trkpt lat="43.34588" lon="-1.76213">
        <ele>11</ele>
        <time>2026-03-09T18:52:09.000Z</time>
      </trkpt>
      <trkpt lat="43.34601" lon="-1.76199">
        <ele>12</ele>
        <time>2026-03-09T18:52:12.000Z</time>
      </trkpt>
      <trkpt lat="43.34602" lon="-1.76197">
        <ele>12</ele>
        <time>2026-03-09T18:52:12.000Z</time>
      </trkpt>
      <trkpt lat="43.34616" lon="-1.76181">
        <ele>12</ele>
        <time>2026-03-09T18:52:15.000Z</time>
      </trkpt>
      <trkpt lat="43.34633" lon="-1.76159">
        <ele>12</ele>
        <time>2026-03-09T18:52:20.000Z</time>
      </trkpt>
      <trkpt lat="43.34647" lon="-1.76139">
        <ele>13</ele>
        <time>2026-03-09T18:52:23.000Z</time>
      </trkpt>
      <trkpt lat="43.34665" lon="-1.76113">
        <ele>12</ele>
        <time>2026-03-09T18:52:28.000Z</time>
      </trkpt>
      <trkpt lat="43.34672" lon="-1.76101">
        <ele>13</ele>
        <time>2026-03-09T18:52:30.000Z</time>
      </trkpt>
      <trkpt lat="43.34678" lon="-1.76086">
        <ele>14</ele>
        <time>2026-03-09T18:52:32.000Z</time>
      </trkpt>
      <trkpt lat="43.34681" lon="-1.7608">
        <ele>15</ele>
        <time>2026-03-09T18:52:33.000Z</time>
      </trkpt>
      <trkpt lat="43.34683" lon="-1.7607">
        <ele>15</ele>
        <time>2026-03-09T18:52:34.000Z</time>
      </trkpt>
      <trkpt lat="43.34686" lon="-1.7606">
        <ele>16</ele>
        <time>2026-03-09T18:52:36.000Z</time>
      </trkpt>
      <trkpt lat="43.34688" lon="-1.76047">
        <ele>17</ele>
        <time>2026-03-09T18:52:37.000Z</time>
      </trkpt>
      <trkpt lat="43.34689" lon="-1.76032">
        <ele>17</ele>
        <time>2026-03-09T18:52:39.000Z</time>
      </trkpt>
      <trkpt lat="43.34686" lon="-1.76002">
        <ele>18</ele>
        <time>2026-03-09T18:52:43.000Z</time>
      </trkpt>
      <trkpt lat="43.34686" lon="-1.75995">
        <ele>19</ele>
        <time>2026-03-09T18:52:44.000Z</time>
      </trkpt>
      <trkpt lat="43.34682" lon="-1.75955">
        <ele>22</ele>
        <time>2026-03-09T18:52:49.000Z</time>
      </trkpt>
      <trkpt lat="43.34677" lon="-1.75909">
        <ele>26</ele>
        <time>2026-03-09T18:52:55.000Z</time>
      </trkpt>
      <trkpt lat="43.34672" lon="-1.75849">
        <ele>26</ele>
        <time>2026-03-09T18:53:03.000Z</time>
      </trkpt>
      <trkpt lat="43.34665" lon="-1.75793">
        <ele>29</ele>
        <time>2026-03-09T18:53:11.000Z</time>
      </trkpt>
      <trkpt lat="43.34661" lon="-1.75747">
        <ele>32</ele>
        <time>2026-03-09T18:53:17.000Z</time>
      </trkpt>
      <trkpt lat="43.34659" lon="-1.75734">
        <ele>33</ele>
        <time>2026-03-09T18:53:18.000Z</time>
      </trkpt>
      <trkpt lat="43.34658" lon="-1.75719">
        <ele>34</ele>
        <time>2026-03-09T18:53:20.000Z</time>
      </trkpt>
      <trkpt lat="43.34634" lon="-1.75476">
        <ele>45</ele>
        <time>2026-03-09T18:53:52.000Z</time>
      </trkpt>
      <trkpt lat="43.34632" lon="-1.75457">
        <ele>47</ele>
        <time>2026-03-09T18:53:54.000Z</time>
      </trkpt>
      <trkpt lat="43.34627" lon="-1.7541">
        <ele>49</ele>
        <time>2026-03-09T18:54:01.000Z</time>
      </trkpt>
      <trkpt lat="43.34622" lon="-1.75358">
        <ele>52</ele>
        <time>2026-03-09T18:54:07.000Z</time>
      </trkpt>
      <trkpt lat="43.34617" lon="-1.75311">
        <ele>55</ele>
        <time>2026-03-09T18:54:14.000Z</time>
      </trkpt>
      <trkpt lat="43.34613" lon="-1.75269">
        <ele>58</ele>
        <time>2026-03-09T18:54:19.000Z</time>
      </trkpt>
      <trkpt lat="43.34613" lon="-1.75261">
        <ele>59</ele>
        <time>2026-03-09T18:54:20.000Z</time>
      </trkpt>
      <trkpt lat="43.3461" lon="-1.75237">
        <ele>60</ele>
        <time>2026-03-09T18:54:23.000Z</time>
      </trkpt>
      <trkpt lat="43.3461" lon="-1.75235">
        <ele>60</ele>
        <time>2026-03-09T18:54:24.000Z</time>
      </trkpt>
      <trkpt lat="43.34609" lon="-1.75213">
        <ele>61</ele>
        <time>2026-03-09T18:54:26.000Z</time>
      </trkpt>
      <trkpt lat="43.34609" lon="-1.75209">
        <ele>61</ele>
        <time>2026-03-09T18:54:27.000Z</time>
      </trkpt>
      <trkpt lat="43.3461" lon="-1.75195">
        <ele>61</ele>
        <time>2026-03-09T18:54:29.000Z</time>
      </trkpt>
      <trkpt lat="43.3461" lon="-1.75191">
        <ele>61</ele>
        <time>2026-03-09T18:54:29.000Z</time>
      </trkpt>
      <trkpt lat="43.34611" lon="-1.75181">
        <ele>61</ele>
        <time>2026-03-09T18:54:31.000Z</time>
      </trkpt>
      <trkpt lat="43.34616" lon="-1.75164">
        <ele>60</ele>
        <time>2026-03-09T18:54:33.000Z</time>
      </trkpt>
      <trkpt lat="43.34625" lon="-1.75135">
        <ele>61</ele>
        <time>2026-03-09T18:54:37.000Z</time>
      </trkpt>
      <trkpt lat="43.34636" lon="-1.75107">
        <ele>62</ele>
        <time>2026-03-09T18:54:41.000Z</time>
      </trkpt>
      <trkpt lat="43.34637" lon="-1.75104">
        <ele>62</ele>
        <time>2026-03-09T18:54:42.000Z</time>
      </trkpt>
      <trkpt lat="43.34638" lon="-1.75099">
        <ele>63</ele>
        <time>2026-03-09T18:54:42.000Z</time>
      </trkpt>
      <trkpt lat="43.34654" lon="-1.75062">
        <ele>64</ele>
        <time>2026-03-09T18:54:48.000Z</time>
      </trkpt>
      <trkpt lat="43.34676" lon="-1.7502">
        <ele>65</ele>
        <time>2026-03-09T18:54:54.000Z</time>
      </trkpt>
      <trkpt lat="43.347" lon="-1.7498">
        <ele>66</ele>
        <time>2026-03-09T18:55:01.000Z</time>
      </trkpt>
      <trkpt lat="43.34727" lon="-1.74941">
        <ele>69</ele>
        <time>2026-03-09T18:55:08.000Z</time>
      </trkpt>
      <trkpt lat="43.34745" lon="-1.74921">
        <ele>71</ele>
        <time>2026-03-09T18:55:12.000Z</time>
      </trkpt>
      <trkpt lat="43.34748" lon="-1.74917">
        <ele>72</ele>
        <time>2026-03-09T18:55:13.000Z</time>
      </trkpt>
      <trkpt lat="43.34753" lon="-1.74912">
        <ele>72</ele>
        <time>2026-03-09T18:55:14.000Z</time>
      </trkpt>
      <trkpt lat="43.34758" lon="-1.74908">
        <ele>72</ele>
        <time>2026-03-09T18:55:15.000Z</time>
      </trkpt>
      <trkpt lat="43.34763" lon="-1.74905">
        <ele>72</ele>
        <time>2026-03-09T18:55:16.000Z</time>
      </trkpt>
      <trkpt lat="43.34778" lon="-1.74897">
        <ele>71</ele>
        <time>2026-03-09T18:55:19.000Z</time>
      </trkpt>
      <trkpt lat="43.34791" lon="-1.74891">
        <ele>71</ele>
        <time>2026-03-09T18:55:21.000Z</time>
      </trkpt>
      <trkpt lat="43.34798" lon="-1.7489">
        <ele>71</ele>
        <time>2026-03-09T18:55:23.000Z</time>
      </trkpt>
      <trkpt lat="43.34814" lon="-1.74887">
        <ele>70</ele>
        <time>2026-03-09T18:55:26.000Z</time>
      </trkpt>
      <trkpt lat="43.34833" lon="-1.74885">
        <ele>70</ele>
        <time>2026-03-09T18:55:29.000Z</time>
      </trkpt>
      <trkpt lat="43.3488" lon="-1.7488">
        <ele>72</ele>
        <time>2026-03-09T18:55:37.000Z</time>
      </trkpt>
      <trkpt lat="43.34889" lon="-1.74879">
        <ele>73</ele>
        <time>2026-03-09T18:55:39.000Z</time>
      </trkpt>
      <trkpt lat="43.34955" lon="-1.74871">
        <ele>80</ele>
        <time>2026-03-09T18:55:51.000Z</time>
      </trkpt>
      <trkpt lat="43.34962" lon="-1.7487">
        <ele>81</ele>
        <time>2026-03-09T18:55:52.000Z</time>
      </trkpt>
      <trkpt lat="43.34969" lon="-1.74867">
        <ele>82</ele>
        <time>2026-03-09T18:55:53.000Z</time>
      </trkpt>
      <trkpt lat="43.34975" lon="-1.74864">
        <ele>83</ele>
        <time>2026-03-09T18:55:54.000Z</time>
      </trkpt>
      <trkpt lat="43.34983" lon="-1.74858">
        <ele>84</ele>
        <time>2026-03-09T18:55:56.000Z</time>
      </trkpt>
      <trkpt lat="43.34992" lon="-1.7485">
        <ele>84</ele>
        <time>2026-03-09T18:55:58.000Z</time>
      </trkpt>
      <trkpt lat="43.34997" lon="-1.74844">
        <ele>85</ele>
        <time>2026-03-09T18:55:59.000Z</time>
      </trkpt>
      <trkpt lat="43.35003" lon="-1.74835">
        <ele>85</ele>
        <time>2026-03-09T18:56:01.000Z</time>
      </trkpt>
      <trkpt lat="43.35006" lon="-1.74828">
        <ele>85</ele>
        <time>2026-03-09T18:56:02.000Z</time>
      </trkpt>
      <trkpt lat="43.35008" lon="-1.74821">
        <ele>86</ele>
        <time>2026-03-09T18:56:03.000Z</time>
      </trkpt>
      <trkpt lat="43.3501" lon="-1.74815">
        <ele>86</ele>
        <time>2026-03-09T18:56:04.000Z</time>
      </trkpt>
      <trkpt lat="43.35013" lon="-1.74805">
        <ele>86</ele>
        <time>2026-03-09T18:56:05.000Z</time>
      </trkpt>
      <trkpt lat="43.35016" lon="-1.74789">
        <ele>87</ele>
        <time>2026-03-09T18:56:07.000Z</time>
      </trkpt>
      <trkpt lat="43.35015" lon="-1.74766">
        <ele>86</ele>
        <time>2026-03-09T18:56:10.000Z</time>
      </trkpt>
      <trkpt lat="43.35012" lon="-1.74742">
        <ele>86</ele>
        <time>2026-03-09T18:56:13.000Z</time>
      </trkpt>
      <trkpt lat="43.35" lon="-1.74682">
        <ele>91</ele>
        <time>2026-03-09T18:56:21.000Z</time>
      </trkpt>
      <trkpt lat="43.34993" lon="-1.74646">
        <ele>92</ele>
        <time>2026-03-09T18:56:26.000Z</time>
      </trkpt>
      <trkpt lat="43.34994" lon="-1.74638">
        <ele>92</ele>
        <time>2026-03-09T18:56:27.000Z</time>
      </trkpt>
      <trkpt lat="43.34992" lon="-1.74632">
        <ele>92</ele>
        <time>2026-03-09T18:56:28.000Z</time>
      </trkpt>
      <trkpt lat="43.34988" lon="-1.74609">
        <ele>91</ele>
        <time>2026-03-09T18:56:31.000Z</time>
      </trkpt>
      <trkpt lat="43.34982" lon="-1.74573">
        <ele>90</ele>
        <time>2026-03-09T18:56:36.000Z</time>
      </trkpt>
      <trkpt lat="43.34979" lon="-1.74553">
        <ele>89</ele>
        <time>2026-03-09T18:56:38.000Z</time>
      </trkpt>
      <trkpt lat="43.34978" lon="-1.74545">
        <ele>89</ele>
        <time>2026-03-09T18:56:40.000Z</time>
      </trkpt>
      <trkpt lat="43.34975" lon="-1.74525">
        <ele>88</ele>
        <time>2026-03-09T18:56:42.000Z</time>
      </trkpt>
      <trkpt lat="43.34973" lon="-1.74503">
        <ele>87</ele>
        <time>2026-03-09T18:56:45.000Z</time>
      </trkpt>
      <trkpt lat="43.34971" lon="-1.7448">
        <ele>87</ele>
        <time>2026-03-09T18:56:48.000Z</time>
      </trkpt>
      <trkpt lat="43.3497" lon="-1.74456">
        <ele>89</ele>
        <time>2026-03-09T18:56:51.000Z</time>
      </trkpt>
      <trkpt lat="43.3497" lon="-1.7445">
        <ele>89</ele>
        <time>2026-03-09T18:56:52.000Z</time>
      </trkpt>
      <trkpt lat="43.34969" lon="-1.74418">
        <ele>90</ele>
        <time>2026-03-09T18:56:56.000Z</time>
      </trkpt>
      <trkpt lat="43.34968" lon="-1.74381">
        <ele>91</ele>
        <time>2026-03-09T18:57:01.000Z</time>
      </trkpt>
      <trkpt lat="43.34967" lon="-1.74345">
        <ele>92</ele>
        <time>2026-03-09T18:57:06.000Z</time>
      </trkpt>
      <trkpt lat="43.34967" lon="-1.74322">
        <ele>94</ele>
        <time>2026-03-09T18:57:08.000Z</time>
      </trkpt>
      <trkpt lat="43.34967" lon="-1.74306">
        <ele>95</ele>
        <time>2026-03-09T18:57:11.000Z</time>
      </trkpt>
      <trkpt lat="43.34968" lon="-1.74282">
        <ele>97</ele>
        <time>2026-03-09T18:57:14.000Z</time>
      </trkpt>
      <trkpt lat="43.34968" lon="-1.74276">
        <ele>98</ele>
        <time>2026-03-09T18:57:14.000Z</time>
      </trkpt>
      <trkpt lat="43.34969" lon="-1.7426">
        <ele>99</ele>
        <time>2026-03-09T18:57:17.000Z</time>
      </trkpt>
      <trkpt lat="43.3497" lon="-1.7424">
        <ele>101</ele>
        <time>2026-03-09T18:57:19.000Z</time>
      </trkpt>
      <trkpt lat="43.34971" lon="-1.74237">
        <ele>102</ele>
        <time>2026-03-09T18:57:20.000Z</time>
      </trkpt>
      <trkpt lat="43.34974" lon="-1.74207">
        <ele>106</ele>
        <time>2026-03-09T18:57:23.000Z</time>
      </trkpt>
      <trkpt lat="43.34978" lon="-1.74177">
        <ele>110</ele>
        <time>2026-03-09T18:57:27.000Z</time>
      </trkpt>
      <trkpt lat="43.34983" lon="-1.74143">
        <ele>113</ele>
        <time>2026-03-09T18:57:32.000Z</time>
      </trkpt>
      <trkpt lat="43.34988" lon="-1.74106">
        <ele>116</ele>
        <time>2026-03-09T18:57:37.000Z</time>
      </trkpt>
      <trkpt lat="43.34993" lon="-1.74067">
        <ele>117</ele>
        <time>2026-03-09T18:57:42.000Z</time>
      </trkpt>
      <trkpt lat="43.34997" lon="-1.74029">
        <ele>117</ele>
        <time>2026-03-09T18:57:47.000Z</time>
      </trkpt>
      <trkpt lat="43.35002" lon="-1.73993">
        <ele>116</ele>
        <time>2026-03-09T18:57:52.000Z</time>
      </trkpt>
      <trkpt lat="43.35003" lon="-1.73978">
        <ele>117</ele>
        <time>2026-03-09T18:57:54.000Z</time>
      </trkpt>
      <trkpt lat="43.35006" lon="-1.73955">
        <ele>118</ele>
        <time>2026-03-09T18:57:57.000Z</time>
      </trkpt>
      <trkpt lat="43.35008" lon="-1.73924">
        <ele>120</ele>
        <time>2026-03-09T18:58:01.000Z</time>
      </trkpt>
      <trkpt lat="43.3501" lon="-1.73895">
        <ele>123</ele>
        <time>2026-03-09T18:58:04.000Z</time>
      </trkpt>
      <trkpt lat="43.35011" lon="-1.73885">
        <ele>124</ele>
        <time>2026-03-09T18:58:06.000Z</time>
      </trkpt>
      <trkpt lat="43.35011" lon="-1.73879">
        <ele>125</ele>
        <time>2026-03-09T18:58:06.000Z</time>
      </trkpt>
      <trkpt lat="43.35011" lon="-1.73873">
        <ele>125</ele>
        <time>2026-03-09T18:58:07.000Z</time>
      </trkpt>
      <trkpt lat="43.35011" lon="-1.73871">
        <ele>126</ele>
        <time>2026-03-09T18:58:07.000Z</time>
      </trkpt>
      <trkpt lat="43.35016" lon="-1.73849">
        <ele>128</ele>
        <time>2026-03-09T18:58:10.000Z</time>
      </trkpt>
      <trkpt lat="43.35023" lon="-1.73833">
        <ele>130</ele>
        <time>2026-03-09T18:58:13.000Z</time>
      </trkpt>
      <trkpt lat="43.35026" lon="-1.73826">
        <ele>130</ele>
        <time>2026-03-09T18:58:14.000Z</time>
      </trkpt>
      <trkpt lat="43.35031" lon="-1.7382">
        <ele>131</ele>
        <time>2026-03-09T18:58:15.000Z</time>
      </trkpt>
      <trkpt lat="43.35034" lon="-1.73817">
        <ele>131</ele>
        <time>2026-03-09T18:58:16.000Z</time>
      </trkpt>
      <trkpt lat="43.35041" lon="-1.73811">
        <ele>131</ele>
        <time>2026-03-09T18:58:17.000Z</time>
      </trkpt>
      <trkpt lat="43.35046" lon="-1.73808">
        <ele>131</ele>
        <time>2026-03-09T18:58:18.000Z</time>
      </trkpt>
      <trkpt lat="43.35049" lon="-1.73807">
        <ele>131</ele>
        <time>2026-03-09T18:58:19.000Z</time>
      </trkpt>
      <trkpt lat="43.35052" lon="-1.73806">
        <ele>131</ele>
        <time>2026-03-09T18:58:19.000Z</time>
      </trkpt>
      <trkpt lat="43.35057" lon="-1.73805">
        <ele>131</ele>
        <time>2026-03-09T18:58:20.000Z</time>
      </trkpt>
      <trkpt lat="43.35065" lon="-1.73805">
        <ele>131</ele>
        <time>2026-03-09T18:58:22.000Z</time>
      </trkpt>
      <trkpt lat="43.35069" lon="-1.73807">
        <ele>130</ele>
        <time>2026-03-09T18:58:22.000Z</time>
      </trkpt>
      <trkpt lat="43.35075" lon="-1.73809">
        <ele>130</ele>
        <time>2026-03-09T18:58:23.000Z</time>
      </trkpt>
      <trkpt lat="43.35078" lon="-1.73811">
        <ele>129</ele>
        <time>2026-03-09T18:58:24.000Z</time>
      </trkpt>
      <trkpt lat="43.35083" lon="-1.73813">
        <ele>129</ele>
        <time>2026-03-09T18:58:25.000Z</time>
      </trkpt>
      <trkpt lat="43.35085" lon="-1.73814">
        <ele>129</ele>
        <time>2026-03-09T18:58:25.000Z</time>
      </trkpt>
      <trkpt lat="43.35089" lon="-1.73818">
        <ele>129</ele>
        <time>2026-03-09T18:58:26.000Z</time>
      </trkpt>
      <trkpt lat="43.35096" lon="-1.73823">
        <ele>129</ele>
        <time>2026-03-09T18:58:28.000Z</time>
      </trkpt>
      <trkpt lat="43.35102" lon="-1.73831">
        <ele>128</ele>
        <time>2026-03-09T18:58:29.000Z</time>
      </trkpt>
      <trkpt lat="43.35105" lon="-1.73834">
        <ele>128</ele>
        <time>2026-03-09T18:58:30.000Z</time>
      </trkpt>
      <trkpt lat="43.35113" lon="-1.73841">
        <ele>128</ele>
        <time>2026-03-09T18:58:32.000Z</time>
      </trkpt>
      <trkpt lat="43.35135" lon="-1.73859">
        <ele>129</ele>
        <time>2026-03-09T18:58:36.000Z</time>
      </trkpt>
      <trkpt lat="43.35157" lon="-1.73876">
        <ele>130</ele>
        <time>2026-03-09T18:58:41.000Z</time>
      </trkpt>
      <trkpt lat="43.35169" lon="-1.73883">
        <ele>131</ele>
        <time>2026-03-09T18:58:43.000Z</time>
      </trkpt>
      <trkpt lat="43.35173" lon="-1.73884">
        <ele>131</ele>
        <time>2026-03-09T18:58:44.000Z</time>
      </trkpt>
      <trkpt lat="43.35178" lon="-1.73885">
        <ele>131</ele>
        <time>2026-03-09T18:58:45.000Z</time>
      </trkpt>
      <trkpt lat="43.35198" lon="-1.73887">
        <ele>132</ele>
        <time>2026-03-09T18:58:48.000Z</time>
      </trkpt>
      <trkpt lat="43.352" lon="-1.73887">
        <ele>132</ele>
        <time>2026-03-09T18:58:48.000Z</time>
      </trkpt>
      <trkpt lat="43.352" lon="-1.73887">
        <ele>132</ele>
        <time>2026-03-09T18:58:48.000Z</time>
      </trkpt>
      <trkpt lat="43.352" lon="-1.73886">
        <ele>132</ele>
        <time>2026-03-09T18:58:49.000Z</time>
      </trkpt>
      <trkpt lat="43.352" lon="-1.73885">
        <ele>132</ele>
        <time>2026-03-09T18:58:49.000Z</time>
      </trkpt>
      <trkpt lat="43.352" lon="-1.73883">
        <ele>132</ele>
        <time>2026-03-09T18:58:49.000Z</time>
      </trkpt>
      <trkpt lat="43.352" lon="-1.73882">
        <ele>132</ele>
        <time>2026-03-09T18:58:49.000Z</time>
      </trkpt>
      <trkpt lat="43.352" lon="-1.73881">
        <ele>132</ele>
        <time>2026-03-09T18:58:49.000Z</time>
      </trkpt>
      <trkpt lat="43.352" lon="-1.73879">
        <ele>132</ele>
        <time>2026-03-09T18:58:49.000Z</time>
      </trkpt>
      <trkpt lat="43.352" lon="-1.73878">
        <ele>132</ele>
        <time>2026-03-09T18:58:50.000Z</time>
      </trkpt>
      <trkpt lat="43.35201" lon="-1.73877">
        <ele>132</ele>
        <time>2026-03-09T18:58:50.000Z</time>
      </trkpt>
      <trkpt lat="43.35201" lon="-1.73876">
        <ele>133</ele>
        <time>2026-03-09T18:58:50.000Z</time>
      </trkpt>
      <trkpt lat="43.35201" lon="-1.73875">
        <ele>133</ele>
        <time>2026-03-09T18:58:50.000Z</time>
      </trkpt>
      <trkpt lat="43.35202" lon="-1.73873">
        <ele>133</ele>
        <time>2026-03-09T18:58:50.000Z</time>
      </trkpt>
      <trkpt lat="43.35202" lon="-1.73872">
        <ele>133</ele>
        <time>2026-03-09T18:58:51.000Z</time>
      </trkpt>
      <trkpt lat="43.35203" lon="-1.73871">
        <ele>133</ele>
        <time>2026-03-09T18:58:51.000Z</time>
      </trkpt>
      <trkpt lat="43.35204" lon="-1.7387">
        <ele>133</ele>
        <time>2026-03-09T18:58:51.000Z</time>
      </trkpt>
      <trkpt lat="43.35204" lon="-1.73869">
        <ele>133</ele>
        <time>2026-03-09T18:58:51.000Z</time>
      </trkpt>
      <trkpt lat="43.35205" lon="-1.73869">
        <ele>133</ele>
        <time>2026-03-09T18:58:51.000Z</time>
      </trkpt>
      <trkpt lat="43.35206" lon="-1.73868">
        <ele>133</ele>
        <time>2026-03-09T18:58:51.000Z</time>
      </trkpt>
      <trkpt lat="43.35207" lon="-1.73867">
        <ele>133</ele>
        <time>2026-03-09T18:58:52.000Z</time>
      </trkpt>
      <trkpt lat="43.35208" lon="-1.73867">
        <ele>133</ele>
        <time>2026-03-09T18:58:52.000Z</time>
      </trkpt>
      <trkpt lat="43.35208" lon="-1.73866">
        <ele>133</ele>
        <time>2026-03-09T18:58:52.000Z</time>
      </trkpt>
      <trkpt lat="43.35209" lon="-1.73866">
        <ele>133</ele>
        <time>2026-03-09T18:58:52.000Z</time>
      </trkpt>
      <trkpt lat="43.3521" lon="-1.73865">
        <ele>133</ele>
        <time>2026-03-09T18:58:52.000Z</time>
      </trkpt>
      <trkpt lat="43.35211" lon="-1.73865">
        <ele>133</ele>
        <time>2026-03-09T18:58:53.000Z</time>
      </trkpt>
      <trkpt lat="43.35212" lon="-1.73865">
        <ele>133</ele>
        <time>2026-03-09T18:58:53.000Z</time>
      </trkpt>
      <trkpt lat="43.35213" lon="-1.73864">
        <ele>133</ele>
        <time>2026-03-09T18:58:53.000Z</time>
      </trkpt>
      <trkpt lat="43.35214" lon="-1.73864">
        <ele>133</ele>
        <time>2026-03-09T18:58:53.000Z</time>
      </trkpt>
      <trkpt lat="43.35215" lon="-1.73864">
        <ele>133</ele>
        <time>2026-03-09T18:58:53.000Z</time>
      </trkpt>
      <trkpt lat="43.35217" lon="-1.73865">
        <ele>133</ele>
        <time>2026-03-09T18:58:54.000Z</time>
      </trkpt>
      <trkpt lat="43.35217" lon="-1.73858">
        <ele>133</ele>
        <time>2026-03-09T18:58:55.000Z</time>
      </trkpt>
      <trkpt lat="43.35224" lon="-1.73825">
        <ele>133</ele>
        <time>2026-03-09T18:58:59.000Z</time>
      </trkpt>
      <trkpt lat="43.35225" lon="-1.73816">
        <ele>134</ele>
        <time>2026-03-09T18:59:00.000Z</time>
      </trkpt>
      <trkpt lat="43.35234" lon="-1.73791">
        <ele>135</ele>
        <time>2026-03-09T18:59:04.000Z</time>
      </trkpt>
      <trkpt lat="43.3524" lon="-1.73771">
        <ele>135</ele>
        <time>2026-03-09T18:59:07.000Z</time>
      </trkpt>
      <trkpt lat="43.35251" lon="-1.73751">
        <ele>135</ele>
        <time>2026-03-09T18:59:10.000Z</time>
      </trkpt>
      <trkpt lat="43.35257" lon="-1.73742">
        <ele>134</ele>
        <time>2026-03-09T18:59:11.000Z</time>
      </trkpt>
      <trkpt lat="43.3526" lon="-1.73737">
        <ele>133</ele>
        <time>2026-03-09T18:59:12.000Z</time>
      </trkpt>
      <trkpt lat="43.35272" lon="-1.73723">
        <ele>132</ele>
        <time>2026-03-09T18:59:15.000Z</time>
      </trkpt>
      <trkpt lat="43.35285" lon="-1.73712">
        <ele>131</ele>
        <time>2026-03-09T18:59:18.000Z</time>
      </trkpt>
      <trkpt lat="43.35302" lon="-1.73703">
        <ele>129</ele>
        <time>2026-03-09T18:59:21.000Z</time>
      </trkpt>
      <trkpt lat="43.35312" lon="-1.737">
        <ele>129</ele>
        <time>2026-03-09T18:59:23.000Z</time>
      </trkpt>
      <trkpt lat="43.35328" lon="-1.73697">
        <ele>128</ele>
        <time>2026-03-09T18:59:26.000Z</time>
      </trkpt>
      <trkpt lat="43.35361" lon="-1.73694">
        <ele>127</ele>
        <time>2026-03-09T18:59:32.000Z</time>
      </trkpt>
      <trkpt lat="43.35368" lon="-1.73694">
        <ele>127</ele>
        <time>2026-03-09T18:59:33.000Z</time>
      </trkpt>
      <trkpt lat="43.35415" lon="-1.7369">
        <ele>127</ele>
        <time>2026-03-09T18:59:41.000Z</time>
      </trkpt>
      <trkpt lat="43.35424" lon="-1.73689">
        <ele>127</ele>
        <time>2026-03-09T18:59:43.000Z</time>
      </trkpt>
      <trkpt lat="43.35438" lon="-1.73688">
        <ele>126</ele>
        <time>2026-03-09T18:59:45.000Z</time>
      </trkpt>
      <trkpt lat="43.35467" lon="-1.73686">
        <ele>124</ele>
        <time>2026-03-09T18:59:51.000Z</time>
      </trkpt>
      <trkpt lat="43.35515" lon="-1.73681">
        <ele>122</ele>
        <time>2026-03-09T18:59:59.000Z</time>
      </trkpt>
      <trkpt lat="43.35518" lon="-1.73681">
        <ele>122</ele>
        <time>2026-03-09T19:00:00.000Z</time>
      </trkpt>
      <trkpt lat="43.35536" lon="-1.73678">
        <ele>121</ele>
        <time>2026-03-09T19:00:03.000Z</time>
      </trkpt>
      <trkpt lat="43.35539" lon="-1.73678">
        <ele>121</ele>
        <time>2026-03-09T19:00:03.000Z</time>
      </trkpt>
      <trkpt lat="43.35542" lon="-1.73677">
        <ele>121</ele>
        <time>2026-03-09T19:00:04.000Z</time>
      </trkpt>
      <trkpt lat="43.35553" lon="-1.73673">
        <ele>121</ele>
        <time>2026-03-09T19:00:06.000Z</time>
      </trkpt>
      <trkpt lat="43.3557" lon="-1.73666">
        <ele>121</ele>
        <time>2026-03-09T19:00:09.000Z</time>
      </trkpt>
      <trkpt lat="43.35585" lon="-1.73658">
        <ele>119</ele>
        <time>2026-03-09T19:00:12.000Z</time>
      </trkpt>
      <trkpt lat="43.35603" lon="-1.73648">
        <ele>118</ele>
        <time>2026-03-09T19:00:15.000Z</time>
      </trkpt>
      <trkpt lat="43.35613" lon="-1.73642">
        <ele>118</ele>
        <time>2026-03-09T19:00:17.000Z</time>
      </trkpt>
      <trkpt lat="43.35621" lon="-1.73635">
        <ele>117</ele>
        <time>2026-03-09T19:00:19.000Z</time>
      </trkpt>
      <trkpt lat="43.35632" lon="-1.73626">
        <ele>117</ele>
        <time>2026-03-09T19:00:21.000Z</time>
      </trkpt>
      <trkpt lat="43.35649" lon="-1.73608">
        <ele>116</ele>
        <time>2026-03-09T19:00:25.000Z</time>
      </trkpt>
      <trkpt lat="43.35661" lon="-1.73594">
        <ele>116</ele>
        <time>2026-03-09T19:00:28.000Z</time>
      </trkpt>
      <trkpt lat="43.35676" lon="-1.73577">
        <ele>115</ele>
        <time>2026-03-09T19:00:31.000Z</time>
      </trkpt>
      <trkpt lat="43.35689" lon="-1.73561">
        <ele>114</ele>
        <time>2026-03-09T19:00:35.000Z</time>
      </trkpt>
      <trkpt lat="43.35708" lon="-1.73539">
        <ele>113</ele>
        <time>2026-03-09T19:00:39.000Z</time>
      </trkpt>
      <trkpt lat="43.3574" lon="-1.73498">
        <ele>114</ele>
        <time>2026-03-09T19:00:47.000Z</time>
      </trkpt>
      <trkpt lat="43.35756" lon="-1.7348">
        <ele>112</ele>
        <time>2026-03-09T19:00:50.000Z</time>
      </trkpt>
      <trkpt lat="43.35765" lon="-1.7347">
        <ele>110</ele>
        <time>2026-03-09T19:00:52.000Z</time>
      </trkpt>
      <trkpt lat="43.35769" lon="-1.73465">
        <ele>110</ele>
        <time>2026-03-09T19:00:53.000Z</time>
      </trkpt>
      <trkpt lat="43.35772" lon="-1.73457">
        <ele>109</ele>
        <time>2026-03-09T19:00:55.000Z</time>
      </trkpt>
      <trkpt lat="43.358" lon="-1.73421">
        <ele>106</ele>
        <time>2026-03-09T19:01:01.000Z</time>
      </trkpt>
      <trkpt lat="43.35814" lon="-1.73401">
        <ele>106</ele>
        <time>2026-03-09T19:01:05.000Z</time>
      </trkpt>
      <trkpt lat="43.35823" lon="-1.73387">
        <ele>107</ele>
        <time>2026-03-09T19:01:07.000Z</time>
      </trkpt>
      <trkpt lat="43.35825" lon="-1.73382">
        <ele>107</ele>
        <time>2026-03-09T19:01:08.000Z</time>
      </trkpt>
      <trkpt lat="43.35827" lon="-1.73377">
        <ele>107</ele>
        <time>2026-03-09T19:01:09.000Z</time>
      </trkpt>
      <trkpt lat="43.35837" lon="-1.73354">
        <ele>108</ele>
        <time>2026-03-09T19:01:12.000Z</time>
      </trkpt>
      <trkpt lat="43.35849" lon="-1.73312">
        <ele>107</ele>
        <time>2026-03-09T19:01:18.000Z</time>
      </trkpt>
      <trkpt lat="43.35856" lon="-1.73287">
        <ele>106</ele>
        <time>2026-03-09T19:01:22.000Z</time>
      </trkpt>
      <trkpt lat="43.35876" lon="-1.73192">
        <ele>105</ele>
        <time>2026-03-09T19:01:34.000Z</time>
      </trkpt>
      <trkpt lat="43.35896" lon="-1.73099">
        <ele>104</ele>
        <time>2026-03-09T19:01:47.000Z</time>
      </trkpt>
      <trkpt lat="43.35901" lon="-1.73079">
        <ele>103</ele>
        <time>2026-03-09T19:01:50.000Z</time>
      </trkpt>
      <trkpt lat="43.35909" lon="-1.73061">
        <ele>104</ele>
        <time>2026-03-09T19:01:52.000Z</time>
      </trkpt>
      <trkpt lat="43.35911" lon="-1.73053">
        <ele>104</ele>
        <time>2026-03-09T19:01:54.000Z</time>
      </trkpt>
      <trkpt lat="43.35949" lon="-1.72878">
        <ele>102</ele>
        <time>2026-03-09T19:02:17.000Z</time>
      </trkpt>
      <trkpt lat="43.36002" lon="-1.72631">
        <ele>96</ele>
        <time>2026-03-09T19:02:51.000Z</time>
      </trkpt>
      <trkpt lat="43.36003" lon="-1.7262">
        <ele>95</ele>
        <time>2026-03-09T19:02:52.000Z</time>
      </trkpt>
      <trkpt lat="43.36026" lon="-1.72514">
        <ele>86</ele>
        <time>2026-03-09T19:03:06.000Z</time>
      </trkpt>
      <trkpt lat="43.36051" lon="-1.72392">
        <ele>83</ele>
        <time>2026-03-09T19:03:23.000Z</time>
      </trkpt>
      <trkpt lat="43.36055" lon="-1.72387">
        <ele>83</ele>
        <time>2026-03-09T19:03:24.000Z</time>
      </trkpt>
      <trkpt lat="43.36062" lon="-1.72357">
        <ele>82</ele>
        <time>2026-03-09T19:03:28.000Z</time>
      </trkpt>
      <trkpt lat="43.36072" lon="-1.72311">
        <ele>81</ele>
        <time>2026-03-09T19:03:34.000Z</time>
      </trkpt>
      <trkpt lat="43.36076" lon="-1.72289">
        <ele>82</ele>
        <time>2026-03-09T19:03:37.000Z</time>
      </trkpt>
      <trkpt lat="43.3608" lon="-1.72273">
        <ele>82</ele>
        <time>2026-03-09T19:03:39.000Z</time>
      </trkpt>
      <trkpt lat="43.36082" lon="-1.72262">
        <ele>83</ele>
        <time>2026-03-09T19:03:40.000Z</time>
      </trkpt>
      <trkpt lat="43.36096" lon="-1.72197">
        <ele>84</ele>
        <time>2026-03-09T19:03:49.000Z</time>
      </trkpt>
      <trkpt lat="43.3611" lon="-1.72133">
        <ele>84</ele>
        <time>2026-03-09T19:03:58.000Z</time>
      </trkpt>
      <trkpt lat="43.3612" lon="-1.72089">
        <ele>84</ele>
        <time>2026-03-09T19:04:04.000Z</time>
      </trkpt>
      <trkpt lat="43.36124" lon="-1.7207">
        <ele>82</ele>
        <time>2026-03-09T19:04:06.000Z</time>
      </trkpt>
      <trkpt lat="43.36126" lon="-1.7206">
        <ele>81</ele>
        <time>2026-03-09T19:04:08.000Z</time>
      </trkpt>
      <trkpt lat="43.36137" lon="-1.72013">
        <ele>77</ele>
        <time>2026-03-09T19:04:14.000Z</time>
      </trkpt>
      <trkpt lat="43.3614" lon="-1.71999">
        <ele>76</ele>
        <time>2026-03-09T19:04:16.000Z</time>
      </trkpt>
      <trkpt lat="43.36153" lon="-1.71938">
        <ele>72</ele>
        <time>2026-03-09T19:04:24.000Z</time>
      </trkpt>
      <trkpt lat="43.36156" lon="-1.71923">
        <ele>71</ele>
        <time>2026-03-09T19:04:26.000Z</time>
      </trkpt>
      <trkpt lat="43.36171" lon="-1.71852">
        <ele>70</ele>
        <time>2026-03-09T19:04:36.000Z</time>
      </trkpt>
      <trkpt lat="43.36174" lon="-1.71841">
        <ele>70</ele>
        <time>2026-03-09T19:04:37.000Z</time>
      </trkpt>
      <trkpt lat="43.36187" lon="-1.71781">
        <ele>66</ele>
        <time>2026-03-09T19:04:45.000Z</time>
      </trkpt>
      <trkpt lat="43.36193" lon="-1.71752">
        <ele>63</ele>
        <time>2026-03-09T19:04:49.000Z</time>
      </trkpt>
      <trkpt lat="43.36195" lon="-1.71737">
        <ele>63</ele>
        <time>2026-03-09T19:04:51.000Z</time>
      </trkpt>
      <trkpt lat="43.36196" lon="-1.71731">
        <ele>62</ele>
        <time>2026-03-09T19:04:52.000Z</time>
      </trkpt>
      <trkpt lat="43.36197" lon="-1.71718">
        <ele>62</ele>
        <time>2026-03-09T19:04:54.000Z</time>
      </trkpt>
      <trkpt lat="43.36198" lon="-1.71694">
        <ele>61</ele>
        <time>2026-03-09T19:04:57.000Z</time>
      </trkpt>
      <trkpt lat="43.36198" lon="-1.71689">
        <ele>61</ele>
        <time>2026-03-09T19:04:58.000Z</time>
      </trkpt>
      <trkpt lat="43.36198" lon="-1.71663">
        <ele>60</ele>
        <time>2026-03-09T19:05:01.000Z</time>
      </trkpt>
      <trkpt lat="43.36197" lon="-1.71649">
        <ele>60</ele>
        <time>2026-03-09T19:05:03.000Z</time>
      </trkpt>
      <trkpt lat="43.36197" lon="-1.71597">
        <ele>59</ele>
        <time>2026-03-09T19:05:09.000Z</time>
      </trkpt>
      <trkpt lat="43.36196" lon="-1.71549">
        <ele>59</ele>
        <time>2026-03-09T19:05:16.000Z</time>
      </trkpt>
      <trkpt lat="43.36196" lon="-1.71503">
        <ele>58</ele>
        <time>2026-03-09T19:05:22.000Z</time>
      </trkpt>
      <trkpt lat="43.36195" lon="-1.71466">
        <ele>57</ele>
        <time>2026-03-09T19:05:26.000Z</time>
      </trkpt>
      <trkpt lat="43.36195" lon="-1.71419">
        <ele>56</ele>
        <time>2026-03-09T19:05:33.000Z</time>
      </trkpt>
      <trkpt lat="43.36195" lon="-1.71363">
        <ele>53</ele>
        <time>2026-03-09T19:05:40.000Z</time>
      </trkpt>
      <trkpt lat="43.36195" lon="-1.71355">
        <ele>53</ele>
        <time>2026-03-09T19:05:41.000Z</time>
      </trkpt>
      <trkpt lat="43.36195" lon="-1.71314">
        <ele>51</ele>
        <time>2026-03-09T19:05:46.000Z</time>
      </trkpt>
      <trkpt lat="43.36195" lon="-1.71312">
        <ele>51</ele>
        <time>2026-03-09T19:05:46.000Z</time>
      </trkpt>
      <trkpt lat="43.36194" lon="-1.71265">
        <ele>47</ele>
        <time>2026-03-09T19:05:52.000Z</time>
      </trkpt>
      <trkpt lat="43.36194" lon="-1.71239">
        <ele>46</ele>
        <time>2026-03-09T19:05:56.000Z</time>
      </trkpt>
      <trkpt lat="43.36194" lon="-1.71201">
        <ele>43</ele>
        <time>2026-03-09T19:06:01.000Z</time>
      </trkpt>
      <trkpt lat="43.36194" lon="-1.71154">
        <ele>41</ele>
        <time>2026-03-09T19:06:07.000Z</time>
      </trkpt>
      <trkpt lat="43.36194" lon="-1.71133">
        <ele>40</ele>
        <time>2026-03-09T19:06:10.000Z</time>
      </trkpt>
      <trkpt lat="43.36194" lon="-1.71114">
        <ele>40</ele>
        <time>2026-03-09T19:06:12.000Z</time>
      </trkpt>
      <trkpt lat="43.36193" lon="-1.71102">
        <ele>39</ele>
        <time>2026-03-09T19:06:14.000Z</time>
      </trkpt>
      <trkpt lat="43.36193" lon="-1.71062">
        <ele>39</ele>
        <time>2026-03-09T19:06:19.000Z</time>
      </trkpt>
      <trkpt lat="43.36193" lon="-1.71047">
        <ele>39</ele>
        <time>2026-03-09T19:06:21.000Z</time>
      </trkpt>
      <trkpt lat="43.36193" lon="-1.71005">
        <ele>38</ele>
        <time>2026-03-09T19:06:26.000Z</time>
      </trkpt>
      <trkpt lat="43.36193" lon="-1.70947">
        <ele>37</ele>
        <time>2026-03-09T19:06:34.000Z</time>
      </trkpt>
      <trkpt lat="43.36192" lon="-1.70891">
        <ele>36</ele>
        <time>2026-03-09T19:06:41.000Z</time>
      </trkpt>
      <trkpt lat="43.36192" lon="-1.70821">
        <ele>35</ele>
        <time>2026-03-09T19:06:50.000Z</time>
      </trkpt>
      <trkpt lat="43.36192" lon="-1.70754">
        <ele>36</ele>
        <time>2026-03-09T19:06:59.000Z</time>
      </trkpt>
      <trkpt lat="43.36192" lon="-1.70743">
        <ele>35</ele>
        <time>2026-03-09T19:07:00.000Z</time>
      </trkpt>
      <trkpt lat="43.36191" lon="-1.70725">
        <ele>34</ele>
        <time>2026-03-09T19:07:02.000Z</time>
      </trkpt>
      <trkpt lat="43.3619" lon="-1.70644">
        <ele>28</ele>
        <time>2026-03-09T19:07:13.000Z</time>
      </trkpt>
      <trkpt lat="43.3619" lon="-1.70565">
        <ele>26</ele>
        <time>2026-03-09T19:07:23.000Z</time>
      </trkpt>
      <trkpt lat="43.36188" lon="-1.70538">
        <ele>26</ele>
        <time>2026-03-09T19:07:27.000Z</time>
      </trkpt>
      <trkpt lat="43.36187" lon="-1.7052">
        <ele>26</ele>
        <time>2026-03-09T19:07:29.000Z</time>
      </trkpt>
      <trkpt lat="43.36185" lon="-1.70508">
        <ele>26</ele>
        <time>2026-03-09T19:07:30.000Z</time>
      </trkpt>
      <trkpt lat="43.36183" lon="-1.70495">
        <ele>26</ele>
        <time>2026-03-09T19:07:32.000Z</time>
      </trkpt>
      <trkpt lat="43.36182" lon="-1.70485">
        <ele>26</ele>
        <time>2026-03-09T19:07:33.000Z</time>
      </trkpt>
      <trkpt lat="43.3618" lon="-1.70477">
        <ele>26</ele>
        <time>2026-03-09T19:07:35.000Z</time>
      </trkpt>
      <trkpt lat="43.36177" lon="-1.70461">
        <ele>25</ele>
        <time>2026-03-09T19:07:37.000Z</time>
      </trkpt>
      <trkpt lat="43.36176" lon="-1.70451">
        <ele>25</ele>
        <time>2026-03-09T19:07:38.000Z</time>
      </trkpt>
      <trkpt lat="43.36173" lon="-1.70442">
        <ele>25</ele>
        <time>2026-03-09T19:07:39.000Z</time>
      </trkpt>
      <trkpt lat="43.36171" lon="-1.70434">
        <ele>25</ele>
        <time>2026-03-09T19:07:40.000Z</time>
      </trkpt>
      <trkpt lat="43.36162" lon="-1.70403">
        <ele>23</ele>
        <time>2026-03-09T19:07:45.000Z</time>
      </trkpt>
      <trkpt lat="43.36153" lon="-1.70372">
        <ele>22</ele>
        <time>2026-03-09T19:07:49.000Z</time>
      </trkpt>
      <trkpt lat="43.36142" lon="-1.70333">
        <ele>20</ele>
        <time>2026-03-09T19:07:54.000Z</time>
      </trkpt>
      <trkpt lat="43.36141" lon="-1.7033">
        <ele>20</ele>
        <time>2026-03-09T19:07:55.000Z</time>
      </trkpt>
      <trkpt lat="43.36139" lon="-1.70323">
        <ele>20</ele>
        <time>2026-03-09T19:07:56.000Z</time>
      </trkpt>
      <trkpt lat="43.36133" lon="-1.70303">
        <ele>20</ele>
        <time>2026-03-09T19:07:59.000Z</time>
      </trkpt>
      <trkpt lat="43.36125" lon="-1.70271">
        <ele>21</ele>
        <time>2026-03-09T19:08:03.000Z</time>
      </trkpt>
      <trkpt lat="43.36115" lon="-1.70232">
        <ele>21</ele>
        <time>2026-03-09T19:08:08.000Z</time>
      </trkpt>
      <trkpt lat="43.36106" lon="-1.70196">
        <ele>20</ele>
        <time>2026-03-09T19:08:13.000Z</time>
      </trkpt>
      <trkpt lat="43.36101" lon="-1.70173">
        <ele>19</ele>
        <time>2026-03-09T19:08:16.000Z</time>
      </trkpt>
      <trkpt lat="43.36095" lon="-1.70143">
        <ele>20</ele>
        <time>2026-03-09T19:08:20.000Z</time>
      </trkpt>
      <trkpt lat="43.36092" lon="-1.70119">
        <ele>21</ele>
        <time>2026-03-09T19:08:24.000Z</time>
      </trkpt>
      <trkpt lat="43.36091" lon="-1.70114">
        <ele>21</ele>
        <time>2026-03-09T19:08:24.000Z</time>
      </trkpt>
      <trkpt lat="43.3609" lon="-1.70108">
        <ele>21</ele>
        <time>2026-03-09T19:08:25.000Z</time>
      </trkpt>
      <trkpt lat="43.36089" lon="-1.70098">
        <ele>22</ele>
        <time>2026-03-09T19:08:26.000Z</time>
      </trkpt>
      <trkpt lat="43.36086" lon="-1.70069">
        <ele>22</ele>
        <time>2026-03-09T19:08:30.000Z</time>
      </trkpt>
      <trkpt lat="43.36084" lon="-1.70038">
        <ele>22</ele>
        <time>2026-03-09T19:08:34.000Z</time>
      </trkpt>
      <trkpt lat="43.36084" lon="-1.70011">
        <ele>22</ele>
        <time>2026-03-09T19:08:38.000Z</time>
      </trkpt>
      <trkpt lat="43.36084" lon="-1.69994">
        <ele>22</ele>
        <time>2026-03-09T19:08:40.000Z</time>
      </trkpt>
      <trkpt lat="43.36084" lon="-1.69978">
        <ele>22</ele>
        <time>2026-03-09T19:08:42.000Z</time>
      </trkpt>
      <trkpt lat="43.36084" lon="-1.69966">
        <ele>21</ele>
        <time>2026-03-09T19:08:43.000Z</time>
      </trkpt>
      <trkpt lat="43.36084" lon="-1.69952">
        <ele>21</ele>
        <time>2026-03-09T19:08:45.000Z</time>
      </trkpt>
      <trkpt lat="43.36085" lon="-1.69938">
        <ele>21</ele>
        <time>2026-03-09T19:08:47.000Z</time>
      </trkpt>
      <trkpt lat="43.36086" lon="-1.6992">
        <ele>20</ele>
        <time>2026-03-09T19:08:49.000Z</time>
      </trkpt>
      <trkpt lat="43.36089" lon="-1.69899">
        <ele>20</ele>
        <time>2026-03-09T19:08:52.000Z</time>
      </trkpt>
      <trkpt lat="43.36091" lon="-1.6988">
        <ele>19</ele>
        <time>2026-03-09T19:08:55.000Z</time>
      </trkpt>
      <trkpt lat="43.36094" lon="-1.69857">
        <ele>19</ele>
        <time>2026-03-09T19:08:58.000Z</time>
      </trkpt>
      <trkpt lat="43.36097" lon="-1.69836">
        <ele>18</ele>
        <time>2026-03-09T19:09:00.000Z</time>
      </trkpt>
      <trkpt lat="43.361" lon="-1.69824">
        <ele>18</ele>
        <time>2026-03-09T19:09:02.000Z</time>
      </trkpt>
      <trkpt lat="43.361" lon="-1.6982">
        <ele>18</ele>
        <time>2026-03-09T19:09:03.000Z</time>
      </trkpt>
      <trkpt lat="43.36101" lon="-1.69817">
        <ele>18</ele>
        <time>2026-03-09T19:09:03.000Z</time>
      </trkpt>
      <trkpt lat="43.36107" lon="-1.69801">
        <ele>17</ele>
        <time>2026-03-09T19:09:05.000Z</time>
      </trkpt>
      <trkpt lat="43.3611" lon="-1.6979">
        <ele>17</ele>
        <time>2026-03-09T19:09:07.000Z</time>
      </trkpt>
      <trkpt lat="43.36116" lon="-1.69769">
        <ele>17</ele>
        <time>2026-03-09T19:09:10.000Z</time>
      </trkpt>
      <trkpt lat="43.36123" lon="-1.69747">
        <ele>16</ele>
        <time>2026-03-09T19:09:13.000Z</time>
      </trkpt>
      <trkpt lat="43.36133" lon="-1.6972">
        <ele>16</ele>
        <time>2026-03-09T19:09:17.000Z</time>
      </trkpt>
      <trkpt lat="43.36135" lon="-1.69714">
        <ele>16</ele>
        <time>2026-03-09T19:09:18.000Z</time>
      </trkpt>
      <trkpt lat="43.36144" lon="-1.69693">
        <ele>17</ele>
        <time>2026-03-09T19:09:21.000Z</time>
      </trkpt>
      <trkpt lat="43.36157" lon="-1.69659">
        <ele>17</ele>
        <time>2026-03-09T19:09:26.000Z</time>
      </trkpt>
      <trkpt lat="43.3617" lon="-1.69627">
        <ele>17</ele>
        <time>2026-03-09T19:09:31.000Z</time>
      </trkpt>
      <trkpt lat="43.36173" lon="-1.6962">
        <ele>16</ele>
        <time>2026-03-09T19:09:32.000Z</time>
      </trkpt>
      <trkpt lat="43.36183" lon="-1.69595">
        <ele>15</ele>
        <time>2026-03-09T19:09:35.000Z</time>
      </trkpt>
      <trkpt lat="43.36188" lon="-1.6958">
        <ele>15</ele>
        <time>2026-03-09T19:09:37.000Z</time>
      </trkpt>
      <trkpt lat="43.3619" lon="-1.69576">
        <ele>15</ele>
        <time>2026-03-09T19:09:38.000Z</time>
      </trkpt>
      <trkpt lat="43.36192" lon="-1.6957">
        <ele>14</ele>
        <time>2026-03-09T19:09:39.000Z</time>
      </trkpt>
      <trkpt lat="43.36193" lon="-1.69565">
        <ele>14</ele>
        <time>2026-03-09T19:09:40.000Z</time>
      </trkpt>
      <trkpt lat="43.36196" lon="-1.6956">
        <ele>14</ele>
        <time>2026-03-09T19:09:40.000Z</time>
      </trkpt>
      <trkpt lat="43.3623" lon="-1.69473">
        <ele>13</ele>
        <time>2026-03-09T19:09:53.000Z</time>
      </trkpt>
      <trkpt lat="43.3625" lon="-1.69422">
        <ele>13</ele>
        <time>2026-03-09T19:10:01.000Z</time>
      </trkpt>
      <trkpt lat="43.36264" lon="-1.69386">
        <ele>13</ele>
        <time>2026-03-09T19:10:06.000Z</time>
      </trkpt>
      <trkpt lat="43.36271" lon="-1.69371">
        <ele>14</ele>
        <time>2026-03-09T19:10:08.000Z</time>
      </trkpt>
      <trkpt lat="43.36274" lon="-1.69363">
        <ele>14</ele>
        <time>2026-03-09T19:10:09.000Z</time>
      </trkpt>
      <trkpt lat="43.36276" lon="-1.69357">
        <ele>14</ele>
        <time>2026-03-09T19:10:10.000Z</time>
      </trkpt>
      <trkpt lat="43.36278" lon="-1.69353">
        <ele>14</ele>
        <time>2026-03-09T19:10:11.000Z</time>
      </trkpt>
      <trkpt lat="43.36286" lon="-1.69327">
        <ele>15</ele>
        <time>2026-03-09T19:10:15.000Z</time>
      </trkpt>
      <trkpt lat="43.36287" lon="-1.69322">
        <ele>15</ele>
        <time>2026-03-09T19:10:15.000Z</time>
      </trkpt>
      <trkpt lat="43.36287" lon="-1.69313">
        <ele>15</ele>
        <time>2026-03-09T19:10:16.000Z</time>
      </trkpt>
      <trkpt lat="43.36288" lon="-1.69302">
        <ele>14</ele>
        <time>2026-03-09T19:10:18.000Z</time>
      </trkpt>
      <trkpt lat="43.36288" lon="-1.69276">
        <ele>14</ele>
        <time>2026-03-09T19:10:21.000Z</time>
      </trkpt>
      <trkpt lat="43.36287" lon="-1.69264">
        <ele>14</ele>
        <time>2026-03-09T19:10:23.000Z</time>
      </trkpt>
      <trkpt lat="43.36287" lon="-1.69253">
        <ele>14</ele>
        <time>2026-03-09T19:10:24.000Z</time>
      </trkpt>
      <trkpt lat="43.36287" lon="-1.69251">
        <ele>14</ele>
        <time>2026-03-09T19:10:24.000Z</time>
      </trkpt>
      <trkpt lat="43.36287" lon="-1.69243">
        <ele>14</ele>
        <time>2026-03-09T19:10:26.000Z</time>
      </trkpt>
      <trkpt lat="43.36289" lon="-1.69236">
        <ele>14</ele>
        <time>2026-03-09T19:10:26.000Z</time>
      </trkpt>
      <trkpt lat="43.36291" lon="-1.69226">
        <ele>14</ele>
        <time>2026-03-09T19:10:28.000Z</time>
      </trkpt>
      <trkpt lat="43.36291" lon="-1.69226">
        <ele>14</ele>
        <time>2026-03-09T19:10:28.000Z</time>
      </trkpt>
      <trkpt lat="43.3629" lon="-1.69225">
        <ele>14</ele>
        <time>2026-03-09T19:10:28.000Z</time>
      </trkpt>
      <trkpt lat="43.36289" lon="-1.69223">
        <ele>14</ele>
        <time>2026-03-09T19:10:28.000Z</time>
      </trkpt>
      <trkpt lat="43.36288" lon="-1.69221">
        <ele>14</ele>
        <time>2026-03-09T19:10:29.000Z</time>
      </trkpt>
      <trkpt lat="43.36287" lon="-1.69219">
        <ele>14</ele>
        <time>2026-03-09T19:10:29.000Z</time>
      </trkpt>
      <trkpt lat="43.36286" lon="-1.69217">
        <ele>14</ele>
        <time>2026-03-09T19:10:29.000Z</time>
      </trkpt>
      <trkpt lat="43.36286" lon="-1.69215">
        <ele>14</ele>
        <time>2026-03-09T19:10:30.000Z</time>
      </trkpt>
      <trkpt lat="43.36285" lon="-1.69213">
        <ele>14</ele>
        <time>2026-03-09T19:10:30.000Z</time>
      </trkpt>
      <trkpt lat="43.36285" lon="-1.69211">
        <ele>14</ele>
        <time>2026-03-09T19:10:30.000Z</time>
      </trkpt>
      <trkpt lat="43.36285" lon="-1.69208">
        <ele>15</ele>
        <time>2026-03-09T19:10:31.000Z</time>
      </trkpt>
      <trkpt lat="43.36285" lon="-1.69206">
        <ele>15</ele>
        <time>2026-03-09T19:10:31.000Z</time>
      </trkpt>
      <trkpt lat="43.36285" lon="-1.69204">
        <ele>15</ele>
        <time>2026-03-09T19:10:31.000Z</time>
      </trkpt>
      <trkpt lat="43.36285" lon="-1.69202">
        <ele>15</ele>
        <time>2026-03-09T19:10:31.000Z</time>
      </trkpt>
      <trkpt lat="43.36285" lon="-1.692">
        <ele>15</ele>
        <time>2026-03-09T19:10:32.000Z</time>
      </trkpt>
      <trkpt lat="43.36286" lon="-1.69197">
        <ele>15</ele>
        <time>2026-03-09T19:10:32.000Z</time>
      </trkpt>
      <trkpt lat="43.36287" lon="-1.69195">
        <ele>15</ele>
        <time>2026-03-09T19:10:32.000Z</time>
      </trkpt>
      <trkpt lat="43.36287" lon="-1.69193">
        <ele>15</ele>
        <time>2026-03-09T19:10:33.000Z</time>
      </trkpt>
      <trkpt lat="43.36288" lon="-1.69191">
        <ele>15</ele>
        <time>2026-03-09T19:10:33.000Z</time>
      </trkpt>
      <trkpt lat="43.36289" lon="-1.6919">
        <ele>15</ele>
        <time>2026-03-09T19:10:33.000Z</time>
      </trkpt>
      <trkpt lat="43.3629" lon="-1.69188">
        <ele>15</ele>
        <time>2026-03-09T19:10:33.000Z</time>
      </trkpt>
      <trkpt lat="43.36291" lon="-1.69187">
        <ele>15</ele>
        <time>2026-03-09T19:10:34.000Z</time>
      </trkpt>
      <trkpt lat="43.36292" lon="-1.69186">
        <ele>15</ele>
        <time>2026-03-09T19:10:34.000Z</time>
      </trkpt>
      <trkpt lat="43.36293" lon="-1.69185">
        <ele>15</ele>
        <time>2026-03-09T19:10:34.000Z</time>
      </trkpt>
      <trkpt lat="43.36294" lon="-1.69183">
        <ele>15</ele>
        <time>2026-03-09T19:10:34.000Z</time>
      </trkpt>
      <trkpt lat="43.36296" lon="-1.69183">
        <ele>15</ele>
        <time>2026-03-09T19:10:35.000Z</time>
      </trkpt>
      <trkpt lat="43.36297" lon="-1.69182">
        <ele>15</ele>
        <time>2026-03-09T19:10:35.000Z</time>
      </trkpt>
      <trkpt lat="43.363" lon="-1.69181">
        <ele>15</ele>
        <time>2026-03-09T19:10:36.000Z</time>
      </trkpt>
      <trkpt lat="43.36302" lon="-1.6918">
        <ele>15</ele>
        <time>2026-03-09T19:10:36.000Z</time>
      </trkpt>
      <trkpt lat="43.36304" lon="-1.6918">
        <ele>15</ele>
        <time>2026-03-09T19:10:36.000Z</time>
      </trkpt>
      <trkpt lat="43.36306" lon="-1.6918">
        <ele>16</ele>
        <time>2026-03-09T19:10:37.000Z</time>
      </trkpt>
      <trkpt lat="43.36308" lon="-1.6918">
        <ele>16</ele>
        <time>2026-03-09T19:10:37.000Z</time>
      </trkpt>
      <trkpt lat="43.3631" lon="-1.6918">
        <ele>16</ele>
        <time>2026-03-09T19:10:37.000Z</time>
      </trkpt>
      <trkpt lat="43.36312" lon="-1.69181">
        <ele>16</ele>
        <time>2026-03-09T19:10:38.000Z</time>
      </trkpt>
      <trkpt lat="43.36313" lon="-1.69182">
        <ele>16</ele>
        <time>2026-03-09T19:10:38.000Z</time>
      </trkpt>
      <trkpt lat="43.36315" lon="-1.69183">
        <ele>16</ele>
        <time>2026-03-09T19:10:38.000Z</time>
      </trkpt>
      <trkpt lat="43.36325" lon="-1.69179">
        <ele>16</ele>
        <time>2026-03-09T19:10:40.000Z</time>
      </trkpt>
      <trkpt lat="43.36329" lon="-1.69176">
        <ele>16</ele>
        <time>2026-03-09T19:10:41.000Z</time>
      </trkpt>
      <trkpt lat="43.36335" lon="-1.69172">
        <ele>16</ele>
        <time>2026-03-09T19:10:42.000Z</time>
      </trkpt>
      <trkpt lat="43.36342" lon="-1.69165">
        <ele>17</ele>
        <time>2026-03-09T19:10:44.000Z</time>
      </trkpt>
      <trkpt lat="43.36346" lon="-1.69158">
        <ele>17</ele>
        <time>2026-03-09T19:10:45.000Z</time>
      </trkpt>
      <trkpt lat="43.36351" lon="-1.6915">
        <ele>17</ele>
        <time>2026-03-09T19:10:46.000Z</time>
      </trkpt>
      <trkpt lat="43.36357" lon="-1.69138">
        <ele>18</ele>
        <time>2026-03-09T19:10:48.000Z</time>
      </trkpt>
      <trkpt lat="43.36366" lon="-1.69117">
        <ele>19</ele>
        <time>2026-03-09T19:10:51.000Z</time>
      </trkpt>
      <trkpt lat="43.3638" lon="-1.69085">
        <ele>22</ele>
        <time>2026-03-09T19:10:56.000Z</time>
      </trkpt>
      <trkpt lat="43.36388" lon="-1.69066">
        <ele>23</ele>
        <time>2026-03-09T19:10:59.000Z</time>
      </trkpt>
      <trkpt lat="43.36395" lon="-1.69049">
        <ele>23</ele>
        <time>2026-03-09T19:11:01.000Z</time>
      </trkpt>
      <trkpt lat="43.36401" lon="-1.69038">
        <ele>24</ele>
        <time>2026-03-09T19:11:03.000Z</time>
      </trkpt>
      <trkpt lat="43.36408" lon="-1.69027">
        <ele>24</ele>
        <time>2026-03-09T19:11:05.000Z</time>
      </trkpt>
      <trkpt lat="43.36416" lon="-1.69014">
        <ele>24</ele>
        <time>2026-03-09T19:11:07.000Z</time>
      </trkpt>
      <trkpt lat="43.36421" lon="-1.69007">
        <ele>24</ele>
        <time>2026-03-09T19:11:09.000Z</time>
      </trkpt>
      <trkpt lat="43.36429" lon="-1.68999">
        <ele>25</ele>
        <time>2026-03-09T19:11:10.000Z</time>
      </trkpt>
      <trkpt lat="43.36463" lon="-1.68953">
        <ele>24</ele>
        <time>2026-03-09T19:11:19.000Z</time>
      </trkpt>
      <trkpt lat="43.36485" lon="-1.68926">
        <ele>22</ele>
        <time>2026-03-09T19:11:24.000Z</time>
      </trkpt>
      <trkpt lat="43.36508" lon="-1.68891">
        <ele>22</ele>
        <time>2026-03-09T19:11:30.000Z</time>
      </trkpt>
      <trkpt lat="43.3654" lon="-1.68846">
        <ele>21</ele>
        <time>2026-03-09T19:11:38.000Z</time>
      </trkpt>
      <trkpt lat="43.36579" lon="-1.68797">
        <ele>19</ele>
        <time>2026-03-09T19:11:48.000Z</time>
      </trkpt>
      <trkpt lat="43.3662" lon="-1.68747">
        <ele>17</ele>
        <time>2026-03-09T19:11:57.000Z</time>
      </trkpt>
      <trkpt lat="43.36628" lon="-1.68739">
        <ele>17</ele>
        <time>2026-03-09T19:11:59.000Z</time>
      </trkpt>
      <trkpt lat="43.36636" lon="-1.68731">
        <ele>17</ele>
        <time>2026-03-09T19:12:01.000Z</time>
      </trkpt>
      <trkpt lat="43.36645" lon="-1.68724">
        <ele>17</ele>
        <time>2026-03-09T19:12:03.000Z</time>
      </trkpt>
      <trkpt lat="43.36656" lon="-1.68716">
        <ele>17</ele>
        <time>2026-03-09T19:12:05.000Z</time>
      </trkpt>
      <trkpt lat="43.36678" lon="-1.68702">
        <ele>16</ele>
        <time>2026-03-09T19:12:09.000Z</time>
      </trkpt>
      <trkpt lat="43.36705" lon="-1.68684">
        <ele>16</ele>
        <time>2026-03-09T19:12:15.000Z</time>
      </trkpt>
      <trkpt lat="43.36745" lon="-1.68657">
        <ele>16</ele>
        <time>2026-03-09T19:12:23.000Z</time>
      </trkpt>
      <trkpt lat="43.36749" lon="-1.68654">
        <ele>16</ele>
        <time>2026-03-09T19:12:23.000Z</time>
      </trkpt>
      <trkpt lat="43.36765" lon="-1.68645">
        <ele>16</ele>
        <time>2026-03-09T19:12:26.000Z</time>
      </trkpt>
      <trkpt lat="43.3677" lon="-1.68642">
        <ele>15</ele>
        <time>2026-03-09T19:12:27.000Z</time>
      </trkpt>
      <trkpt lat="43.36784" lon="-1.68633">
        <ele>15</ele>
        <time>2026-03-09T19:12:30.000Z</time>
      </trkpt>
      <trkpt lat="43.36792" lon="-1.68626">
        <ele>15</ele>
        <time>2026-03-09T19:12:32.000Z</time>
      </trkpt>
      <trkpt lat="43.36801" lon="-1.68618">
        <ele>14</ele>
        <time>2026-03-09T19:12:34.000Z</time>
      </trkpt>
      <trkpt lat="43.36811" lon="-1.68606">
        <ele>14</ele>
        <time>2026-03-09T19:12:36.000Z</time>
      </trkpt>
      <trkpt lat="43.36819" lon="-1.68597">
        <ele>14</ele>
        <time>2026-03-09T19:12:38.000Z</time>
      </trkpt>
      <trkpt lat="43.36826" lon="-1.68586">
        <ele>14</ele>
        <time>2026-03-09T19:12:40.000Z</time>
      </trkpt>
      <trkpt lat="43.36833" lon="-1.68573">
        <ele>14</ele>
        <time>2026-03-09T19:12:42.000Z</time>
      </trkpt>
      <trkpt lat="43.36836" lon="-1.68558">
        <ele>15</ele>
        <time>2026-03-09T19:12:44.000Z</time>
      </trkpt>
      <trkpt lat="43.36844" lon="-1.68541">
        <ele>15</ele>
        <time>2026-03-09T19:12:47.000Z</time>
      </trkpt>
      <trkpt lat="43.3685" lon="-1.68526">
        <ele>15</ele>
        <time>2026-03-09T19:12:49.000Z</time>
      </trkpt>
      <trkpt lat="43.36852" lon="-1.6852">
        <ele>15</ele>
        <time>2026-03-09T19:12:50.000Z</time>
      </trkpt>
      <trkpt lat="43.36852" lon="-1.68519">
        <ele>15</ele>
        <time>2026-03-09T19:12:50.000Z</time>
      </trkpt>
      <trkpt lat="43.36857" lon="-1.68507">
        <ele>15</ele>
        <time>2026-03-09T19:12:52.000Z</time>
      </trkpt>
      <trkpt lat="43.36862" lon="-1.68492">
        <ele>15</ele>
        <time>2026-03-09T19:12:54.000Z</time>
      </trkpt>
      <trkpt lat="43.36872" lon="-1.68465">
        <ele>15</ele>
        <time>2026-03-09T19:12:58.000Z</time>
      </trkpt>
      <trkpt lat="43.36873" lon="-1.68462">
        <ele>15</ele>
        <time>2026-03-09T19:12:58.000Z</time>
      </trkpt>
      <trkpt lat="43.36883" lon="-1.68433">
        <ele>15</ele>
        <time>2026-03-09T19:13:02.000Z</time>
      </trkpt>
      <trkpt lat="43.36887" lon="-1.68423">
        <ele>15</ele>
        <time>2026-03-09T19:13:04.000Z</time>
      </trkpt>
      <trkpt lat="43.36896" lon="-1.684">
        <ele>14</ele>
        <time>2026-03-09T19:13:07.000Z</time>
      </trkpt>
      <trkpt lat="43.36903" lon="-1.68382">
        <ele>14</ele>
        <time>2026-03-09T19:13:10.000Z</time>
      </trkpt>
      <trkpt lat="43.36905" lon="-1.6838">
        <ele>14</ele>
        <time>2026-03-09T19:13:10.000Z</time>
      </trkpt>
      <trkpt lat="43.3691" lon="-1.68372">
        <ele>13</ele>
        <time>2026-03-09T19:13:12.000Z</time>
      </trkpt>
      <trkpt lat="43.36921" lon="-1.68351">
        <ele>13</ele>
        <time>2026-03-09T19:13:15.000Z</time>
      </trkpt>
      <trkpt lat="43.36933" lon="-1.68335">
        <ele>12</ele>
        <time>2026-03-09T19:13:18.000Z</time>
      </trkpt>
      <trkpt lat="43.36938" lon="-1.68329">
        <ele>12</ele>
        <time>2026-03-09T19:13:19.000Z</time>
      </trkpt>
      <trkpt lat="43.36946" lon="-1.6832">
        <ele>12</ele>
        <time>2026-03-09T19:13:21.000Z</time>
      </trkpt>
      <trkpt lat="43.36957" lon="-1.6831">
        <ele>12</ele>
        <time>2026-03-09T19:13:23.000Z</time>
      </trkpt>
      <trkpt lat="43.36971" lon="-1.68298">
        <ele>11</ele>
        <time>2026-03-09T19:13:26.000Z</time>
      </trkpt>
      <trkpt lat="43.3699" lon="-1.68283">
        <ele>11</ele>
        <time>2026-03-09T19:13:30.000Z</time>
      </trkpt>
      <trkpt lat="43.37001" lon="-1.68276">
        <ele>11</ele>
        <time>2026-03-09T19:13:32.000Z</time>
      </trkpt>
      <trkpt lat="43.37036" lon="-1.68252">
        <ele>13</ele>
        <time>2026-03-09T19:13:39.000Z</time>
      </trkpt>
      <trkpt lat="43.37042" lon="-1.68248">
        <ele>14</ele>
        <time>2026-03-09T19:13:40.000Z</time>
      </trkpt>
      <trkpt lat="43.37083" lon="-1.68218">
        <ele>16</ele>
        <time>2026-03-09T19:13:49.000Z</time>
      </trkpt>
      <trkpt lat="43.37097" lon="-1.68208">
        <ele>17</ele>
        <time>2026-03-09T19:13:51.000Z</time>
      </trkpt>
      <trkpt lat="43.37126" lon="-1.68186">
        <ele>19</ele>
        <time>2026-03-09T19:13:57.000Z</time>
      </trkpt>
      <trkpt lat="43.37147" lon="-1.68176">
        <ele>21</ele>
        <time>2026-03-09T19:14:01.000Z</time>
      </trkpt>
      <trkpt lat="43.37155" lon="-1.68169">
        <ele>21</ele>
        <time>2026-03-09T19:14:03.000Z</time>
      </trkpt>
      <trkpt lat="43.37157" lon="-1.68167">
        <ele>21</ele>
        <time>2026-03-09T19:14:03.000Z</time>
      </trkpt>
      <trkpt lat="43.37164" lon="-1.68161">
        <ele>22</ele>
        <time>2026-03-09T19:14:05.000Z</time>
      </trkpt>
      <trkpt lat="43.37172" lon="-1.68155">
        <ele>22</ele>
        <time>2026-03-09T19:14:06.000Z</time>
      </trkpt>
      <trkpt lat="43.37181" lon="-1.68149">
        <ele>21</ele>
        <time>2026-03-09T19:14:08.000Z</time>
      </trkpt>
      <trkpt lat="43.37188" lon="-1.68146">
        <ele>21</ele>
        <time>2026-03-09T19:14:10.000Z</time>
      </trkpt>
      <trkpt lat="43.37204" lon="-1.68138">
        <ele>20</ele>
        <time>2026-03-09T19:14:13.000Z</time>
      </trkpt>
      <trkpt lat="43.37205" lon="-1.68138">
        <ele>20</ele>
        <time>2026-03-09T19:14:13.000Z</time>
      </trkpt>
      <trkpt lat="43.37215" lon="-1.68129">
        <ele>19</ele>
        <time>2026-03-09T19:14:15.000Z</time>
      </trkpt>
      <trkpt lat="43.37218" lon="-1.68126">
        <ele>19</ele>
        <time>2026-03-09T19:14:16.000Z</time>
      </trkpt>
      <trkpt lat="43.37226" lon="-1.68117">
        <ele>19</ele>
        <time>2026-03-09T19:14:17.000Z</time>
      </trkpt>
      <trkpt lat="43.37227" lon="-1.68115">
        <ele>19</ele>
        <time>2026-03-09T19:14:18.000Z</time>
      </trkpt>
      <trkpt lat="43.37227" lon="-1.68114">
        <ele>19</ele>
        <time>2026-03-09T19:14:18.000Z</time>
      </trkpt>
      <trkpt lat="43.37227" lon="-1.68113">
        <ele>19</ele>
        <time>2026-03-09T19:14:18.000Z</time>
      </trkpt>
      <trkpt lat="43.37228" lon="-1.68112">
        <ele>19</ele>
        <time>2026-03-09T19:14:18.000Z</time>
      </trkpt>
      <trkpt lat="43.37228" lon="-1.68111">
        <ele>19</ele>
        <time>2026-03-09T19:14:18.000Z</time>
      </trkpt>
      <trkpt lat="43.37229" lon="-1.6811">
        <ele>19</ele>
        <time>2026-03-09T19:14:19.000Z</time>
      </trkpt>
      <trkpt lat="43.3723" lon="-1.68109">
        <ele>19</ele>
        <time>2026-03-09T19:14:19.000Z</time>
      </trkpt>
      <trkpt lat="43.3723" lon="-1.68108">
        <ele>19</ele>
        <time>2026-03-09T19:14:19.000Z</time>
      </trkpt>
      <trkpt lat="43.37231" lon="-1.68107">
        <ele>19</ele>
        <time>2026-03-09T19:14:19.000Z</time>
      </trkpt>
      <trkpt lat="43.37232" lon="-1.68106">
        <ele>19</ele>
        <time>2026-03-09T19:14:19.000Z</time>
      </trkpt>
      <trkpt lat="43.37233" lon="-1.68106">
        <ele>19</ele>
        <time>2026-03-09T19:14:20.000Z</time>
      </trkpt>
      <trkpt lat="43.37234" lon="-1.68105">
        <ele>19</ele>
        <time>2026-03-09T19:14:20.000Z</time>
      </trkpt>
      <trkpt lat="43.37234" lon="-1.68104">
        <ele>19</ele>
        <time>2026-03-09T19:14:20.000Z</time>
      </trkpt>
      <trkpt lat="43.37235" lon="-1.68104">
        <ele>19</ele>
        <time>2026-03-09T19:14:20.000Z</time>
      </trkpt>
      <trkpt lat="43.37236" lon="-1.68104">
        <ele>19</ele>
        <time>2026-03-09T19:14:20.000Z</time>
      </trkpt>
      <trkpt lat="43.37237" lon="-1.68103">
        <ele>19</ele>
        <time>2026-03-09T19:14:20.000Z</time>
      </trkpt>
      <trkpt lat="43.37238" lon="-1.68103">
        <ele>19</ele>
        <time>2026-03-09T19:14:21.000Z</time>
      </trkpt>
      <trkpt lat="43.37239" lon="-1.68103">
        <ele>19</ele>
        <time>2026-03-09T19:14:21.000Z</time>
      </trkpt>
      <trkpt lat="43.3724" lon="-1.68103">
        <ele>19</ele>
        <time>2026-03-09T19:14:21.000Z</time>
      </trkpt>
      <trkpt lat="43.37241" lon="-1.68103">
        <ele>19</ele>
        <time>2026-03-09T19:14:21.000Z</time>
      </trkpt>
      <trkpt lat="43.37242" lon="-1.68103">
        <ele>19</ele>
        <time>2026-03-09T19:14:21.000Z</time>
      </trkpt>
      <trkpt lat="43.37251" lon="-1.68087">
        <ele>19</ele>
        <time>2026-03-09T19:14:24.000Z</time>
      </trkpt>
      <trkpt lat="43.37265" lon="-1.68066">
        <ele>18</ele>
        <time>2026-03-09T19:14:28.000Z</time>
      </trkpt>
      <trkpt lat="43.37265" lon="-1.68065">
        <ele>18</ele>
        <time>2026-03-09T19:14:28.000Z</time>
      </trkpt>
      <trkpt lat="43.37276" lon="-1.68053">
        <ele>18</ele>
        <time>2026-03-09T19:14:30.000Z</time>
      </trkpt>
      <trkpt lat="43.37284" lon="-1.68045">
        <ele>18</ele>
        <time>2026-03-09T19:14:32.000Z</time>
      </trkpt>
      <trkpt lat="43.37291" lon="-1.68038">
        <ele>18</ele>
        <time>2026-03-09T19:14:34.000Z</time>
      </trkpt>
      <trkpt lat="43.37297" lon="-1.68032">
        <ele>18</ele>
        <time>2026-03-09T19:14:35.000Z</time>
      </trkpt>
      <trkpt lat="43.37303" lon="-1.68025">
        <ele>19</ele>
        <time>2026-03-09T19:14:36.000Z</time>
      </trkpt>
      <trkpt lat="43.37305" lon="-1.68023">
        <ele>19</ele>
        <time>2026-03-09T19:14:37.000Z</time>
      </trkpt>
      <trkpt lat="43.37306" lon="-1.68022">
        <ele>19</ele>
        <time>2026-03-09T19:14:37.000Z</time>
      </trkpt>
      <trkpt lat="43.37311" lon="-1.68018">
        <ele>19</ele>
        <time>2026-03-09T19:14:38.000Z</time>
      </trkpt>
      <trkpt lat="43.37314" lon="-1.68015">
        <ele>19</ele>
        <time>2026-03-09T19:14:39.000Z</time>
      </trkpt>
      <trkpt lat="43.37352" lon="-1.67979">
        <ele>21</ele>
        <time>2026-03-09T19:14:47.000Z</time>
      </trkpt>
      <trkpt lat="43.37356" lon="-1.67975">
        <ele>22</ele>
        <time>2026-03-09T19:14:48.000Z</time>
      </trkpt>
      <trkpt lat="43.37369" lon="-1.67962">
        <ele>22</ele>
        <time>2026-03-09T19:14:51.000Z</time>
      </trkpt>
      <trkpt lat="43.37374" lon="-1.67958">
        <ele>22</ele>
        <time>2026-03-09T19:14:52.000Z</time>
      </trkpt>
      <trkpt lat="43.37382" lon="-1.6795">
        <ele>23</ele>
        <time>2026-03-09T19:14:53.000Z</time>
      </trkpt>
      <trkpt lat="43.37387" lon="-1.67945">
        <ele>23</ele>
        <time>2026-03-09T19:14:54.000Z</time>
      </trkpt>
      <trkpt lat="43.37401" lon="-1.67932">
        <ele>23</ele>
        <time>2026-03-09T19:14:57.000Z</time>
      </trkpt>
      <trkpt lat="43.37414" lon="-1.67919">
        <ele>23</ele>
        <time>2026-03-09T19:15:00.000Z</time>
      </trkpt>
      <trkpt lat="43.3742" lon="-1.67913">
        <ele>23</ele>
        <time>2026-03-09T19:15:02.000Z</time>
      </trkpt>
      <trkpt lat="43.37444" lon="-1.67891">
        <ele>24</ele>
        <time>2026-03-09T19:15:07.000Z</time>
      </trkpt>
      <trkpt lat="43.37461" lon="-1.67874">
        <ele>24</ele>
        <time>2026-03-09T19:15:11.000Z</time>
      </trkpt>
      <trkpt lat="43.37471" lon="-1.67863">
        <ele>25</ele>
        <time>2026-03-09T19:15:13.000Z</time>
      </trkpt>
      <trkpt lat="43.37481" lon="-1.6785">
        <ele>25</ele>
        <time>2026-03-09T19:15:15.000Z</time>
      </trkpt>
      <trkpt lat="43.37496" lon="-1.67828">
        <ele>25</ele>
        <time>2026-03-09T19:15:19.000Z</time>
      </trkpt>
      <trkpt lat="43.37497" lon="-1.67826">
        <ele>25</ele>
        <time>2026-03-09T19:15:19.000Z</time>
      </trkpt>
      <trkpt lat="43.3751" lon="-1.67809">
        <ele>26</ele>
        <time>2026-03-09T19:15:23.000Z</time>
      </trkpt>
      <trkpt lat="43.37522" lon="-1.67793">
        <ele>27</ele>
        <time>2026-03-09T19:15:26.000Z</time>
      </trkpt>
      <trkpt lat="43.37551" lon="-1.67754">
        <ele>29</ele>
        <time>2026-03-09T19:15:33.000Z</time>
      </trkpt>
      <trkpt lat="43.37555" lon="-1.67748">
        <ele>29</ele>
        <time>2026-03-09T19:15:34.000Z</time>
      </trkpt>
      <trkpt lat="43.3756" lon="-1.67742">
        <ele>29</ele>
        <time>2026-03-09T19:15:35.000Z</time>
      </trkpt>
      <trkpt lat="43.37567" lon="-1.67734">
        <ele>30</ele>
        <time>2026-03-09T19:15:37.000Z</time>
      </trkpt>
      <trkpt lat="43.37576" lon="-1.67721">
        <ele>30</ele>
        <time>2026-03-09T19:15:39.000Z</time>
      </trkpt>
      <trkpt lat="43.37576" lon="-1.6772">
        <ele>30</ele>
        <time>2026-03-09T19:15:39.000Z</time>
      </trkpt>
      <trkpt lat="43.37579" lon="-1.67717">
        <ele>30</ele>
        <time>2026-03-09T19:15:40.000Z</time>
      </trkpt>
      <trkpt lat="43.37587" lon="-1.67703">
        <ele>31</ele>
        <time>2026-03-09T19:15:42.000Z</time>
      </trkpt>
      <trkpt lat="43.3759" lon="-1.67698">
        <ele>31</ele>
        <time>2026-03-09T19:15:43.000Z</time>
      </trkpt>
      <trkpt lat="43.37595" lon="-1.67685">
        <ele>32</ele>
        <time>2026-03-09T19:15:45.000Z</time>
      </trkpt>
      <trkpt lat="43.37598" lon="-1.67675">
        <ele>32</ele>
        <time>2026-03-09T19:15:46.000Z</time>
      </trkpt>
      <trkpt lat="43.37602" lon="-1.67661">
        <ele>33</ele>
        <time>2026-03-09T19:15:48.000Z</time>
      </trkpt>
      <trkpt lat="43.37606" lon="-1.67646">
        <ele>33</ele>
        <time>2026-03-09T19:15:50.000Z</time>
      </trkpt>
      <trkpt lat="43.37612" lon="-1.67625">
        <ele>32</ele>
        <time>2026-03-09T19:15:53.000Z</time>
      </trkpt>
      <trkpt lat="43.37619" lon="-1.67599">
        <ele>32</ele>
        <time>2026-03-09T19:15:57.000Z</time>
      </trkpt>
      <trkpt lat="43.37636" lon="-1.67559">
        <ele>30</ele>
        <time>2026-03-09T19:16:03.000Z</time>
      </trkpt>
      <trkpt lat="43.37638" lon="-1.67555">
        <ele>29</ele>
        <time>2026-03-09T19:16:03.000Z</time>
      </trkpt>
      <trkpt lat="43.37648" lon="-1.67538">
        <ele>28</ele>
        <time>2026-03-09T19:16:06.000Z</time>
      </trkpt>
      <trkpt lat="43.37674" lon="-1.67496">
        <ele>23</ele>
        <time>2026-03-09T19:16:13.000Z</time>
      </trkpt>
      <trkpt lat="43.37714" lon="-1.6743">
        <ele>20</ele>
        <time>2026-03-09T19:16:24.000Z</time>
      </trkpt>
      <trkpt lat="43.3774" lon="-1.67389">
        <ele>18</ele>
        <time>2026-03-09T19:16:31.000Z</time>
      </trkpt>
      <trkpt lat="43.37748" lon="-1.67375">
        <ele>18</ele>
        <time>2026-03-09T19:16:34.000Z</time>
      </trkpt>
      <trkpt lat="43.3775" lon="-1.67371">
        <ele>17</ele>
        <time>2026-03-09T19:16:34.000Z</time>
      </trkpt>
      <trkpt lat="43.37753" lon="-1.67363">
        <ele>17</ele>
        <time>2026-03-09T19:16:36.000Z</time>
      </trkpt>
      <trkpt lat="43.37758" lon="-1.67352">
        <ele>16</ele>
        <time>2026-03-09T19:16:37.000Z</time>
      </trkpt>
      <trkpt lat="43.37761" lon="-1.67342">
        <ele>16</ele>
        <time>2026-03-09T19:16:39.000Z</time>
      </trkpt>
      <trkpt lat="43.37766" lon="-1.67336">
        <ele>15</ele>
        <time>2026-03-09T19:16:40.000Z</time>
      </trkpt>
      <trkpt lat="43.37783" lon="-1.67275">
        <ele>14</ele>
        <time>2026-03-09T19:16:48.000Z</time>
      </trkpt>
      <trkpt lat="43.37793" lon="-1.67241">
        <ele>13</ele>
        <time>2026-03-09T19:16:53.000Z</time>
      </trkpt>
      <trkpt lat="43.37814" lon="-1.67169">
        <ele>13</ele>
        <time>2026-03-09T19:17:03.000Z</time>
      </trkpt>
      <trkpt lat="43.37823" lon="-1.67136">
        <ele>11</ele>
        <time>2026-03-09T19:17:08.000Z</time>
      </trkpt>
      <trkpt lat="43.37826" lon="-1.67127">
        <ele>10</ele>
        <time>2026-03-09T19:17:09.000Z</time>
      </trkpt>
      <trkpt lat="43.37828" lon="-1.67119">
        <ele>10</ele>
        <time>2026-03-09T19:17:10.000Z</time>
      </trkpt>
      <trkpt lat="43.37832" lon="-1.67109">
        <ele>9</ele>
        <time>2026-03-09T19:17:11.000Z</time>
      </trkpt>
      <trkpt lat="43.37837" lon="-1.67099">
        <ele>8</ele>
        <time>2026-03-09T19:17:13.000Z</time>
      </trkpt>
      <trkpt lat="43.37843" lon="-1.67089">
        <ele>8</ele>
        <time>2026-03-09T19:17:15.000Z</time>
      </trkpt>
      <trkpt lat="43.37849" lon="-1.6708">
        <ele>8</ele>
        <time>2026-03-09T19:17:16.000Z</time>
      </trkpt>
      <trkpt lat="43.3786" lon="-1.67066">
        <ele>9</ele>
        <time>2026-03-09T19:17:19.000Z</time>
      </trkpt>
      <trkpt lat="43.37874" lon="-1.67046">
        <ele>9</ele>
        <time>2026-03-09T19:17:23.000Z</time>
      </trkpt>
      <trkpt lat="43.37904" lon="-1.67008">
        <ele>9</ele>
        <time>2026-03-09T19:17:30.000Z</time>
      </trkpt>
      <trkpt lat="43.37936" lon="-1.66968">
        <ele>9</ele>
        <time>2026-03-09T19:17:38.000Z</time>
      </trkpt>
      <trkpt lat="43.37955" lon="-1.66946">
        <ele>9</ele>
        <time>2026-03-09T19:17:42.000Z</time>
      </trkpt>
      <trkpt lat="43.37973" lon="-1.66927">
        <ele>9</ele>
        <time>2026-03-09T19:17:46.000Z</time>
      </trkpt>
      <trkpt lat="43.37994" lon="-1.66909">
        <ele>9</ele>
        <time>2026-03-09T19:17:50.000Z</time>
      </trkpt>
      <trkpt lat="43.38017" lon="-1.6689">
        <ele>9</ele>
        <time>2026-03-09T19:17:55.000Z</time>
      </trkpt>
      <trkpt lat="43.38041" lon="-1.66869">
        <ele>10</ele>
        <time>2026-03-09T19:18:00.000Z</time>
      </trkpt>
      <trkpt lat="43.3806" lon="-1.66851">
        <ele>9</ele>
        <time>2026-03-09T19:18:04.000Z</time>
      </trkpt>
      <trkpt lat="43.38072" lon="-1.66841">
        <ele>9</ele>
        <time>2026-03-09T19:18:07.000Z</time>
      </trkpt>
      <trkpt lat="43.38084" lon="-1.66831">
        <ele>9</ele>
        <time>2026-03-09T19:18:09.000Z</time>
      </trkpt>
      <trkpt lat="43.38103" lon="-1.66814">
        <ele>9</ele>
        <time>2026-03-09T19:18:13.000Z</time>
      </trkpt>
      <trkpt lat="43.38104" lon="-1.66813">
        <ele>9</ele>
        <time>2026-03-09T19:18:14.000Z</time>
      </trkpt>
      <trkpt lat="43.38114" lon="-1.66805">
        <ele>9</ele>
        <time>2026-03-09T19:18:16.000Z</time>
      </trkpt>
      <trkpt lat="43.38121" lon="-1.668">
        <ele>9</ele>
        <time>2026-03-09T19:18:17.000Z</time>
      </trkpt>
      <trkpt lat="43.38139" lon="-1.66787">
        <ele>8</ele>
        <time>2026-03-09T19:18:21.000Z</time>
      </trkpt>
      <trkpt lat="43.38171" lon="-1.66767">
        <ele>7</ele>
        <time>2026-03-09T19:18:27.000Z</time>
      </trkpt>
      <trkpt lat="43.3821" lon="-1.66744">
        <ele>7</ele>
        <time>2026-03-09T19:18:34.000Z</time>
      </trkpt>
      <trkpt lat="43.38215" lon="-1.66741">
        <ele>7</ele>
        <time>2026-03-09T19:18:35.000Z</time>
      </trkpt>
      <trkpt lat="43.38236" lon="-1.66729">
        <ele>7</ele>
        <time>2026-03-09T19:18:39.000Z</time>
      </trkpt>
      <trkpt lat="43.38261" lon="-1.66713">
        <ele>7</ele>
        <time>2026-03-09T19:18:44.000Z</time>
      </trkpt>
      <trkpt lat="43.38281" lon="-1.66699">
        <ele>6</ele>
        <time>2026-03-09T19:18:48.000Z</time>
      </trkpt>
      <trkpt lat="43.38285" lon="-1.66697">
        <ele>6</ele>
        <time>2026-03-09T19:18:49.000Z</time>
      </trkpt>
      <trkpt lat="43.38285" lon="-1.66696">
        <ele>6</ele>
        <time>2026-03-09T19:18:49.000Z</time>
      </trkpt>
      <trkpt lat="43.3829" lon="-1.66692">
        <ele>6</ele>
        <time>2026-03-09T19:18:50.000Z</time>
      </trkpt>
      <trkpt lat="43.38313" lon="-1.66675">
        <ele>5</ele>
        <time>2026-03-09T19:18:55.000Z</time>
      </trkpt>
      <trkpt lat="43.38318" lon="-1.66672">
        <ele>5</ele>
        <time>2026-03-09T19:18:56.000Z</time>
      </trkpt>
      <trkpt lat="43.38324" lon="-1.66667">
        <ele>5</ele>
        <time>2026-03-09T19:18:57.000Z</time>
      </trkpt>
      <trkpt lat="43.38346" lon="-1.6665">
        <ele>5</ele>
        <time>2026-03-09T19:19:02.000Z</time>
      </trkpt>
      <trkpt lat="43.38365" lon="-1.66634">
        <ele>5</ele>
        <time>2026-03-09T19:19:06.000Z</time>
      </trkpt>
      <trkpt lat="43.38375" lon="-1.66625">
        <ele>5</ele>
        <time>2026-03-09T19:19:08.000Z</time>
      </trkpt>
      <trkpt lat="43.38388" lon="-1.66612">
        <ele>5</ele>
        <time>2026-03-09T19:19:11.000Z</time>
      </trkpt>
      <trkpt lat="43.38399" lon="-1.66598">
        <ele>4</ele>
        <time>2026-03-09T19:19:13.000Z</time>
      </trkpt>
      <trkpt lat="43.38407" lon="-1.66587">
        <ele>4</ele>
        <time>2026-03-09T19:19:15.000Z</time>
      </trkpt>
      <trkpt lat="43.38412" lon="-1.66578">
        <ele>4</ele>
        <time>2026-03-09T19:19:17.000Z</time>
      </trkpt>
      <trkpt lat="43.38417" lon="-1.66569">
        <ele>4</ele>
        <time>2026-03-09T19:19:18.000Z</time>
      </trkpt>
      <trkpt lat="43.38427" lon="-1.6655">
        <ele>4</ele>
        <time>2026-03-09T19:19:21.000Z</time>
      </trkpt>
      <trkpt lat="43.38441" lon="-1.6652">
        <ele>5</ele>
        <time>2026-03-09T19:19:26.000Z</time>
      </trkpt>
      <trkpt lat="43.38456" lon="-1.66487">
        <ele>6</ele>
        <time>2026-03-09T19:19:31.000Z</time>
      </trkpt>
      <trkpt lat="43.38471" lon="-1.66455">
        <ele>6</ele>
        <time>2026-03-09T19:19:36.000Z</time>
      </trkpt>
      <trkpt lat="43.38482" lon="-1.66433">
        <ele>6</ele>
        <time>2026-03-09T19:19:39.000Z</time>
      </trkpt>
      <trkpt lat="43.3849" lon="-1.66415">
        <ele>5</ele>
        <time>2026-03-09T19:19:42.000Z</time>
      </trkpt>
      <trkpt lat="43.38498" lon="-1.66399">
        <ele>5</ele>
        <time>2026-03-09T19:19:44.000Z</time>
      </trkpt>
      <trkpt lat="43.38504" lon="-1.66385">
        <ele>4</ele>
        <time>2026-03-09T19:19:47.000Z</time>
      </trkpt>
      <trkpt lat="43.38507" lon="-1.66376">
        <ele>4</ele>
        <time>2026-03-09T19:19:48.000Z</time>
      </trkpt>
      <trkpt lat="43.3851" lon="-1.6637">
        <ele>3</ele>
        <time>2026-03-09T19:19:49.000Z</time>
      </trkpt>
      <trkpt lat="43.38515" lon="-1.66356">
        <ele>3</ele>
        <time>2026-03-09T19:19:51.000Z</time>
      </trkpt>
      <trkpt lat="43.38522" lon="-1.6634">
        <ele>2</ele>
        <time>2026-03-09T19:19:53.000Z</time>
      </trkpt>
      <trkpt lat="43.38524" lon="-1.66336">
        <ele>2</ele>
        <time>2026-03-09T19:19:54.000Z</time>
      </trkpt>
      <trkpt lat="43.38549" lon="-1.66275">
        <ele>3</ele>
        <time>2026-03-09T19:20:03.000Z</time>
      </trkpt>
      <trkpt lat="43.38551" lon="-1.66269">
        <ele>3</ele>
        <time>2026-03-09T19:20:04.000Z</time>
      </trkpt>
      <trkpt lat="43.38553" lon="-1.66264">
        <ele>3</ele>
        <time>2026-03-09T19:20:05.000Z</time>
      </trkpt>
      <trkpt lat="43.38554" lon="-1.66263">
        <ele>3</ele>
        <time>2026-03-09T19:20:05.000Z</time>
      </trkpt>
      <trkpt lat="43.38556" lon="-1.66259">
        <ele>3</ele>
        <time>2026-03-09T19:20:05.000Z</time>
      </trkpt>
      <trkpt lat="43.38557" lon="-1.66251">
        <ele>3</ele>
        <time>2026-03-09T19:20:06.000Z</time>
      </trkpt>
      <trkpt lat="43.38559" lon="-1.66243">
        <ele>3</ele>
        <time>2026-03-09T19:20:07.000Z</time>
      </trkpt>
      <trkpt lat="43.38561" lon="-1.66237">
        <ele>3</ele>
        <time>2026-03-09T19:20:08.000Z</time>
      </trkpt>
      <trkpt lat="43.38563" lon="-1.66232">
        <ele>3</ele>
        <time>2026-03-09T19:20:09.000Z</time>
      </trkpt>
      <trkpt lat="43.38566" lon="-1.66227">
        <ele>3</ele>
        <time>2026-03-09T19:20:10.000Z</time>
      </trkpt>
      <trkpt lat="43.38569" lon="-1.66221">
        <ele>4</ele>
        <time>2026-03-09T19:20:11.000Z</time>
      </trkpt>
      <trkpt lat="43.38573" lon="-1.66214">
        <ele>4</ele>
        <time>2026-03-09T19:20:12.000Z</time>
      </trkpt>
      <trkpt lat="43.38579" lon="-1.66206">
        <ele>4</ele>
        <time>2026-03-09T19:20:14.000Z</time>
      </trkpt>
      <trkpt lat="43.38591" lon="-1.66192">
        <ele>4</ele>
        <time>2026-03-09T19:20:16.000Z</time>
      </trkpt>
      <trkpt lat="43.38591" lon="-1.66192">
        <ele>4</ele>
        <time>2026-03-09T19:20:16.000Z</time>
      </trkpt>
      <trkpt lat="43.38591" lon="-1.66189">
        <ele>4</ele>
        <time>2026-03-09T19:20:17.000Z</time>
      </trkpt>
      <trkpt lat="43.38592" lon="-1.66187">
        <ele>4</ele>
        <time>2026-03-09T19:20:17.000Z</time>
      </trkpt>
      <trkpt lat="43.38592" lon="-1.66185">
        <ele>4</ele>
        <time>2026-03-09T19:20:17.000Z</time>
      </trkpt>
      <trkpt lat="43.38592" lon="-1.66183">
        <ele>4</ele>
        <time>2026-03-09T19:20:18.000Z</time>
      </trkpt>
      <trkpt lat="43.38593" lon="-1.66181">
        <ele>4</ele>
        <time>2026-03-09T19:20:18.000Z</time>
      </trkpt>
      <trkpt lat="43.38593" lon="-1.66179">
        <ele>4</ele>
        <time>2026-03-09T19:20:18.000Z</time>
      </trkpt>
      <trkpt lat="43.38594" lon="-1.66177">
        <ele>4</ele>
        <time>2026-03-09T19:20:18.000Z</time>
      </trkpt>
      <trkpt lat="43.38595" lon="-1.66176">
        <ele>5</ele>
        <time>2026-03-09T19:20:19.000Z</time>
      </trkpt>
      <trkpt lat="43.38596" lon="-1.66174">
        <ele>5</ele>
        <time>2026-03-09T19:20:19.000Z</time>
      </trkpt>
      <trkpt lat="43.38597" lon="-1.66173">
        <ele>5</ele>
        <time>2026-03-09T19:20:19.000Z</time>
      </trkpt>
      <trkpt lat="43.38598" lon="-1.66172">
        <ele>5</ele>
        <time>2026-03-09T19:20:19.000Z</time>
      </trkpt>
      <trkpt lat="43.38599" lon="-1.6617">
        <ele>5</ele>
        <time>2026-03-09T19:20:20.000Z</time>
      </trkpt>
      <trkpt lat="43.386" lon="-1.66169">
        <ele>5</ele>
        <time>2026-03-09T19:20:20.000Z</time>
      </trkpt>
      <trkpt lat="43.38601" lon="-1.66168">
        <ele>5</ele>
        <time>2026-03-09T19:20:20.000Z</time>
      </trkpt>
      <trkpt lat="43.38603" lon="-1.66168">
        <ele>5</ele>
        <time>2026-03-09T19:20:20.000Z</time>
      </trkpt>
      <trkpt lat="43.38604" lon="-1.66167">
        <ele>5</ele>
        <time>2026-03-09T19:20:21.000Z</time>
      </trkpt>
      <trkpt lat="43.38605" lon="-1.66166">
        <ele>5</ele>
        <time>2026-03-09T19:20:21.000Z</time>
      </trkpt>
      <trkpt lat="43.38607" lon="-1.66166">
        <ele>5</ele>
        <time>2026-03-09T19:20:21.000Z</time>
      </trkpt>
      <trkpt lat="43.38608" lon="-1.66166">
        <ele>5</ele>
        <time>2026-03-09T19:20:21.000Z</time>
      </trkpt>
      <trkpt lat="43.38609" lon="-1.66166">
        <ele>6</ele>
        <time>2026-03-09T19:20:22.000Z</time>
      </trkpt>
      <trkpt lat="43.38611" lon="-1.66166">
        <ele>6</ele>
        <time>2026-03-09T19:20:22.000Z</time>
      </trkpt>
      <trkpt lat="43.38612" lon="-1.66166">
        <ele>6</ele>
        <time>2026-03-09T19:20:22.000Z</time>
      </trkpt>
      <trkpt lat="43.38614" lon="-1.66166">
        <ele>6</ele>
        <time>2026-03-09T19:20:23.000Z</time>
      </trkpt>
      <trkpt lat="43.38615" lon="-1.66167">
        <ele>6</ele>
        <time>2026-03-09T19:20:23.000Z</time>
      </trkpt>
      <trkpt lat="43.38616" lon="-1.66167">
        <ele>6</ele>
        <time>2026-03-09T19:20:23.000Z</time>
      </trkpt>
      <trkpt lat="43.38618" lon="-1.66168">
        <ele>6</ele>
        <time>2026-03-09T19:20:23.000Z</time>
      </trkpt>
      <trkpt lat="43.38619" lon="-1.66169">
        <ele>6</ele>
        <time>2026-03-09T19:20:24.000Z</time>
      </trkpt>
      <trkpt lat="43.3862" lon="-1.6617">
        <ele>6</ele>
        <time>2026-03-09T19:20:24.000Z</time>
      </trkpt>
      <trkpt lat="43.38622" lon="-1.66172">
        <ele>6</ele>
        <time>2026-03-09T19:20:24.000Z</time>
      </trkpt>
      <trkpt lat="43.38623" lon="-1.66173">
        <ele>6</ele>
        <time>2026-03-09T19:20:24.000Z</time>
      </trkpt>
      <trkpt lat="43.38624" lon="-1.66174">
        <ele>6</ele>
        <time>2026-03-09T19:20:25.000Z</time>
      </trkpt>
      <trkpt lat="43.38625" lon="-1.66176">
        <ele>6</ele>
        <time>2026-03-09T19:20:25.000Z</time>
      </trkpt>
      <trkpt lat="43.38625" lon="-1.66178">
        <ele>6</ele>
        <time>2026-03-09T19:20:25.000Z</time>
      </trkpt>
      <trkpt lat="43.38626" lon="-1.6618">
        <ele>6</ele>
        <time>2026-03-09T19:20:26.000Z</time>
      </trkpt>
      <trkpt lat="43.38627" lon="-1.66181">
        <ele>6</ele>
        <time>2026-03-09T19:20:26.000Z</time>
      </trkpt>
      <trkpt lat="43.38627" lon="-1.66183">
        <ele>6</ele>
        <time>2026-03-09T19:20:26.000Z</time>
      </trkpt>
      <trkpt lat="43.38628" lon="-1.66185">
        <ele>6</ele>
        <time>2026-03-09T19:20:26.000Z</time>
      </trkpt>
      <trkpt lat="43.38628" lon="-1.66187">
        <ele>6</ele>
        <time>2026-03-09T19:20:27.000Z</time>
      </trkpt>
      <trkpt lat="43.38628" lon="-1.66189">
        <ele>6</ele>
        <time>2026-03-09T19:20:27.000Z</time>
      </trkpt>
      <trkpt lat="43.38628" lon="-1.6619">
        <ele>6</ele>
        <time>2026-03-09T19:20:27.000Z</time>
      </trkpt>
      <trkpt lat="43.38628" lon="-1.66191">
        <ele>6</ele>
        <time>2026-03-09T19:20:27.000Z</time>
      </trkpt>
      <trkpt lat="43.38628" lon="-1.66192">
        <ele>6</ele>
        <time>2026-03-09T19:20:27.000Z</time>
      </trkpt>
      <trkpt lat="43.38628" lon="-1.66193">
        <ele>6</ele>
        <time>2026-03-09T19:20:27.000Z</time>
      </trkpt>
      <trkpt lat="43.38628" lon="-1.66194">
        <ele>6</ele>
        <time>2026-03-09T19:20:27.000Z</time>
      </trkpt>
      <trkpt lat="43.38628" lon="-1.66195">
        <ele>6</ele>
        <time>2026-03-09T19:20:28.000Z</time>
      </trkpt>
      <trkpt lat="43.38633" lon="-1.66201">
        <ele>6</ele>
        <time>2026-03-09T19:20:29.000Z</time>
      </trkpt>
      <trkpt lat="43.38635" lon="-1.66204">
        <ele>6</ele>
        <time>2026-03-09T19:20:29.000Z</time>
      </trkpt>
      <trkpt lat="43.38637" lon="-1.66209">
        <ele>5</ele>
        <time>2026-03-09T19:20:30.000Z</time>
      </trkpt>
      <trkpt lat="43.38641" lon="-1.6622">
        <ele>5</ele>
        <time>2026-03-09T19:20:32.000Z</time>
      </trkpt>
      <trkpt lat="43.38646" lon="-1.66236">
        <ele>4</ele>
        <time>2026-03-09T19:20:34.000Z</time>
      </trkpt>
      <trkpt lat="43.3865" lon="-1.66255">
        <ele>4</ele>
        <time>2026-03-09T19:20:36.000Z</time>
      </trkpt>
      <trkpt lat="43.3866" lon="-1.66287">
        <ele>2</ele>
        <time>2026-03-09T19:20:41.000Z</time>
      </trkpt>
      <trkpt lat="43.38669" lon="-1.66299">
        <ele>2</ele>
        <time>2026-03-09T19:20:43.000Z</time>
      </trkpt>
      <trkpt lat="43.38674" lon="-1.66306">
        <ele>2</ele>
        <time>2026-03-09T19:20:44.000Z</time>
      </trkpt>
      <trkpt lat="43.38674" lon="-1.66306">
        <ele>2</ele>
        <time>2026-03-09T19:20:44.000Z</time>
      </trkpt>
      <trkpt lat="43.38675" lon="-1.66305">
        <ele>2</ele>
        <time>2026-03-09T19:20:45.000Z</time>
      </trkpt>
      <trkpt lat="43.38676" lon="-1.66305">
        <ele>2</ele>
        <time>2026-03-09T19:20:45.000Z</time>
      </trkpt>
      <trkpt lat="43.38677" lon="-1.66304">
        <ele>2</ele>
        <time>2026-03-09T19:20:45.000Z</time>
      </trkpt>
      <trkpt lat="43.38678" lon="-1.66304">
        <ele>2</ele>
        <time>2026-03-09T19:20:45.000Z</time>
      </trkpt>
      <trkpt lat="43.38679" lon="-1.66304">
        <ele>2</ele>
        <time>2026-03-09T19:20:45.000Z</time>
      </trkpt>
      <trkpt lat="43.3868" lon="-1.66304">
        <ele>2</ele>
        <time>2026-03-09T19:20:46.000Z</time>
      </trkpt>
      <trkpt lat="43.38681" lon="-1.66304">
        <ele>2</ele>
        <time>2026-03-09T19:20:46.000Z</time>
      </trkpt>
      <trkpt lat="43.38682" lon="-1.66305">
        <ele>2</ele>
        <time>2026-03-09T19:20:46.000Z</time>
      </trkpt>
      <trkpt lat="43.38683" lon="-1.66305">
        <ele>2</ele>
        <time>2026-03-09T19:20:46.000Z</time>
      </trkpt>
      <trkpt lat="43.38684" lon="-1.66305">
        <ele>2</ele>
        <time>2026-03-09T19:20:46.000Z</time>
      </trkpt>
      <trkpt lat="43.38685" lon="-1.66305">
        <ele>2</ele>
        <time>2026-03-09T19:20:47.000Z</time>
      </trkpt>
      <trkpt lat="43.38685" lon="-1.66306">
        <ele>2</ele>
        <time>2026-03-09T19:20:47.000Z</time>
      </trkpt>
      <trkpt lat="43.38686" lon="-1.66306">
        <ele>2</ele>
        <time>2026-03-09T19:20:47.000Z</time>
      </trkpt>
      <trkpt lat="43.38686" lon="-1.66307">
        <ele>2</ele>
        <time>2026-03-09T19:20:47.000Z</time>
      </trkpt>
      <trkpt lat="43.38687" lon="-1.66307">
        <ele>2</ele>
        <time>2026-03-09T19:20:47.000Z</time>
      </trkpt>
      <trkpt lat="43.38687" lon="-1.66308">
        <ele>2</ele>
        <time>2026-03-09T19:20:47.000Z</time>
      </trkpt>
      <trkpt lat="43.38688" lon="-1.66308">
        <ele>2</ele>
        <time>2026-03-09T19:20:47.000Z</time>
      </trkpt>
      <trkpt lat="43.38688" lon="-1.66309">
        <ele>2</ele>
        <time>2026-03-09T19:20:48.000Z</time>
      </trkpt>
      <trkpt lat="43.38689" lon="-1.6631">
        <ele>2</ele>
        <time>2026-03-09T19:20:48.000Z</time>
      </trkpt>
      <trkpt lat="43.38689" lon="-1.66311">
        <ele>2</ele>
        <time>2026-03-09T19:20:48.000Z</time>
      </trkpt>
      <trkpt lat="43.3869" lon="-1.66311">
        <ele>2</ele>
        <time>2026-03-09T19:20:48.000Z</time>
      </trkpt>
      <trkpt lat="43.3869" lon="-1.66312">
        <ele>2</ele>
        <time>2026-03-09T19:20:48.000Z</time>
      </trkpt>
      <trkpt lat="43.3869" lon="-1.66313">
        <ele>2</ele>
        <time>2026-03-09T19:20:48.000Z</time>
      </trkpt>
      <trkpt lat="43.3869" lon="-1.66314">
        <ele>2</ele>
        <time>2026-03-09T19:20:48.000Z</time>
      </trkpt>
      <trkpt lat="43.38691" lon="-1.66314">
        <ele>2</ele>
        <time>2026-03-09T19:20:49.000Z</time>
      </trkpt>
      <trkpt lat="43.38691" lon="-1.66315">
        <ele>2</ele>
        <time>2026-03-09T19:20:49.000Z</time>
      </trkpt>
      <trkpt lat="43.38691" lon="-1.66316">
        <ele>2</ele>
        <time>2026-03-09T19:20:49.000Z</time>
      </trkpt>
      <trkpt lat="43.38691" lon="-1.66317">
        <ele>2</ele>
        <time>2026-03-09T19:20:49.000Z</time>
      </trkpt>
      <trkpt lat="43.38691" lon="-1.66318">
        <ele>2</ele>
        <time>2026-03-09T19:20:49.000Z</time>
      </trkpt>
      <trkpt lat="43.38691" lon="-1.66319">
        <ele>2</ele>
        <time>2026-03-09T19:20:49.000Z</time>
      </trkpt>
      <trkpt lat="43.38691" lon="-1.6632">
        <ele>2</ele>
        <time>2026-03-09T19:20:49.000Z</time>
      </trkpt>
      <trkpt lat="43.38691" lon="-1.66321">
        <ele>2</ele>
        <time>2026-03-09T19:20:50.000Z</time>
      </trkpt>
      <trkpt lat="43.38691" lon="-1.66322">
        <ele>2</ele>
        <time>2026-03-09T19:20:50.000Z</time>
      </trkpt>
      <trkpt lat="43.3869" lon="-1.66323">
        <ele>2</ele>
        <time>2026-03-09T19:20:50.000Z</time>
      </trkpt>
      <trkpt lat="43.3869" lon="-1.66325">
        <ele>2</ele>
        <time>2026-03-09T19:20:50.000Z</time>
      </trkpt>
      <trkpt lat="43.3869" lon="-1.66326">
        <ele>2</ele>
        <time>2026-03-09T19:20:50.000Z</time>
      </trkpt>
      <trkpt lat="43.38689" lon="-1.66327">
        <ele>2</ele>
        <time>2026-03-09T19:20:51.000Z</time>
      </trkpt>
      <trkpt lat="43.38689" lon="-1.66328">
        <ele>2</ele>
        <time>2026-03-09T19:20:51.000Z</time>
      </trkpt>
      <trkpt lat="43.38688" lon="-1.66329">
        <ele>1</ele>
        <time>2026-03-09T19:20:51.000Z</time>
      </trkpt>
      <trkpt lat="43.38688" lon="-1.6633">
        <ele>1</ele>
        <time>2026-03-09T19:20:51.000Z</time>
      </trkpt>
      <trkpt lat="43.38687" lon="-1.66331">
        <ele>1</ele>
        <time>2026-03-09T19:20:51.000Z</time>
      </trkpt>
      <trkpt lat="43.38687" lon="-1.66332">
        <ele>1</ele>
        <time>2026-03-09T19:20:51.000Z</time>
      </trkpt>
      <trkpt lat="43.38686" lon="-1.66332">
        <ele>1</ele>
        <time>2026-03-09T19:20:52.000Z</time>
      </trkpt>
      <trkpt lat="43.38686" lon="-1.66333">
        <ele>1</ele>
        <time>2026-03-09T19:20:52.000Z</time>
      </trkpt>
      <trkpt lat="43.38685" lon="-1.66333">
        <ele>1</ele>
        <time>2026-03-09T19:20:52.000Z</time>
      </trkpt>
      <trkpt lat="43.38684" lon="-1.66334">
        <ele>1</ele>
        <time>2026-03-09T19:20:52.000Z</time>
      </trkpt>
      <trkpt lat="43.38683" lon="-1.66335">
        <ele>1</ele>
        <time>2026-03-09T19:20:52.000Z</time>
      </trkpt>
      <trkpt lat="43.38682" lon="-1.66335">
        <ele>1</ele>
        <time>2026-03-09T19:20:52.000Z</time>
      </trkpt>
      <trkpt lat="43.38681" lon="-1.66335">
        <ele>1</ele>
        <time>2026-03-09T19:20:53.000Z</time>
      </trkpt>
      <trkpt lat="43.3868" lon="-1.66336">
        <ele>1</ele>
        <time>2026-03-09T19:20:53.000Z</time>
      </trkpt>
      <trkpt lat="43.38679" lon="-1.66336">
        <ele>1</ele>
        <time>2026-03-09T19:20:53.000Z</time>
      </trkpt>
      <trkpt lat="43.38678" lon="-1.66335">
        <ele>1</ele>
        <time>2026-03-09T19:20:53.000Z</time>
      </trkpt>
      <trkpt lat="43.38677" lon="-1.66335">
        <ele>1</ele>
        <time>2026-03-09T19:20:53.000Z</time>
      </trkpt>
      <trkpt lat="43.38675" lon="-1.66335">
        <ele>4</ele>
        <time>2026-03-09T19:20:54.000Z</time>
      </trkpt>
      <trkpt lat="43.38675" lon="-1.66334">
        <ele>4</ele>
        <time>2026-03-09T19:20:54.000Z</time>
      </trkpt>
    </trkseg>
  </trk>
</gpx>